<?xml version="1.0" encoding="UTF-8" standalone="no" ?>
<gpx xmlns="http://www.topografix.com/GPX/1/1" xmlns:xsi="http://www.w3.org/2001/XMLSchema-instance" xsi:schemaLocation="http://www.topografix.com/GPX/1/1 http://www.topografix.com/GPX/1/1/gpx.xsd" version="1.1" creator="VisuGPX - https://www.visugpx.com">
  <metadata>
    <name>Pass Portes 2015</name>
    <desc><![CDATA[Tour VTT réalisé le 26 juin lors du PassPortes du Soleil 2015]]></desc>
  </metadata>
  <trk>
    <name><![CDATA[SatCount - 26/06/2015]]></name>
    <trkseg>
      <trkpt lat="46.21184" lon="6.79048">
        <ele>1906</ele>
        <time>2015-06-26T05:45:18Z</time>
      </trkpt>
      <trkpt lat="46.21196" lon="6.79033">
        <ele>1905</ele>
        <time>2015-06-26T05:45:22Z</time>
      </trkpt>
      <trkpt lat="46.21213" lon="6.79019">
        <ele>1904</ele>
        <time>2015-06-26T05:45:26Z</time>
      </trkpt>
      <trkpt lat="46.21228" lon="6.79014">
        <ele>1904</ele>
        <time>2015-06-26T05:45:30Z</time>
      </trkpt>
      <trkpt lat="46.21238" lon="6.79016">
        <ele>1905</ele>
        <time>2015-06-26T05:45:34Z</time>
      </trkpt>
      <trkpt lat="46.21249" lon="6.79008">
        <ele>1905</ele>
        <time>2015-06-26T05:45:38Z</time>
      </trkpt>
      <trkpt lat="46.21256" lon="6.79001">
        <ele>1900</ele>
        <time>2015-06-26T05:45:42Z</time>
      </trkpt>
      <trkpt lat="46.21259" lon="6.78994">
        <ele>1900</ele>
        <time>2015-06-26T05:45:46Z</time>
      </trkpt>
      <trkpt lat="46.21262" lon="6.78982">
        <ele>1897</ele>
        <time>2015-06-26T05:45:50Z</time>
      </trkpt>
      <trkpt lat="46.21265" lon="6.78969">
        <ele>1895</ele>
        <time>2015-06-26T05:45:54Z</time>
      </trkpt>
      <trkpt lat="46.21268" lon="6.78957">
        <ele>1895</ele>
        <time>2015-06-26T05:45:58Z</time>
      </trkpt>
      <trkpt lat="46.21272" lon="6.78943">
        <ele>1895</ele>
        <time>2015-06-26T05:46:02Z</time>
      </trkpt>
      <trkpt lat="46.21282" lon="6.78918">
        <ele>1894</ele>
        <time>2015-06-26T05:46:08Z</time>
      </trkpt>
      <trkpt lat="46.21292" lon="6.78894">
        <ele>1895</ele>
        <time>2015-06-26T05:46:12Z</time>
      </trkpt>
      <trkpt lat="46.21309" lon="6.78863">
        <ele>1895</ele>
        <time>2015-06-26T05:46:16Z</time>
      </trkpt>
      <trkpt lat="46.21328" lon="6.78836">
        <ele>1900</ele>
        <time>2015-06-26T05:46:20Z</time>
      </trkpt>
      <trkpt lat="46.21346" lon="6.78809">
        <ele>1892</ele>
        <time>2015-06-26T05:46:24Z</time>
      </trkpt>
      <trkpt lat="46.21364" lon="6.78776">
        <ele>1889</ele>
        <time>2015-06-26T05:46:28Z</time>
      </trkpt>
      <trkpt lat="46.21381" lon="6.78735">
        <ele>1889</ele>
        <time>2015-06-26T05:46:32Z</time>
      </trkpt>
      <trkpt lat="46.21401" lon="6.78693">
        <ele>1889</ele>
        <time>2015-06-26T05:46:36Z</time>
      </trkpt>
      <trkpt lat="46.21429" lon="6.78665">
        <ele>1888</ele>
        <time>2015-06-26T05:46:40Z</time>
      </trkpt>
      <trkpt lat="46.2146" lon="6.78627">
        <ele>1882</ele>
        <time>2015-06-26T05:46:44Z</time>
      </trkpt>
      <trkpt lat="46.21496" lon="6.78583">
        <ele>1884</ele>
        <time>2015-06-26T05:46:48Z</time>
      </trkpt>
      <trkpt lat="46.21523" lon="6.78564">
        <ele>1880</ele>
        <time>2015-06-26T05:46:52Z</time>
      </trkpt>
      <trkpt lat="46.21536" lon="6.78552">
        <ele>1879</ele>
        <time>2015-06-26T05:46:56Z</time>
      </trkpt>
      <trkpt lat="46.21548" lon="6.78536">
        <ele>1879</ele>
        <time>2015-06-26T05:47:02Z</time>
      </trkpt>
      <trkpt lat="46.21554" lon="6.78526">
        <ele>1880</ele>
        <time>2015-06-26T05:47:06Z</time>
      </trkpt>
      <trkpt lat="46.2156" lon="6.78513">
        <ele>1881</ele>
        <time>2015-06-26T05:47:10Z</time>
      </trkpt>
      <trkpt lat="46.21567" lon="6.78494">
        <ele>1884</ele>
        <time>2015-06-26T05:47:14Z</time>
      </trkpt>
      <trkpt lat="46.21579" lon="6.78471">
        <ele>1883</ele>
        <time>2015-06-26T05:47:18Z</time>
      </trkpt>
      <trkpt lat="46.21592" lon="6.78451">
        <ele>1884</ele>
        <time>2015-06-26T05:47:22Z</time>
      </trkpt>
      <trkpt lat="46.21606" lon="6.78426">
        <ele>1885</ele>
        <time>2015-06-26T05:47:26Z</time>
      </trkpt>
      <trkpt lat="46.21617" lon="6.78395">
        <ele>1892</ele>
        <time>2015-06-26T05:47:30Z</time>
      </trkpt>
      <trkpt lat="46.21624" lon="6.7836">
        <ele>1892</ele>
        <time>2015-06-26T05:47:34Z</time>
      </trkpt>
      <trkpt lat="46.21628" lon="6.78326">
        <ele>1894</ele>
        <time>2015-06-26T05:47:38Z</time>
      </trkpt>
      <trkpt lat="46.21629" lon="6.78293">
        <ele>1894</ele>
        <time>2015-06-26T05:47:42Z</time>
      </trkpt>
      <trkpt lat="46.2163" lon="6.7826">
        <ele>1895</ele>
        <time>2015-06-26T05:47:46Z</time>
      </trkpt>
      <trkpt lat="46.21629" lon="6.78225">
        <ele>1892</ele>
        <time>2015-06-26T05:47:50Z</time>
      </trkpt>
      <trkpt lat="46.21629" lon="6.78168">
        <ele>1891</ele>
        <time>2015-06-26T05:47:56Z</time>
      </trkpt>
      <trkpt lat="46.21628" lon="6.7814">
        <ele>1884</ele>
        <time>2015-06-26T05:48:00Z</time>
      </trkpt>
      <trkpt lat="46.21631" lon="6.78123">
        <ele>1884</ele>
        <time>2015-06-26T05:48:04Z</time>
      </trkpt>
      <trkpt lat="46.21635" lon="6.78114">
        <ele>1884</ele>
        <time>2015-06-26T05:48:08Z</time>
      </trkpt>
      <trkpt lat="46.2165" lon="6.78086">
        <ele>1889</ele>
        <time>2015-06-26T05:48:12Z</time>
      </trkpt>
      <trkpt lat="46.21663" lon="6.78058">
        <ele>1878</ele>
        <time>2015-06-26T05:48:16Z</time>
      </trkpt>
      <trkpt lat="46.21679" lon="6.78027">
        <ele>1892</ele>
        <time>2015-06-26T05:48:20Z</time>
      </trkpt>
      <trkpt lat="46.21693" lon="6.78005">
        <ele>1891</ele>
        <time>2015-06-26T05:48:24Z</time>
      </trkpt>
      <trkpt lat="46.21703" lon="6.77993">
        <ele>1878</ele>
        <time>2015-06-26T05:48:28Z</time>
      </trkpt>
      <trkpt lat="46.21722" lon="6.77979">
        <ele>1881</ele>
        <time>2015-06-26T05:48:32Z</time>
      </trkpt>
      <trkpt lat="46.21739" lon="6.77965">
        <ele>1881</ele>
        <time>2015-06-26T05:48:36Z</time>
      </trkpt>
      <trkpt lat="46.21759" lon="6.77944">
        <ele>1891</ele>
        <time>2015-06-26T05:48:40Z</time>
      </trkpt>
      <trkpt lat="46.21788" lon="6.77915">
        <ele>1874</ele>
        <time>2015-06-26T05:48:46Z</time>
      </trkpt>
      <trkpt lat="46.21808" lon="6.77897">
        <ele>1876</ele>
        <time>2015-06-26T05:48:50Z</time>
      </trkpt>
      <trkpt lat="46.21823" lon="6.7789">
        <ele>1876</ele>
        <time>2015-06-26T05:48:54Z</time>
      </trkpt>
      <trkpt lat="46.21838" lon="6.77871">
        <ele>1877</ele>
        <time>2015-06-26T05:48:58Z</time>
      </trkpt>
      <trkpt lat="46.21859" lon="6.77845">
        <ele>1873</ele>
        <time>2015-06-26T05:49:02Z</time>
      </trkpt>
      <trkpt lat="46.21884" lon="6.77829">
        <ele>1862</ele>
        <time>2015-06-26T05:49:06Z</time>
      </trkpt>
      <trkpt lat="46.21903" lon="6.77805">
        <ele>1862</ele>
        <time>2015-06-26T05:49:10Z</time>
      </trkpt>
      <trkpt lat="46.21913" lon="6.77791">
        <ele>1861</ele>
        <time>2015-06-26T05:49:14Z</time>
      </trkpt>
      <trkpt lat="46.21914" lon="6.77796">
        <ele>1861</ele>
        <time>2015-06-26T05:49:18Z</time>
      </trkpt>
      <trkpt lat="46.21909" lon="6.77816">
        <ele>1863</ele>
        <time>2015-06-26T05:49:22Z</time>
      </trkpt>
      <trkpt lat="46.21918" lon="6.77843">
        <ele>1861</ele>
        <time>2015-06-26T05:49:26Z</time>
      </trkpt>
      <trkpt lat="46.21925" lon="6.77872">
        <ele>1858</ele>
        <time>2015-06-26T05:49:30Z</time>
      </trkpt>
      <trkpt lat="46.21937" lon="6.77892">
        <ele>1859</ele>
        <time>2015-06-26T05:49:34Z</time>
      </trkpt>
      <trkpt lat="46.21945" lon="6.77892">
        <ele>1856</ele>
        <time>2015-06-26T05:49:40Z</time>
      </trkpt>
      <trkpt lat="46.2194" lon="6.77871">
        <ele>1855</ele>
        <time>2015-06-26T05:49:44Z</time>
      </trkpt>
      <trkpt lat="46.2195" lon="6.77879">
        <ele>1853</ele>
        <time>2015-06-26T05:49:48Z</time>
      </trkpt>
      <trkpt lat="46.21964" lon="6.77899">
        <ele>1850</ele>
        <time>2015-06-26T05:49:52Z</time>
      </trkpt>
      <trkpt lat="46.21975" lon="6.77923">
        <ele>1851</ele>
        <time>2015-06-26T05:49:56Z</time>
      </trkpt>
      <trkpt lat="46.21985" lon="6.77955">
        <ele>1852</ele>
        <time>2015-06-26T05:50:00Z</time>
      </trkpt>
      <trkpt lat="46.21989" lon="6.77981">
        <ele>1848</ele>
        <time>2015-06-26T05:50:04Z</time>
      </trkpt>
      <trkpt lat="46.21995" lon="6.77994">
        <ele>1841</ele>
        <time>2015-06-26T05:50:08Z</time>
      </trkpt>
      <trkpt lat="46.21997" lon="6.77969">
        <ele>1849</ele>
        <time>2015-06-26T05:50:12Z</time>
      </trkpt>
      <trkpt lat="46.21997" lon="6.77938">
        <ele>1846</ele>
        <time>2015-06-26T05:50:16Z</time>
      </trkpt>
      <trkpt lat="46.21988" lon="6.77904">
        <ele>1841</ele>
        <time>2015-06-26T05:50:20Z</time>
      </trkpt>
      <trkpt lat="46.21985" lon="6.77882">
        <ele>1844</ele>
        <time>2015-06-26T05:50:24Z</time>
      </trkpt>
      <trkpt lat="46.21997" lon="6.77888">
        <ele>1842</ele>
        <time>2015-06-26T05:50:28Z</time>
      </trkpt>
      <trkpt lat="46.22003" lon="6.77878">
        <ele>1816</ele>
        <time>2015-06-26T05:50:34Z</time>
      </trkpt>
      <trkpt lat="46.21994" lon="6.77852">
        <ele>1838</ele>
        <time>2015-06-26T05:50:38Z</time>
      </trkpt>
      <trkpt lat="46.22003" lon="6.77852">
        <ele>1817</ele>
        <time>2015-06-26T05:50:42Z</time>
      </trkpt>
      <trkpt lat="46.22022" lon="6.77866">
        <ele>1813</ele>
        <time>2015-06-26T05:50:46Z</time>
      </trkpt>
      <trkpt lat="46.22034" lon="6.77895">
        <ele>1812</ele>
        <time>2015-06-26T05:50:50Z</time>
      </trkpt>
      <trkpt lat="46.22049" lon="6.77928">
        <ele>1808</ele>
        <time>2015-06-26T05:50:54Z</time>
      </trkpt>
      <trkpt lat="46.22063" lon="6.77955">
        <ele>1805</ele>
        <time>2015-06-26T05:50:58Z</time>
      </trkpt>
      <trkpt lat="46.22056" lon="6.77991">
        <ele>1804</ele>
        <time>2015-06-26T05:51:02Z</time>
      </trkpt>
      <trkpt lat="46.22039" lon="6.78018">
        <ele>1807</ele>
        <time>2015-06-26T05:51:06Z</time>
      </trkpt>
      <trkpt lat="46.22036" lon="6.78041">
        <ele>1806</ele>
        <time>2015-06-26T05:51:10Z</time>
      </trkpt>
      <trkpt lat="46.22032" lon="6.78063">
        <ele>1807</ele>
        <time>2015-06-26T05:51:14Z</time>
      </trkpt>
      <trkpt lat="46.2203" lon="6.78088">
        <ele>1804</ele>
        <time>2015-06-26T05:51:18Z</time>
      </trkpt>
      <trkpt lat="46.22032" lon="6.78115">
        <ele>1801</ele>
        <time>2015-06-26T05:51:22Z</time>
      </trkpt>
      <trkpt lat="46.2204" lon="6.78152">
        <ele>1798</ele>
        <time>2015-06-26T05:51:28Z</time>
      </trkpt>
      <trkpt lat="46.22042" lon="6.78174">
        <ele>1795</ele>
        <time>2015-06-26T05:51:32Z</time>
      </trkpt>
      <trkpt lat="46.22042" lon="6.78195">
        <ele>1795</ele>
        <time>2015-06-26T05:51:36Z</time>
      </trkpt>
      <trkpt lat="46.2204" lon="6.78225">
        <ele>1795</ele>
        <time>2015-06-26T05:51:40Z</time>
      </trkpt>
      <trkpt lat="46.22036" lon="6.78252">
        <ele>1790</ele>
        <time>2015-06-26T05:51:44Z</time>
      </trkpt>
      <trkpt lat="46.22031" lon="6.7828">
        <ele>1788</ele>
        <time>2015-06-26T05:51:48Z</time>
      </trkpt>
      <trkpt lat="46.22021" lon="6.78306">
        <ele>1787</ele>
        <time>2015-06-26T05:51:52Z</time>
      </trkpt>
      <trkpt lat="46.22009" lon="6.78321">
        <ele>1789</ele>
        <time>2015-06-26T05:51:56Z</time>
      </trkpt>
      <trkpt lat="46.2199" lon="6.78333">
        <ele>1801</ele>
        <time>2015-06-26T05:52:00Z</time>
      </trkpt>
      <trkpt lat="46.21973" lon="6.78349">
        <ele>1795</ele>
        <time>2015-06-26T05:52:04Z</time>
      </trkpt>
      <trkpt lat="46.21964" lon="6.78376">
        <ele>1793</ele>
        <time>2015-06-26T05:52:08Z</time>
      </trkpt>
      <trkpt lat="46.21948" lon="6.78398">
        <ele>1792</ele>
        <time>2015-06-26T05:52:12Z</time>
      </trkpt>
      <trkpt lat="46.21975" lon="6.78389">
        <ele>1788</ele>
        <time>2015-06-26T05:52:18Z</time>
      </trkpt>
      <trkpt lat="46.21995" lon="6.78369">
        <ele>1790</ele>
        <time>2015-06-26T05:52:22Z</time>
      </trkpt>
      <trkpt lat="46.22011" lon="6.78364">
        <ele>1770</ele>
        <time>2015-06-26T05:52:26Z</time>
      </trkpt>
      <trkpt lat="46.22032" lon="6.78353">
        <ele>1767</ele>
        <time>2015-06-26T05:52:30Z</time>
      </trkpt>
      <trkpt lat="46.22045" lon="6.78338">
        <ele>1765</ele>
        <time>2015-06-26T05:52:34Z</time>
      </trkpt>
      <trkpt lat="46.22054" lon="6.78331">
        <ele>1777</ele>
        <time>2015-06-26T05:52:38Z</time>
      </trkpt>
      <trkpt lat="46.22052" lon="6.78357">
        <ele>1762</ele>
        <time>2015-06-26T05:52:42Z</time>
      </trkpt>
      <trkpt lat="46.22062" lon="6.78338">
        <ele>1761</ele>
        <time>2015-06-26T05:52:46Z</time>
      </trkpt>
      <trkpt lat="46.22071" lon="6.78323">
        <ele>1770</ele>
        <time>2015-06-26T05:52:50Z</time>
      </trkpt>
      <trkpt lat="46.22069" lon="6.78342">
        <ele>1760</ele>
        <time>2015-06-26T05:52:54Z</time>
      </trkpt>
      <trkpt lat="46.22068" lon="6.7835">
        <ele>1760</ele>
        <time>2015-06-26T05:52:58Z</time>
      </trkpt>
      <trkpt lat="46.22063" lon="6.78368">
        <ele>1758</ele>
        <time>2015-06-26T05:53:02Z</time>
      </trkpt>
      <trkpt lat="46.22051" lon="6.78397">
        <ele>1755</ele>
        <time>2015-06-26T05:53:06Z</time>
      </trkpt>
      <trkpt lat="46.22027" lon="6.78442">
        <ele>1739</ele>
        <time>2015-06-26T05:53:12Z</time>
      </trkpt>
      <trkpt lat="46.22017" lon="6.78479">
        <ele>1733</ele>
        <time>2015-06-26T05:53:16Z</time>
      </trkpt>
      <trkpt lat="46.21995" lon="6.78503">
        <ele>1733</ele>
        <time>2015-06-26T05:53:20Z</time>
      </trkpt>
      <trkpt lat="46.21971" lon="6.78512">
        <ele>1733</ele>
        <time>2015-06-26T05:53:24Z</time>
      </trkpt>
      <trkpt lat="46.21954" lon="6.78525">
        <ele>1734</ele>
        <time>2015-06-26T05:53:28Z</time>
      </trkpt>
      <trkpt lat="46.21935" lon="6.78536">
        <ele>1735</ele>
        <time>2015-06-26T05:53:32Z</time>
      </trkpt>
      <trkpt lat="46.2191" lon="6.78548">
        <ele>1750</ele>
        <time>2015-06-26T05:53:36Z</time>
      </trkpt>
      <trkpt lat="46.21887" lon="6.78566">
        <ele>1750</ele>
        <time>2015-06-26T05:53:40Z</time>
      </trkpt>
      <trkpt lat="46.21868" lon="6.78595">
        <ele>1733</ele>
        <time>2015-06-26T05:53:44Z</time>
      </trkpt>
      <trkpt lat="46.21848" lon="6.78619">
        <ele>1732</ele>
        <time>2015-06-26T05:53:48Z</time>
      </trkpt>
      <trkpt lat="46.21836" lon="6.78651">
        <ele>1727</ele>
        <time>2015-06-26T05:53:52Z</time>
      </trkpt>
      <trkpt lat="46.21824" lon="6.78679">
        <ele>1727</ele>
        <time>2015-06-26T05:53:56Z</time>
      </trkpt>
      <trkpt lat="46.2181" lon="6.78709">
        <ele>1726</ele>
        <time>2015-06-26T05:54:00Z</time>
      </trkpt>
      <trkpt lat="46.21783" lon="6.78753">
        <ele>1714</ele>
        <time>2015-06-26T05:54:06Z</time>
      </trkpt>
      <trkpt lat="46.21772" lon="6.78783">
        <ele>1713</ele>
        <time>2015-06-26T05:54:10Z</time>
      </trkpt>
      <trkpt lat="46.21751" lon="6.78805">
        <ele>1712</ele>
        <time>2015-06-26T05:54:14Z</time>
      </trkpt>
      <trkpt lat="46.21743" lon="6.78843">
        <ele>1717</ele>
        <time>2015-06-26T05:54:18Z</time>
      </trkpt>
      <trkpt lat="46.21734" lon="6.78872">
        <ele>1719</ele>
        <time>2015-06-26T05:54:22Z</time>
      </trkpt>
      <trkpt lat="46.21725" lon="6.78903">
        <ele>1717</ele>
        <time>2015-06-26T05:54:26Z</time>
      </trkpt>
      <trkpt lat="46.21736" lon="6.78931">
        <ele>1709</ele>
        <time>2015-06-26T05:54:30Z</time>
      </trkpt>
      <trkpt lat="46.21756" lon="6.78957">
        <ele>1692</ele>
        <time>2015-06-26T05:54:34Z</time>
      </trkpt>
      <trkpt lat="46.21774" lon="6.78977">
        <ele>1690</ele>
        <time>2015-06-26T05:54:38Z</time>
      </trkpt>
      <trkpt lat="46.21773" lon="6.79006">
        <ele>1687</ele>
        <time>2015-06-26T05:54:42Z</time>
      </trkpt>
      <trkpt lat="46.21763" lon="6.79028">
        <ele>1686</ele>
        <time>2015-06-26T05:54:46Z</time>
      </trkpt>
      <trkpt lat="46.21756" lon="6.79055">
        <ele>1684</ele>
        <time>2015-06-26T05:54:50Z</time>
      </trkpt>
      <trkpt lat="46.21746" lon="6.79078">
        <ele>1690</ele>
        <time>2015-06-26T05:54:54Z</time>
      </trkpt>
      <trkpt lat="46.21724" lon="6.79075">
        <ele>1697</ele>
        <time>2015-06-26T05:55:00Z</time>
      </trkpt>
      <trkpt lat="46.21719" lon="6.79076">
        <ele>1698</ele>
        <time>2015-06-26T05:55:04Z</time>
      </trkpt>
      <trkpt lat="46.21715" lon="6.79101">
        <ele>1687</ele>
        <time>2015-06-26T05:55:08Z</time>
      </trkpt>
      <trkpt lat="46.21708" lon="6.79119">
        <ele>1686</ele>
        <time>2015-06-26T05:55:12Z</time>
      </trkpt>
      <trkpt lat="46.21705" lon="6.79127">
        <ele>1685</ele>
        <time>2015-06-26T05:55:16Z</time>
      </trkpt>
      <trkpt lat="46.217" lon="6.79138">
        <ele>1684</ele>
        <time>2015-06-26T05:55:20Z</time>
      </trkpt>
      <trkpt lat="46.21691" lon="6.79152">
        <ele>1684</ele>
        <time>2015-06-26T05:55:24Z</time>
      </trkpt>
      <trkpt lat="46.21673" lon="6.79168">
        <ele>1679</ele>
        <time>2015-06-26T05:55:28Z</time>
      </trkpt>
      <trkpt lat="46.21663" lon="6.7918">
        <ele>1688</ele>
        <time>2015-06-26T05:55:32Z</time>
      </trkpt>
      <trkpt lat="46.21652" lon="6.79193">
        <ele>1691</ele>
        <time>2015-06-26T05:55:36Z</time>
      </trkpt>
      <trkpt lat="46.21642" lon="6.79201">
        <ele>1692</ele>
        <time>2015-06-26T05:55:40Z</time>
      </trkpt>
      <trkpt lat="46.21635" lon="6.79203">
        <ele>1694</ele>
        <time>2015-06-26T05:55:44Z</time>
      </trkpt>
      <trkpt lat="46.21624" lon="6.79207">
        <ele>1696</ele>
        <time>2015-06-26T05:55:50Z</time>
      </trkpt>
      <trkpt lat="46.21622" lon="6.79216">
        <ele>1695</ele>
        <time>2015-06-26T05:55:54Z</time>
      </trkpt>
      <trkpt lat="46.21621" lon="6.79224">
        <ele>1694</ele>
        <time>2015-06-26T05:55:58Z</time>
      </trkpt>
      <trkpt lat="46.21615" lon="6.79241">
        <ele>1695</ele>
        <time>2015-06-26T05:56:02Z</time>
      </trkpt>
      <trkpt lat="46.2161" lon="6.79253">
        <ele>1684</ele>
        <time>2015-06-26T05:56:06Z</time>
      </trkpt>
      <trkpt lat="46.21604" lon="6.7927">
        <ele>1683</ele>
        <time>2015-06-26T05:56:10Z</time>
      </trkpt>
      <trkpt lat="46.21593" lon="6.79298">
        <ele>1679</ele>
        <time>2015-06-26T05:56:14Z</time>
      </trkpt>
      <trkpt lat="46.21596" lon="6.79308">
        <ele>1678</ele>
        <time>2015-06-26T05:56:18Z</time>
      </trkpt>
      <trkpt lat="46.21606" lon="6.79295">
        <ele>1678</ele>
        <time>2015-06-26T05:56:22Z</time>
      </trkpt>
      <trkpt lat="46.2161" lon="6.79303">
        <ele>1677</ele>
        <time>2015-06-26T05:56:26Z</time>
      </trkpt>
      <trkpt lat="46.21608" lon="6.79319">
        <ele>1676</ele>
        <time>2015-06-26T05:56:30Z</time>
      </trkpt>
      <trkpt lat="46.2161" lon="6.79325">
        <ele>1675</ele>
        <time>2015-06-26T05:56:34Z</time>
      </trkpt>
      <trkpt lat="46.21625" lon="6.79307">
        <ele>1673</ele>
        <time>2015-06-26T05:56:38Z</time>
      </trkpt>
      <trkpt lat="46.21644" lon="6.79301">
        <ele>1670</ele>
        <time>2015-06-26T05:56:44Z</time>
      </trkpt>
      <trkpt lat="46.21656" lon="6.79321">
        <ele>1663</ele>
        <time>2015-06-26T05:56:48Z</time>
      </trkpt>
      <trkpt lat="46.21683" lon="6.79332">
        <ele>1652</ele>
        <time>2015-06-26T05:56:52Z</time>
      </trkpt>
      <trkpt lat="46.21708" lon="6.7934">
        <ele>1649</ele>
        <time>2015-06-26T05:56:56Z</time>
      </trkpt>
      <trkpt lat="46.21728" lon="6.79317">
        <ele>1649</ele>
        <time>2015-06-26T05:57:00Z</time>
      </trkpt>
      <trkpt lat="46.21752" lon="6.79308">
        <ele>1643</ele>
        <time>2015-06-26T05:57:04Z</time>
      </trkpt>
      <trkpt lat="46.2177" lon="6.79306">
        <ele>1643</ele>
        <time>2015-06-26T05:57:08Z</time>
      </trkpt>
      <trkpt lat="46.21784" lon="6.79317">
        <ele>1642</ele>
        <time>2015-06-26T05:57:12Z</time>
      </trkpt>
      <trkpt lat="46.21799" lon="6.79339">
        <ele>1639</ele>
        <time>2015-06-26T05:57:16Z</time>
      </trkpt>
      <trkpt lat="46.21813" lon="6.79369">
        <ele>1638</ele>
        <time>2015-06-26T05:57:20Z</time>
      </trkpt>
      <trkpt lat="46.21824" lon="6.7939">
        <ele>1637</ele>
        <time>2015-06-26T05:57:24Z</time>
      </trkpt>
      <trkpt lat="46.21833" lon="6.79393">
        <ele>1636</ele>
        <time>2015-06-26T05:57:28Z</time>
      </trkpt>
      <trkpt lat="46.21839" lon="6.79395">
        <ele>1625</ele>
        <time>2015-06-26T05:57:32Z</time>
      </trkpt>
      <trkpt lat="46.21846" lon="6.79396">
        <ele>1625</ele>
        <time>2015-06-26T05:57:38Z</time>
      </trkpt>
      <trkpt lat="46.21862" lon="6.79403">
        <ele>1622</ele>
        <time>2015-06-26T05:57:42Z</time>
      </trkpt>
      <trkpt lat="46.21874" lon="6.79404">
        <ele>1619</ele>
        <time>2015-06-26T05:57:46Z</time>
      </trkpt>
      <trkpt lat="46.2189" lon="6.79394">
        <ele>1616</ele>
        <time>2015-06-26T05:57:50Z</time>
      </trkpt>
      <trkpt lat="46.21902" lon="6.79384">
        <ele>1615</ele>
        <time>2015-06-26T05:57:54Z</time>
      </trkpt>
      <trkpt lat="46.21914" lon="6.79377">
        <ele>1614</ele>
        <time>2015-06-26T05:57:58Z</time>
      </trkpt>
      <trkpt lat="46.21922" lon="6.79356">
        <ele>1594</ele>
        <time>2015-06-26T05:58:02Z</time>
      </trkpt>
      <trkpt lat="46.21928" lon="6.79358">
        <ele>1592</ele>
        <time>2015-06-26T05:58:06Z</time>
      </trkpt>
      <trkpt lat="46.21929" lon="6.79385">
        <ele>1590</ele>
        <time>2015-06-26T05:58:10Z</time>
      </trkpt>
      <trkpt lat="46.21929" lon="6.79409">
        <ele>1594</ele>
        <time>2015-06-26T05:58:14Z</time>
      </trkpt>
      <trkpt lat="46.21934" lon="6.79403">
        <ele>1591</ele>
        <time>2015-06-26T05:58:18Z</time>
      </trkpt>
      <trkpt lat="46.21942" lon="6.79395">
        <ele>1587</ele>
        <time>2015-06-26T05:58:22Z</time>
      </trkpt>
      <trkpt lat="46.21939" lon="6.79416">
        <ele>1590</ele>
        <time>2015-06-26T05:58:26Z</time>
      </trkpt>
      <trkpt lat="46.21944" lon="6.79442">
        <ele>1589</ele>
        <time>2015-06-26T05:58:32Z</time>
      </trkpt>
      <trkpt lat="46.21948" lon="6.7942">
        <ele>1588</ele>
        <time>2015-06-26T05:58:36Z</time>
      </trkpt>
      <trkpt lat="46.21957" lon="6.79398">
        <ele>1583</ele>
        <time>2015-06-26T05:58:40Z</time>
      </trkpt>
      <trkpt lat="46.21967" lon="6.79379">
        <ele>1580</ele>
        <time>2015-06-26T05:58:44Z</time>
      </trkpt>
      <trkpt lat="46.21974" lon="6.79361">
        <ele>1578</ele>
        <time>2015-06-26T05:58:48Z</time>
      </trkpt>
      <trkpt lat="46.2198" lon="6.79345">
        <ele>1574</ele>
        <time>2015-06-26T05:58:52Z</time>
      </trkpt>
      <trkpt lat="46.21986" lon="6.79344">
        <ele>1571</ele>
        <time>2015-06-26T05:58:56Z</time>
      </trkpt>
      <trkpt lat="46.21986" lon="6.79365">
        <ele>1575</ele>
        <time>2015-06-26T05:59:00Z</time>
      </trkpt>
      <trkpt lat="46.21985" lon="6.79383">
        <ele>1576</ele>
        <time>2015-06-26T05:59:04Z</time>
      </trkpt>
      <trkpt lat="46.21985" lon="6.79402">
        <ele>1574</ele>
        <time>2015-06-26T05:59:08Z</time>
      </trkpt>
      <trkpt lat="46.21991" lon="6.79402">
        <ele>1572</ele>
        <time>2015-06-26T05:59:12Z</time>
      </trkpt>
      <trkpt lat="46.22003" lon="6.79384">
        <ele>1551</ele>
        <time>2015-06-26T05:59:16Z</time>
      </trkpt>
      <trkpt lat="46.22013" lon="6.79353">
        <ele>1550</ele>
        <time>2015-06-26T05:59:22Z</time>
      </trkpt>
      <trkpt lat="46.22014" lon="6.7933">
        <ele>1552</ele>
        <time>2015-06-26T05:59:26Z</time>
      </trkpt>
      <trkpt lat="46.22018" lon="6.79332">
        <ele>1550</ele>
        <time>2015-06-26T05:59:30Z</time>
      </trkpt>
      <trkpt lat="46.22023" lon="6.79358">
        <ele>1548</ele>
        <time>2015-06-26T05:59:34Z</time>
      </trkpt>
      <trkpt lat="46.2203" lon="6.79365">
        <ele>1546</ele>
        <time>2015-06-26T05:59:38Z</time>
      </trkpt>
      <trkpt lat="46.22039" lon="6.79344">
        <ele>1544</ele>
        <time>2015-06-26T05:59:42Z</time>
      </trkpt>
      <trkpt lat="46.22046" lon="6.79331">
        <ele>1541</ele>
        <time>2015-06-26T05:59:46Z</time>
      </trkpt>
      <trkpt lat="46.22056" lon="6.79332">
        <ele>1537</ele>
        <time>2015-06-26T05:59:50Z</time>
      </trkpt>
      <trkpt lat="46.22067" lon="6.79328">
        <ele>1532</ele>
        <time>2015-06-26T05:59:54Z</time>
      </trkpt>
      <trkpt lat="46.22075" lon="6.79308">
        <ele>1535</ele>
        <time>2015-06-26T05:59:58Z</time>
      </trkpt>
      <trkpt lat="46.22084" lon="6.79279">
        <ele>1517</ele>
        <time>2015-06-26T06:00:02Z</time>
      </trkpt>
      <trkpt lat="46.22093" lon="6.79255">
        <ele>1520</ele>
        <time>2015-06-26T06:00:06Z</time>
      </trkpt>
      <trkpt lat="46.22102" lon="6.79224">
        <ele>1520</ele>
        <time>2015-06-26T06:00:10Z</time>
      </trkpt>
      <trkpt lat="46.22132" lon="6.79179">
        <ele>1516</ele>
        <time>2015-06-26T06:00:16Z</time>
      </trkpt>
      <trkpt lat="46.22152" lon="6.79166">
        <ele>1514</ele>
        <time>2015-06-26T06:00:20Z</time>
      </trkpt>
      <trkpt lat="46.22154" lon="6.79171">
        <ele>1509</ele>
        <time>2015-06-26T06:00:24Z</time>
      </trkpt>
      <trkpt lat="46.22165" lon="6.79187">
        <ele>1509</ele>
        <time>2015-06-26T06:00:28Z</time>
      </trkpt>
      <trkpt lat="46.22187" lon="6.79204">
        <ele>1496</ele>
        <time>2015-06-26T06:00:32Z</time>
      </trkpt>
      <trkpt lat="46.22207" lon="6.79221">
        <ele>1495</ele>
        <time>2015-06-26T06:00:36Z</time>
      </trkpt>
      <trkpt lat="46.22211" lon="6.79253">
        <ele>1498</ele>
        <time>2015-06-26T06:00:40Z</time>
      </trkpt>
      <trkpt lat="46.22216" lon="6.79276">
        <ele>1499</ele>
        <time>2015-06-26T06:00:44Z</time>
      </trkpt>
      <trkpt lat="46.22232" lon="6.79284">
        <ele>1499</ele>
        <time>2015-06-26T06:00:48Z</time>
      </trkpt>
      <trkpt lat="46.22251" lon="6.79289">
        <ele>1498</ele>
        <time>2015-06-26T06:00:52Z</time>
      </trkpt>
      <trkpt lat="46.22275" lon="6.79292">
        <ele>1499</ele>
        <time>2015-06-26T06:00:56Z</time>
      </trkpt>
      <trkpt lat="46.22284" lon="6.79291">
        <ele>1499</ele>
        <time>2015-06-26T06:01:00Z</time>
      </trkpt>
      <trkpt lat="46.22292" lon="6.79287">
        <ele>1498</ele>
        <time>2015-06-26T06:01:04Z</time>
      </trkpt>
      <trkpt lat="46.22308" lon="6.7928">
        <ele>1497</ele>
        <time>2015-06-26T06:01:10Z</time>
      </trkpt>
      <trkpt lat="46.22317" lon="6.79275">
        <ele>1495</ele>
        <time>2015-06-26T06:01:14Z</time>
      </trkpt>
      <trkpt lat="46.22325" lon="6.79257">
        <ele>1490</ele>
        <time>2015-06-26T06:01:18Z</time>
      </trkpt>
      <trkpt lat="46.22331" lon="6.79237">
        <ele>1484</ele>
        <time>2015-06-26T06:01:22Z</time>
      </trkpt>
      <trkpt lat="46.22338" lon="6.79211">
        <ele>1479</ele>
        <time>2015-06-26T06:01:26Z</time>
      </trkpt>
      <trkpt lat="46.22342" lon="6.79202">
        <ele>1478</ele>
        <time>2015-06-26T06:01:30Z</time>
      </trkpt>
      <trkpt lat="46.22345" lon="6.79204">
        <ele>1478</ele>
        <time>2015-06-26T06:01:34Z</time>
      </trkpt>
      <trkpt lat="46.22353" lon="6.79211">
        <ele>1479</ele>
        <time>2015-06-26T06:01:38Z</time>
      </trkpt>
      <trkpt lat="46.22371" lon="6.79217">
        <ele>1479</ele>
        <time>2015-06-26T06:01:42Z</time>
      </trkpt>
      <trkpt lat="46.22389" lon="6.79215">
        <ele>1479</ele>
        <time>2015-06-26T06:01:46Z</time>
      </trkpt>
      <trkpt lat="46.22406" lon="6.79209">
        <ele>1478</ele>
        <time>2015-06-26T06:01:50Z</time>
      </trkpt>
      <trkpt lat="46.22423" lon="6.79192">
        <ele>1476</ele>
        <time>2015-06-26T06:01:54Z</time>
      </trkpt>
      <trkpt lat="46.22444" lon="6.7917">
        <ele>1475</ele>
        <time>2015-06-26T06:01:58Z</time>
      </trkpt>
      <trkpt lat="46.22475" lon="6.79162">
        <ele>1464</ele>
        <time>2015-06-26T06:02:04Z</time>
      </trkpt>
      <trkpt lat="46.22491" lon="6.79141">
        <ele>1463</ele>
        <time>2015-06-26T06:02:08Z</time>
      </trkpt>
      <trkpt lat="46.22508" lon="6.79133">
        <ele>1462</ele>
        <time>2015-06-26T06:02:12Z</time>
      </trkpt>
      <trkpt lat="46.22524" lon="6.7912">
        <ele>1460</ele>
        <time>2015-06-26T06:02:16Z</time>
      </trkpt>
      <trkpt lat="46.22544" lon="6.79105">
        <ele>1458</ele>
        <time>2015-06-26T06:02:20Z</time>
      </trkpt>
      <trkpt lat="46.22573" lon="6.79089">
        <ele>1455</ele>
        <time>2015-06-26T06:02:24Z</time>
      </trkpt>
      <trkpt lat="46.22584" lon="6.79077">
        <ele>1450</ele>
        <time>2015-06-26T06:02:28Z</time>
      </trkpt>
      <trkpt lat="46.22619" lon="6.79057">
        <ele>1445</ele>
        <time>2015-06-26T06:02:34Z</time>
      </trkpt>
      <trkpt lat="46.22634" lon="6.79047">
        <ele>1444</ele>
        <time>2015-06-26T06:02:38Z</time>
      </trkpt>
      <trkpt lat="46.22645" lon="6.79039">
        <ele>1443</ele>
        <time>2015-06-26T06:02:42Z</time>
      </trkpt>
      <trkpt lat="46.22657" lon="6.79035">
        <ele>1443</ele>
        <time>2015-06-26T06:02:46Z</time>
      </trkpt>
      <trkpt lat="46.22663" lon="6.79035">
        <ele>1443</ele>
        <time>2015-06-26T06:02:50Z</time>
      </trkpt>
      <trkpt lat="46.22669" lon="6.79026">
        <ele>1442</ele>
        <time>2015-06-26T06:02:56Z</time>
      </trkpt>
      <trkpt lat="46.22683" lon="6.79018">
        <ele>1441</ele>
        <time>2015-06-26T06:03:00Z</time>
      </trkpt>
      <trkpt lat="46.22693" lon="6.79018">
        <ele>1442</ele>
        <time>2015-06-26T06:03:04Z</time>
      </trkpt>
      <trkpt lat="46.22695" lon="6.7902">
        <ele>1442</ele>
        <time>2015-06-26T06:03:08Z</time>
      </trkpt>
      <trkpt lat="46.22697" lon="6.79018">
        <ele>1442</ele>
        <time>2015-06-26T06:03:12Z</time>
      </trkpt>
      <trkpt lat="46.22707" lon="6.7901">
        <ele>1441</ele>
        <time>2015-06-26T06:03:16Z</time>
      </trkpt>
      <trkpt lat="46.2271" lon="6.79007">
        <ele>1441</ele>
        <time>2015-06-26T06:03:20Z</time>
      </trkpt>
      <trkpt lat="46.2271" lon="6.79007">
        <ele>1441</ele>
        <time>2015-06-26T06:03:24Z</time>
      </trkpt>
      <trkpt lat="46.22709" lon="6.79009">
        <ele>1441</ele>
        <time>2015-06-26T06:03:28Z</time>
      </trkpt>
      <trkpt lat="46.2271" lon="6.7901">
        <ele>1441</ele>
        <time>2015-06-26T06:03:32Z</time>
      </trkpt>
      <trkpt lat="46.22716" lon="6.79002">
        <ele>1441</ele>
        <time>2015-06-26T06:03:36Z</time>
      </trkpt>
      <trkpt lat="46.2272" lon="6.78987">
        <ele>1428</ele>
        <time>2015-06-26T06:03:40Z</time>
      </trkpt>
      <trkpt lat="46.22744" lon="6.78976">
        <ele>1427</ele>
        <time>2015-06-26T06:03:44Z</time>
      </trkpt>
      <trkpt lat="46.22776" lon="6.78985">
        <ele>1421</ele>
        <time>2015-06-26T06:03:50Z</time>
      </trkpt>
      <trkpt lat="46.22763" lon="6.78962">
        <ele>1418</ele>
        <time>2015-06-26T06:03:54Z</time>
      </trkpt>
      <trkpt lat="46.22751" lon="6.78937">
        <ele>1414</ele>
        <time>2015-06-26T06:03:58Z</time>
      </trkpt>
      <trkpt lat="46.22773" lon="6.78934">
        <ele>1413</ele>
        <time>2015-06-26T06:04:02Z</time>
      </trkpt>
      <trkpt lat="46.22796" lon="6.78931">
        <ele>1412</ele>
        <time>2015-06-26T06:04:06Z</time>
      </trkpt>
      <trkpt lat="46.22811" lon="6.78945">
        <ele>1412</ele>
        <time>2015-06-26T06:04:10Z</time>
      </trkpt>
      <trkpt lat="46.22831" lon="6.78931">
        <ele>1407</ele>
        <time>2015-06-26T06:04:14Z</time>
      </trkpt>
      <trkpt lat="46.22852" lon="6.78943">
        <ele>1401</ele>
        <time>2015-06-26T06:04:18Z</time>
      </trkpt>
      <trkpt lat="46.2288" lon="6.78945">
        <ele>1399</ele>
        <time>2015-06-26T06:04:22Z</time>
      </trkpt>
      <trkpt lat="46.22899" lon="6.78932">
        <ele>1394</ele>
        <time>2015-06-26T06:04:26Z</time>
      </trkpt>
      <trkpt lat="46.2291" lon="6.78925">
        <ele>1390</ele>
        <time>2015-06-26T06:04:30Z</time>
      </trkpt>
      <trkpt lat="46.22923" lon="6.78916">
        <ele>1380</ele>
        <time>2015-06-26T06:04:34Z</time>
      </trkpt>
      <trkpt lat="46.22915" lon="6.78889">
        <ele>1383</ele>
        <time>2015-06-26T06:04:38Z</time>
      </trkpt>
      <trkpt lat="46.22903" lon="6.78871">
        <ele>1381</ele>
        <time>2015-06-26T06:04:44Z</time>
      </trkpt>
      <trkpt lat="46.22905" lon="6.78863">
        <ele>1380</ele>
        <time>2015-06-26T06:04:48Z</time>
      </trkpt>
      <trkpt lat="46.2292" lon="6.78866">
        <ele>1366</ele>
        <time>2015-06-26T06:04:52Z</time>
      </trkpt>
      <trkpt lat="46.2292" lon="6.78868">
        <ele>1366</ele>
        <time>2015-06-26T06:04:56Z</time>
      </trkpt>
      <trkpt lat="46.2292" lon="6.7887">
        <ele>1367</ele>
        <time>2015-06-26T06:05:00Z</time>
      </trkpt>
      <trkpt lat="46.2292" lon="6.7887">
        <ele>1367</ele>
        <time>2015-06-26T06:05:04Z</time>
      </trkpt>
      <trkpt lat="46.2292" lon="6.7887">
        <ele>1367</ele>
        <time>2015-06-26T06:05:08Z</time>
      </trkpt>
      <trkpt lat="46.2292" lon="6.7887">
        <ele>1367</ele>
        <time>2015-06-26T06:05:12Z</time>
      </trkpt>
      <trkpt lat="46.2292" lon="6.7887">
        <ele>1367</ele>
        <time>2015-06-26T06:05:16Z</time>
      </trkpt>
      <trkpt lat="46.2292" lon="6.7887">
        <ele>1367</ele>
        <time>2015-06-26T06:05:20Z</time>
      </trkpt>
      <trkpt lat="46.22924" lon="6.78872">
        <ele>1367</ele>
        <time>2015-06-26T06:05:24Z</time>
      </trkpt>
      <trkpt lat="46.22945" lon="6.78879">
        <ele>1365</ele>
        <time>2015-06-26T06:05:28Z</time>
      </trkpt>
      <trkpt lat="46.22972" lon="6.7889">
        <ele>1361</ele>
        <time>2015-06-26T06:05:34Z</time>
      </trkpt>
      <trkpt lat="46.22981" lon="6.78892">
        <ele>1360</ele>
        <time>2015-06-26T06:05:38Z</time>
      </trkpt>
      <trkpt lat="46.22971" lon="6.78867">
        <ele>1359</ele>
        <time>2015-06-26T06:05:42Z</time>
      </trkpt>
      <trkpt lat="46.22952" lon="6.78848">
        <ele>1361</ele>
        <time>2015-06-26T06:05:46Z</time>
      </trkpt>
      <trkpt lat="46.22937" lon="6.78833">
        <ele>1358</ele>
        <time>2015-06-26T06:05:50Z</time>
      </trkpt>
      <trkpt lat="46.2293" lon="6.78829">
        <ele>1360</ele>
        <time>2015-06-26T06:05:54Z</time>
      </trkpt>
      <trkpt lat="46.22937" lon="6.78826">
        <ele>1357</ele>
        <time>2015-06-26T06:05:58Z</time>
      </trkpt>
      <trkpt lat="46.22939" lon="6.78822">
        <ele>1356</ele>
        <time>2015-06-26T06:06:02Z</time>
      </trkpt>
      <trkpt lat="46.22937" lon="6.78816">
        <ele>1356</ele>
        <time>2015-06-26T06:06:06Z</time>
      </trkpt>
      <trkpt lat="46.2295" lon="6.78806">
        <ele>1353</ele>
        <time>2015-06-26T06:06:10Z</time>
      </trkpt>
      <trkpt lat="46.22959" lon="6.78791">
        <ele>1351</ele>
        <time>2015-06-26T06:06:14Z</time>
      </trkpt>
      <trkpt lat="46.22974" lon="6.78777">
        <ele>1348</ele>
        <time>2015-06-26T06:06:18Z</time>
      </trkpt>
      <trkpt lat="46.22991" lon="6.78767">
        <ele>1345</ele>
        <time>2015-06-26T06:06:22Z</time>
      </trkpt>
      <trkpt lat="46.23028" lon="6.78755">
        <ele>1333</ele>
        <time>2015-06-26T06:06:28Z</time>
      </trkpt>
      <trkpt lat="46.23055" lon="6.78767">
        <ele>1329</ele>
        <time>2015-06-26T06:06:32Z</time>
      </trkpt>
      <trkpt lat="46.23079" lon="6.788">
        <ele>1327</ele>
        <time>2015-06-26T06:06:36Z</time>
      </trkpt>
      <trkpt lat="46.23107" lon="6.78836">
        <ele>1316</ele>
        <time>2015-06-26T06:06:40Z</time>
      </trkpt>
      <trkpt lat="46.23144" lon="6.78872">
        <ele>1313</ele>
        <time>2015-06-26T06:06:44Z</time>
      </trkpt>
      <trkpt lat="46.23181" lon="6.78913">
        <ele>1307</ele>
        <time>2015-06-26T06:06:48Z</time>
      </trkpt>
      <trkpt lat="46.23201" lon="6.78933">
        <ele>1307</ele>
        <time>2015-06-26T06:06:52Z</time>
      </trkpt>
      <trkpt lat="46.23214" lon="6.78912">
        <ele>1305</ele>
        <time>2015-06-26T06:06:56Z</time>
      </trkpt>
      <trkpt lat="46.23226" lon="6.78901">
        <ele>1304</ele>
        <time>2015-06-26T06:07:00Z</time>
      </trkpt>
      <trkpt lat="46.23244" lon="6.78896">
        <ele>1303</ele>
        <time>2015-06-26T06:07:04Z</time>
      </trkpt>
      <trkpt lat="46.23264" lon="6.78906">
        <ele>1301</ele>
        <time>2015-06-26T06:07:08Z</time>
      </trkpt>
      <trkpt lat="46.23287" lon="6.78913">
        <ele>1302</ele>
        <time>2015-06-26T06:07:12Z</time>
      </trkpt>
      <trkpt lat="46.23303" lon="6.78919">
        <ele>1299</ele>
        <time>2015-06-26T06:07:16Z</time>
      </trkpt>
      <trkpt lat="46.23322" lon="6.78917">
        <ele>1299</ele>
        <time>2015-06-26T06:07:22Z</time>
      </trkpt>
      <trkpt lat="46.23338" lon="6.78915">
        <ele>1300</ele>
        <time>2015-06-26T06:07:26Z</time>
      </trkpt>
      <trkpt lat="46.23354" lon="6.78923">
        <ele>1297</ele>
        <time>2015-06-26T06:07:30Z</time>
      </trkpt>
      <trkpt lat="46.23369" lon="6.78929">
        <ele>1295</ele>
        <time>2015-06-26T06:07:34Z</time>
      </trkpt>
      <trkpt lat="46.23381" lon="6.78931">
        <ele>1295</ele>
        <time>2015-06-26T06:07:38Z</time>
      </trkpt>
      <trkpt lat="46.23391" lon="6.78937">
        <ele>1294</ele>
        <time>2015-06-26T06:07:42Z</time>
      </trkpt>
      <trkpt lat="46.23354" lon="6.78921">
        <ele>1297</ele>
        <time>2015-06-26T06:07:46Z</time>
      </trkpt>
      <trkpt lat="46.23341" lon="6.78911">
        <ele>1300</ele>
        <time>2015-06-26T06:07:50Z</time>
      </trkpt>
      <trkpt lat="46.23314" lon="6.78921">
        <ele>1299</ele>
        <time>2015-06-26T06:07:54Z</time>
      </trkpt>
      <trkpt lat="46.23318" lon="6.78935">
        <ele>1299</ele>
        <time>2015-06-26T06:07:58Z</time>
      </trkpt>
      <trkpt lat="46.23317" lon="6.7892">
        <ele>1299</ele>
        <time>2015-06-26T06:08:02Z</time>
      </trkpt>
      <trkpt lat="46.23326" lon="6.78916">
        <ele>1301</ele>
        <time>2015-06-26T06:08:06Z</time>
      </trkpt>
      <trkpt lat="46.23339" lon="6.78913">
        <ele>1300</ele>
        <time>2015-06-26T06:08:10Z</time>
      </trkpt>
      <trkpt lat="46.23357" lon="6.78922">
        <ele>1296</ele>
        <time>2015-06-26T06:08:16Z</time>
      </trkpt>
      <trkpt lat="46.23368" lon="6.78923">
        <ele>1295</ele>
        <time>2015-06-26T06:08:20Z</time>
      </trkpt>
      <trkpt lat="46.23382" lon="6.78934">
        <ele>1295</ele>
        <time>2015-06-26T06:08:24Z</time>
      </trkpt>
      <trkpt lat="46.2341" lon="6.78952">
        <ele>1294</ele>
        <time>2015-06-26T06:08:28Z</time>
      </trkpt>
      <trkpt lat="46.2344" lon="6.78966">
        <ele>1290</ele>
        <time>2015-06-26T06:08:32Z</time>
      </trkpt>
      <trkpt lat="46.2347" lon="6.78982">
        <ele>1289</ele>
        <time>2015-06-26T06:08:36Z</time>
      </trkpt>
      <trkpt lat="46.23503" lon="6.78996">
        <ele>1287</ele>
        <time>2015-06-26T06:08:40Z</time>
      </trkpt>
      <trkpt lat="46.23526" lon="6.79018">
        <ele>1284</ele>
        <time>2015-06-26T06:08:44Z</time>
      </trkpt>
      <trkpt lat="46.23541" lon="6.79055">
        <ele>1282</ele>
        <time>2015-06-26T06:08:48Z</time>
      </trkpt>
      <trkpt lat="46.22571" lon="6.80238">
        <ele>1775</ele>
        <time>2015-06-26T06:08:52Z</time>
      </trkpt>
      <trkpt lat="46.22575" lon="6.80249">
        <ele>1774</ele>
        <time>2015-06-26T06:08:56Z</time>
      </trkpt>
      <trkpt lat="46.22585" lon="6.80261">
        <ele>1770</ele>
        <time>2015-06-26T06:09:00Z</time>
      </trkpt>
      <trkpt lat="46.22589" lon="6.80291">
        <ele>1767</ele>
        <time>2015-06-26T06:09:06Z</time>
      </trkpt>
      <trkpt lat="46.22585" lon="6.80305">
        <ele>1768</ele>
        <time>2015-06-26T06:09:10Z</time>
      </trkpt>
      <trkpt lat="46.22578" lon="6.80315">
        <ele>1778</ele>
        <time>2015-06-26T06:09:14Z</time>
      </trkpt>
      <trkpt lat="46.2258" lon="6.8033">
        <ele>1775</ele>
        <time>2015-06-26T06:09:18Z</time>
      </trkpt>
      <trkpt lat="46.226" lon="6.80327">
        <ele>1769</ele>
        <time>2015-06-26T06:09:22Z</time>
      </trkpt>
      <trkpt lat="46.22624" lon="6.80322">
        <ele>1765</ele>
        <time>2015-06-26T06:09:26Z</time>
      </trkpt>
      <trkpt lat="46.22647" lon="6.80328">
        <ele>1762</ele>
        <time>2015-06-26T06:09:30Z</time>
      </trkpt>
      <trkpt lat="46.2267" lon="6.80326">
        <ele>1755</ele>
        <time>2015-06-26T06:09:34Z</time>
      </trkpt>
      <trkpt lat="46.22696" lon="6.80318">
        <ele>1747</ele>
        <time>2015-06-26T06:09:38Z</time>
      </trkpt>
      <trkpt lat="46.22725" lon="6.80309">
        <ele>1742</ele>
        <time>2015-06-26T06:09:42Z</time>
      </trkpt>
      <trkpt lat="46.22752" lon="6.80295">
        <ele>1731</ele>
        <time>2015-06-26T06:09:46Z</time>
      </trkpt>
      <trkpt lat="46.22766" lon="6.80279">
        <ele>1729</ele>
        <time>2015-06-26T06:09:50Z</time>
      </trkpt>
      <trkpt lat="46.22757" lon="6.80266">
        <ele>1728</ele>
        <time>2015-06-26T06:09:54Z</time>
      </trkpt>
      <trkpt lat="46.22734" lon="6.80261">
        <ele>1735</ele>
        <time>2015-06-26T06:10:00Z</time>
      </trkpt>
      <trkpt lat="46.22726" lon="6.80233">
        <ele>1729</ele>
        <time>2015-06-26T06:10:04Z</time>
      </trkpt>
      <trkpt lat="46.22725" lon="6.80194">
        <ele>1726</ele>
        <time>2015-06-26T06:10:08Z</time>
      </trkpt>
      <trkpt lat="46.22721" lon="6.8016">
        <ele>1716</ele>
        <time>2015-06-26T06:10:12Z</time>
      </trkpt>
      <trkpt lat="46.22705" lon="6.80138">
        <ele>1718</ele>
        <time>2015-06-26T06:10:16Z</time>
      </trkpt>
      <trkpt lat="46.227" lon="6.80113">
        <ele>1717</ele>
        <time>2015-06-26T06:10:20Z</time>
      </trkpt>
      <trkpt lat="46.22697" lon="6.80089">
        <ele>1717</ele>
        <time>2015-06-26T06:10:24Z</time>
      </trkpt>
      <trkpt lat="46.22686" lon="6.8007">
        <ele>1711</ele>
        <time>2015-06-26T06:10:28Z</time>
      </trkpt>
      <trkpt lat="46.22683" lon="6.80044">
        <ele>1707</ele>
        <time>2015-06-26T06:10:32Z</time>
      </trkpt>
      <trkpt lat="46.22684" lon="6.80022">
        <ele>1705</ele>
        <time>2015-06-26T06:10:36Z</time>
      </trkpt>
      <trkpt lat="46.22685" lon="6.79998">
        <ele>1697</ele>
        <time>2015-06-26T06:10:40Z</time>
      </trkpt>
      <trkpt lat="46.22683" lon="6.79974">
        <ele>1693</ele>
        <time>2015-06-26T06:10:44Z</time>
      </trkpt>
      <trkpt lat="46.22676" lon="6.79947">
        <ele>1689</ele>
        <time>2015-06-26T06:10:48Z</time>
      </trkpt>
      <trkpt lat="46.22664" lon="6.79903">
        <ele>1690</ele>
        <time>2015-06-26T06:10:54Z</time>
      </trkpt>
      <trkpt lat="46.22659" lon="6.79885">
        <ele>1689</ele>
        <time>2015-06-26T06:10:58Z</time>
      </trkpt>
      <trkpt lat="46.22668" lon="6.79854">
        <ele>1675</ele>
        <time>2015-06-26T06:11:02Z</time>
      </trkpt>
      <trkpt lat="46.22677" lon="6.79844">
        <ele>1675</ele>
        <time>2015-06-26T06:11:06Z</time>
      </trkpt>
      <trkpt lat="46.22679" lon="6.79848">
        <ele>1675</ele>
        <time>2015-06-26T06:11:10Z</time>
      </trkpt>
      <trkpt lat="46.22684" lon="6.79859">
        <ele>1674</ele>
        <time>2015-06-26T06:11:14Z</time>
      </trkpt>
      <trkpt lat="46.22691" lon="6.79883">
        <ele>1676</ele>
        <time>2015-06-26T06:11:18Z</time>
      </trkpt>
      <trkpt lat="46.227" lon="6.79908">
        <ele>1676</ele>
        <time>2015-06-26T06:11:22Z</time>
      </trkpt>
      <trkpt lat="46.2272" lon="6.79914">
        <ele>1673</ele>
        <time>2015-06-26T06:11:26Z</time>
      </trkpt>
      <trkpt lat="46.22747" lon="6.79909">
        <ele>1669</ele>
        <time>2015-06-26T06:11:30Z</time>
      </trkpt>
      <trkpt lat="46.22781" lon="6.79895">
        <ele>1660</ele>
        <time>2015-06-26T06:11:34Z</time>
      </trkpt>
      <trkpt lat="46.22817" lon="6.79868">
        <ele>1656</ele>
        <time>2015-06-26T06:11:38Z</time>
      </trkpt>
      <trkpt lat="46.22847" lon="6.79862">
        <ele>1651</ele>
        <time>2015-06-26T06:11:42Z</time>
      </trkpt>
      <trkpt lat="46.22883" lon="6.79876">
        <ele>1651</ele>
        <time>2015-06-26T06:11:48Z</time>
      </trkpt>
      <trkpt lat="46.22916" lon="6.79885">
        <ele>1651</ele>
        <time>2015-06-26T06:11:52Z</time>
      </trkpt>
      <trkpt lat="46.22949" lon="6.79886">
        <ele>1656</ele>
        <time>2015-06-26T06:11:56Z</time>
      </trkpt>
      <trkpt lat="46.22976" lon="6.79871">
        <ele>1657</ele>
        <time>2015-06-26T06:12:00Z</time>
      </trkpt>
      <trkpt lat="46.22994" lon="6.79852">
        <ele>1656</ele>
        <time>2015-06-26T06:12:04Z</time>
      </trkpt>
      <trkpt lat="46.23004" lon="6.79836">
        <ele>1656</ele>
        <time>2015-06-26T06:12:08Z</time>
      </trkpt>
      <trkpt lat="46.23013" lon="6.79826">
        <ele>1651</ele>
        <time>2015-06-26T06:12:12Z</time>
      </trkpt>
      <trkpt lat="46.23024" lon="6.79817">
        <ele>1650</ele>
        <time>2015-06-26T06:12:16Z</time>
      </trkpt>
      <trkpt lat="46.23035" lon="6.79812">
        <ele>1650</ele>
        <time>2015-06-26T06:12:20Z</time>
      </trkpt>
      <trkpt lat="46.23047" lon="6.79809">
        <ele>1649</ele>
        <time>2015-06-26T06:12:24Z</time>
      </trkpt>
      <trkpt lat="46.23063" lon="6.79813">
        <ele>1650</ele>
        <time>2015-06-26T06:12:28Z</time>
      </trkpt>
      <trkpt lat="46.23079" lon="6.79817">
        <ele>1652</ele>
        <time>2015-06-26T06:12:32Z</time>
      </trkpt>
      <trkpt lat="46.23101" lon="6.79823">
        <ele>1650</ele>
        <time>2015-06-26T06:12:38Z</time>
      </trkpt>
      <trkpt lat="46.23116" lon="6.79832">
        <ele>1648</ele>
        <time>2015-06-26T06:12:42Z</time>
      </trkpt>
      <trkpt lat="46.23128" lon="6.79849">
        <ele>1654</ele>
        <time>2015-06-26T06:12:46Z</time>
      </trkpt>
      <trkpt lat="46.2314" lon="6.79864">
        <ele>1654</ele>
        <time>2015-06-26T06:12:50Z</time>
      </trkpt>
      <trkpt lat="46.23153" lon="6.79878">
        <ele>1655</ele>
        <time>2015-06-26T06:12:54Z</time>
      </trkpt>
      <trkpt lat="46.23168" lon="6.79891">
        <ele>1649</ele>
        <time>2015-06-26T06:12:58Z</time>
      </trkpt>
      <trkpt lat="46.23183" lon="6.799">
        <ele>1649</ele>
        <time>2015-06-26T06:13:02Z</time>
      </trkpt>
      <trkpt lat="46.23199" lon="6.79908">
        <ele>1647</ele>
        <time>2015-06-26T06:13:06Z</time>
      </trkpt>
      <trkpt lat="46.23215" lon="6.79919">
        <ele>1650</ele>
        <time>2015-06-26T06:13:10Z</time>
      </trkpt>
      <trkpt lat="46.23228" lon="6.79936">
        <ele>1649</ele>
        <time>2015-06-26T06:13:14Z</time>
      </trkpt>
      <trkpt lat="46.23237" lon="6.79954">
        <ele>1650</ele>
        <time>2015-06-26T06:13:18Z</time>
      </trkpt>
      <trkpt lat="46.23247" lon="6.79971">
        <ele>1650</ele>
        <time>2015-06-26T06:13:22Z</time>
      </trkpt>
      <trkpt lat="46.23256" lon="6.79992">
        <ele>1645</ele>
        <time>2015-06-26T06:13:26Z</time>
      </trkpt>
      <trkpt lat="46.23266" lon="6.80035">
        <ele>1647</ele>
        <time>2015-06-26T06:13:32Z</time>
      </trkpt>
      <trkpt lat="46.23282" lon="6.80054">
        <ele>1647</ele>
        <time>2015-06-26T06:13:36Z</time>
      </trkpt>
      <trkpt lat="46.233" lon="6.8006">
        <ele>1647</ele>
        <time>2015-06-26T06:13:40Z</time>
      </trkpt>
      <trkpt lat="46.23322" lon="6.80071">
        <ele>1646</ele>
        <time>2015-06-26T06:13:44Z</time>
      </trkpt>
      <trkpt lat="46.23347" lon="6.80082">
        <ele>1644</ele>
        <time>2015-06-26T06:13:48Z</time>
      </trkpt>
      <trkpt lat="46.23368" lon="6.80091">
        <ele>1655</ele>
        <time>2015-06-26T06:13:52Z</time>
      </trkpt>
      <trkpt lat="46.23387" lon="6.80094">
        <ele>1655</ele>
        <time>2015-06-26T06:13:56Z</time>
      </trkpt>
      <trkpt lat="46.23404" lon="6.80083">
        <ele>1645</ele>
        <time>2015-06-26T06:14:00Z</time>
      </trkpt>
      <trkpt lat="46.23419" lon="6.80072">
        <ele>1644</ele>
        <time>2015-06-26T06:14:04Z</time>
      </trkpt>
      <trkpt lat="46.23433" lon="6.80063">
        <ele>1641</ele>
        <time>2015-06-26T06:14:08Z</time>
      </trkpt>
      <trkpt lat="46.23448" lon="6.80065">
        <ele>1640</ele>
        <time>2015-06-26T06:14:12Z</time>
      </trkpt>
      <trkpt lat="46.23458" lon="6.80079">
        <ele>1640</ele>
        <time>2015-06-26T06:14:16Z</time>
      </trkpt>
      <trkpt lat="46.23468" lon="6.8009">
        <ele>1654</ele>
        <time>2015-06-26T06:14:20Z</time>
      </trkpt>
      <trkpt lat="46.23488" lon="6.80091">
        <ele>1652</ele>
        <time>2015-06-26T06:14:26Z</time>
      </trkpt>
      <trkpt lat="46.23499" lon="6.80088">
        <ele>1649</ele>
        <time>2015-06-26T06:14:30Z</time>
      </trkpt>
      <trkpt lat="46.2351" lon="6.80085">
        <ele>1649</ele>
        <time>2015-06-26T06:14:34Z</time>
      </trkpt>
      <trkpt lat="46.23523" lon="6.80079">
        <ele>1634</ele>
        <time>2015-06-26T06:14:38Z</time>
      </trkpt>
      <trkpt lat="46.23533" lon="6.80074">
        <ele>1631</ele>
        <time>2015-06-26T06:14:42Z</time>
      </trkpt>
      <trkpt lat="46.23547" lon="6.80075">
        <ele>1629</ele>
        <time>2015-06-26T06:14:46Z</time>
      </trkpt>
      <trkpt lat="46.23556" lon="6.80079">
        <ele>1629</ele>
        <time>2015-06-26T06:14:50Z</time>
      </trkpt>
      <trkpt lat="46.23578" lon="6.80091">
        <ele>1641</ele>
        <time>2015-06-26T06:14:54Z</time>
      </trkpt>
      <trkpt lat="46.23602" lon="6.80118">
        <ele>1632</ele>
        <time>2015-06-26T06:14:58Z</time>
      </trkpt>
      <trkpt lat="46.23624" lon="6.80149">
        <ele>1632</ele>
        <time>2015-06-26T06:15:02Z</time>
      </trkpt>
      <trkpt lat="46.23644" lon="6.80183">
        <ele>1647</ele>
        <time>2015-06-26T06:15:06Z</time>
      </trkpt>
      <trkpt lat="46.23674" lon="6.80218">
        <ele>1618</ele>
        <time>2015-06-26T06:15:10Z</time>
      </trkpt>
      <trkpt lat="46.23695" lon="6.80255">
        <ele>1628</ele>
        <time>2015-06-26T06:15:14Z</time>
      </trkpt>
      <trkpt lat="46.23699" lon="6.80315">
        <ele>1628</ele>
        <time>2015-06-26T06:15:20Z</time>
      </trkpt>
      <trkpt lat="46.23696" lon="6.80356">
        <ele>1629</ele>
        <time>2015-06-26T06:15:24Z</time>
      </trkpt>
      <trkpt lat="46.2369" lon="6.80402">
        <ele>1631</ele>
        <time>2015-06-26T06:15:28Z</time>
      </trkpt>
      <trkpt lat="46.2368" lon="6.80453">
        <ele>1623</ele>
        <time>2015-06-26T06:15:32Z</time>
      </trkpt>
      <trkpt lat="46.23786" lon="6.8069">
        <ele>1586</ele>
        <time>2015-06-26T06:16:00Z</time>
      </trkpt>
      <trkpt lat="46.238" lon="6.80713">
        <ele>1586</ele>
        <time>2015-06-26T06:16:04Z</time>
      </trkpt>
      <trkpt lat="46.23821" lon="6.80723">
        <ele>1584</ele>
        <time>2015-06-26T06:16:08Z</time>
      </trkpt>
      <trkpt lat="46.23853" lon="6.8073">
        <ele>1572</ele>
        <time>2015-06-26T06:16:12Z</time>
      </trkpt>
      <trkpt lat="46.23883" lon="6.80742">
        <ele>1569</ele>
        <time>2015-06-26T06:16:16Z</time>
      </trkpt>
      <trkpt lat="46.23913" lon="6.80758">
        <ele>1572</ele>
        <time>2015-06-26T06:16:20Z</time>
      </trkpt>
      <trkpt lat="46.23939" lon="6.8078">
        <ele>1566</ele>
        <time>2015-06-26T06:16:24Z</time>
      </trkpt>
      <trkpt lat="46.23958" lon="6.80809">
        <ele>1567</ele>
        <time>2015-06-26T06:16:28Z</time>
      </trkpt>
      <trkpt lat="46.23992" lon="6.80826">
        <ele>1567</ele>
        <time>2015-06-26T06:16:34Z</time>
      </trkpt>
      <trkpt lat="46.24017" lon="6.80823">
        <ele>1558</ele>
        <time>2015-06-26T06:16:38Z</time>
      </trkpt>
      <trkpt lat="46.24045" lon="6.80818">
        <ele>1552</ele>
        <time>2015-06-26T06:16:42Z</time>
      </trkpt>
      <trkpt lat="46.24075" lon="6.80815">
        <ele>1551</ele>
        <time>2015-06-26T06:16:46Z</time>
      </trkpt>
      <trkpt lat="46.24107" lon="6.80818">
        <ele>1541</ele>
        <time>2015-06-26T06:16:50Z</time>
      </trkpt>
      <trkpt lat="46.24139" lon="6.80835">
        <ele>1552</ele>
        <time>2015-06-26T06:16:54Z</time>
      </trkpt>
      <trkpt lat="46.24166" lon="6.80851">
        <ele>1549</ele>
        <time>2015-06-26T06:16:58Z</time>
      </trkpt>
      <trkpt lat="46.24174" lon="6.80855">
        <ele>1541</ele>
        <time>2015-06-26T06:17:02Z</time>
      </trkpt>
      <trkpt lat="46.24184" lon="6.80853">
        <ele>1540</ele>
        <time>2015-06-26T06:17:06Z</time>
      </trkpt>
      <trkpt lat="46.24186" lon="6.80852">
        <ele>1540</ele>
        <time>2015-06-26T06:17:10Z</time>
      </trkpt>
      <trkpt lat="46.2419" lon="6.80853">
        <ele>1540</ele>
        <time>2015-06-26T06:17:14Z</time>
      </trkpt>
      <trkpt lat="46.24194" lon="6.80853">
        <ele>1539</ele>
        <time>2015-06-26T06:17:18Z</time>
      </trkpt>
      <trkpt lat="46.24204" lon="6.80857">
        <ele>1538</ele>
        <time>2015-06-26T06:17:22Z</time>
      </trkpt>
      <trkpt lat="46.24218" lon="6.80874">
        <ele>1539</ele>
        <time>2015-06-26T06:17:28Z</time>
      </trkpt>
      <trkpt lat="46.24229" lon="6.80889">
        <ele>1540</ele>
        <time>2015-06-26T06:17:32Z</time>
      </trkpt>
      <trkpt lat="46.24238" lon="6.80917">
        <ele>1551</ele>
        <time>2015-06-26T06:17:36Z</time>
      </trkpt>
      <trkpt lat="46.24261" lon="6.80948">
        <ele>1536</ele>
        <time>2015-06-26T06:17:40Z</time>
      </trkpt>
      <trkpt lat="46.24277" lon="6.80981">
        <ele>1538</ele>
        <time>2015-06-26T06:17:44Z</time>
      </trkpt>
      <trkpt lat="46.24294" lon="6.81011">
        <ele>1550</ele>
        <time>2015-06-26T06:17:48Z</time>
      </trkpt>
      <trkpt lat="46.24303" lon="6.81037">
        <ele>1552</ele>
        <time>2015-06-26T06:17:52Z</time>
      </trkpt>
      <trkpt lat="46.24313" lon="6.81049">
        <ele>1552</ele>
        <time>2015-06-26T06:17:56Z</time>
      </trkpt>
      <trkpt lat="46.24333" lon="6.81068">
        <ele>1553</ele>
        <time>2015-06-26T06:18:00Z</time>
      </trkpt>
      <trkpt lat="46.24348" lon="6.81083">
        <ele>1536</ele>
        <time>2015-06-26T06:18:04Z</time>
      </trkpt>
      <trkpt lat="46.24366" lon="6.81098">
        <ele>1544</ele>
        <time>2015-06-26T06:18:08Z</time>
      </trkpt>
      <trkpt lat="46.24378" lon="6.81109">
        <ele>1542</ele>
        <time>2015-06-26T06:18:12Z</time>
      </trkpt>
      <trkpt lat="46.2439" lon="6.81124">
        <ele>1541</ele>
        <time>2015-06-26T06:18:16Z</time>
      </trkpt>
      <trkpt lat="46.24395" lon="6.81164">
        <ele>1544</ele>
        <time>2015-06-26T06:18:22Z</time>
      </trkpt>
      <trkpt lat="46.24395" lon="6.81188">
        <ele>1570</ele>
        <time>2015-06-26T06:18:26Z</time>
      </trkpt>
      <trkpt lat="46.24406" lon="6.8121">
        <ele>1576</ele>
        <time>2015-06-26T06:18:30Z</time>
      </trkpt>
      <trkpt lat="46.2442" lon="6.81224">
        <ele>1547</ele>
        <time>2015-06-26T06:18:34Z</time>
      </trkpt>
      <trkpt lat="46.24432" lon="6.81232">
        <ele>1548</ele>
        <time>2015-06-26T06:18:38Z</time>
      </trkpt>
      <trkpt lat="46.24444" lon="6.81237">
        <ele>1542</ele>
        <time>2015-06-26T06:18:42Z</time>
      </trkpt>
      <trkpt lat="46.24455" lon="6.81246">
        <ele>1536</ele>
        <time>2015-06-26T06:18:46Z</time>
      </trkpt>
      <trkpt lat="46.24463" lon="6.81257">
        <ele>1555</ele>
        <time>2015-06-26T06:18:50Z</time>
      </trkpt>
      <trkpt lat="46.24458" lon="6.81262">
        <ele>1558</ele>
        <time>2015-06-26T06:18:54Z</time>
      </trkpt>
      <trkpt lat="46.24453" lon="6.81271">
        <ele>1562</ele>
        <time>2015-06-26T06:18:58Z</time>
      </trkpt>
      <trkpt lat="46.2445" lon="6.81281">
        <ele>1565</ele>
        <time>2015-06-26T06:19:02Z</time>
      </trkpt>
      <trkpt lat="46.24449" lon="6.8129">
        <ele>1567</ele>
        <time>2015-06-26T06:19:06Z</time>
      </trkpt>
      <trkpt lat="46.24452" lon="6.81298">
        <ele>1568</ele>
        <time>2015-06-26T06:19:10Z</time>
      </trkpt>
      <trkpt lat="46.24468" lon="6.81328">
        <ele>1565</ele>
        <time>2015-06-26T06:19:16Z</time>
      </trkpt>
      <trkpt lat="46.24473" lon="6.81342">
        <ele>1573</ele>
        <time>2015-06-26T06:19:20Z</time>
      </trkpt>
      <trkpt lat="46.24486" lon="6.81354">
        <ele>1569</ele>
        <time>2015-06-26T06:19:24Z</time>
      </trkpt>
      <trkpt lat="46.24494" lon="6.8137">
        <ele>1570</ele>
        <time>2015-06-26T06:19:28Z</time>
      </trkpt>
      <trkpt lat="46.24501" lon="6.81385">
        <ele>1529</ele>
        <time>2015-06-26T06:19:32Z</time>
      </trkpt>
      <trkpt lat="46.24505" lon="6.81412">
        <ele>1543</ele>
        <time>2015-06-26T06:19:36Z</time>
      </trkpt>
      <trkpt lat="46.24467" lon="6.81606">
        <ele>1503</ele>
        <time>2015-06-26T06:20:16Z</time>
      </trkpt>
      <trkpt lat="46.24469" lon="6.81616">
        <ele>1502</ele>
        <time>2015-06-26T06:20:20Z</time>
      </trkpt>
      <trkpt lat="46.24624" lon="6.81766">
        <ele>1462</ele>
        <time>2015-06-26T06:20:52Z</time>
      </trkpt>
      <trkpt lat="46.24634" lon="6.81784">
        <ele>1461</ele>
        <time>2015-06-26T06:20:56Z</time>
      </trkpt>
      <trkpt lat="46.2465" lon="6.81815">
        <ele>1459</ele>
        <time>2015-06-26T06:21:00Z</time>
      </trkpt>
      <trkpt lat="46.24657" lon="6.81857">
        <ele>1465</ele>
        <time>2015-06-26T06:21:04Z</time>
      </trkpt>
      <trkpt lat="46.24669" lon="6.81916">
        <ele>1456</ele>
        <time>2015-06-26T06:21:10Z</time>
      </trkpt>
      <trkpt lat="46.24686" lon="6.8194">
        <ele>1447</ele>
        <time>2015-06-26T06:21:14Z</time>
      </trkpt>
      <trkpt lat="46.24704" lon="6.81958">
        <ele>1442</ele>
        <time>2015-06-26T06:21:18Z</time>
      </trkpt>
      <trkpt lat="46.24719" lon="6.81978">
        <ele>1437</ele>
        <time>2015-06-26T06:21:22Z</time>
      </trkpt>
      <trkpt lat="46.24729" lon="6.82003">
        <ele>1437</ele>
        <time>2015-06-26T06:21:26Z</time>
      </trkpt>
      <trkpt lat="46.24736" lon="6.82041">
        <ele>1442</ele>
        <time>2015-06-26T06:21:30Z</time>
      </trkpt>
      <trkpt lat="46.24742" lon="6.82088">
        <ele>1432</ele>
        <time>2015-06-26T06:21:34Z</time>
      </trkpt>
      <trkpt lat="46.24747" lon="6.82138">
        <ele>1439</ele>
        <time>2015-06-26T06:21:38Z</time>
      </trkpt>
      <trkpt lat="46.2475" lon="6.82176">
        <ele>1409</ele>
        <time>2015-06-26T06:21:42Z</time>
      </trkpt>
      <trkpt lat="46.24748" lon="6.82216">
        <ele>1427</ele>
        <time>2015-06-26T06:21:46Z</time>
      </trkpt>
      <trkpt lat="46.24746" lon="6.82261">
        <ele>1409</ele>
        <time>2015-06-26T06:21:50Z</time>
      </trkpt>
      <trkpt lat="46.24756" lon="6.82294">
        <ele>1386</ele>
        <time>2015-06-26T06:22:00Z</time>
      </trkpt>
      <trkpt lat="46.24751" lon="6.82301">
        <ele>1386</ele>
        <time>2015-06-26T06:22:04Z</time>
      </trkpt>
      <trkpt lat="46.24726" lon="6.82334">
        <ele>1395</ele>
        <time>2015-06-26T06:22:10Z</time>
      </trkpt>
      <trkpt lat="46.24706" lon="6.82381">
        <ele>1397</ele>
        <time>2015-06-26T06:22:14Z</time>
      </trkpt>
      <trkpt lat="46.24687" lon="6.82427">
        <ele>1391</ele>
        <time>2015-06-26T06:22:18Z</time>
      </trkpt>
      <trkpt lat="46.24669" lon="6.82458">
        <ele>1389</ele>
        <time>2015-06-26T06:22:22Z</time>
      </trkpt>
      <trkpt lat="46.24671" lon="6.82479">
        <ele>1388</ele>
        <time>2015-06-26T06:22:26Z</time>
      </trkpt>
      <trkpt lat="46.24688" lon="6.82505">
        <ele>1388</ele>
        <time>2015-06-26T06:22:30Z</time>
      </trkpt>
      <trkpt lat="46.24712" lon="6.82525">
        <ele>1388</ele>
        <time>2015-06-26T06:22:34Z</time>
      </trkpt>
      <trkpt lat="46.2474" lon="6.82542">
        <ele>1388</ele>
        <time>2015-06-26T06:22:38Z</time>
      </trkpt>
      <trkpt lat="46.24768" lon="6.82568">
        <ele>1383</ele>
        <time>2015-06-26T06:22:42Z</time>
      </trkpt>
      <trkpt lat="46.24802" lon="6.82587">
        <ele>1397</ele>
        <time>2015-06-26T06:22:46Z</time>
      </trkpt>
      <trkpt lat="46.24837" lon="6.82597">
        <ele>1384</ele>
        <time>2015-06-26T06:22:50Z</time>
      </trkpt>
      <trkpt lat="46.24875" lon="6.82597">
        <ele>1383</ele>
        <time>2015-06-26T06:22:54Z</time>
      </trkpt>
      <trkpt lat="46.24908" lon="6.82599">
        <ele>1377</ele>
        <time>2015-06-26T06:22:58Z</time>
      </trkpt>
      <trkpt lat="46.24959" lon="6.82604">
        <ele>1362</ele>
        <time>2015-06-26T06:23:04Z</time>
      </trkpt>
      <trkpt lat="46.24992" lon="6.82626">
        <ele>1361</ele>
        <time>2015-06-26T06:23:08Z</time>
      </trkpt>
      <trkpt lat="46.25022" lon="6.82661">
        <ele>1347</ele>
        <time>2015-06-26T06:23:12Z</time>
      </trkpt>
      <trkpt lat="46.2505" lon="6.82697">
        <ele>1346</ele>
        <time>2015-06-26T06:23:16Z</time>
      </trkpt>
      <trkpt lat="46.25075" lon="6.82722">
        <ele>1343</ele>
        <time>2015-06-26T06:23:20Z</time>
      </trkpt>
      <trkpt lat="46.25101" lon="6.82754">
        <ele>1331</ele>
        <time>2015-06-26T06:23:24Z</time>
      </trkpt>
      <trkpt lat="46.2512" lon="6.82778">
        <ele>1327</ele>
        <time>2015-06-26T06:23:28Z</time>
      </trkpt>
      <trkpt lat="46.2514" lon="6.82801">
        <ele>1323</ele>
        <time>2015-06-26T06:23:32Z</time>
      </trkpt>
      <trkpt lat="46.25161" lon="6.82822">
        <ele>1315</ele>
        <time>2015-06-26T06:23:36Z</time>
      </trkpt>
      <trkpt lat="46.25169" lon="6.82843">
        <ele>1301</ele>
        <time>2015-06-26T06:23:40Z</time>
      </trkpt>
      <trkpt lat="46.25167" lon="6.82867">
        <ele>1296</ele>
        <time>2015-06-26T06:23:44Z</time>
      </trkpt>
      <trkpt lat="46.25168" lon="6.82902">
        <ele>1302</ele>
        <time>2015-06-26T06:23:48Z</time>
      </trkpt>
      <trkpt lat="46.25172" lon="6.82943">
        <ele>1302</ele>
        <time>2015-06-26T06:23:52Z</time>
      </trkpt>
      <trkpt lat="46.25187" lon="6.83015">
        <ele>1305</ele>
        <time>2015-06-26T06:23:58Z</time>
      </trkpt>
      <trkpt lat="46.25203" lon="6.83066">
        <ele>1302</ele>
        <time>2015-06-26T06:24:02Z</time>
      </trkpt>
      <trkpt lat="46.2522" lon="6.83123">
        <ele>1305</ele>
        <time>2015-06-26T06:24:06Z</time>
      </trkpt>
      <trkpt lat="46.25241" lon="6.83168">
        <ele>1299</ele>
        <time>2015-06-26T06:24:10Z</time>
      </trkpt>
      <trkpt lat="46.25268" lon="6.83202">
        <ele>1281</ele>
        <time>2015-06-26T06:24:14Z</time>
      </trkpt>
      <trkpt lat="46.25285" lon="6.8324">
        <ele>1282</ele>
        <time>2015-06-26T06:24:18Z</time>
      </trkpt>
      <trkpt lat="46.25312" lon="6.83272">
        <ele>1284</ele>
        <time>2015-06-26T06:24:22Z</time>
      </trkpt>
      <trkpt lat="46.25333" lon="6.83306">
        <ele>1285</ele>
        <time>2015-06-26T06:24:26Z</time>
      </trkpt>
      <trkpt lat="46.25354" lon="6.83339">
        <ele>1274</ele>
        <time>2015-06-26T06:24:30Z</time>
      </trkpt>
      <trkpt lat="46.25372" lon="6.8337">
        <ele>1273</ele>
        <time>2015-06-26T06:24:34Z</time>
      </trkpt>
      <trkpt lat="46.25386" lon="6.83402">
        <ele>1272</ele>
        <time>2015-06-26T06:24:38Z</time>
      </trkpt>
      <trkpt lat="46.25402" lon="6.83433">
        <ele>1277</ele>
        <time>2015-06-26T06:24:42Z</time>
      </trkpt>
      <trkpt lat="46.25426" lon="6.83475">
        <ele>1261</ele>
        <time>2015-06-26T06:24:48Z</time>
      </trkpt>
      <trkpt lat="46.25438" lon="6.83505">
        <ele>1266</ele>
        <time>2015-06-26T06:24:52Z</time>
      </trkpt>
      <trkpt lat="46.2545" lon="6.83535">
        <ele>1264</ele>
        <time>2015-06-26T06:24:56Z</time>
      </trkpt>
      <trkpt lat="46.25461" lon="6.83564">
        <ele>1263</ele>
        <time>2015-06-26T06:25:00Z</time>
      </trkpt>
      <trkpt lat="46.25471" lon="6.8359">
        <ele>1267</ele>
        <time>2015-06-26T06:25:04Z</time>
      </trkpt>
      <trkpt lat="46.25482" lon="6.83614">
        <ele>1268</ele>
        <time>2015-06-26T06:25:08Z</time>
      </trkpt>
      <trkpt lat="46.25492" lon="6.83638">
        <ele>1268</ele>
        <time>2015-06-26T06:25:12Z</time>
      </trkpt>
      <trkpt lat="46.25502" lon="6.83659">
        <ele>1257</ele>
        <time>2015-06-26T06:25:16Z</time>
      </trkpt>
      <trkpt lat="46.25512" lon="6.83679">
        <ele>1261</ele>
        <time>2015-06-26T06:25:20Z</time>
      </trkpt>
      <trkpt lat="46.25522" lon="6.837">
        <ele>1262</ele>
        <time>2015-06-26T06:25:24Z</time>
      </trkpt>
      <trkpt lat="46.25534" lon="6.83718">
        <ele>1263</ele>
        <time>2015-06-26T06:25:28Z</time>
      </trkpt>
      <trkpt lat="46.25547" lon="6.83739">
        <ele>1262</ele>
        <time>2015-06-26T06:25:32Z</time>
      </trkpt>
      <trkpt lat="46.25562" lon="6.83761">
        <ele>1270</ele>
        <time>2015-06-26T06:25:36Z</time>
      </trkpt>
      <trkpt lat="46.25589" lon="6.83793">
        <ele>1253</ele>
        <time>2015-06-26T06:25:42Z</time>
      </trkpt>
      <trkpt lat="46.25605" lon="6.8382">
        <ele>1255</ele>
        <time>2015-06-26T06:25:46Z</time>
      </trkpt>
      <trkpt lat="46.25618" lon="6.83849">
        <ele>1259</ele>
        <time>2015-06-26T06:25:50Z</time>
      </trkpt>
      <trkpt lat="46.2563" lon="6.83879">
        <ele>1258</ele>
        <time>2015-06-26T06:25:54Z</time>
      </trkpt>
      <trkpt lat="46.2564" lon="6.83909">
        <ele>1256</ele>
        <time>2015-06-26T06:25:58Z</time>
      </trkpt>
      <trkpt lat="46.25655" lon="6.83934">
        <ele>1255</ele>
        <time>2015-06-26T06:26:02Z</time>
      </trkpt>
      <trkpt lat="46.25679" lon="6.83955">
        <ele>1245</ele>
        <time>2015-06-26T06:26:06Z</time>
      </trkpt>
      <trkpt lat="46.25704" lon="6.83983">
        <ele>1244</ele>
        <time>2015-06-26T06:26:10Z</time>
      </trkpt>
      <trkpt lat="46.2572" lon="6.8401">
        <ele>1247</ele>
        <time>2015-06-26T06:26:14Z</time>
      </trkpt>
      <trkpt lat="46.25724" lon="6.84027">
        <ele>1246</ele>
        <time>2015-06-26T06:26:18Z</time>
      </trkpt>
      <trkpt lat="46.25738" lon="6.8403">
        <ele>1246</ele>
        <time>2015-06-26T06:26:22Z</time>
      </trkpt>
      <trkpt lat="46.25756" lon="6.84035">
        <ele>1241</ele>
        <time>2015-06-26T06:26:26Z</time>
      </trkpt>
      <trkpt lat="46.25781" lon="6.84041">
        <ele>1241</ele>
        <time>2015-06-26T06:26:30Z</time>
      </trkpt>
      <trkpt lat="46.25824" lon="6.84054">
        <ele>1240</ele>
        <time>2015-06-26T06:26:36Z</time>
      </trkpt>
      <trkpt lat="46.25858" lon="6.84065">
        <ele>1237</ele>
        <time>2015-06-26T06:26:40Z</time>
      </trkpt>
      <trkpt lat="46.25893" lon="6.84072">
        <ele>1237</ele>
        <time>2015-06-26T06:26:44Z</time>
      </trkpt>
      <trkpt lat="46.25929" lon="6.84081">
        <ele>1235</ele>
        <time>2015-06-26T06:26:48Z</time>
      </trkpt>
      <trkpt lat="46.25965" lon="6.84086">
        <ele>1240</ele>
        <time>2015-06-26T06:26:52Z</time>
      </trkpt>
      <trkpt lat="46.26003" lon="6.84081">
        <ele>1234</ele>
        <time>2015-06-26T06:26:56Z</time>
      </trkpt>
      <trkpt lat="46.2604" lon="6.84071">
        <ele>1226</ele>
        <time>2015-06-26T06:27:00Z</time>
      </trkpt>
      <trkpt lat="46.26075" lon="6.84069">
        <ele>1226</ele>
        <time>2015-06-26T06:27:04Z</time>
      </trkpt>
      <trkpt lat="46.26109" lon="6.84066">
        <ele>1220</ele>
        <time>2015-06-26T06:27:08Z</time>
      </trkpt>
      <trkpt lat="46.26145" lon="6.84068">
        <ele>1219</ele>
        <time>2015-06-26T06:27:12Z</time>
      </trkpt>
      <trkpt lat="46.26181" lon="6.8408">
        <ele>1217</ele>
        <time>2015-06-26T06:27:16Z</time>
      </trkpt>
      <trkpt lat="46.2622" lon="6.84091">
        <ele>1222</ele>
        <time>2015-06-26T06:27:20Z</time>
      </trkpt>
      <trkpt lat="46.26278" lon="6.84111">
        <ele>1216</ele>
        <time>2015-06-26T06:27:26Z</time>
      </trkpt>
      <trkpt lat="46.26319" lon="6.84125">
        <ele>1215</ele>
        <time>2015-06-26T06:27:30Z</time>
      </trkpt>
      <trkpt lat="46.26362" lon="6.84136">
        <ele>1208</ele>
        <time>2015-06-26T06:27:34Z</time>
      </trkpt>
      <trkpt lat="46.26404" lon="6.84149">
        <ele>1207</ele>
        <time>2015-06-26T06:27:38Z</time>
      </trkpt>
      <trkpt lat="46.26447" lon="6.84163">
        <ele>1202</ele>
        <time>2015-06-26T06:27:42Z</time>
      </trkpt>
      <trkpt lat="46.26493" lon="6.8417">
        <ele>1206</ele>
        <time>2015-06-26T06:27:46Z</time>
      </trkpt>
      <trkpt lat="46.26536" lon="6.84167">
        <ele>1208</ele>
        <time>2015-06-26T06:27:50Z</time>
      </trkpt>
      <trkpt lat="46.26579" lon="6.84157">
        <ele>1200</ele>
        <time>2015-06-26T06:27:54Z</time>
      </trkpt>
      <trkpt lat="46.26622" lon="6.84137">
        <ele>1195</ele>
        <time>2015-06-26T06:27:58Z</time>
      </trkpt>
      <trkpt lat="46.26666" lon="6.84123">
        <ele>1194</ele>
        <time>2015-06-26T06:28:02Z</time>
      </trkpt>
      <trkpt lat="46.26707" lon="6.84108">
        <ele>1192</ele>
        <time>2015-06-26T06:28:06Z</time>
      </trkpt>
      <trkpt lat="46.26742" lon="6.84098">
        <ele>1190</ele>
        <time>2015-06-26T06:28:10Z</time>
      </trkpt>
      <trkpt lat="46.26771" lon="6.841">
        <ele>1190</ele>
        <time>2015-06-26T06:28:14Z</time>
      </trkpt>
      <trkpt lat="46.26792" lon="6.84088">
        <ele>1189</ele>
        <time>2015-06-26T06:28:20Z</time>
      </trkpt>
      <trkpt lat="46.26807" lon="6.8407">
        <ele>1179</ele>
        <time>2015-06-26T06:28:24Z</time>
      </trkpt>
      <trkpt lat="46.26803" lon="6.84046">
        <ele>1177</ele>
        <time>2015-06-26T06:28:28Z</time>
      </trkpt>
      <trkpt lat="46.26801" lon="6.84043">
        <ele>1177</ele>
        <time>2015-06-26T06:28:32Z</time>
      </trkpt>
      <trkpt lat="46.26801" lon="6.84054">
        <ele>1178</ele>
        <time>2015-06-26T06:28:36Z</time>
      </trkpt>
      <trkpt lat="46.26803" lon="6.84065">
        <ele>1179</ele>
        <time>2015-06-26T06:28:40Z</time>
      </trkpt>
      <trkpt lat="46.26803" lon="6.84077">
        <ele>1180</ele>
        <time>2015-06-26T06:28:44Z</time>
      </trkpt>
      <trkpt lat="46.26807" lon="6.84082">
        <ele>1180</ele>
        <time>2015-06-26T06:28:48Z</time>
      </trkpt>
      <trkpt lat="46.26725" lon="6.84126">
        <ele>1193</ele>
        <time>2015-06-26T06:28:52Z</time>
      </trkpt>
      <trkpt lat="46.26714" lon="6.84129">
        <ele>1193</ele>
        <time>2015-06-26T06:28:56Z</time>
      </trkpt>
      <trkpt lat="46.26704" lon="6.84132">
        <ele>1194</ele>
        <time>2015-06-26T06:29:00Z</time>
      </trkpt>
      <trkpt lat="46.26697" lon="6.84135">
        <ele>1194</ele>
        <time>2015-06-26T06:29:04Z</time>
      </trkpt>
      <trkpt lat="46.26669" lon="6.84138">
        <ele>1195</ele>
        <time>2015-06-26T06:29:08Z</time>
      </trkpt>
      <trkpt lat="46.26666" lon="6.84139">
        <ele>1196</ele>
        <time>2015-06-26T06:29:14Z</time>
      </trkpt>
      <trkpt lat="46.26679" lon="6.84139">
        <ele>1195</ele>
        <time>2015-06-26T06:29:18Z</time>
      </trkpt>
      <trkpt lat="46.26692" lon="6.84142">
        <ele>1194</ele>
        <time>2015-06-26T06:29:22Z</time>
      </trkpt>
      <trkpt lat="46.26709" lon="6.84157">
        <ele>1195</ele>
        <time>2015-06-26T06:29:26Z</time>
      </trkpt>
      <trkpt lat="46.26723" lon="6.84166">
        <ele>1195</ele>
        <time>2015-06-26T06:29:30Z</time>
      </trkpt>
      <trkpt lat="46.26725" lon="6.84177">
        <ele>1203</ele>
        <time>2015-06-26T06:29:34Z</time>
      </trkpt>
      <trkpt lat="46.26715" lon="6.84184">
        <ele>1204</ele>
        <time>2015-06-26T06:29:38Z</time>
      </trkpt>
      <trkpt lat="46.26705" lon="6.84183">
        <ele>1204</ele>
        <time>2015-06-26T06:29:42Z</time>
      </trkpt>
      <trkpt lat="46.26694" lon="6.8419">
        <ele>1204</ele>
        <time>2015-06-26T06:29:46Z</time>
      </trkpt>
      <trkpt lat="46.26686" lon="6.84196">
        <ele>1205</ele>
        <time>2015-06-26T06:29:50Z</time>
      </trkpt>
      <trkpt lat="46.2676" lon="6.85793">
        <ele>1637</ele>
        <time>2015-06-26T06:29:54Z</time>
      </trkpt>
      <trkpt lat="46.26767" lon="6.85797">
        <ele>1637</ele>
        <time>2015-06-26T06:29:58Z</time>
      </trkpt>
      <trkpt lat="46.26759" lon="6.85802">
        <ele>1637</ele>
        <time>2015-06-26T06:30:02Z</time>
      </trkpt>
      <trkpt lat="46.26745" lon="6.85804">
        <ele>1633</ele>
        <time>2015-06-26T06:30:08Z</time>
      </trkpt>
      <trkpt lat="46.26737" lon="6.85811">
        <ele>1634</ele>
        <time>2015-06-26T06:30:12Z</time>
      </trkpt>
      <trkpt lat="46.26729" lon="6.85817">
        <ele>1634</ele>
        <time>2015-06-26T06:30:16Z</time>
      </trkpt>
      <trkpt lat="46.26723" lon="6.85821">
        <ele>1633</ele>
        <time>2015-06-26T06:30:20Z</time>
      </trkpt>
      <trkpt lat="46.26717" lon="6.85831">
        <ele>1633</ele>
        <time>2015-06-26T06:30:24Z</time>
      </trkpt>
      <trkpt lat="46.26711" lon="6.8584">
        <ele>1639</ele>
        <time>2015-06-26T06:30:28Z</time>
      </trkpt>
      <trkpt lat="46.26706" lon="6.8585">
        <ele>1639</ele>
        <time>2015-06-26T06:30:32Z</time>
      </trkpt>
      <trkpt lat="46.267" lon="6.85861">
        <ele>1639</ele>
        <time>2015-06-26T06:30:36Z</time>
      </trkpt>
      <trkpt lat="46.26694" lon="6.85871">
        <ele>1640</ele>
        <time>2015-06-26T06:30:40Z</time>
      </trkpt>
      <trkpt lat="46.26687" lon="6.8588">
        <ele>1640</ele>
        <time>2015-06-26T06:30:44Z</time>
      </trkpt>
      <trkpt lat="46.26679" lon="6.85889">
        <ele>1641</ele>
        <time>2015-06-26T06:30:48Z</time>
      </trkpt>
      <trkpt lat="46.26673" lon="6.85897">
        <ele>1641</ele>
        <time>2015-06-26T06:30:52Z</time>
      </trkpt>
      <trkpt lat="46.26662" lon="6.85914">
        <ele>1641</ele>
        <time>2015-06-26T06:30:58Z</time>
      </trkpt>
      <trkpt lat="46.26654" lon="6.85922">
        <ele>1644</ele>
        <time>2015-06-26T06:31:02Z</time>
      </trkpt>
      <trkpt lat="46.26646" lon="6.85926">
        <ele>1645</ele>
        <time>2015-06-26T06:31:06Z</time>
      </trkpt>
      <trkpt lat="46.26636" lon="6.85933">
        <ele>1645</ele>
        <time>2015-06-26T06:31:10Z</time>
      </trkpt>
      <trkpt lat="46.26629" lon="6.85939">
        <ele>1646</ele>
        <time>2015-06-26T06:31:14Z</time>
      </trkpt>
      <trkpt lat="46.26623" lon="6.85945">
        <ele>1646</ele>
        <time>2015-06-26T06:31:18Z</time>
      </trkpt>
      <trkpt lat="46.26617" lon="6.85951">
        <ele>1646</ele>
        <time>2015-06-26T06:31:22Z</time>
      </trkpt>
      <trkpt lat="46.26611" lon="6.85956">
        <ele>1646</ele>
        <time>2015-06-26T06:31:26Z</time>
      </trkpt>
      <trkpt lat="46.26606" lon="6.85961">
        <ele>1647</ele>
        <time>2015-06-26T06:31:30Z</time>
      </trkpt>
      <trkpt lat="46.26602" lon="6.85968">
        <ele>1647</ele>
        <time>2015-06-26T06:31:34Z</time>
      </trkpt>
      <trkpt lat="46.26597" lon="6.85972">
        <ele>1648</ele>
        <time>2015-06-26T06:31:38Z</time>
      </trkpt>
      <trkpt lat="46.26591" lon="6.85975">
        <ele>1648</ele>
        <time>2015-06-26T06:31:42Z</time>
      </trkpt>
      <trkpt lat="46.26585" lon="6.85979">
        <ele>1648</ele>
        <time>2015-06-26T06:31:46Z</time>
      </trkpt>
      <trkpt lat="46.26578" lon="6.85987">
        <ele>1649</ele>
        <time>2015-06-26T06:31:52Z</time>
      </trkpt>
      <trkpt lat="46.26574" lon="6.8599">
        <ele>1649</ele>
        <time>2015-06-26T06:31:56Z</time>
      </trkpt>
      <trkpt lat="46.26573" lon="6.8599">
        <ele>1649</ele>
        <time>2015-06-26T06:32:00Z</time>
      </trkpt>
      <trkpt lat="46.26572" lon="6.85995">
        <ele>1650</ele>
        <time>2015-06-26T06:32:04Z</time>
      </trkpt>
      <trkpt lat="46.26572" lon="6.85998">
        <ele>1650</ele>
        <time>2015-06-26T06:32:08Z</time>
      </trkpt>
      <trkpt lat="46.26572" lon="6.85999">
        <ele>1650</ele>
        <time>2015-06-26T06:32:12Z</time>
      </trkpt>
      <trkpt lat="46.26568" lon="6.86003">
        <ele>1654</ele>
        <time>2015-06-26T06:32:16Z</time>
      </trkpt>
      <trkpt lat="46.26563" lon="6.86007">
        <ele>1655</ele>
        <time>2015-06-26T06:32:20Z</time>
      </trkpt>
      <trkpt lat="46.26559" lon="6.86014">
        <ele>1656</ele>
        <time>2015-06-26T06:32:24Z</time>
      </trkpt>
      <trkpt lat="46.26554" lon="6.86018">
        <ele>1657</ele>
        <time>2015-06-26T06:32:28Z</time>
      </trkpt>
      <trkpt lat="46.26549" lon="6.86023">
        <ele>1657</ele>
        <time>2015-06-26T06:32:32Z</time>
      </trkpt>
      <trkpt lat="46.26545" lon="6.86028">
        <ele>1658</ele>
        <time>2015-06-26T06:32:36Z</time>
      </trkpt>
      <trkpt lat="46.2654" lon="6.86033">
        <ele>1658</ele>
        <time>2015-06-26T06:32:40Z</time>
      </trkpt>
      <trkpt lat="46.26531" lon="6.86039">
        <ele>1659</ele>
        <time>2015-06-26T06:32:46Z</time>
      </trkpt>
      <trkpt lat="46.26526" lon="6.86043">
        <ele>1659</ele>
        <time>2015-06-26T06:32:50Z</time>
      </trkpt>
      <trkpt lat="46.2652" lon="6.86047">
        <ele>1659</ele>
        <time>2015-06-26T06:32:54Z</time>
      </trkpt>
      <trkpt lat="46.26516" lon="6.86052">
        <ele>1660</ele>
        <time>2015-06-26T06:32:58Z</time>
      </trkpt>
      <trkpt lat="46.2651" lon="6.86056">
        <ele>1660</ele>
        <time>2015-06-26T06:33:02Z</time>
      </trkpt>
      <trkpt lat="46.26504" lon="6.86061">
        <ele>1661</ele>
        <time>2015-06-26T06:33:06Z</time>
      </trkpt>
      <trkpt lat="46.265" lon="6.86066">
        <ele>1662</ele>
        <time>2015-06-26T06:33:10Z</time>
      </trkpt>
      <trkpt lat="46.26494" lon="6.8607">
        <ele>1665</ele>
        <time>2015-06-26T06:33:14Z</time>
      </trkpt>
      <trkpt lat="46.26488" lon="6.86077">
        <ele>1665</ele>
        <time>2015-06-26T06:33:18Z</time>
      </trkpt>
      <trkpt lat="46.26484" lon="6.86082">
        <ele>1665</ele>
        <time>2015-06-26T06:33:22Z</time>
      </trkpt>
      <trkpt lat="46.26483" lon="6.86083">
        <ele>1666</ele>
        <time>2015-06-26T06:33:26Z</time>
      </trkpt>
      <trkpt lat="46.26479" lon="6.86088">
        <ele>1671</ele>
        <time>2015-06-26T06:33:30Z</time>
      </trkpt>
      <trkpt lat="46.26476" lon="6.86093">
        <ele>1672</ele>
        <time>2015-06-26T06:33:34Z</time>
      </trkpt>
      <trkpt lat="46.26473" lon="6.861">
        <ele>1673</ele>
        <time>2015-06-26T06:33:40Z</time>
      </trkpt>
      <trkpt lat="46.26471" lon="6.86104">
        <ele>1673</ele>
        <time>2015-06-26T06:33:44Z</time>
      </trkpt>
      <trkpt lat="46.26469" lon="6.86109">
        <ele>1674</ele>
        <time>2015-06-26T06:33:48Z</time>
      </trkpt>
      <trkpt lat="46.26468" lon="6.86113">
        <ele>1674</ele>
        <time>2015-06-26T06:33:52Z</time>
      </trkpt>
      <trkpt lat="46.26466" lon="6.86115">
        <ele>1674</ele>
        <time>2015-06-26T06:33:56Z</time>
      </trkpt>
      <trkpt lat="46.26465" lon="6.86119">
        <ele>1674</ele>
        <time>2015-06-26T06:34:00Z</time>
      </trkpt>
      <trkpt lat="46.26463" lon="6.86123">
        <ele>1675</ele>
        <time>2015-06-26T06:34:04Z</time>
      </trkpt>
      <trkpt lat="46.26462" lon="6.86127">
        <ele>1675</ele>
        <time>2015-06-26T06:34:08Z</time>
      </trkpt>
      <trkpt lat="46.2646" lon="6.86132">
        <ele>1676</ele>
        <time>2015-06-26T06:34:12Z</time>
      </trkpt>
      <trkpt lat="46.26458" lon="6.86139">
        <ele>1676</ele>
        <time>2015-06-26T06:34:16Z</time>
      </trkpt>
      <trkpt lat="46.26459" lon="6.86145">
        <ele>1676</ele>
        <time>2015-06-26T06:34:20Z</time>
      </trkpt>
      <trkpt lat="46.2646" lon="6.8615">
        <ele>1676</ele>
        <time>2015-06-26T06:34:24Z</time>
      </trkpt>
      <trkpt lat="46.26462" lon="6.86153">
        <ele>1676</ele>
        <time>2015-06-26T06:34:30Z</time>
      </trkpt>
      <trkpt lat="46.26464" lon="6.86156">
        <ele>1676</ele>
        <time>2015-06-26T06:34:34Z</time>
      </trkpt>
      <trkpt lat="46.26467" lon="6.86165">
        <ele>1676</ele>
        <time>2015-06-26T06:34:38Z</time>
      </trkpt>
      <trkpt lat="46.26471" lon="6.86172">
        <ele>1679</ele>
        <time>2015-06-26T06:34:42Z</time>
      </trkpt>
      <trkpt lat="46.26476" lon="6.86177">
        <ele>1679</ele>
        <time>2015-06-26T06:34:46Z</time>
      </trkpt>
      <trkpt lat="46.26481" lon="6.86179">
        <ele>1678</ele>
        <time>2015-06-26T06:34:50Z</time>
      </trkpt>
      <trkpt lat="46.26487" lon="6.8618">
        <ele>1678</ele>
        <time>2015-06-26T06:34:54Z</time>
      </trkpt>
      <trkpt lat="46.26493" lon="6.86181">
        <ele>1678</ele>
        <time>2015-06-26T06:34:58Z</time>
      </trkpt>
      <trkpt lat="46.265" lon="6.86181">
        <ele>1677</ele>
        <time>2015-06-26T06:35:02Z</time>
      </trkpt>
      <trkpt lat="46.26507" lon="6.86182">
        <ele>1677</ele>
        <time>2015-06-26T06:35:06Z</time>
      </trkpt>
      <trkpt lat="46.26513" lon="6.86182">
        <ele>1678</ele>
        <time>2015-06-26T06:35:10Z</time>
      </trkpt>
      <trkpt lat="46.26519" lon="6.86182">
        <ele>1678</ele>
        <time>2015-06-26T06:35:14Z</time>
      </trkpt>
      <trkpt lat="46.26525" lon="6.86184">
        <ele>1679</ele>
        <time>2015-06-26T06:35:18Z</time>
      </trkpt>
      <trkpt lat="46.26535" lon="6.86186">
        <ele>1679</ele>
        <time>2015-06-26T06:35:24Z</time>
      </trkpt>
      <trkpt lat="46.26542" lon="6.86186">
        <ele>1680</ele>
        <time>2015-06-26T06:35:28Z</time>
      </trkpt>
      <trkpt lat="46.26549" lon="6.86185">
        <ele>1680</ele>
        <time>2015-06-26T06:35:32Z</time>
      </trkpt>
      <trkpt lat="46.26557" lon="6.86186">
        <ele>1681</ele>
        <time>2015-06-26T06:35:36Z</time>
      </trkpt>
      <trkpt lat="46.26564" lon="6.86186">
        <ele>1681</ele>
        <time>2015-06-26T06:35:40Z</time>
      </trkpt>
      <trkpt lat="46.26573" lon="6.86192">
        <ele>1681</ele>
        <time>2015-06-26T06:35:44Z</time>
      </trkpt>
      <trkpt lat="46.26579" lon="6.86198">
        <ele>1681</ele>
        <time>2015-06-26T06:35:48Z</time>
      </trkpt>
      <trkpt lat="46.26586" lon="6.86205">
        <ele>1685</ele>
        <time>2015-06-26T06:35:52Z</time>
      </trkpt>
      <trkpt lat="46.26592" lon="6.86213">
        <ele>1685</ele>
        <time>2015-06-26T06:35:56Z</time>
      </trkpt>
      <trkpt lat="46.26597" lon="6.86222">
        <ele>1686</ele>
        <time>2015-06-26T06:36:00Z</time>
      </trkpt>
      <trkpt lat="46.26601" lon="6.86232">
        <ele>1686</ele>
        <time>2015-06-26T06:36:04Z</time>
      </trkpt>
      <trkpt lat="46.26601" lon="6.86243">
        <ele>1686</ele>
        <time>2015-06-26T06:36:08Z</time>
      </trkpt>
      <trkpt lat="46.26597" lon="6.86258">
        <ele>1690</ele>
        <time>2015-06-26T06:36:12Z</time>
      </trkpt>
      <trkpt lat="46.26588" lon="6.86286">
        <ele>1692</ele>
        <time>2015-06-26T06:36:18Z</time>
      </trkpt>
      <trkpt lat="46.2658" lon="6.86302">
        <ele>1687</ele>
        <time>2015-06-26T06:36:22Z</time>
      </trkpt>
      <trkpt lat="46.26572" lon="6.86314">
        <ele>1688</ele>
        <time>2015-06-26T06:36:26Z</time>
      </trkpt>
      <trkpt lat="46.26565" lon="6.86327">
        <ele>1688</ele>
        <time>2015-06-26T06:36:30Z</time>
      </trkpt>
      <trkpt lat="46.26558" lon="6.8634">
        <ele>1689</ele>
        <time>2015-06-26T06:36:34Z</time>
      </trkpt>
      <trkpt lat="46.26553" lon="6.86352">
        <ele>1689</ele>
        <time>2015-06-26T06:36:38Z</time>
      </trkpt>
      <trkpt lat="46.26548" lon="6.86365">
        <ele>1688</ele>
        <time>2015-06-26T06:36:42Z</time>
      </trkpt>
      <trkpt lat="46.26544" lon="6.86375">
        <ele>1688</ele>
        <time>2015-06-26T06:36:46Z</time>
      </trkpt>
      <trkpt lat="46.26543" lon="6.86387">
        <ele>1689</ele>
        <time>2015-06-26T06:36:50Z</time>
      </trkpt>
      <trkpt lat="46.26541" lon="6.86401">
        <ele>1689</ele>
        <time>2015-06-26T06:36:54Z</time>
      </trkpt>
      <trkpt lat="46.2654" lon="6.86414">
        <ele>1689</ele>
        <time>2015-06-26T06:36:58Z</time>
      </trkpt>
      <trkpt lat="46.26539" lon="6.86425">
        <ele>1691</ele>
        <time>2015-06-26T06:37:02Z</time>
      </trkpt>
      <trkpt lat="46.26539" lon="6.86439">
        <ele>1691</ele>
        <time>2015-06-26T06:37:06Z</time>
      </trkpt>
      <trkpt lat="46.2654" lon="6.86466">
        <ele>1691</ele>
        <time>2015-06-26T06:37:12Z</time>
      </trkpt>
      <trkpt lat="46.26533" lon="6.86484">
        <ele>1691</ele>
        <time>2015-06-26T06:37:16Z</time>
      </trkpt>
      <trkpt lat="46.26535" lon="6.86496">
        <ele>1691</ele>
        <time>2015-06-26T06:37:20Z</time>
      </trkpt>
      <trkpt lat="46.26537" lon="6.86505">
        <ele>1693</ele>
        <time>2015-06-26T06:37:24Z</time>
      </trkpt>
      <trkpt lat="46.26537" lon="6.8651">
        <ele>1693</ele>
        <time>2015-06-26T06:37:28Z</time>
      </trkpt>
      <trkpt lat="46.26536" lon="6.86527">
        <ele>1693</ele>
        <time>2015-06-26T06:37:32Z</time>
      </trkpt>
      <trkpt lat="46.26537" lon="6.86544">
        <ele>1693</ele>
        <time>2015-06-26T06:37:36Z</time>
      </trkpt>
      <trkpt lat="46.26547" lon="6.86564">
        <ele>1693</ele>
        <time>2015-06-26T06:37:40Z</time>
      </trkpt>
      <trkpt lat="46.26555" lon="6.86581">
        <ele>1692</ele>
        <time>2015-06-26T06:37:44Z</time>
      </trkpt>
      <trkpt lat="46.26557" lon="6.86597">
        <ele>1692</ele>
        <time>2015-06-26T06:37:48Z</time>
      </trkpt>
      <trkpt lat="46.26557" lon="6.86612">
        <ele>1692</ele>
        <time>2015-06-26T06:37:52Z</time>
      </trkpt>
      <trkpt lat="46.26556" lon="6.86635">
        <ele>1692</ele>
        <time>2015-06-26T06:37:56Z</time>
      </trkpt>
      <trkpt lat="46.26545" lon="6.86678">
        <ele>1690</ele>
        <time>2015-06-26T06:38:02Z</time>
      </trkpt>
      <trkpt lat="46.26533" lon="6.86704">
        <ele>1690</ele>
        <time>2015-06-26T06:38:06Z</time>
      </trkpt>
      <trkpt lat="46.26524" lon="6.86728">
        <ele>1690</ele>
        <time>2015-06-26T06:38:10Z</time>
      </trkpt>
      <trkpt lat="46.26521" lon="6.86757">
        <ele>1682</ele>
        <time>2015-06-26T06:38:14Z</time>
      </trkpt>
      <trkpt lat="46.26505" lon="6.86783">
        <ele>1679</ele>
        <time>2015-06-26T06:38:18Z</time>
      </trkpt>
      <trkpt lat="46.26473" lon="6.86808">
        <ele>1688</ele>
        <time>2015-06-26T06:38:22Z</time>
      </trkpt>
      <trkpt lat="46.26435" lon="6.86835">
        <ele>1680</ele>
        <time>2015-06-26T06:38:26Z</time>
      </trkpt>
      <trkpt lat="46.26399" lon="6.86859">
        <ele>1686</ele>
        <time>2015-06-26T06:38:30Z</time>
      </trkpt>
      <trkpt lat="46.26369" lon="6.86876">
        <ele>1685</ele>
        <time>2015-06-26T06:38:34Z</time>
      </trkpt>
      <trkpt lat="46.26346" lon="6.86891">
        <ele>1685</ele>
        <time>2015-06-26T06:38:38Z</time>
      </trkpt>
      <trkpt lat="46.26326" lon="6.86896">
        <ele>1691</ele>
        <time>2015-06-26T06:38:42Z</time>
      </trkpt>
      <trkpt lat="46.26311" lon="6.86904">
        <ele>1692</ele>
        <time>2015-06-26T06:38:46Z</time>
      </trkpt>
      <trkpt lat="46.26299" lon="6.8691">
        <ele>1694</ele>
        <time>2015-06-26T06:38:50Z</time>
      </trkpt>
      <trkpt lat="46.26285" lon="6.86926">
        <ele>1690</ele>
        <time>2015-06-26T06:38:56Z</time>
      </trkpt>
      <trkpt lat="46.26276" lon="6.86936">
        <ele>1690</ele>
        <time>2015-06-26T06:39:00Z</time>
      </trkpt>
      <trkpt lat="46.26267" lon="6.86944">
        <ele>1691</ele>
        <time>2015-06-26T06:39:04Z</time>
      </trkpt>
      <trkpt lat="46.26262" lon="6.86956">
        <ele>1690</ele>
        <time>2015-06-26T06:39:08Z</time>
      </trkpt>
      <trkpt lat="46.26259" lon="6.86969">
        <ele>1690</ele>
        <time>2015-06-26T06:39:12Z</time>
      </trkpt>
      <trkpt lat="46.26256" lon="6.86981">
        <ele>1691</ele>
        <time>2015-06-26T06:39:16Z</time>
      </trkpt>
      <trkpt lat="46.26253" lon="6.86992">
        <ele>1692</ele>
        <time>2015-06-26T06:39:20Z</time>
      </trkpt>
      <trkpt lat="46.26252" lon="6.87004">
        <ele>1692</ele>
        <time>2015-06-26T06:39:24Z</time>
      </trkpt>
      <trkpt lat="46.2625" lon="6.87014">
        <ele>1691</ele>
        <time>2015-06-26T06:39:28Z</time>
      </trkpt>
      <trkpt lat="46.26248" lon="6.87024">
        <ele>1701</ele>
        <time>2015-06-26T06:39:32Z</time>
      </trkpt>
      <trkpt lat="46.26247" lon="6.87034">
        <ele>1702</ele>
        <time>2015-06-26T06:39:36Z</time>
      </trkpt>
      <trkpt lat="46.26245" lon="6.87043">
        <ele>1702</ele>
        <time>2015-06-26T06:39:40Z</time>
      </trkpt>
      <trkpt lat="46.26244" lon="6.87053">
        <ele>1702</ele>
        <time>2015-06-26T06:39:44Z</time>
      </trkpt>
      <trkpt lat="46.26243" lon="6.87069">
        <ele>1701</ele>
        <time>2015-06-26T06:39:50Z</time>
      </trkpt>
      <trkpt lat="46.26241" lon="6.8708">
        <ele>1700</ele>
        <time>2015-06-26T06:39:54Z</time>
      </trkpt>
      <trkpt lat="46.26241" lon="6.87091">
        <ele>1701</ele>
        <time>2015-06-26T06:39:58Z</time>
      </trkpt>
      <trkpt lat="46.26243" lon="6.87101">
        <ele>1702</ele>
        <time>2015-06-26T06:40:02Z</time>
      </trkpt>
      <trkpt lat="46.26242" lon="6.87111">
        <ele>1703</ele>
        <time>2015-06-26T06:40:06Z</time>
      </trkpt>
      <trkpt lat="46.26237" lon="6.87112">
        <ele>1704</ele>
        <time>2015-06-26T06:40:10Z</time>
      </trkpt>
      <trkpt lat="46.26231" lon="6.87107">
        <ele>1704</ele>
        <time>2015-06-26T06:40:14Z</time>
      </trkpt>
      <trkpt lat="46.26227" lon="6.87101">
        <ele>1704</ele>
        <time>2015-06-26T06:40:18Z</time>
      </trkpt>
      <trkpt lat="46.26222" lon="6.87096">
        <ele>1705</ele>
        <time>2015-06-26T06:40:22Z</time>
      </trkpt>
      <trkpt lat="46.26217" lon="6.87092">
        <ele>1705</ele>
        <time>2015-06-26T06:40:26Z</time>
      </trkpt>
      <trkpt lat="46.26212" lon="6.87086">
        <ele>1706</ele>
        <time>2015-06-26T06:40:30Z</time>
      </trkpt>
      <trkpt lat="46.26207" lon="6.87082">
        <ele>1707</ele>
        <time>2015-06-26T06:40:34Z</time>
      </trkpt>
      <trkpt lat="46.26203" lon="6.87079">
        <ele>1707</ele>
        <time>2015-06-26T06:40:38Z</time>
      </trkpt>
      <trkpt lat="46.26195" lon="6.8707">
        <ele>1709</ele>
        <time>2015-06-26T06:40:44Z</time>
      </trkpt>
      <trkpt lat="46.26191" lon="6.87061">
        <ele>1709</ele>
        <time>2015-06-26T06:40:48Z</time>
      </trkpt>
      <trkpt lat="46.26188" lon="6.87053">
        <ele>1709</ele>
        <time>2015-06-26T06:40:52Z</time>
      </trkpt>
      <trkpt lat="46.2619" lon="6.87045">
        <ele>1709</ele>
        <time>2015-06-26T06:40:56Z</time>
      </trkpt>
      <trkpt lat="46.26191" lon="6.87036">
        <ele>1709</ele>
        <time>2015-06-26T06:41:00Z</time>
      </trkpt>
      <trkpt lat="46.26192" lon="6.87027">
        <ele>1709</ele>
        <time>2015-06-26T06:41:04Z</time>
      </trkpt>
      <trkpt lat="46.26194" lon="6.87019">
        <ele>1709</ele>
        <time>2015-06-26T06:41:08Z</time>
      </trkpt>
      <trkpt lat="46.26197" lon="6.8701">
        <ele>1709</ele>
        <time>2015-06-26T06:41:12Z</time>
      </trkpt>
      <trkpt lat="46.26196" lon="6.87001">
        <ele>1709</ele>
        <time>2015-06-26T06:41:16Z</time>
      </trkpt>
      <trkpt lat="46.26196" lon="6.86991">
        <ele>1711</ele>
        <time>2015-06-26T06:41:20Z</time>
      </trkpt>
      <trkpt lat="46.26196" lon="6.86983">
        <ele>1711</ele>
        <time>2015-06-26T06:41:24Z</time>
      </trkpt>
      <trkpt lat="46.26194" lon="6.86976">
        <ele>1711</ele>
        <time>2015-06-26T06:41:28Z</time>
      </trkpt>
      <trkpt lat="46.26194" lon="6.86963">
        <ele>1711</ele>
        <time>2015-06-26T06:41:34Z</time>
      </trkpt>
      <trkpt lat="46.26193" lon="6.86954">
        <ele>1712</ele>
        <time>2015-06-26T06:41:38Z</time>
      </trkpt>
      <trkpt lat="46.26192" lon="6.86946">
        <ele>1713</ele>
        <time>2015-06-26T06:41:42Z</time>
      </trkpt>
      <trkpt lat="46.26191" lon="6.86936">
        <ele>1714</ele>
        <time>2015-06-26T06:41:46Z</time>
      </trkpt>
      <trkpt lat="46.26191" lon="6.86927">
        <ele>1715</ele>
        <time>2015-06-26T06:41:50Z</time>
      </trkpt>
      <trkpt lat="46.26188" lon="6.86918">
        <ele>1716</ele>
        <time>2015-06-26T06:41:54Z</time>
      </trkpt>
      <trkpt lat="46.26188" lon="6.86909">
        <ele>1720</ele>
        <time>2015-06-26T06:41:58Z</time>
      </trkpt>
      <trkpt lat="46.26188" lon="6.86902">
        <ele>1720</ele>
        <time>2015-06-26T06:42:02Z</time>
      </trkpt>
      <trkpt lat="46.26186" lon="6.86894">
        <ele>1720</ele>
        <time>2015-06-26T06:42:06Z</time>
      </trkpt>
      <trkpt lat="46.26187" lon="6.86884">
        <ele>1720</ele>
        <time>2015-06-26T06:42:10Z</time>
      </trkpt>
      <trkpt lat="46.26185" lon="6.86875">
        <ele>1720</ele>
        <time>2015-06-26T06:42:14Z</time>
      </trkpt>
      <trkpt lat="46.26184" lon="6.86866">
        <ele>1721</ele>
        <time>2015-06-26T06:42:18Z</time>
      </trkpt>
      <trkpt lat="46.26183" lon="6.86858">
        <ele>1722</ele>
        <time>2015-06-26T06:42:22Z</time>
      </trkpt>
      <trkpt lat="46.2618" lon="6.86844">
        <ele>1725</ele>
        <time>2015-06-26T06:42:28Z</time>
      </trkpt>
      <trkpt lat="46.26179" lon="6.86834">
        <ele>1726</ele>
        <time>2015-06-26T06:42:32Z</time>
      </trkpt>
      <trkpt lat="46.26178" lon="6.86824">
        <ele>1730</ele>
        <time>2015-06-26T06:42:36Z</time>
      </trkpt>
      <trkpt lat="46.26179" lon="6.86817">
        <ele>1730</ele>
        <time>2015-06-26T06:42:40Z</time>
      </trkpt>
      <trkpt lat="46.26183" lon="6.8681">
        <ele>1729</ele>
        <time>2015-06-26T06:42:44Z</time>
      </trkpt>
      <trkpt lat="46.26188" lon="6.86804">
        <ele>1729</ele>
        <time>2015-06-26T06:42:48Z</time>
      </trkpt>
      <trkpt lat="46.26193" lon="6.868">
        <ele>1729</ele>
        <time>2015-06-26T06:42:52Z</time>
      </trkpt>
      <trkpt lat="46.26198" lon="6.86794">
        <ele>1729</ele>
        <time>2015-06-26T06:42:56Z</time>
      </trkpt>
      <trkpt lat="46.26199" lon="6.86785">
        <ele>1729</ele>
        <time>2015-06-26T06:43:00Z</time>
      </trkpt>
      <trkpt lat="46.26193" lon="6.86781">
        <ele>1730</ele>
        <time>2015-06-26T06:43:04Z</time>
      </trkpt>
      <trkpt lat="46.26186" lon="6.86784">
        <ele>1731</ele>
        <time>2015-06-26T06:43:08Z</time>
      </trkpt>
      <trkpt lat="46.26181" lon="6.8679">
        <ele>1730</ele>
        <time>2015-06-26T06:43:12Z</time>
      </trkpt>
      <trkpt lat="46.26175" lon="6.86793">
        <ele>1731</ele>
        <time>2015-06-26T06:43:16Z</time>
      </trkpt>
      <trkpt lat="46.2617" lon="6.86803">
        <ele>1730</ele>
        <time>2015-06-26T06:43:22Z</time>
      </trkpt>
      <trkpt lat="46.26165" lon="6.86809">
        <ele>1745</ele>
        <time>2015-06-26T06:43:26Z</time>
      </trkpt>
      <trkpt lat="46.26164" lon="6.86818">
        <ele>1742</ele>
        <time>2015-06-26T06:43:30Z</time>
      </trkpt>
      <trkpt lat="46.26163" lon="6.86827">
        <ele>1738</ele>
        <time>2015-06-26T06:43:34Z</time>
      </trkpt>
      <trkpt lat="46.26162" lon="6.86835">
        <ele>1735</ele>
        <time>2015-06-26T06:43:38Z</time>
      </trkpt>
      <trkpt lat="46.2616" lon="6.86842">
        <ele>1739</ele>
        <time>2015-06-26T06:43:42Z</time>
      </trkpt>
      <trkpt lat="46.26158" lon="6.8685">
        <ele>1742</ele>
        <time>2015-06-26T06:43:46Z</time>
      </trkpt>
      <trkpt lat="46.26157" lon="6.86857">
        <ele>1743</ele>
        <time>2015-06-26T06:43:50Z</time>
      </trkpt>
      <trkpt lat="46.26154" lon="6.86866">
        <ele>1744</ele>
        <time>2015-06-26T06:43:54Z</time>
      </trkpt>
      <trkpt lat="46.26153" lon="6.86873">
        <ele>1745</ele>
        <time>2015-06-26T06:43:58Z</time>
      </trkpt>
      <trkpt lat="46.26151" lon="6.86882">
        <ele>1744</ele>
        <time>2015-06-26T06:44:02Z</time>
      </trkpt>
      <trkpt lat="46.26149" lon="6.86889">
        <ele>1744</ele>
        <time>2015-06-26T06:44:06Z</time>
      </trkpt>
      <trkpt lat="46.26148" lon="6.86895">
        <ele>1743</ele>
        <time>2015-06-26T06:44:10Z</time>
      </trkpt>
      <trkpt lat="46.26145" lon="6.86907">
        <ele>1742</ele>
        <time>2015-06-26T06:44:16Z</time>
      </trkpt>
      <trkpt lat="46.26143" lon="6.86916">
        <ele>1742</ele>
        <time>2015-06-26T06:44:20Z</time>
      </trkpt>
      <trkpt lat="46.26142" lon="6.86923">
        <ele>1738</ele>
        <time>2015-06-26T06:44:24Z</time>
      </trkpt>
      <trkpt lat="46.2614" lon="6.8693">
        <ele>1739</ele>
        <time>2015-06-26T06:44:28Z</time>
      </trkpt>
      <trkpt lat="46.26137" lon="6.86939">
        <ele>1739</ele>
        <time>2015-06-26T06:44:32Z</time>
      </trkpt>
      <trkpt lat="46.26133" lon="6.86946">
        <ele>1740</ele>
        <time>2015-06-26T06:44:36Z</time>
      </trkpt>
      <trkpt lat="46.26129" lon="6.86951">
        <ele>1741</ele>
        <time>2015-06-26T06:44:40Z</time>
      </trkpt>
      <trkpt lat="46.26125" lon="6.86957">
        <ele>1741</ele>
        <time>2015-06-26T06:44:44Z</time>
      </trkpt>
      <trkpt lat="46.26121" lon="6.86963">
        <ele>1742</ele>
        <time>2015-06-26T06:44:48Z</time>
      </trkpt>
      <trkpt lat="46.26116" lon="6.86969">
        <ele>1742</ele>
        <time>2015-06-26T06:44:52Z</time>
      </trkpt>
      <trkpt lat="46.26112" lon="6.86974">
        <ele>1743</ele>
        <time>2015-06-26T06:44:56Z</time>
      </trkpt>
      <trkpt lat="46.26107" lon="6.86981">
        <ele>1744</ele>
        <time>2015-06-26T06:45:00Z</time>
      </trkpt>
      <trkpt lat="46.26101" lon="6.86989">
        <ele>1745</ele>
        <time>2015-06-26T06:45:06Z</time>
      </trkpt>
      <trkpt lat="46.26098" lon="6.86995">
        <ele>1746</ele>
        <time>2015-06-26T06:45:10Z</time>
      </trkpt>
      <trkpt lat="46.26094" lon="6.87">
        <ele>1746</ele>
        <time>2015-06-26T06:45:14Z</time>
      </trkpt>
      <trkpt lat="46.2609" lon="6.87006">
        <ele>1744</ele>
        <time>2015-06-26T06:45:18Z</time>
      </trkpt>
      <trkpt lat="46.26085" lon="6.8701">
        <ele>1744</ele>
        <time>2015-06-26T06:45:22Z</time>
      </trkpt>
      <trkpt lat="46.2608" lon="6.87016">
        <ele>1752</ele>
        <time>2015-06-26T06:45:26Z</time>
      </trkpt>
      <trkpt lat="46.26076" lon="6.87023">
        <ele>1753</ele>
        <time>2015-06-26T06:45:30Z</time>
      </trkpt>
      <trkpt lat="46.26073" lon="6.87029">
        <ele>1753</ele>
        <time>2015-06-26T06:45:34Z</time>
      </trkpt>
      <trkpt lat="46.26071" lon="6.87035">
        <ele>1752</ele>
        <time>2015-06-26T06:45:38Z</time>
      </trkpt>
      <trkpt lat="46.26067" lon="6.8704">
        <ele>1752</ele>
        <time>2015-06-26T06:45:42Z</time>
      </trkpt>
      <trkpt lat="46.26063" lon="6.87046">
        <ele>1752</ele>
        <time>2015-06-26T06:45:46Z</time>
      </trkpt>
      <trkpt lat="46.26057" lon="6.87051">
        <ele>1752</ele>
        <time>2015-06-26T06:45:50Z</time>
      </trkpt>
      <trkpt lat="46.26053" lon="6.87056">
        <ele>1752</ele>
        <time>2015-06-26T06:45:54Z</time>
      </trkpt>
      <trkpt lat="46.26046" lon="6.87063">
        <ele>1753</ele>
        <time>2015-06-26T06:46:00Z</time>
      </trkpt>
      <trkpt lat="46.2604" lon="6.87066">
        <ele>1754</ele>
        <time>2015-06-26T06:46:04Z</time>
      </trkpt>
      <trkpt lat="46.26035" lon="6.87071">
        <ele>1755</ele>
        <time>2015-06-26T06:46:08Z</time>
      </trkpt>
      <trkpt lat="46.26031" lon="6.87075">
        <ele>1755</ele>
        <time>2015-06-26T06:46:12Z</time>
      </trkpt>
      <trkpt lat="46.26025" lon="6.87075">
        <ele>1756</ele>
        <time>2015-06-26T06:46:16Z</time>
      </trkpt>
      <trkpt lat="46.26019" lon="6.87077">
        <ele>1757</ele>
        <time>2015-06-26T06:46:20Z</time>
      </trkpt>
      <trkpt lat="46.26013" lon="6.87079">
        <ele>1758</ele>
        <time>2015-06-26T06:46:24Z</time>
      </trkpt>
      <trkpt lat="46.26007" lon="6.87078">
        <ele>1759</ele>
        <time>2015-06-26T06:46:28Z</time>
      </trkpt>
      <trkpt lat="46.26001" lon="6.87077">
        <ele>1759</ele>
        <time>2015-06-26T06:46:32Z</time>
      </trkpt>
      <trkpt lat="46.25995" lon="6.87078">
        <ele>1763</ele>
        <time>2015-06-26T06:46:36Z</time>
      </trkpt>
      <trkpt lat="46.2599" lon="6.87075">
        <ele>1765</ele>
        <time>2015-06-26T06:46:40Z</time>
      </trkpt>
      <trkpt lat="46.25984" lon="6.87072">
        <ele>1767</ele>
        <time>2015-06-26T06:46:44Z</time>
      </trkpt>
      <trkpt lat="46.25979" lon="6.87068">
        <ele>1768</ele>
        <time>2015-06-26T06:46:48Z</time>
      </trkpt>
      <trkpt lat="46.25972" lon="6.87062">
        <ele>1770</ele>
        <time>2015-06-26T06:46:54Z</time>
      </trkpt>
      <trkpt lat="46.25967" lon="6.87059">
        <ele>1771</ele>
        <time>2015-06-26T06:46:58Z</time>
      </trkpt>
      <trkpt lat="46.25962" lon="6.87058">
        <ele>1771</ele>
        <time>2015-06-26T06:47:02Z</time>
      </trkpt>
      <trkpt lat="46.25957" lon="6.87059">
        <ele>1772</ele>
        <time>2015-06-26T06:47:06Z</time>
      </trkpt>
      <trkpt lat="46.2595" lon="6.87063">
        <ele>1772</ele>
        <time>2015-06-26T06:47:10Z</time>
      </trkpt>
      <trkpt lat="46.25944" lon="6.87068">
        <ele>1772</ele>
        <time>2015-06-26T06:47:14Z</time>
      </trkpt>
      <trkpt lat="46.25941" lon="6.87074">
        <ele>1772</ele>
        <time>2015-06-26T06:47:18Z</time>
      </trkpt>
      <trkpt lat="46.25941" lon="6.87083">
        <ele>1772</ele>
        <time>2015-06-26T06:47:22Z</time>
      </trkpt>
      <trkpt lat="46.2594" lon="6.87094">
        <ele>1767</ele>
        <time>2015-06-26T06:47:26Z</time>
      </trkpt>
      <trkpt lat="46.25943" lon="6.87101">
        <ele>1766</ele>
        <time>2015-06-26T06:47:30Z</time>
      </trkpt>
      <trkpt lat="46.25949" lon="6.87108">
        <ele>1766</ele>
        <time>2015-06-26T06:47:34Z</time>
      </trkpt>
      <trkpt lat="46.25953" lon="6.87115">
        <ele>1765</ele>
        <time>2015-06-26T06:47:38Z</time>
      </trkpt>
      <trkpt lat="46.25959" lon="6.87124">
        <ele>1764</ele>
        <time>2015-06-26T06:47:44Z</time>
      </trkpt>
      <trkpt lat="46.25962" lon="6.87132">
        <ele>1764</ele>
        <time>2015-06-26T06:47:48Z</time>
      </trkpt>
      <trkpt lat="46.25964" lon="6.87141">
        <ele>1764</ele>
        <time>2015-06-26T06:47:52Z</time>
      </trkpt>
      <trkpt lat="46.25963" lon="6.87148">
        <ele>1764</ele>
        <time>2015-06-26T06:47:56Z</time>
      </trkpt>
      <trkpt lat="46.25959" lon="6.87155">
        <ele>1764</ele>
        <time>2015-06-26T06:48:00Z</time>
      </trkpt>
      <trkpt lat="46.25953" lon="6.8716">
        <ele>1765</ele>
        <time>2015-06-26T06:48:04Z</time>
      </trkpt>
      <trkpt lat="46.25948" lon="6.87162">
        <ele>1765</ele>
        <time>2015-06-26T06:48:08Z</time>
      </trkpt>
      <trkpt lat="46.25942" lon="6.87163">
        <ele>1766</ele>
        <time>2015-06-26T06:48:12Z</time>
      </trkpt>
      <trkpt lat="46.25936" lon="6.87164">
        <ele>1767</ele>
        <time>2015-06-26T06:48:16Z</time>
      </trkpt>
      <trkpt lat="46.25929" lon="6.87164">
        <ele>1768</ele>
        <time>2015-06-26T06:48:20Z</time>
      </trkpt>
      <trkpt lat="46.25923" lon="6.87166">
        <ele>1769</ele>
        <time>2015-06-26T06:48:24Z</time>
      </trkpt>
      <trkpt lat="46.25917" lon="6.87168">
        <ele>1771</ele>
        <time>2015-06-26T06:48:28Z</time>
      </trkpt>
      <trkpt lat="46.25913" lon="6.87166">
        <ele>1773</ele>
        <time>2015-06-26T06:48:32Z</time>
      </trkpt>
      <trkpt lat="46.25905" lon="6.87165">
        <ele>1776</ele>
        <time>2015-06-26T06:48:38Z</time>
      </trkpt>
      <trkpt lat="46.25898" lon="6.87164">
        <ele>1778</ele>
        <time>2015-06-26T06:48:42Z</time>
      </trkpt>
      <trkpt lat="46.25892" lon="6.87164">
        <ele>1780</ele>
        <time>2015-06-26T06:48:46Z</time>
      </trkpt>
      <trkpt lat="46.25886" lon="6.87162">
        <ele>1781</ele>
        <time>2015-06-26T06:48:50Z</time>
      </trkpt>
      <trkpt lat="46.25879" lon="6.87163">
        <ele>1783</ele>
        <time>2015-06-26T06:48:54Z</time>
      </trkpt>
      <trkpt lat="46.25873" lon="6.87166">
        <ele>1784</ele>
        <time>2015-06-26T06:48:58Z</time>
      </trkpt>
      <trkpt lat="46.25867" lon="6.87171">
        <ele>1784</ele>
        <time>2015-06-26T06:49:02Z</time>
      </trkpt>
      <trkpt lat="46.25864" lon="6.87179">
        <ele>1784</ele>
        <time>2015-06-26T06:49:06Z</time>
      </trkpt>
      <trkpt lat="46.25864" lon="6.87186">
        <ele>1784</ele>
        <time>2015-06-26T06:49:10Z</time>
      </trkpt>
      <trkpt lat="46.25863" lon="6.87195">
        <ele>1784</ele>
        <time>2015-06-26T06:49:14Z</time>
      </trkpt>
      <trkpt lat="46.25864" lon="6.87204">
        <ele>1783</ele>
        <time>2015-06-26T06:49:18Z</time>
      </trkpt>
      <trkpt lat="46.25864" lon="6.87214">
        <ele>1783</ele>
        <time>2015-06-26T06:49:22Z</time>
      </trkpt>
      <trkpt lat="46.25863" lon="6.87221">
        <ele>1783</ele>
        <time>2015-06-26T06:49:26Z</time>
      </trkpt>
      <trkpt lat="46.2586" lon="6.87232">
        <ele>1784</ele>
        <time>2015-06-26T06:49:32Z</time>
      </trkpt>
      <trkpt lat="46.25857" lon="6.87241">
        <ele>1784</ele>
        <time>2015-06-26T06:49:36Z</time>
      </trkpt>
      <trkpt lat="46.25854" lon="6.87247">
        <ele>1785</ele>
        <time>2015-06-26T06:49:40Z</time>
      </trkpt>
      <trkpt lat="46.25851" lon="6.87256">
        <ele>1786</ele>
        <time>2015-06-26T06:49:44Z</time>
      </trkpt>
      <trkpt lat="46.25848" lon="6.87263">
        <ele>1786</ele>
        <time>2015-06-26T06:49:48Z</time>
      </trkpt>
      <trkpt lat="46.25844" lon="6.8727">
        <ele>1786</ele>
        <time>2015-06-26T06:49:52Z</time>
      </trkpt>
      <trkpt lat="46.2584" lon="6.87277">
        <ele>1786</ele>
        <time>2015-06-26T06:49:56Z</time>
      </trkpt>
      <trkpt lat="46.25837" lon="6.87285">
        <ele>1786</ele>
        <time>2015-06-26T06:50:00Z</time>
      </trkpt>
      <trkpt lat="46.25834" lon="6.87292">
        <ele>1786</ele>
        <time>2015-06-26T06:50:04Z</time>
      </trkpt>
      <trkpt lat="46.2583" lon="6.87299">
        <ele>1787</ele>
        <time>2015-06-26T06:50:08Z</time>
      </trkpt>
      <trkpt lat="46.25825" lon="6.87305">
        <ele>1787</ele>
        <time>2015-06-26T06:50:12Z</time>
      </trkpt>
      <trkpt lat="46.25819" lon="6.87306">
        <ele>1787</ele>
        <time>2015-06-26T06:50:16Z</time>
      </trkpt>
      <trkpt lat="46.25802" lon="6.87308">
        <ele>1786</ele>
        <time>2015-06-26T06:50:20Z</time>
      </trkpt>
      <trkpt lat="46.25783" lon="6.87317">
        <ele>1785</ele>
        <time>2015-06-26T06:50:26Z</time>
      </trkpt>
      <trkpt lat="46.25766" lon="6.87316">
        <ele>1783</ele>
        <time>2015-06-26T06:50:30Z</time>
      </trkpt>
      <trkpt lat="46.25757" lon="6.87315">
        <ele>1782</ele>
        <time>2015-06-26T06:50:34Z</time>
      </trkpt>
      <trkpt lat="46.25757" lon="6.87315">
        <ele>1782</ele>
        <time>2015-06-26T06:50:38Z</time>
      </trkpt>
      <trkpt lat="46.2575" lon="6.87321">
        <ele>1781</ele>
        <time>2015-06-26T06:50:42Z</time>
      </trkpt>
      <trkpt lat="46.25739" lon="6.87338">
        <ele>1772</ele>
        <time>2015-06-26T06:50:46Z</time>
      </trkpt>
      <trkpt lat="46.25727" lon="6.87342">
        <ele>1769</ele>
        <time>2015-06-26T06:50:50Z</time>
      </trkpt>
      <trkpt lat="46.25718" lon="6.87334">
        <ele>1768</ele>
        <time>2015-06-26T06:50:54Z</time>
      </trkpt>
      <trkpt lat="46.25709" lon="6.87324">
        <ele>1774</ele>
        <time>2015-06-26T06:50:58Z</time>
      </trkpt>
      <trkpt lat="46.25693" lon="6.87313">
        <ele>1772</ele>
        <time>2015-06-26T06:51:02Z</time>
      </trkpt>
      <trkpt lat="46.25678" lon="6.87308">
        <ele>1771</ele>
        <time>2015-06-26T06:51:06Z</time>
      </trkpt>
      <trkpt lat="46.25666" lon="6.87306">
        <ele>1763</ele>
        <time>2015-06-26T06:51:10Z</time>
      </trkpt>
      <trkpt lat="46.25654" lon="6.87306">
        <ele>1763</ele>
        <time>2015-06-26T06:51:16Z</time>
      </trkpt>
      <trkpt lat="46.25647" lon="6.87309">
        <ele>1763</ele>
        <time>2015-06-26T06:51:20Z</time>
      </trkpt>
      <trkpt lat="46.25635" lon="6.87308">
        <ele>1762</ele>
        <time>2015-06-26T06:51:24Z</time>
      </trkpt>
      <trkpt lat="46.25626" lon="6.87304">
        <ele>1762</ele>
        <time>2015-06-26T06:51:28Z</time>
      </trkpt>
      <trkpt lat="46.25624" lon="6.87302">
        <ele>1762</ele>
        <time>2015-06-26T06:51:32Z</time>
      </trkpt>
      <trkpt lat="46.2562" lon="6.873">
        <ele>1762</ele>
        <time>2015-06-26T06:51:36Z</time>
      </trkpt>
      <trkpt lat="46.25611" lon="6.87298">
        <ele>1761</ele>
        <time>2015-06-26T06:51:40Z</time>
      </trkpt>
      <trkpt lat="46.25601" lon="6.87298">
        <ele>1761</ele>
        <time>2015-06-26T06:51:44Z</time>
      </trkpt>
      <trkpt lat="46.25588" lon="6.87301">
        <ele>1760</ele>
        <time>2015-06-26T06:51:48Z</time>
      </trkpt>
      <trkpt lat="46.25568" lon="6.873">
        <ele>1754</ele>
        <time>2015-06-26T06:51:52Z</time>
      </trkpt>
      <trkpt lat="46.25546" lon="6.87302">
        <ele>1753</ele>
        <time>2015-06-26T06:51:56Z</time>
      </trkpt>
      <trkpt lat="46.25526" lon="6.87302">
        <ele>1751</ele>
        <time>2015-06-26T06:52:00Z</time>
      </trkpt>
      <trkpt lat="46.25501" lon="6.87301">
        <ele>1750</ele>
        <time>2015-06-26T06:52:04Z</time>
      </trkpt>
      <trkpt lat="46.25462" lon="6.87307">
        <ele>1747</ele>
        <time>2015-06-26T06:52:10Z</time>
      </trkpt>
      <trkpt lat="46.25442" lon="6.87311">
        <ele>1746</ele>
        <time>2015-06-26T06:52:14Z</time>
      </trkpt>
      <trkpt lat="46.25422" lon="6.87317">
        <ele>1743</ele>
        <time>2015-06-26T06:52:18Z</time>
      </trkpt>
      <trkpt lat="46.25404" lon="6.87323">
        <ele>1740</ele>
        <time>2015-06-26T06:52:22Z</time>
      </trkpt>
      <trkpt lat="46.25387" lon="6.87326">
        <ele>1740</ele>
        <time>2015-06-26T06:52:26Z</time>
      </trkpt>
      <trkpt lat="46.25376" lon="6.87328">
        <ele>1740</ele>
        <time>2015-06-26T06:52:30Z</time>
      </trkpt>
      <trkpt lat="46.25364" lon="6.87327">
        <ele>1739</ele>
        <time>2015-06-26T06:52:34Z</time>
      </trkpt>
      <trkpt lat="46.25351" lon="6.87325">
        <ele>1738</ele>
        <time>2015-06-26T06:52:38Z</time>
      </trkpt>
      <trkpt lat="46.2534" lon="6.87321">
        <ele>1737</ele>
        <time>2015-06-26T06:52:42Z</time>
      </trkpt>
      <trkpt lat="46.25331" lon="6.87317">
        <ele>1733</ele>
        <time>2015-06-26T06:52:46Z</time>
      </trkpt>
      <trkpt lat="46.25325" lon="6.87314">
        <ele>1733</ele>
        <time>2015-06-26T06:52:50Z</time>
      </trkpt>
      <trkpt lat="46.25319" lon="6.87312">
        <ele>1733</ele>
        <time>2015-06-26T06:52:54Z</time>
      </trkpt>
      <trkpt lat="46.25313" lon="6.87311">
        <ele>1732</ele>
        <time>2015-06-26T06:52:58Z</time>
      </trkpt>
      <trkpt lat="46.25301" lon="6.87311">
        <ele>1732</ele>
        <time>2015-06-26T06:53:04Z</time>
      </trkpt>
      <trkpt lat="46.25291" lon="6.87308">
        <ele>1731</ele>
        <time>2015-06-26T06:53:08Z</time>
      </trkpt>
      <trkpt lat="46.25275" lon="6.87301">
        <ele>1730</ele>
        <time>2015-06-26T06:53:12Z</time>
      </trkpt>
      <trkpt lat="46.25252" lon="6.87291">
        <ele>1729</ele>
        <time>2015-06-26T06:53:16Z</time>
      </trkpt>
      <trkpt lat="46.25234" lon="6.87292">
        <ele>1721</ele>
        <time>2015-06-26T06:53:20Z</time>
      </trkpt>
      <trkpt lat="46.25215" lon="6.873">
        <ele>1721</ele>
        <time>2015-06-26T06:53:24Z</time>
      </trkpt>
      <trkpt lat="46.25198" lon="6.87319">
        <ele>1720</ele>
        <time>2015-06-26T06:53:28Z</time>
      </trkpt>
      <trkpt lat="46.25179" lon="6.87333">
        <ele>1718</ele>
        <time>2015-06-26T06:53:32Z</time>
      </trkpt>
      <trkpt lat="46.25158" lon="6.87332">
        <ele>1713</ele>
        <time>2015-06-26T06:53:36Z</time>
      </trkpt>
      <trkpt lat="46.2514" lon="6.87325">
        <ele>1709</ele>
        <time>2015-06-26T06:53:40Z</time>
      </trkpt>
      <trkpt lat="46.25127" lon="6.87313">
        <ele>1707</ele>
        <time>2015-06-26T06:53:44Z</time>
      </trkpt>
      <trkpt lat="46.25116" lon="6.87297">
        <ele>1705</ele>
        <time>2015-06-26T06:53:48Z</time>
      </trkpt>
      <trkpt lat="46.25108" lon="6.87275">
        <ele>1704</ele>
        <time>2015-06-26T06:53:52Z</time>
      </trkpt>
      <trkpt lat="46.25099" lon="6.87244">
        <ele>1697</ele>
        <time>2015-06-26T06:53:58Z</time>
      </trkpt>
      <trkpt lat="46.25097" lon="6.87226">
        <ele>1697</ele>
        <time>2015-06-26T06:54:02Z</time>
      </trkpt>
      <trkpt lat="46.25092" lon="6.87218">
        <ele>1696</ele>
        <time>2015-06-26T06:54:06Z</time>
      </trkpt>
      <trkpt lat="46.25088" lon="6.87215">
        <ele>1696</ele>
        <time>2015-06-26T06:54:10Z</time>
      </trkpt>
      <trkpt lat="46.25085" lon="6.87204">
        <ele>1695</ele>
        <time>2015-06-26T06:54:14Z</time>
      </trkpt>
      <trkpt lat="46.25084" lon="6.87191">
        <ele>1693</ele>
        <time>2015-06-26T06:54:18Z</time>
      </trkpt>
      <trkpt lat="46.25091" lon="6.87177">
        <ele>1690</ele>
        <time>2015-06-26T06:54:22Z</time>
      </trkpt>
      <trkpt lat="46.25099" lon="6.87164">
        <ele>1687</ele>
        <time>2015-06-26T06:54:26Z</time>
      </trkpt>
      <trkpt lat="46.25119" lon="6.87139">
        <ele>1688</ele>
        <time>2015-06-26T06:54:30Z</time>
      </trkpt>
      <trkpt lat="46.25119" lon="6.87115">
        <ele>1687</ele>
        <time>2015-06-26T06:54:34Z</time>
      </trkpt>
      <trkpt lat="46.25092" lon="6.87097">
        <ele>1682</ele>
        <time>2015-06-26T06:54:38Z</time>
      </trkpt>
      <trkpt lat="46.25066" lon="6.87094">
        <ele>1674</ele>
        <time>2015-06-26T06:54:42Z</time>
      </trkpt>
      <trkpt lat="46.25021" lon="6.87085">
        <ele>1667</ele>
        <time>2015-06-26T06:54:48Z</time>
      </trkpt>
      <trkpt lat="46.24989" lon="6.87085">
        <ele>1657</ele>
        <time>2015-06-26T06:54:52Z</time>
      </trkpt>
      <trkpt lat="46.24964" lon="6.8705">
        <ele>1656</ele>
        <time>2015-06-26T06:54:56Z</time>
      </trkpt>
      <trkpt lat="46.24918" lon="6.87037">
        <ele>1652</ele>
        <time>2015-06-26T06:55:00Z</time>
      </trkpt>
      <trkpt lat="46.24868" lon="6.87017">
        <ele>1635</ele>
        <time>2015-06-26T06:55:04Z</time>
      </trkpt>
      <trkpt lat="46.24835" lon="6.87009">
        <ele>1634</ele>
        <time>2015-06-26T06:55:08Z</time>
      </trkpt>
      <trkpt lat="46.24801" lon="6.87016">
        <ele>1625</ele>
        <time>2015-06-26T06:55:12Z</time>
      </trkpt>
      <trkpt lat="46.2476" lon="6.8703">
        <ele>1623</ele>
        <time>2015-06-26T06:55:16Z</time>
      </trkpt>
      <trkpt lat="46.24726" lon="6.87051">
        <ele>1622</ele>
        <time>2015-06-26T06:55:20Z</time>
      </trkpt>
      <trkpt lat="46.24702" lon="6.87068">
        <ele>1623</ele>
        <time>2015-06-26T06:55:24Z</time>
      </trkpt>
      <trkpt lat="46.24686" lon="6.87079">
        <ele>1623</ele>
        <time>2015-06-26T06:55:28Z</time>
      </trkpt>
      <trkpt lat="46.24669" lon="6.87086">
        <ele>1620</ele>
        <time>2015-06-26T06:55:32Z</time>
      </trkpt>
      <trkpt lat="46.24653" lon="6.8709">
        <ele>1611</ele>
        <time>2015-06-26T06:55:36Z</time>
      </trkpt>
      <trkpt lat="46.24638" lon="6.87075">
        <ele>1617</ele>
        <time>2015-06-26T06:55:42Z</time>
      </trkpt>
      <trkpt lat="46.2463" lon="6.87051">
        <ele>1616</ele>
        <time>2015-06-26T06:55:46Z</time>
      </trkpt>
      <trkpt lat="46.24618" lon="6.87026">
        <ele>1616</ele>
        <time>2015-06-26T06:55:50Z</time>
      </trkpt>
      <trkpt lat="46.2461" lon="6.86995">
        <ele>1622</ele>
        <time>2015-06-26T06:55:54Z</time>
      </trkpt>
      <trkpt lat="46.24601" lon="6.86963">
        <ele>1624</ele>
        <time>2015-06-26T06:55:58Z</time>
      </trkpt>
      <trkpt lat="46.24593" lon="6.86935">
        <ele>1624</ele>
        <time>2015-06-26T06:56:02Z</time>
      </trkpt>
      <trkpt lat="46.24587" lon="6.86914">
        <ele>1622</ele>
        <time>2015-06-26T06:56:06Z</time>
      </trkpt>
      <trkpt lat="46.24584" lon="6.86899">
        <ele>1627</ele>
        <time>2015-06-26T06:56:10Z</time>
      </trkpt>
      <trkpt lat="46.24583" lon="6.86885">
        <ele>1606</ele>
        <time>2015-06-26T06:56:14Z</time>
      </trkpt>
      <trkpt lat="46.2458" lon="6.86873">
        <ele>1606</ele>
        <time>2015-06-26T06:56:18Z</time>
      </trkpt>
      <trkpt lat="46.24581" lon="6.8686">
        <ele>1607</ele>
        <time>2015-06-26T06:56:22Z</time>
      </trkpt>
      <trkpt lat="46.24587" lon="6.8685">
        <ele>1628</ele>
        <time>2015-06-26T06:56:26Z</time>
      </trkpt>
      <trkpt lat="46.24593" lon="6.86841">
        <ele>1627</ele>
        <time>2015-06-26T06:56:30Z</time>
      </trkpt>
      <trkpt lat="46.24598" lon="6.86824">
        <ele>1632</ele>
        <time>2015-06-26T06:56:36Z</time>
      </trkpt>
      <trkpt lat="46.246" lon="6.8681">
        <ele>1636</ele>
        <time>2015-06-26T06:56:40Z</time>
      </trkpt>
      <trkpt lat="46.24601" lon="6.86798">
        <ele>1638</ele>
        <time>2015-06-26T06:56:44Z</time>
      </trkpt>
      <trkpt lat="46.24602" lon="6.86784">
        <ele>1638</ele>
        <time>2015-06-26T06:56:48Z</time>
      </trkpt>
      <trkpt lat="46.24605" lon="6.86768">
        <ele>1638</ele>
        <time>2015-06-26T06:56:52Z</time>
      </trkpt>
      <trkpt lat="46.24608" lon="6.86753">
        <ele>1638</ele>
        <time>2015-06-26T06:56:56Z</time>
      </trkpt>
      <trkpt lat="46.24609" lon="6.86737">
        <ele>1639</ele>
        <time>2015-06-26T06:57:00Z</time>
      </trkpt>
      <trkpt lat="46.2461" lon="6.86722">
        <ele>1640</ele>
        <time>2015-06-26T06:57:04Z</time>
      </trkpt>
      <trkpt lat="46.24612" lon="6.86707">
        <ele>1641</ele>
        <time>2015-06-26T06:57:08Z</time>
      </trkpt>
      <trkpt lat="46.24614" lon="6.8669">
        <ele>1640</ele>
        <time>2015-06-26T06:57:12Z</time>
      </trkpt>
      <trkpt lat="46.24617" lon="6.86672">
        <ele>1640</ele>
        <time>2015-06-26T06:57:16Z</time>
      </trkpt>
      <trkpt lat="46.24622" lon="6.86656">
        <ele>1642</ele>
        <time>2015-06-26T06:57:20Z</time>
      </trkpt>
      <trkpt lat="46.24624" lon="6.86638">
        <ele>1643</ele>
        <time>2015-06-26T06:57:24Z</time>
      </trkpt>
      <trkpt lat="46.24625" lon="6.86613">
        <ele>1643</ele>
        <time>2015-06-26T06:57:30Z</time>
      </trkpt>
      <trkpt lat="46.24624" lon="6.86596">
        <ele>1643</ele>
        <time>2015-06-26T06:57:34Z</time>
      </trkpt>
      <trkpt lat="46.24615" lon="6.86577">
        <ele>1642</ele>
        <time>2015-06-26T06:57:38Z</time>
      </trkpt>
      <trkpt lat="46.24609" lon="6.86564">
        <ele>1641</ele>
        <time>2015-06-26T06:57:42Z</time>
      </trkpt>
      <trkpt lat="46.24603" lon="6.8655">
        <ele>1641</ele>
        <time>2015-06-26T06:57:46Z</time>
      </trkpt>
      <trkpt lat="46.24597" lon="6.86539">
        <ele>1641</ele>
        <time>2015-06-26T06:57:50Z</time>
      </trkpt>
      <trkpt lat="46.24589" lon="6.86532">
        <ele>1640</ele>
        <time>2015-06-26T06:57:54Z</time>
      </trkpt>
      <trkpt lat="46.24583" lon="6.86521">
        <ele>1620</ele>
        <time>2015-06-26T06:57:58Z</time>
      </trkpt>
      <trkpt lat="46.24577" lon="6.86507">
        <ele>1625</ele>
        <time>2015-06-26T06:58:02Z</time>
      </trkpt>
      <trkpt lat="46.24575" lon="6.86488">
        <ele>1624</ele>
        <time>2015-06-26T06:58:06Z</time>
      </trkpt>
      <trkpt lat="46.24576" lon="6.86471">
        <ele>1621</ele>
        <time>2015-06-26T06:58:10Z</time>
      </trkpt>
      <trkpt lat="46.24579" lon="6.86457">
        <ele>1621</ele>
        <time>2015-06-26T06:58:14Z</time>
      </trkpt>
      <trkpt lat="46.24585" lon="6.86432">
        <ele>1642</ele>
        <time>2015-06-26T06:58:20Z</time>
      </trkpt>
      <trkpt lat="46.24585" lon="6.86413">
        <ele>1639</ele>
        <time>2015-06-26T06:58:24Z</time>
      </trkpt>
      <trkpt lat="46.24584" lon="6.86394">
        <ele>1647</ele>
        <time>2015-06-26T06:58:28Z</time>
      </trkpt>
      <trkpt lat="46.24586" lon="6.86379">
        <ele>1650</ele>
        <time>2015-06-26T06:58:32Z</time>
      </trkpt>
      <trkpt lat="46.24589" lon="6.86364">
        <ele>1650</ele>
        <time>2015-06-26T06:58:36Z</time>
      </trkpt>
      <trkpt lat="46.24593" lon="6.86349">
        <ele>1649</ele>
        <time>2015-06-26T06:58:40Z</time>
      </trkpt>
      <trkpt lat="46.24596" lon="6.86335">
        <ele>1647</ele>
        <time>2015-06-26T06:58:44Z</time>
      </trkpt>
      <trkpt lat="46.24599" lon="6.86325">
        <ele>1652</ele>
        <time>2015-06-26T06:58:48Z</time>
      </trkpt>
      <trkpt lat="46.24602" lon="6.86315">
        <ele>1655</ele>
        <time>2015-06-26T06:58:52Z</time>
      </trkpt>
      <trkpt lat="46.24601" lon="6.86302">
        <ele>1656</ele>
        <time>2015-06-26T06:58:56Z</time>
      </trkpt>
      <trkpt lat="46.24596" lon="6.86291">
        <ele>1656</ele>
        <time>2015-06-26T06:59:00Z</time>
      </trkpt>
      <trkpt lat="46.24594" lon="6.8628">
        <ele>1656</ele>
        <time>2015-06-26T06:59:04Z</time>
      </trkpt>
      <trkpt lat="46.24592" lon="6.8627">
        <ele>1654</ele>
        <time>2015-06-26T06:59:08Z</time>
      </trkpt>
      <trkpt lat="46.24591" lon="6.86254">
        <ele>1649</ele>
        <time>2015-06-26T06:59:14Z</time>
      </trkpt>
      <trkpt lat="46.24591" lon="6.86246">
        <ele>1649</ele>
        <time>2015-06-26T06:59:18Z</time>
      </trkpt>
      <trkpt lat="46.24592" lon="6.86237">
        <ele>1652</ele>
        <time>2015-06-26T06:59:22Z</time>
      </trkpt>
      <trkpt lat="46.24593" lon="6.86226">
        <ele>1655</ele>
        <time>2015-06-26T06:59:26Z</time>
      </trkpt>
      <trkpt lat="46.24593" lon="6.86225">
        <ele>1655</ele>
        <time>2015-06-26T06:59:30Z</time>
      </trkpt>
      <trkpt lat="46.24593" lon="6.86215">
        <ele>1657</ele>
        <time>2015-06-26T06:59:34Z</time>
      </trkpt>
      <trkpt lat="46.24595" lon="6.86202">
        <ele>1657</ele>
        <time>2015-06-26T06:59:38Z</time>
      </trkpt>
      <trkpt lat="46.24597" lon="6.86192">
        <ele>1656</ele>
        <time>2015-06-26T06:59:42Z</time>
      </trkpt>
      <trkpt lat="46.24598" lon="6.86182">
        <ele>1655</ele>
        <time>2015-06-26T06:59:46Z</time>
      </trkpt>
      <trkpt lat="46.246" lon="6.86172">
        <ele>1654</ele>
        <time>2015-06-26T06:59:50Z</time>
      </trkpt>
      <trkpt lat="46.24604" lon="6.86163">
        <ele>1654</ele>
        <time>2015-06-26T06:59:54Z</time>
      </trkpt>
      <trkpt lat="46.24609" lon="6.86156">
        <ele>1656</ele>
        <time>2015-06-26T06:59:58Z</time>
      </trkpt>
      <trkpt lat="46.24611" lon="6.86147">
        <ele>1657</ele>
        <time>2015-06-26T07:00:02Z</time>
      </trkpt>
      <trkpt lat="46.24614" lon="6.86133">
        <ele>1659</ele>
        <time>2015-06-26T07:00:08Z</time>
      </trkpt>
      <trkpt lat="46.24616" lon="6.86117">
        <ele>1659</ele>
        <time>2015-06-26T07:00:12Z</time>
      </trkpt>
      <trkpt lat="46.24615" lon="6.86106">
        <ele>1658</ele>
        <time>2015-06-26T07:00:16Z</time>
      </trkpt>
      <trkpt lat="46.24609" lon="6.86085">
        <ele>1654</ele>
        <time>2015-06-26T07:00:20Z</time>
      </trkpt>
      <trkpt lat="46.24609" lon="6.86066">
        <ele>1653</ele>
        <time>2015-06-26T07:00:24Z</time>
      </trkpt>
      <trkpt lat="46.24609" lon="6.86045">
        <ele>1654</ele>
        <time>2015-06-26T07:00:28Z</time>
      </trkpt>
      <trkpt lat="46.24602" lon="6.86015">
        <ele>1651</ele>
        <time>2015-06-26T07:00:32Z</time>
      </trkpt>
      <trkpt lat="46.24601" lon="6.85978">
        <ele>1646</ele>
        <time>2015-06-26T07:00:36Z</time>
      </trkpt>
      <trkpt lat="46.24612" lon="6.85943">
        <ele>1645</ele>
        <time>2015-06-26T07:00:40Z</time>
      </trkpt>
      <trkpt lat="46.24634" lon="6.85915">
        <ele>1642</ele>
        <time>2015-06-26T07:00:44Z</time>
      </trkpt>
      <trkpt lat="46.24652" lon="6.85871">
        <ele>1641</ele>
        <time>2015-06-26T07:00:48Z</time>
      </trkpt>
      <trkpt lat="46.24667" lon="6.85837">
        <ele>1648</ele>
        <time>2015-06-26T07:00:52Z</time>
      </trkpt>
      <trkpt lat="46.24685" lon="6.85805">
        <ele>1645</ele>
        <time>2015-06-26T07:00:56Z</time>
      </trkpt>
      <trkpt lat="46.247" lon="6.85744">
        <ele>1623</ele>
        <time>2015-06-26T07:01:02Z</time>
      </trkpt>
      <trkpt lat="46.24724" lon="6.85736">
        <ele>1626</ele>
        <time>2015-06-26T07:01:06Z</time>
      </trkpt>
      <trkpt lat="46.24756" lon="6.85741">
        <ele>1642</ele>
        <time>2015-06-26T07:01:10Z</time>
      </trkpt>
      <trkpt lat="46.24787" lon="6.85725">
        <ele>1642</ele>
        <time>2015-06-26T07:01:14Z</time>
      </trkpt>
      <trkpt lat="46.24812" lon="6.85695">
        <ele>1640</ele>
        <time>2015-06-26T07:01:18Z</time>
      </trkpt>
      <trkpt lat="46.24829" lon="6.85653">
        <ele>1626</ele>
        <time>2015-06-26T07:01:22Z</time>
      </trkpt>
      <trkpt lat="46.24839" lon="6.85604">
        <ele>1632</ele>
        <time>2015-06-26T07:01:26Z</time>
      </trkpt>
      <trkpt lat="46.24847" lon="6.85551">
        <ele>1618</ele>
        <time>2015-06-26T07:01:30Z</time>
      </trkpt>
      <trkpt lat="46.24868" lon="6.85518">
        <ele>1615</ele>
        <time>2015-06-26T07:01:34Z</time>
      </trkpt>
      <trkpt lat="46.24892" lon="6.8549">
        <ele>1600</ele>
        <time>2015-06-26T07:01:38Z</time>
      </trkpt>
      <trkpt lat="46.2492" lon="6.85477">
        <ele>1606</ele>
        <time>2015-06-26T07:01:42Z</time>
      </trkpt>
      <trkpt lat="46.24955" lon="6.85485">
        <ele>1606</ele>
        <time>2015-06-26T07:01:46Z</time>
      </trkpt>
      <trkpt lat="46.24995" lon="6.85468">
        <ele>1606</ele>
        <time>2015-06-26T07:01:52Z</time>
      </trkpt>
      <trkpt lat="46.25011" lon="6.85429">
        <ele>1601</ele>
        <time>2015-06-26T07:01:56Z</time>
      </trkpt>
      <trkpt lat="46.25036" lon="6.8539">
        <ele>1590</ele>
        <time>2015-06-26T07:02:00Z</time>
      </trkpt>
      <trkpt lat="46.25066" lon="6.85371">
        <ele>1589</ele>
        <time>2015-06-26T07:02:04Z</time>
      </trkpt>
      <trkpt lat="46.25097" lon="6.85386">
        <ele>1595</ele>
        <time>2015-06-26T07:02:08Z</time>
      </trkpt>
      <trkpt lat="46.25129" lon="6.8538">
        <ele>1595</ele>
        <time>2015-06-26T07:02:12Z</time>
      </trkpt>
      <trkpt lat="46.25135" lon="6.85354">
        <ele>1592</ele>
        <time>2015-06-26T07:02:16Z</time>
      </trkpt>
      <trkpt lat="46.25118" lon="6.85316">
        <ele>1580</ele>
        <time>2015-06-26T07:02:20Z</time>
      </trkpt>
      <trkpt lat="46.25092" lon="6.85284">
        <ele>1578</ele>
        <time>2015-06-26T07:02:24Z</time>
      </trkpt>
      <trkpt lat="46.25067" lon="6.85266">
        <ele>1573</ele>
        <time>2015-06-26T07:02:28Z</time>
      </trkpt>
      <trkpt lat="46.25033" lon="6.85268">
        <ele>1570</ele>
        <time>2015-06-26T07:02:32Z</time>
      </trkpt>
      <trkpt lat="46.25006" lon="6.85271">
        <ele>1566</ele>
        <time>2015-06-26T07:02:36Z</time>
      </trkpt>
      <trkpt lat="46.24981" lon="6.85294">
        <ele>1559</ele>
        <time>2015-06-26T07:02:40Z</time>
      </trkpt>
      <trkpt lat="46.24943" lon="6.85348">
        <ele>1572</ele>
        <time>2015-06-26T07:02:46Z</time>
      </trkpt>
      <trkpt lat="46.24919" lon="6.85367">
        <ele>1574</ele>
        <time>2015-06-26T07:02:50Z</time>
      </trkpt>
      <trkpt lat="46.24884" lon="6.85347">
        <ele>1560</ele>
        <time>2015-06-26T07:02:54Z</time>
      </trkpt>
      <trkpt lat="46.24853" lon="6.85351">
        <ele>1555</ele>
        <time>2015-06-26T07:02:58Z</time>
      </trkpt>
      <trkpt lat="46.24822" lon="6.85368">
        <ele>1546</ele>
        <time>2015-06-26T07:03:02Z</time>
      </trkpt>
      <trkpt lat="46.24794" lon="6.85397">
        <ele>1548</ele>
        <time>2015-06-26T07:03:06Z</time>
      </trkpt>
      <trkpt lat="46.24776" lon="6.85435">
        <ele>1564</ele>
        <time>2015-06-26T07:03:10Z</time>
      </trkpt>
      <trkpt lat="46.24759" lon="6.85472">
        <ele>1567</ele>
        <time>2015-06-26T07:03:14Z</time>
      </trkpt>
      <trkpt lat="46.2473" lon="6.85492">
        <ele>1552</ele>
        <time>2015-06-26T07:03:18Z</time>
      </trkpt>
      <trkpt lat="46.24699" lon="6.85504">
        <ele>1555</ele>
        <time>2015-06-26T07:03:22Z</time>
      </trkpt>
      <trkpt lat="46.24676" lon="6.85529">
        <ele>1554</ele>
        <time>2015-06-26T07:03:26Z</time>
      </trkpt>
      <trkpt lat="46.24661" lon="6.85564">
        <ele>1546</ele>
        <time>2015-06-26T07:03:30Z</time>
      </trkpt>
      <trkpt lat="46.2464" lon="6.85584">
        <ele>1558</ele>
        <time>2015-06-26T07:03:34Z</time>
      </trkpt>
      <trkpt lat="46.24601" lon="6.85599">
        <ele>1548</ele>
        <time>2015-06-26T07:03:40Z</time>
      </trkpt>
      <trkpt lat="46.24582" lon="6.8563">
        <ele>1536</ele>
        <time>2015-06-26T07:03:44Z</time>
      </trkpt>
      <trkpt lat="46.2456" lon="6.85657">
        <ele>1540</ele>
        <time>2015-06-26T07:03:48Z</time>
      </trkpt>
      <trkpt lat="46.24541" lon="6.85687">
        <ele>1556</ele>
        <time>2015-06-26T07:03:52Z</time>
      </trkpt>
      <trkpt lat="46.24513" lon="6.85696">
        <ele>1551</ele>
        <time>2015-06-26T07:03:56Z</time>
      </trkpt>
      <trkpt lat="46.24494" lon="6.85723">
        <ele>1535</ele>
        <time>2015-06-26T07:04:00Z</time>
      </trkpt>
      <trkpt lat="46.24477" lon="6.85759">
        <ele>1544</ele>
        <time>2015-06-26T07:04:04Z</time>
      </trkpt>
      <trkpt lat="46.24463" lon="6.858">
        <ele>1541</ele>
        <time>2015-06-26T07:04:08Z</time>
      </trkpt>
      <trkpt lat="46.24451" lon="6.85841">
        <ele>1546</ele>
        <time>2015-06-26T07:04:12Z</time>
      </trkpt>
      <trkpt lat="46.24441" lon="6.85879">
        <ele>1547</ele>
        <time>2015-06-26T07:04:16Z</time>
      </trkpt>
      <trkpt lat="46.24421" lon="6.85897">
        <ele>1544</ele>
        <time>2015-06-26T07:04:20Z</time>
      </trkpt>
      <trkpt lat="46.24384" lon="6.85912">
        <ele>1519</ele>
        <time>2015-06-26T07:04:24Z</time>
      </trkpt>
      <trkpt lat="46.24372" lon="6.85948">
        <ele>1523</ele>
        <time>2015-06-26T07:04:28Z</time>
      </trkpt>
      <trkpt lat="46.24357" lon="6.85942">
        <ele>1519</ele>
        <time>2015-06-26T07:04:34Z</time>
      </trkpt>
      <trkpt lat="46.24357" lon="6.85888">
        <ele>1511</ele>
        <time>2015-06-26T07:04:38Z</time>
      </trkpt>
      <trkpt lat="46.24367" lon="6.85838">
        <ele>1509</ele>
        <time>2015-06-26T07:04:42Z</time>
      </trkpt>
      <trkpt lat="46.24379" lon="6.85812">
        <ele>1503</ele>
        <time>2015-06-26T07:04:46Z</time>
      </trkpt>
      <trkpt lat="46.24359" lon="6.8582">
        <ele>1499</ele>
        <time>2015-06-26T07:04:50Z</time>
      </trkpt>
      <trkpt lat="46.24333" lon="6.85833">
        <ele>1492</ele>
        <time>2015-06-26T07:04:54Z</time>
      </trkpt>
      <trkpt lat="46.2432" lon="6.85874">
        <ele>1488</ele>
        <time>2015-06-26T07:04:58Z</time>
      </trkpt>
      <trkpt lat="46.24301" lon="6.85904">
        <ele>1488</ele>
        <time>2015-06-26T07:05:02Z</time>
      </trkpt>
      <trkpt lat="46.24291" lon="6.85896">
        <ele>1485</ele>
        <time>2015-06-26T07:05:06Z</time>
      </trkpt>
      <trkpt lat="46.24301" lon="6.85865">
        <ele>1485</ele>
        <time>2015-06-26T07:05:10Z</time>
      </trkpt>
      <trkpt lat="46.24302" lon="6.85825">
        <ele>1478</ele>
        <time>2015-06-26T07:05:14Z</time>
      </trkpt>
      <trkpt lat="46.24297" lon="6.85784">
        <ele>1474</ele>
        <time>2015-06-26T07:05:18Z</time>
      </trkpt>
      <trkpt lat="46.24339" lon="6.85761">
        <ele>1487</ele>
        <time>2015-06-26T07:05:24Z</time>
      </trkpt>
      <trkpt lat="46.24358" lon="6.85734">
        <ele>1485</ele>
        <time>2015-06-26T07:05:28Z</time>
      </trkpt>
      <trkpt lat="46.24376" lon="6.85702">
        <ele>1486</ele>
        <time>2015-06-26T07:05:32Z</time>
      </trkpt>
      <trkpt lat="46.24397" lon="6.85666">
        <ele>1479</ele>
        <time>2015-06-26T07:05:36Z</time>
      </trkpt>
      <trkpt lat="46.24422" lon="6.85619">
        <ele>1490</ele>
        <time>2015-06-26T07:05:40Z</time>
      </trkpt>
      <trkpt lat="46.24452" lon="6.85568">
        <ele>1473</ele>
        <time>2015-06-26T07:05:44Z</time>
      </trkpt>
      <trkpt lat="46.24473" lon="6.855">
        <ele>1472</ele>
        <time>2015-06-26T07:05:48Z</time>
      </trkpt>
      <trkpt lat="46.24497" lon="6.85442">
        <ele>1459</ele>
        <time>2015-06-26T07:05:52Z</time>
      </trkpt>
      <trkpt lat="46.24503" lon="6.8538">
        <ele>1467</ele>
        <time>2015-06-26T07:05:56Z</time>
      </trkpt>
      <trkpt lat="46.2452" lon="6.8531">
        <ele>1452</ele>
        <time>2015-06-26T07:06:00Z</time>
      </trkpt>
      <trkpt lat="46.24553" lon="6.85251">
        <ele>1452</ele>
        <time>2015-06-26T07:06:04Z</time>
      </trkpt>
      <trkpt lat="46.24582" lon="6.85194">
        <ele>1435</ele>
        <time>2015-06-26T07:06:08Z</time>
      </trkpt>
      <trkpt lat="46.2462" lon="6.85154">
        <ele>1432</ele>
        <time>2015-06-26T07:06:12Z</time>
      </trkpt>
      <trkpt lat="46.2468" lon="6.85109">
        <ele>1437</ele>
        <time>2015-06-26T07:06:18Z</time>
      </trkpt>
      <trkpt lat="46.24725" lon="6.85102">
        <ele>1441</ele>
        <time>2015-06-26T07:06:22Z</time>
      </trkpt>
      <trkpt lat="46.24754" lon="6.85067">
        <ele>1438</ele>
        <time>2015-06-26T07:06:26Z</time>
      </trkpt>
      <trkpt lat="46.24757" lon="6.85008">
        <ele>1425</ele>
        <time>2015-06-26T07:06:30Z</time>
      </trkpt>
      <trkpt lat="46.24774" lon="6.84952">
        <ele>1415</ele>
        <time>2015-06-26T07:06:34Z</time>
      </trkpt>
      <trkpt lat="46.24804" lon="6.84894">
        <ele>1403</ele>
        <time>2015-06-26T07:06:38Z</time>
      </trkpt>
      <trkpt lat="46.24836" lon="6.84835">
        <ele>1399</ele>
        <time>2015-06-26T07:06:42Z</time>
      </trkpt>
      <trkpt lat="46.24876" lon="6.84819">
        <ele>1392</ele>
        <time>2015-06-26T07:06:46Z</time>
      </trkpt>
      <trkpt lat="46.2492" lon="6.8481">
        <ele>1398</ele>
        <time>2015-06-26T07:06:50Z</time>
      </trkpt>
      <trkpt lat="46.24952" lon="6.84772">
        <ele>1394</ele>
        <time>2015-06-26T07:06:54Z</time>
      </trkpt>
      <trkpt lat="46.24968" lon="6.84747">
        <ele>1386</ele>
        <time>2015-06-26T07:06:58Z</time>
      </trkpt>
      <trkpt lat="46.24981" lon="6.84731">
        <ele>1387</ele>
        <time>2015-06-26T07:07:02Z</time>
      </trkpt>
      <trkpt lat="46.24972" lon="6.84716">
        <ele>1384</ele>
        <time>2015-06-26T07:07:06Z</time>
      </trkpt>
      <trkpt lat="46.24948" lon="6.84747">
        <ele>1384</ele>
        <time>2015-06-26T07:07:12Z</time>
      </trkpt>
      <trkpt lat="46.24931" lon="6.84759">
        <ele>1389</ele>
        <time>2015-06-26T07:07:16Z</time>
      </trkpt>
      <trkpt lat="46.24919" lon="6.8476">
        <ele>1386</ele>
        <time>2015-06-26T07:07:20Z</time>
      </trkpt>
      <trkpt lat="46.24915" lon="6.84752">
        <ele>1382</ele>
        <time>2015-06-26T07:07:24Z</time>
      </trkpt>
      <trkpt lat="46.24915" lon="6.84751">
        <ele>1382</ele>
        <time>2015-06-26T07:07:28Z</time>
      </trkpt>
      <trkpt lat="46.24922" lon="6.84735">
        <ele>1382</ele>
        <time>2015-06-26T07:07:32Z</time>
      </trkpt>
      <trkpt lat="46.24935" lon="6.84716">
        <ele>1382</ele>
        <time>2015-06-26T07:07:36Z</time>
      </trkpt>
      <trkpt lat="46.2494" lon="6.84688">
        <ele>1381</ele>
        <time>2015-06-26T07:07:40Z</time>
      </trkpt>
      <trkpt lat="46.24947" lon="6.84659">
        <ele>1381</ele>
        <time>2015-06-26T07:07:44Z</time>
      </trkpt>
      <trkpt lat="46.24956" lon="6.8463">
        <ele>1384</ele>
        <time>2015-06-26T07:07:48Z</time>
      </trkpt>
      <trkpt lat="46.24954" lon="6.84603">
        <ele>1386</ele>
        <time>2015-06-26T07:07:52Z</time>
      </trkpt>
      <trkpt lat="46.24942" lon="6.84595">
        <ele>1388</ele>
        <time>2015-06-26T07:07:56Z</time>
      </trkpt>
      <trkpt lat="46.24917" lon="6.84605">
        <ele>1389</ele>
        <time>2015-06-26T07:08:02Z</time>
      </trkpt>
      <trkpt lat="46.24898" lon="6.8461">
        <ele>1390</ele>
        <time>2015-06-26T07:08:06Z</time>
      </trkpt>
      <trkpt lat="46.24879" lon="6.84614">
        <ele>1390</ele>
        <time>2015-06-26T07:08:10Z</time>
      </trkpt>
      <trkpt lat="46.24863" lon="6.84616">
        <ele>1391</ele>
        <time>2015-06-26T07:08:14Z</time>
      </trkpt>
      <trkpt lat="46.24845" lon="6.8462">
        <ele>1391</ele>
        <time>2015-06-26T07:08:18Z</time>
      </trkpt>
      <trkpt lat="46.24827" lon="6.84626">
        <ele>1392</ele>
        <time>2015-06-26T07:08:22Z</time>
      </trkpt>
      <trkpt lat="46.24811" lon="6.84633">
        <ele>1390</ele>
        <time>2015-06-26T07:08:26Z</time>
      </trkpt>
      <trkpt lat="46.24795" lon="6.84638">
        <ele>1390</ele>
        <time>2015-06-26T07:08:30Z</time>
      </trkpt>
      <trkpt lat="46.2478" lon="6.84642">
        <ele>1388</ele>
        <time>2015-06-26T07:08:34Z</time>
      </trkpt>
      <trkpt lat="46.24764" lon="6.84643">
        <ele>1387</ele>
        <time>2015-06-26T07:08:38Z</time>
      </trkpt>
      <trkpt lat="46.24749" lon="6.84643">
        <ele>1390</ele>
        <time>2015-06-26T07:08:42Z</time>
      </trkpt>
      <trkpt lat="46.24735" lon="6.84646">
        <ele>1390</ele>
        <time>2015-06-26T07:08:46Z</time>
      </trkpt>
      <trkpt lat="46.24721" lon="6.84651">
        <ele>1392</ele>
        <time>2015-06-26T07:08:50Z</time>
      </trkpt>
      <trkpt lat="46.24704" lon="6.84655">
        <ele>1394</ele>
        <time>2015-06-26T07:08:56Z</time>
      </trkpt>
      <trkpt lat="46.2469" lon="6.84659">
        <ele>1395</ele>
        <time>2015-06-26T07:09:00Z</time>
      </trkpt>
      <trkpt lat="46.24678" lon="6.84662">
        <ele>1394</ele>
        <time>2015-06-26T07:09:04Z</time>
      </trkpt>
      <trkpt lat="46.24664" lon="6.84668">
        <ele>1390</ele>
        <time>2015-06-26T07:09:08Z</time>
      </trkpt>
      <trkpt lat="46.24651" lon="6.84671">
        <ele>1386</ele>
        <time>2015-06-26T07:09:12Z</time>
      </trkpt>
      <trkpt lat="46.24638" lon="6.84675">
        <ele>1385</ele>
        <time>2015-06-26T07:09:16Z</time>
      </trkpt>
      <trkpt lat="46.24625" lon="6.84682">
        <ele>1384</ele>
        <time>2015-06-26T07:09:20Z</time>
      </trkpt>
      <trkpt lat="46.24612" lon="6.84693">
        <ele>1383</ele>
        <time>2015-06-26T07:09:24Z</time>
      </trkpt>
      <trkpt lat="46.246" lon="6.84702">
        <ele>1382</ele>
        <time>2015-06-26T07:09:28Z</time>
      </trkpt>
      <trkpt lat="46.24587" lon="6.84711">
        <ele>1380</ele>
        <time>2015-06-26T07:09:32Z</time>
      </trkpt>
      <trkpt lat="46.24575" lon="6.84718">
        <ele>1382</ele>
        <time>2015-06-26T07:09:36Z</time>
      </trkpt>
      <trkpt lat="46.24562" lon="6.84723">
        <ele>1382</ele>
        <time>2015-06-26T07:09:40Z</time>
      </trkpt>
      <trkpt lat="46.24549" lon="6.84724">
        <ele>1383</ele>
        <time>2015-06-26T07:09:44Z</time>
      </trkpt>
      <trkpt lat="46.24529" lon="6.84727">
        <ele>1383</ele>
        <time>2015-06-26T07:09:50Z</time>
      </trkpt>
      <trkpt lat="46.24515" lon="6.8473">
        <ele>1382</ele>
        <time>2015-06-26T07:09:54Z</time>
      </trkpt>
      <trkpt lat="46.24502" lon="6.84735">
        <ele>1379</ele>
        <time>2015-06-26T07:09:58Z</time>
      </trkpt>
      <trkpt lat="46.24489" lon="6.84739">
        <ele>1385</ele>
        <time>2015-06-26T07:10:02Z</time>
      </trkpt>
      <trkpt lat="46.24478" lon="6.84745">
        <ele>1388</ele>
        <time>2015-06-26T07:10:06Z</time>
      </trkpt>
      <trkpt lat="46.24465" lon="6.84754">
        <ele>1376</ele>
        <time>2015-06-26T07:10:10Z</time>
      </trkpt>
      <trkpt lat="46.24452" lon="6.84767">
        <ele>1378</ele>
        <time>2015-06-26T07:10:14Z</time>
      </trkpt>
      <trkpt lat="46.24441" lon="6.8478">
        <ele>1378</ele>
        <time>2015-06-26T07:10:18Z</time>
      </trkpt>
      <trkpt lat="46.24431" lon="6.84795">
        <ele>1379</ele>
        <time>2015-06-26T07:10:22Z</time>
      </trkpt>
      <trkpt lat="46.24421" lon="6.84811">
        <ele>1379</ele>
        <time>2015-06-26T07:10:26Z</time>
      </trkpt>
      <trkpt lat="46.24417" lon="6.84831">
        <ele>1382</ele>
        <time>2015-06-26T07:10:30Z</time>
      </trkpt>
      <trkpt lat="46.24418" lon="6.84852">
        <ele>1378</ele>
        <time>2015-06-26T07:10:34Z</time>
      </trkpt>
      <trkpt lat="46.2442" lon="6.84874">
        <ele>1376</ele>
        <time>2015-06-26T07:10:38Z</time>
      </trkpt>
      <trkpt lat="46.24415" lon="6.84903">
        <ele>1383</ele>
        <time>2015-06-26T07:10:44Z</time>
      </trkpt>
      <trkpt lat="46.24408" lon="6.84922">
        <ele>1380</ele>
        <time>2015-06-26T07:10:48Z</time>
      </trkpt>
      <trkpt lat="46.24396" lon="6.84939">
        <ele>1384</ele>
        <time>2015-06-26T07:10:52Z</time>
      </trkpt>
      <trkpt lat="46.24383" lon="6.84954">
        <ele>1386</ele>
        <time>2015-06-26T07:10:56Z</time>
      </trkpt>
      <trkpt lat="46.24366" lon="6.84971">
        <ele>1388</ele>
        <time>2015-06-26T07:11:00Z</time>
      </trkpt>
      <trkpt lat="46.24351" lon="6.84988">
        <ele>1389</ele>
        <time>2015-06-26T07:11:04Z</time>
      </trkpt>
      <trkpt lat="46.24339" lon="6.85009">
        <ele>1387</ele>
        <time>2015-06-26T07:11:08Z</time>
      </trkpt>
      <trkpt lat="46.24327" lon="6.85029">
        <ele>1390</ele>
        <time>2015-06-26T07:11:12Z</time>
      </trkpt>
      <trkpt lat="46.2431" lon="6.85044">
        <ele>1389</ele>
        <time>2015-06-26T07:11:16Z</time>
      </trkpt>
      <trkpt lat="46.24288" lon="6.85057">
        <ele>1389</ele>
        <time>2015-06-26T07:11:20Z</time>
      </trkpt>
      <trkpt lat="46.2426" lon="6.85072">
        <ele>1389</ele>
        <time>2015-06-26T07:11:24Z</time>
      </trkpt>
      <trkpt lat="46.24231" lon="6.8508">
        <ele>1390</ele>
        <time>2015-06-26T07:11:28Z</time>
      </trkpt>
      <trkpt lat="46.24215" lon="6.8508">
        <ele>1390</ele>
        <time>2015-06-26T07:11:34Z</time>
      </trkpt>
      <trkpt lat="46.24205" lon="6.85078">
        <ele>1389</ele>
        <time>2015-06-26T07:11:38Z</time>
      </trkpt>
      <trkpt lat="46.24194" lon="6.85077">
        <ele>1387</ele>
        <time>2015-06-26T07:11:42Z</time>
      </trkpt>
      <trkpt lat="46.2418" lon="6.85076">
        <ele>1383</ele>
        <time>2015-06-26T07:11:46Z</time>
      </trkpt>
      <trkpt lat="46.24139" lon="6.85078">
        <ele>1378</ele>
        <time>2015-06-26T07:11:50Z</time>
      </trkpt>
      <trkpt lat="46.2412" lon="6.85081">
        <ele>1377</ele>
        <time>2015-06-26T07:11:54Z</time>
      </trkpt>
      <trkpt lat="46.24097" lon="6.85083">
        <ele>1373</ele>
        <time>2015-06-26T07:11:58Z</time>
      </trkpt>
      <trkpt lat="46.2407" lon="6.85091">
        <ele>1364</ele>
        <time>2015-06-26T07:12:02Z</time>
      </trkpt>
      <trkpt lat="46.24039" lon="6.85106">
        <ele>1361</ele>
        <time>2015-06-26T07:12:06Z</time>
      </trkpt>
      <trkpt lat="46.24003" lon="6.85116">
        <ele>1361</ele>
        <time>2015-06-26T07:12:10Z</time>
      </trkpt>
      <trkpt lat="46.23959" lon="6.85103">
        <ele>1359</ele>
        <time>2015-06-26T07:12:14Z</time>
      </trkpt>
      <trkpt lat="46.23913" lon="6.85091">
        <ele>1358</ele>
        <time>2015-06-26T07:12:18Z</time>
      </trkpt>
      <trkpt lat="46.23867" lon="6.85109">
        <ele>1354</ele>
        <time>2015-06-26T07:12:22Z</time>
      </trkpt>
      <trkpt lat="46.23799" lon="6.85152">
        <ele>1352</ele>
        <time>2015-06-26T07:12:28Z</time>
      </trkpt>
      <trkpt lat="46.23755" lon="6.85175">
        <ele>1348</ele>
        <time>2015-06-26T07:12:32Z</time>
      </trkpt>
      <trkpt lat="46.23722" lon="6.85223">
        <ele>1345</ele>
        <time>2015-06-26T07:12:36Z</time>
      </trkpt>
      <trkpt lat="46.23689" lon="6.85271">
        <ele>1339</ele>
        <time>2015-06-26T07:12:40Z</time>
      </trkpt>
      <trkpt lat="46.23648" lon="6.85298">
        <ele>1338</ele>
        <time>2015-06-26T07:12:44Z</time>
      </trkpt>
      <trkpt lat="46.23628" lon="6.85339">
        <ele>1337</ele>
        <time>2015-06-26T07:12:48Z</time>
      </trkpt>
      <trkpt lat="46.23644" lon="6.85378">
        <ele>1336</ele>
        <time>2015-06-26T07:12:52Z</time>
      </trkpt>
      <trkpt lat="46.23677" lon="6.85408">
        <ele>1331</ele>
        <time>2015-06-26T07:12:56Z</time>
      </trkpt>
      <trkpt lat="46.23695" lon="6.8546">
        <ele>1327</ele>
        <time>2015-06-26T07:13:00Z</time>
      </trkpt>
      <trkpt lat="46.23693" lon="6.85525">
        <ele>1322</ele>
        <time>2015-06-26T07:13:04Z</time>
      </trkpt>
      <trkpt lat="46.23699" lon="6.85593">
        <ele>1318</ele>
        <time>2015-06-26T07:13:08Z</time>
      </trkpt>
      <trkpt lat="46.23709" lon="6.85662">
        <ele>1317</ele>
        <time>2015-06-26T07:13:12Z</time>
      </trkpt>
      <trkpt lat="46.23703" lon="6.8573">
        <ele>1316</ele>
        <time>2015-06-26T07:13:16Z</time>
      </trkpt>
      <trkpt lat="46.22495" lon="6.86145">
        <ele>1810</ele>
        <time>2015-06-26T07:13:22Z</time>
      </trkpt>
      <trkpt lat="46.22498" lon="6.8615">
        <ele>1810</ele>
        <time>2015-06-26T07:13:26Z</time>
      </trkpt>
      <trkpt lat="46.22497" lon="6.86154">
        <ele>1809</ele>
        <time>2015-06-26T07:13:30Z</time>
      </trkpt>
      <trkpt lat="46.22485" lon="6.86154">
        <ele>1809</ele>
        <time>2015-06-26T07:13:34Z</time>
      </trkpt>
      <trkpt lat="46.2246" lon="6.86156">
        <ele>1809</ele>
        <time>2015-06-26T07:13:38Z</time>
      </trkpt>
      <trkpt lat="46.22434" lon="6.86166">
        <ele>1807</ele>
        <time>2015-06-26T07:13:42Z</time>
      </trkpt>
      <trkpt lat="46.22418" lon="6.86182">
        <ele>1803</ele>
        <time>2015-06-26T07:13:46Z</time>
      </trkpt>
      <trkpt lat="46.22398" lon="6.86184">
        <ele>1795</ele>
        <time>2015-06-26T07:13:50Z</time>
      </trkpt>
      <trkpt lat="46.22373" lon="6.86182">
        <ele>1791</ele>
        <time>2015-06-26T07:13:54Z</time>
      </trkpt>
      <trkpt lat="46.2235" lon="6.86179">
        <ele>1789</ele>
        <time>2015-06-26T07:13:58Z</time>
      </trkpt>
      <trkpt lat="46.22329" lon="6.86167">
        <ele>1786</ele>
        <time>2015-06-26T07:14:02Z</time>
      </trkpt>
      <trkpt lat="46.2231" lon="6.86169">
        <ele>1778</ele>
        <time>2015-06-26T07:14:06Z</time>
      </trkpt>
      <trkpt lat="46.22295" lon="6.86169">
        <ele>1775</ele>
        <time>2015-06-26T07:14:10Z</time>
      </trkpt>
      <trkpt lat="46.22268" lon="6.86172">
        <ele>1772</ele>
        <time>2015-06-26T07:14:16Z</time>
      </trkpt>
      <trkpt lat="46.22251" lon="6.86176">
        <ele>1771</ele>
        <time>2015-06-26T07:14:20Z</time>
      </trkpt>
      <trkpt lat="46.22236" lon="6.8618">
        <ele>1761</ele>
        <time>2015-06-26T07:14:24Z</time>
      </trkpt>
      <trkpt lat="46.22222" lon="6.86183">
        <ele>1757</ele>
        <time>2015-06-26T07:14:28Z</time>
      </trkpt>
      <trkpt lat="46.2221" lon="6.86186">
        <ele>1754</ele>
        <time>2015-06-26T07:14:32Z</time>
      </trkpt>
      <trkpt lat="46.22197" lon="6.86189">
        <ele>1752</ele>
        <time>2015-06-26T07:14:36Z</time>
      </trkpt>
      <trkpt lat="46.22194" lon="6.86192">
        <ele>1752</ele>
        <time>2015-06-26T07:14:40Z</time>
      </trkpt>
      <trkpt lat="46.22194" lon="6.86192">
        <ele>1752</ele>
        <time>2015-06-26T07:14:44Z</time>
      </trkpt>
      <trkpt lat="46.22193" lon="6.86193">
        <ele>1752</ele>
        <time>2015-06-26T07:14:48Z</time>
      </trkpt>
      <trkpt lat="46.22179" lon="6.86199">
        <ele>1750</ele>
        <time>2015-06-26T07:14:52Z</time>
      </trkpt>
      <trkpt lat="46.22164" lon="6.86211">
        <ele>1736</ele>
        <time>2015-06-26T07:14:56Z</time>
      </trkpt>
      <trkpt lat="46.22147" lon="6.86225">
        <ele>1734</ele>
        <time>2015-06-26T07:15:00Z</time>
      </trkpt>
      <trkpt lat="46.22131" lon="6.86214">
        <ele>1733</ele>
        <time>2015-06-26T07:15:06Z</time>
      </trkpt>
      <trkpt lat="46.22121" lon="6.86186">
        <ele>1734</ele>
        <time>2015-06-26T07:15:10Z</time>
      </trkpt>
      <trkpt lat="46.221" lon="6.86174">
        <ele>1731</ele>
        <time>2015-06-26T07:15:14Z</time>
      </trkpt>
      <trkpt lat="46.22085" lon="6.86172">
        <ele>1729</ele>
        <time>2015-06-26T07:15:18Z</time>
      </trkpt>
      <trkpt lat="46.22074" lon="6.86156">
        <ele>1726</ele>
        <time>2015-06-26T07:15:22Z</time>
      </trkpt>
      <trkpt lat="46.22072" lon="6.86131">
        <ele>1726</ele>
        <time>2015-06-26T07:15:26Z</time>
      </trkpt>
      <trkpt lat="46.22072" lon="6.86109">
        <ele>1728</ele>
        <time>2015-06-26T07:15:30Z</time>
      </trkpt>
      <trkpt lat="46.2207" lon="6.86092">
        <ele>1730</ele>
        <time>2015-06-26T07:15:34Z</time>
      </trkpt>
      <trkpt lat="46.22067" lon="6.86077">
        <ele>1736</ele>
        <time>2015-06-26T07:15:38Z</time>
      </trkpt>
      <trkpt lat="46.22059" lon="6.86064">
        <ele>1735</ele>
        <time>2015-06-26T07:15:42Z</time>
      </trkpt>
      <trkpt lat="46.22049" lon="6.86051">
        <ele>1735</ele>
        <time>2015-06-26T07:15:46Z</time>
      </trkpt>
      <trkpt lat="46.2204" lon="6.86038">
        <ele>1736</ele>
        <time>2015-06-26T07:15:50Z</time>
      </trkpt>
      <trkpt lat="46.22031" lon="6.86026">
        <ele>1735</ele>
        <time>2015-06-26T07:15:54Z</time>
      </trkpt>
      <trkpt lat="46.22021" lon="6.86007">
        <ele>1735</ele>
        <time>2015-06-26T07:16:00Z</time>
      </trkpt>
      <trkpt lat="46.22017" lon="6.85993">
        <ele>1741</ele>
        <time>2015-06-26T07:16:04Z</time>
      </trkpt>
      <trkpt lat="46.22014" lon="6.85977">
        <ele>1743</ele>
        <time>2015-06-26T07:16:08Z</time>
      </trkpt>
      <trkpt lat="46.22008" lon="6.85962">
        <ele>1745</ele>
        <time>2015-06-26T07:16:12Z</time>
      </trkpt>
      <trkpt lat="46.21996" lon="6.85954">
        <ele>1736</ele>
        <time>2015-06-26T07:16:16Z</time>
      </trkpt>
      <trkpt lat="46.2198" lon="6.85947">
        <ele>1736</ele>
        <time>2015-06-26T07:16:20Z</time>
      </trkpt>
      <trkpt lat="46.21964" lon="6.85939">
        <ele>1736</ele>
        <time>2015-06-26T07:16:24Z</time>
      </trkpt>
      <trkpt lat="46.21946" lon="6.8593">
        <ele>1736</ele>
        <time>2015-06-26T07:16:28Z</time>
      </trkpt>
      <trkpt lat="46.2193" lon="6.85933">
        <ele>1736</ele>
        <time>2015-06-26T07:16:32Z</time>
      </trkpt>
      <trkpt lat="46.21916" lon="6.85938">
        <ele>1735</ele>
        <time>2015-06-26T07:16:36Z</time>
      </trkpt>
      <trkpt lat="46.21904" lon="6.85942">
        <ele>1735</ele>
        <time>2015-06-26T07:16:40Z</time>
      </trkpt>
      <trkpt lat="46.21891" lon="6.85942">
        <ele>1735</ele>
        <time>2015-06-26T07:16:44Z</time>
      </trkpt>
      <trkpt lat="46.21878" lon="6.85945">
        <ele>1735</ele>
        <time>2015-06-26T07:16:48Z</time>
      </trkpt>
      <trkpt lat="46.21856" lon="6.85947">
        <ele>1735</ele>
        <time>2015-06-26T07:16:54Z</time>
      </trkpt>
      <trkpt lat="46.21841" lon="6.85951">
        <ele>1735</ele>
        <time>2015-06-26T07:16:58Z</time>
      </trkpt>
      <trkpt lat="46.21825" lon="6.85956">
        <ele>1740</ele>
        <time>2015-06-26T07:17:02Z</time>
      </trkpt>
      <trkpt lat="46.21808" lon="6.85964">
        <ele>1740</ele>
        <time>2015-06-26T07:17:06Z</time>
      </trkpt>
      <trkpt lat="46.21793" lon="6.85976">
        <ele>1741</ele>
        <time>2015-06-26T07:17:10Z</time>
      </trkpt>
      <trkpt lat="46.21782" lon="6.85996">
        <ele>1741</ele>
        <time>2015-06-26T07:17:14Z</time>
      </trkpt>
      <trkpt lat="46.21778" lon="6.86021">
        <ele>1734</ele>
        <time>2015-06-26T07:17:18Z</time>
      </trkpt>
      <trkpt lat="46.21771" lon="6.86042">
        <ele>1733</ele>
        <time>2015-06-26T07:17:22Z</time>
      </trkpt>
      <trkpt lat="46.21758" lon="6.86055">
        <ele>1733</ele>
        <time>2015-06-26T07:17:26Z</time>
      </trkpt>
      <trkpt lat="46.21746" lon="6.86068">
        <ele>1737</ele>
        <time>2015-06-26T07:17:30Z</time>
      </trkpt>
      <trkpt lat="46.21735" lon="6.86086">
        <ele>1732</ele>
        <time>2015-06-26T07:17:34Z</time>
      </trkpt>
      <trkpt lat="46.21724" lon="6.86102">
        <ele>1732</ele>
        <time>2015-06-26T07:17:38Z</time>
      </trkpt>
      <trkpt lat="46.21714" lon="6.86118">
        <ele>1731</ele>
        <time>2015-06-26T07:17:42Z</time>
      </trkpt>
      <trkpt lat="46.21693" lon="6.86118">
        <ele>1731</ele>
        <time>2015-06-26T07:17:48Z</time>
      </trkpt>
      <trkpt lat="46.21681" lon="6.86104">
        <ele>1733</ele>
        <time>2015-06-26T07:17:52Z</time>
      </trkpt>
      <trkpt lat="46.21669" lon="6.86091">
        <ele>1736</ele>
        <time>2015-06-26T07:17:56Z</time>
      </trkpt>
      <trkpt lat="46.21655" lon="6.8608">
        <ele>1738</ele>
        <time>2015-06-26T07:18:00Z</time>
      </trkpt>
      <trkpt lat="46.21643" lon="6.86068">
        <ele>1738</ele>
        <time>2015-06-26T07:18:04Z</time>
      </trkpt>
      <trkpt lat="46.21632" lon="6.86051">
        <ele>1738</ele>
        <time>2015-06-26T07:18:08Z</time>
      </trkpt>
      <trkpt lat="46.21622" lon="6.86037">
        <ele>1738</ele>
        <time>2015-06-26T07:18:12Z</time>
      </trkpt>
      <trkpt lat="46.21613" lon="6.86022">
        <ele>1739</ele>
        <time>2015-06-26T07:18:16Z</time>
      </trkpt>
      <trkpt lat="46.21605" lon="6.86008">
        <ele>1739</ele>
        <time>2015-06-26T07:18:20Z</time>
      </trkpt>
      <trkpt lat="46.21597" lon="6.85994">
        <ele>1747</ele>
        <time>2015-06-26T07:18:24Z</time>
      </trkpt>
      <trkpt lat="46.21589" lon="6.85981">
        <ele>1748</ele>
        <time>2015-06-26T07:18:28Z</time>
      </trkpt>
      <trkpt lat="46.2158" lon="6.85967">
        <ele>1740</ele>
        <time>2015-06-26T07:18:32Z</time>
      </trkpt>
      <trkpt lat="46.21565" lon="6.85945">
        <ele>1742</ele>
        <time>2015-06-26T07:18:38Z</time>
      </trkpt>
      <trkpt lat="46.21555" lon="6.85932">
        <ele>1743</ele>
        <time>2015-06-26T07:18:42Z</time>
      </trkpt>
      <trkpt lat="46.21549" lon="6.85915">
        <ele>1752</ele>
        <time>2015-06-26T07:18:46Z</time>
      </trkpt>
      <trkpt lat="46.21544" lon="6.85896">
        <ele>1752</ele>
        <time>2015-06-26T07:18:50Z</time>
      </trkpt>
      <trkpt lat="46.21539" lon="6.85877">
        <ele>1753</ele>
        <time>2015-06-26T07:18:54Z</time>
      </trkpt>
      <trkpt lat="46.21533" lon="6.85861">
        <ele>1754</ele>
        <time>2015-06-26T07:18:58Z</time>
      </trkpt>
      <trkpt lat="46.21527" lon="6.85846">
        <ele>1753</ele>
        <time>2015-06-26T07:19:02Z</time>
      </trkpt>
      <trkpt lat="46.21518" lon="6.85832">
        <ele>1759</ele>
        <time>2015-06-26T07:19:06Z</time>
      </trkpt>
      <trkpt lat="46.21511" lon="6.85821">
        <ele>1758</ele>
        <time>2015-06-26T07:19:10Z</time>
      </trkpt>
      <trkpt lat="46.21503" lon="6.85811">
        <ele>1760</ele>
        <time>2015-06-26T07:19:14Z</time>
      </trkpt>
      <trkpt lat="46.21496" lon="6.85802">
        <ele>1748</ele>
        <time>2015-06-26T07:19:18Z</time>
      </trkpt>
      <trkpt lat="46.2149" lon="6.85793">
        <ele>1749</ele>
        <time>2015-06-26T07:19:22Z</time>
      </trkpt>
      <trkpt lat="46.21483" lon="6.85784">
        <ele>1749</ele>
        <time>2015-06-26T07:19:26Z</time>
      </trkpt>
      <trkpt lat="46.21473" lon="6.85768">
        <ele>1750</ele>
        <time>2015-06-26T07:19:32Z</time>
      </trkpt>
      <trkpt lat="46.21466" lon="6.85756">
        <ele>1749</ele>
        <time>2015-06-26T07:19:36Z</time>
      </trkpt>
      <trkpt lat="46.21459" lon="6.85743">
        <ele>1757</ele>
        <time>2015-06-26T07:19:40Z</time>
      </trkpt>
      <trkpt lat="46.2145" lon="6.85729">
        <ele>1757</ele>
        <time>2015-06-26T07:19:44Z</time>
      </trkpt>
      <trkpt lat="46.21441" lon="6.85716">
        <ele>1757</ele>
        <time>2015-06-26T07:19:48Z</time>
      </trkpt>
      <trkpt lat="46.21432" lon="6.85704">
        <ele>1757</ele>
        <time>2015-06-26T07:19:52Z</time>
      </trkpt>
      <trkpt lat="46.21423" lon="6.85692">
        <ele>1758</ele>
        <time>2015-06-26T07:19:56Z</time>
      </trkpt>
      <trkpt lat="46.21415" lon="6.85682">
        <ele>1750</ele>
        <time>2015-06-26T07:20:00Z</time>
      </trkpt>
      <trkpt lat="46.21403" lon="6.85671">
        <ele>1750</ele>
        <time>2015-06-26T07:20:04Z</time>
      </trkpt>
      <trkpt lat="46.2139" lon="6.8566">
        <ele>1755</ele>
        <time>2015-06-26T07:20:08Z</time>
      </trkpt>
      <trkpt lat="46.21371" lon="6.85645">
        <ele>1754</ele>
        <time>2015-06-26T07:20:12Z</time>
      </trkpt>
      <trkpt lat="46.21351" lon="6.85623">
        <ele>1754</ele>
        <time>2015-06-26T07:20:16Z</time>
      </trkpt>
      <trkpt lat="46.21336" lon="6.85599">
        <ele>1754</ele>
        <time>2015-06-26T07:20:20Z</time>
      </trkpt>
      <trkpt lat="46.2132" lon="6.85577">
        <ele>1752</ele>
        <time>2015-06-26T07:20:26Z</time>
      </trkpt>
      <trkpt lat="46.21307" lon="6.85568">
        <ele>1751</ele>
        <time>2015-06-26T07:20:30Z</time>
      </trkpt>
      <trkpt lat="46.21296" lon="6.85559">
        <ele>1750</ele>
        <time>2015-06-26T07:20:34Z</time>
      </trkpt>
      <trkpt lat="46.21285" lon="6.85549">
        <ele>1750</ele>
        <time>2015-06-26T07:20:38Z</time>
      </trkpt>
      <trkpt lat="46.21273" lon="6.85535">
        <ele>1750</ele>
        <time>2015-06-26T07:20:42Z</time>
      </trkpt>
      <trkpt lat="46.21265" lon="6.85515">
        <ele>1750</ele>
        <time>2015-06-26T07:20:46Z</time>
      </trkpt>
      <trkpt lat="46.21255" lon="6.85499">
        <ele>1752</ele>
        <time>2015-06-26T07:20:50Z</time>
      </trkpt>
      <trkpt lat="46.21246" lon="6.85485">
        <ele>1749</ele>
        <time>2015-06-26T07:20:54Z</time>
      </trkpt>
      <trkpt lat="46.21236" lon="6.85473">
        <ele>1749</ele>
        <time>2015-06-26T07:20:58Z</time>
      </trkpt>
      <trkpt lat="46.21225" lon="6.8546">
        <ele>1749</ele>
        <time>2015-06-26T07:21:02Z</time>
      </trkpt>
      <trkpt lat="46.21212" lon="6.85446">
        <ele>1749</ele>
        <time>2015-06-26T07:21:06Z</time>
      </trkpt>
      <trkpt lat="46.21192" lon="6.85426">
        <ele>1748</ele>
        <time>2015-06-26T07:21:10Z</time>
      </trkpt>
      <trkpt lat="46.21167" lon="6.8541">
        <ele>1749</ele>
        <time>2015-06-26T07:21:14Z</time>
      </trkpt>
      <trkpt lat="46.21129" lon="6.85363">
        <ele>1741</ele>
        <time>2015-06-26T07:21:20Z</time>
      </trkpt>
      <trkpt lat="46.21118" lon="6.85333">
        <ele>1752</ele>
        <time>2015-06-26T07:21:24Z</time>
      </trkpt>
      <trkpt lat="46.21111" lon="6.8534">
        <ele>1739</ele>
        <time>2015-06-26T07:21:28Z</time>
      </trkpt>
      <trkpt lat="46.2112" lon="6.85371">
        <ele>1739</ele>
        <time>2015-06-26T07:21:32Z</time>
      </trkpt>
      <trkpt lat="46.21132" lon="6.85414">
        <ele>1738</ele>
        <time>2015-06-26T07:21:36Z</time>
      </trkpt>
      <trkpt lat="46.2114" lon="6.85444">
        <ele>1730</ele>
        <time>2015-06-26T07:21:40Z</time>
      </trkpt>
      <trkpt lat="46.2113" lon="6.85469">
        <ele>1726</ele>
        <time>2015-06-26T07:21:44Z</time>
      </trkpt>
      <trkpt lat="46.21105" lon="6.85487">
        <ele>1721</ele>
        <time>2015-06-26T07:21:48Z</time>
      </trkpt>
      <trkpt lat="46.21077" lon="6.85514">
        <ele>1711</ele>
        <time>2015-06-26T07:21:52Z</time>
      </trkpt>
      <trkpt lat="46.21041" lon="6.85543">
        <ele>1708</ele>
        <time>2015-06-26T07:21:56Z</time>
      </trkpt>
      <trkpt lat="46.21005" lon="6.85575">
        <ele>1707</ele>
        <time>2015-06-26T07:22:00Z</time>
      </trkpt>
      <trkpt lat="46.20975" lon="6.85618">
        <ele>1702</ele>
        <time>2015-06-26T07:22:04Z</time>
      </trkpt>
      <trkpt lat="46.20927" lon="6.85666">
        <ele>1698</ele>
        <time>2015-06-26T07:22:10Z</time>
      </trkpt>
      <trkpt lat="46.20895" lon="6.85672">
        <ele>1697</ele>
        <time>2015-06-26T07:22:14Z</time>
      </trkpt>
      <trkpt lat="46.20874" lon="6.85647">
        <ele>1697</ele>
        <time>2015-06-26T07:22:18Z</time>
      </trkpt>
      <trkpt lat="46.20852" lon="6.85632">
        <ele>1697</ele>
        <time>2015-06-26T07:22:22Z</time>
      </trkpt>
      <trkpt lat="46.2083" lon="6.85653">
        <ele>1703</ele>
        <time>2015-06-26T07:22:26Z</time>
      </trkpt>
      <trkpt lat="46.20816" lon="6.85677">
        <ele>1701</ele>
        <time>2015-06-26T07:22:30Z</time>
      </trkpt>
      <trkpt lat="46.20804" lon="6.85691">
        <ele>1702</ele>
        <time>2015-06-26T07:22:34Z</time>
      </trkpt>
      <trkpt lat="46.20793" lon="6.85708">
        <ele>1703</ele>
        <time>2015-06-26T07:22:38Z</time>
      </trkpt>
      <trkpt lat="46.20781" lon="6.85724">
        <ele>1704</ele>
        <time>2015-06-26T07:22:42Z</time>
      </trkpt>
      <trkpt lat="46.2077" lon="6.85738">
        <ele>1704</ele>
        <time>2015-06-26T07:22:46Z</time>
      </trkpt>
      <trkpt lat="46.2076" lon="6.85747">
        <ele>1704</ele>
        <time>2015-06-26T07:22:50Z</time>
      </trkpt>
      <trkpt lat="46.20751" lon="6.85754">
        <ele>1704</ele>
        <time>2015-06-26T07:22:54Z</time>
      </trkpt>
      <trkpt lat="46.20744" lon="6.85757">
        <ele>1705</ele>
        <time>2015-06-26T07:22:58Z</time>
      </trkpt>
      <trkpt lat="46.20733" lon="6.85759">
        <ele>1705</ele>
        <time>2015-06-26T07:23:04Z</time>
      </trkpt>
      <trkpt lat="46.20726" lon="6.85759">
        <ele>1705</ele>
        <time>2015-06-26T07:23:08Z</time>
      </trkpt>
      <trkpt lat="46.2072" lon="6.85762">
        <ele>1705</ele>
        <time>2015-06-26T07:23:12Z</time>
      </trkpt>
      <trkpt lat="46.20712" lon="6.85765">
        <ele>1705</ele>
        <time>2015-06-26T07:23:16Z</time>
      </trkpt>
      <trkpt lat="46.20704" lon="6.85768">
        <ele>1706</ele>
        <time>2015-06-26T07:23:20Z</time>
      </trkpt>
      <trkpt lat="46.20696" lon="6.85772">
        <ele>1706</ele>
        <time>2015-06-26T07:23:24Z</time>
      </trkpt>
      <trkpt lat="46.20689" lon="6.85778">
        <ele>1706</ele>
        <time>2015-06-26T07:23:28Z</time>
      </trkpt>
      <trkpt lat="46.20682" lon="6.85785">
        <ele>1706</ele>
        <time>2015-06-26T07:23:32Z</time>
      </trkpt>
      <trkpt lat="46.20673" lon="6.85798">
        <ele>1705</ele>
        <time>2015-06-26T07:23:36Z</time>
      </trkpt>
      <trkpt lat="46.20664" lon="6.85818">
        <ele>1705</ele>
        <time>2015-06-26T07:23:40Z</time>
      </trkpt>
      <trkpt lat="46.2065" lon="6.85841">
        <ele>1698</ele>
        <time>2015-06-26T07:23:44Z</time>
      </trkpt>
      <trkpt lat="46.20627" lon="6.85843">
        <ele>1697</ele>
        <time>2015-06-26T07:23:48Z</time>
      </trkpt>
      <trkpt lat="46.20608" lon="6.85841">
        <ele>1698</ele>
        <time>2015-06-26T07:23:52Z</time>
      </trkpt>
      <trkpt lat="46.20584" lon="6.85835">
        <ele>1704</ele>
        <time>2015-06-26T07:23:58Z</time>
      </trkpt>
      <trkpt lat="46.20572" lon="6.85829">
        <ele>1707</ele>
        <time>2015-06-26T07:24:02Z</time>
      </trkpt>
      <trkpt lat="46.20557" lon="6.85826">
        <ele>1708</ele>
        <time>2015-06-26T07:24:06Z</time>
      </trkpt>
      <trkpt lat="46.20539" lon="6.85831">
        <ele>1708</ele>
        <time>2015-06-26T07:24:10Z</time>
      </trkpt>
      <trkpt lat="46.20517" lon="6.85835">
        <ele>1694</ele>
        <time>2015-06-26T07:24:14Z</time>
      </trkpt>
      <trkpt lat="46.20503" lon="6.85828">
        <ele>1700</ele>
        <time>2015-06-26T07:24:18Z</time>
      </trkpt>
      <trkpt lat="46.20508" lon="6.85848">
        <ele>1693</ele>
        <time>2015-06-26T07:24:22Z</time>
      </trkpt>
      <trkpt lat="46.20527" lon="6.85865">
        <ele>1691</ele>
        <time>2015-06-26T07:24:26Z</time>
      </trkpt>
      <trkpt lat="46.20555" lon="6.85867">
        <ele>1692</ele>
        <time>2015-06-26T07:24:30Z</time>
      </trkpt>
      <trkpt lat="46.20579" lon="6.85882">
        <ele>1691</ele>
        <time>2015-06-26T07:24:34Z</time>
      </trkpt>
      <trkpt lat="46.206" lon="6.85902">
        <ele>1689</ele>
        <time>2015-06-26T07:24:38Z</time>
      </trkpt>
      <trkpt lat="46.20628" lon="6.85911">
        <ele>1690</ele>
        <time>2015-06-26T07:24:42Z</time>
      </trkpt>
      <trkpt lat="46.20664" lon="6.85921">
        <ele>1681</ele>
        <time>2015-06-26T07:24:46Z</time>
      </trkpt>
      <trkpt lat="46.20717" lon="6.85942">
        <ele>1674</ele>
        <time>2015-06-26T07:24:52Z</time>
      </trkpt>
      <trkpt lat="46.2074" lon="6.85957">
        <ele>1672</ele>
        <time>2015-06-26T07:24:56Z</time>
      </trkpt>
      <trkpt lat="46.20744" lon="6.85976">
        <ele>1669</ele>
        <time>2015-06-26T07:25:00Z</time>
      </trkpt>
      <trkpt lat="46.20733" lon="6.85999">
        <ele>1667</ele>
        <time>2015-06-26T07:25:04Z</time>
      </trkpt>
      <trkpt lat="46.20713" lon="6.86014">
        <ele>1658</ele>
        <time>2015-06-26T07:25:08Z</time>
      </trkpt>
      <trkpt lat="46.20705" lon="6.86018">
        <ele>1658</ele>
        <time>2015-06-26T07:25:12Z</time>
      </trkpt>
      <trkpt lat="46.20369" lon="6.84621">
        <ele>2014</ele>
        <time>2015-06-26T07:25:16Z</time>
      </trkpt>
      <trkpt lat="46.20366" lon="6.84618">
        <ele>2014</ele>
        <time>2015-06-26T07:25:20Z</time>
      </trkpt>
      <trkpt lat="46.20362" lon="6.84614">
        <ele>2014</ele>
        <time>2015-06-26T07:25:24Z</time>
      </trkpt>
      <trkpt lat="46.20352" lon="6.84606">
        <ele>2015</ele>
        <time>2015-06-26T07:25:28Z</time>
      </trkpt>
      <trkpt lat="46.20335" lon="6.84589">
        <ele>2018</ele>
        <time>2015-06-26T07:25:32Z</time>
      </trkpt>
      <trkpt lat="46.20316" lon="6.84571">
        <ele>2012</ele>
        <time>2015-06-26T07:25:36Z</time>
      </trkpt>
      <trkpt lat="46.20272" lon="6.8454">
        <ele>2008</ele>
        <time>2015-06-26T07:25:42Z</time>
      </trkpt>
      <trkpt lat="46.20246" lon="6.8452">
        <ele>2005</ele>
        <time>2015-06-26T07:25:46Z</time>
      </trkpt>
      <trkpt lat="46.20223" lon="6.845">
        <ele>2011</ele>
        <time>2015-06-26T07:25:50Z</time>
      </trkpt>
      <trkpt lat="46.20205" lon="6.84479">
        <ele>2011</ele>
        <time>2015-06-26T07:25:54Z</time>
      </trkpt>
      <trkpt lat="46.20201" lon="6.84473">
        <ele>2012</ele>
        <time>2015-06-26T07:25:58Z</time>
      </trkpt>
      <trkpt lat="46.20143" lon="6.84428">
        <ele>2021</ele>
        <time>2015-06-26T07:26:02Z</time>
      </trkpt>
      <trkpt lat="46.20128" lon="6.84424">
        <ele>2021</ele>
        <time>2015-06-26T07:26:06Z</time>
      </trkpt>
      <trkpt lat="46.2012" lon="6.84418">
        <ele>2022</ele>
        <time>2015-06-26T07:26:10Z</time>
      </trkpt>
      <trkpt lat="46.20115" lon="6.84413">
        <ele>2033</ele>
        <time>2015-06-26T07:26:14Z</time>
      </trkpt>
      <trkpt lat="46.20107" lon="6.84409">
        <ele>2034</ele>
        <time>2015-06-26T07:26:18Z</time>
      </trkpt>
      <trkpt lat="46.201" lon="6.84405">
        <ele>2034</ele>
        <time>2015-06-26T07:26:22Z</time>
      </trkpt>
      <trkpt lat="46.20094" lon="6.84402">
        <ele>2034</ele>
        <time>2015-06-26T07:26:26Z</time>
      </trkpt>
      <trkpt lat="46.20088" lon="6.84398">
        <ele>2034</ele>
        <time>2015-06-26T07:26:30Z</time>
      </trkpt>
      <trkpt lat="46.2008" lon="6.84393">
        <ele>2040</ele>
        <time>2015-06-26T07:26:36Z</time>
      </trkpt>
      <trkpt lat="46.20074" lon="6.8439">
        <ele>2041</ele>
        <time>2015-06-26T07:26:40Z</time>
      </trkpt>
      <trkpt lat="46.20068" lon="6.84387">
        <ele>2042</ele>
        <time>2015-06-26T07:26:44Z</time>
      </trkpt>
      <trkpt lat="46.20062" lon="6.84384">
        <ele>2043</ele>
        <time>2015-06-26T07:26:48Z</time>
      </trkpt>
      <trkpt lat="46.20056" lon="6.8438">
        <ele>2043</ele>
        <time>2015-06-26T07:26:52Z</time>
      </trkpt>
      <trkpt lat="46.20046" lon="6.84388">
        <ele>2042</ele>
        <time>2015-06-26T07:26:56Z</time>
      </trkpt>
      <trkpt lat="46.20041" lon="6.84397">
        <ele>2041</ele>
        <time>2015-06-26T07:27:00Z</time>
      </trkpt>
      <trkpt lat="46.20034" lon="6.84401">
        <ele>2040</ele>
        <time>2015-06-26T07:27:04Z</time>
      </trkpt>
      <trkpt lat="46.20022" lon="6.84405">
        <ele>2038</ele>
        <time>2015-06-26T07:27:08Z</time>
      </trkpt>
      <trkpt lat="46.20013" lon="6.84403">
        <ele>2037</ele>
        <time>2015-06-26T07:27:12Z</time>
      </trkpt>
      <trkpt lat="46.20005" lon="6.84407">
        <ele>2034</ele>
        <time>2015-06-26T07:27:16Z</time>
      </trkpt>
      <trkpt lat="46.19996" lon="6.84408">
        <ele>2030</ele>
        <time>2015-06-26T07:27:20Z</time>
      </trkpt>
      <trkpt lat="46.19991" lon="6.84405">
        <ele>2031</ele>
        <time>2015-06-26T07:27:24Z</time>
      </trkpt>
      <trkpt lat="46.19982" lon="6.84381">
        <ele>2036</ele>
        <time>2015-06-26T07:27:30Z</time>
      </trkpt>
      <trkpt lat="46.19975" lon="6.84373">
        <ele>2037</ele>
        <time>2015-06-26T07:27:34Z</time>
      </trkpt>
      <trkpt lat="46.19967" lon="6.84365">
        <ele>2038</ele>
        <time>2015-06-26T07:27:38Z</time>
      </trkpt>
      <trkpt lat="46.19961" lon="6.84358">
        <ele>2039</ele>
        <time>2015-06-26T07:27:42Z</time>
      </trkpt>
      <trkpt lat="46.19953" lon="6.84353">
        <ele>2039</ele>
        <time>2015-06-26T07:27:46Z</time>
      </trkpt>
      <trkpt lat="46.19947" lon="6.84351">
        <ele>2038</ele>
        <time>2015-06-26T07:27:50Z</time>
      </trkpt>
      <trkpt lat="46.1994" lon="6.84348">
        <ele>2038</ele>
        <time>2015-06-26T07:27:54Z</time>
      </trkpt>
      <trkpt lat="46.19936" lon="6.84347">
        <ele>2039</ele>
        <time>2015-06-26T07:27:58Z</time>
      </trkpt>
      <trkpt lat="46.19931" lon="6.84343">
        <ele>2039</ele>
        <time>2015-06-26T07:28:02Z</time>
      </trkpt>
      <trkpt lat="46.19925" lon="6.84336">
        <ele>2041</ele>
        <time>2015-06-26T07:28:06Z</time>
      </trkpt>
      <trkpt lat="46.19921" lon="6.84328">
        <ele>2048</ele>
        <time>2015-06-26T07:28:10Z</time>
      </trkpt>
      <trkpt lat="46.19917" lon="6.84322">
        <ele>2051</ele>
        <time>2015-06-26T07:28:14Z</time>
      </trkpt>
      <trkpt lat="46.19911" lon="6.84312">
        <ele>2044</ele>
        <time>2015-06-26T07:28:20Z</time>
      </trkpt>
      <trkpt lat="46.19908" lon="6.84307">
        <ele>2045</ele>
        <time>2015-06-26T07:28:24Z</time>
      </trkpt>
      <trkpt lat="46.19906" lon="6.84299">
        <ele>2046</ele>
        <time>2015-06-26T07:28:28Z</time>
      </trkpt>
      <trkpt lat="46.19903" lon="6.84292">
        <ele>2047</ele>
        <time>2015-06-26T07:28:32Z</time>
      </trkpt>
      <trkpt lat="46.19901" lon="6.84287">
        <ele>2048</ele>
        <time>2015-06-26T07:28:36Z</time>
      </trkpt>
      <trkpt lat="46.19898" lon="6.8428">
        <ele>2050</ele>
        <time>2015-06-26T07:28:40Z</time>
      </trkpt>
      <trkpt lat="46.19891" lon="6.84278">
        <ele>2049</ele>
        <time>2015-06-26T07:28:44Z</time>
      </trkpt>
      <trkpt lat="46.19881" lon="6.84277">
        <ele>2047</ele>
        <time>2015-06-26T07:28:48Z</time>
      </trkpt>
      <trkpt lat="46.19872" lon="6.84273">
        <ele>2047</ele>
        <time>2015-06-26T07:28:52Z</time>
      </trkpt>
      <trkpt lat="46.19862" lon="6.84268">
        <ele>2046</ele>
        <time>2015-06-26T07:28:56Z</time>
      </trkpt>
      <trkpt lat="46.19847" lon="6.84263">
        <ele>2047</ele>
        <time>2015-06-26T07:29:00Z</time>
      </trkpt>
      <trkpt lat="46.19831" lon="6.84256">
        <ele>2044</ele>
        <time>2015-06-26T07:29:04Z</time>
      </trkpt>
      <trkpt lat="46.19817" lon="6.84259">
        <ele>2036</ele>
        <time>2015-06-26T07:29:08Z</time>
      </trkpt>
      <trkpt lat="46.19794" lon="6.8425">
        <ele>2030</ele>
        <time>2015-06-26T07:29:14Z</time>
      </trkpt>
      <trkpt lat="46.19782" lon="6.84244">
        <ele>2050</ele>
        <time>2015-06-26T07:29:18Z</time>
      </trkpt>
      <trkpt lat="46.19772" lon="6.8425">
        <ele>2029</ele>
        <time>2015-06-26T07:29:22Z</time>
      </trkpt>
      <trkpt lat="46.19752" lon="6.84258">
        <ele>2031</ele>
        <time>2015-06-26T07:29:26Z</time>
      </trkpt>
      <trkpt lat="46.19734" lon="6.84262">
        <ele>2020</ele>
        <time>2015-06-26T07:29:30Z</time>
      </trkpt>
      <trkpt lat="46.19719" lon="6.84261">
        <ele>2016</ele>
        <time>2015-06-26T07:29:34Z</time>
      </trkpt>
      <trkpt lat="46.19712" lon="6.84248">
        <ele>2031</ele>
        <time>2015-06-26T07:29:38Z</time>
      </trkpt>
      <trkpt lat="46.19706" lon="6.84235">
        <ele>2031</ele>
        <time>2015-06-26T07:29:42Z</time>
      </trkpt>
      <trkpt lat="46.19707" lon="6.84219">
        <ele>2032</ele>
        <time>2015-06-26T07:29:46Z</time>
      </trkpt>
      <trkpt lat="46.19706" lon="6.84204">
        <ele>2034</ele>
        <time>2015-06-26T07:29:50Z</time>
      </trkpt>
      <trkpt lat="46.19694" lon="6.84201">
        <ele>2032</ele>
        <time>2015-06-26T07:29:54Z</time>
      </trkpt>
      <trkpt lat="46.19681" lon="6.84205">
        <ele>2030</ele>
        <time>2015-06-26T07:29:58Z</time>
      </trkpt>
      <trkpt lat="46.19669" lon="6.84214">
        <ele>2028</ele>
        <time>2015-06-26T07:30:02Z</time>
      </trkpt>
      <trkpt lat="46.19647" lon="6.84239">
        <ele>2011</ele>
        <time>2015-06-26T07:30:08Z</time>
      </trkpt>
      <trkpt lat="46.19625" lon="6.84252">
        <ele>2000</ele>
        <time>2015-06-26T07:30:12Z</time>
      </trkpt>
      <trkpt lat="46.19595" lon="6.84245">
        <ele>2000</ele>
        <time>2015-06-26T07:30:16Z</time>
      </trkpt>
      <trkpt lat="46.19583" lon="6.84212">
        <ele>1985</ele>
        <time>2015-06-26T07:30:20Z</time>
      </trkpt>
      <trkpt lat="46.19575" lon="6.84174">
        <ele>1992</ele>
        <time>2015-06-26T07:30:24Z</time>
      </trkpt>
      <trkpt lat="46.1957" lon="6.84137">
        <ele>1988</ele>
        <time>2015-06-26T07:30:28Z</time>
      </trkpt>
      <trkpt lat="46.19561" lon="6.84103">
        <ele>1988</ele>
        <time>2015-06-26T07:30:32Z</time>
      </trkpt>
      <trkpt lat="46.19552" lon="6.84065">
        <ele>1988</ele>
        <time>2015-06-26T07:30:36Z</time>
      </trkpt>
      <trkpt lat="46.19543" lon="6.84035">
        <ele>1985</ele>
        <time>2015-06-26T07:30:40Z</time>
      </trkpt>
      <trkpt lat="46.1954" lon="6.83994">
        <ele>1985</ele>
        <time>2015-06-26T07:30:44Z</time>
      </trkpt>
      <trkpt lat="46.19537" lon="6.83961">
        <ele>1984</ele>
        <time>2015-06-26T07:30:48Z</time>
      </trkpt>
      <trkpt lat="46.19531" lon="6.83938">
        <ele>1982</ele>
        <time>2015-06-26T07:30:52Z</time>
      </trkpt>
      <trkpt lat="46.19526" lon="6.83918">
        <ele>1978</ele>
        <time>2015-06-26T07:30:56Z</time>
      </trkpt>
      <trkpt lat="46.19509" lon="6.83904">
        <ele>1972</ele>
        <time>2015-06-26T07:31:02Z</time>
      </trkpt>
      <trkpt lat="46.19491" lon="6.83902">
        <ele>1956</ele>
        <time>2015-06-26T07:31:06Z</time>
      </trkpt>
      <trkpt lat="46.19474" lon="6.83906">
        <ele>1953</ele>
        <time>2015-06-26T07:31:10Z</time>
      </trkpt>
      <trkpt lat="46.19467" lon="6.83926">
        <ele>1952</ele>
        <time>2015-06-26T07:31:14Z</time>
      </trkpt>
      <trkpt lat="46.19463" lon="6.83957">
        <ele>1951</ele>
        <time>2015-06-26T07:31:18Z</time>
      </trkpt>
      <trkpt lat="46.19453" lon="6.83978">
        <ele>1949</ele>
        <time>2015-06-26T07:31:22Z</time>
      </trkpt>
      <trkpt lat="46.19436" lon="6.83975">
        <ele>1946</ele>
        <time>2015-06-26T07:31:26Z</time>
      </trkpt>
      <trkpt lat="46.19419" lon="6.8396">
        <ele>1945</ele>
        <time>2015-06-26T07:31:30Z</time>
      </trkpt>
      <trkpt lat="46.19408" lon="6.83934">
        <ele>1930</ele>
        <time>2015-06-26T07:31:34Z</time>
      </trkpt>
      <trkpt lat="46.19396" lon="6.83907">
        <ele>1928</ele>
        <time>2015-06-26T07:31:38Z</time>
      </trkpt>
      <trkpt lat="46.19387" lon="6.83891">
        <ele>1925</ele>
        <time>2015-06-26T07:31:42Z</time>
      </trkpt>
      <trkpt lat="46.1938" lon="6.83866">
        <ele>1923</ele>
        <time>2015-06-26T07:31:46Z</time>
      </trkpt>
      <trkpt lat="46.19365" lon="6.83834">
        <ele>1920</ele>
        <time>2015-06-26T07:31:52Z</time>
      </trkpt>
      <trkpt lat="46.19354" lon="6.83816">
        <ele>1916</ele>
        <time>2015-06-26T07:31:56Z</time>
      </trkpt>
      <trkpt lat="46.19351" lon="6.83806">
        <ele>1916</ele>
        <time>2015-06-26T07:32:00Z</time>
      </trkpt>
      <trkpt lat="46.1935" lon="6.83794">
        <ele>1915</ele>
        <time>2015-06-26T07:32:04Z</time>
      </trkpt>
      <trkpt lat="46.19351" lon="6.83771">
        <ele>1914</ele>
        <time>2015-06-26T07:32:08Z</time>
      </trkpt>
      <trkpt lat="46.19358" lon="6.83748">
        <ele>1910</ele>
        <time>2015-06-26T07:32:12Z</time>
      </trkpt>
      <trkpt lat="46.19368" lon="6.83727">
        <ele>1911</ele>
        <time>2015-06-26T07:32:16Z</time>
      </trkpt>
      <trkpt lat="46.1938" lon="6.83705">
        <ele>1912</ele>
        <time>2015-06-26T07:32:20Z</time>
      </trkpt>
      <trkpt lat="46.19382" lon="6.83677">
        <ele>1911</ele>
        <time>2015-06-26T07:32:24Z</time>
      </trkpt>
      <trkpt lat="46.1937" lon="6.83679">
        <ele>1909</ele>
        <time>2015-06-26T07:32:28Z</time>
      </trkpt>
      <trkpt lat="46.19352" lon="6.83698">
        <ele>1907</ele>
        <time>2015-06-26T07:32:32Z</time>
      </trkpt>
      <trkpt lat="46.19329" lon="6.8372">
        <ele>1893</ele>
        <time>2015-06-26T07:32:36Z</time>
      </trkpt>
      <trkpt lat="46.19301" lon="6.83737">
        <ele>1890</ele>
        <time>2015-06-26T07:32:40Z</time>
      </trkpt>
      <trkpt lat="46.1929" lon="6.8378">
        <ele>1892</ele>
        <time>2015-06-26T07:32:46Z</time>
      </trkpt>
      <trkpt lat="46.19276" lon="6.83813">
        <ele>1889</ele>
        <time>2015-06-26T07:32:50Z</time>
      </trkpt>
      <trkpt lat="46.19259" lon="6.83835">
        <ele>1884</ele>
        <time>2015-06-26T07:32:54Z</time>
      </trkpt>
      <trkpt lat="46.19241" lon="6.83818">
        <ele>1871</ele>
        <time>2015-06-26T07:32:58Z</time>
      </trkpt>
      <trkpt lat="46.19221" lon="6.83793">
        <ele>1865</ele>
        <time>2015-06-26T07:33:02Z</time>
      </trkpt>
      <trkpt lat="46.19225" lon="6.83763">
        <ele>1866</ele>
        <time>2015-06-26T07:33:06Z</time>
      </trkpt>
      <trkpt lat="46.19228" lon="6.83722">
        <ele>1864</ele>
        <time>2015-06-26T07:33:10Z</time>
      </trkpt>
      <trkpt lat="46.19226" lon="6.83678">
        <ele>1864</ele>
        <time>2015-06-26T07:33:14Z</time>
      </trkpt>
      <trkpt lat="46.19226" lon="6.83631">
        <ele>1858</ele>
        <time>2015-06-26T07:33:18Z</time>
      </trkpt>
      <trkpt lat="46.19233" lon="6.83588">
        <ele>1858</ele>
        <time>2015-06-26T07:33:22Z</time>
      </trkpt>
      <trkpt lat="46.19237" lon="6.83561">
        <ele>1854</ele>
        <time>2015-06-26T07:33:26Z</time>
      </trkpt>
      <trkpt lat="46.19227" lon="6.83558">
        <ele>1852</ele>
        <time>2015-06-26T07:33:30Z</time>
      </trkpt>
      <trkpt lat="46.19209" lon="6.83565">
        <ele>1850</ele>
        <time>2015-06-26T07:33:34Z</time>
      </trkpt>
      <trkpt lat="46.1917" lon="6.83573">
        <ele>1845</ele>
        <time>2015-06-26T07:33:40Z</time>
      </trkpt>
      <trkpt lat="46.1914" lon="6.83567">
        <ele>1838</ele>
        <time>2015-06-26T07:33:44Z</time>
      </trkpt>
      <trkpt lat="46.1912" lon="6.83564">
        <ele>1836</ele>
        <time>2015-06-26T07:33:48Z</time>
      </trkpt>
      <trkpt lat="46.19105" lon="6.83585">
        <ele>1832</ele>
        <time>2015-06-26T07:33:52Z</time>
      </trkpt>
      <trkpt lat="46.19087" lon="6.83613">
        <ele>1831</ele>
        <time>2015-06-26T07:33:56Z</time>
      </trkpt>
      <trkpt lat="46.19074" lon="6.83643">
        <ele>1819</ele>
        <time>2015-06-26T07:34:00Z</time>
      </trkpt>
      <trkpt lat="46.19049" lon="6.83651">
        <ele>1816</ele>
        <time>2015-06-26T07:34:04Z</time>
      </trkpt>
      <trkpt lat="46.19031" lon="6.83631">
        <ele>1815</ele>
        <time>2015-06-26T07:34:08Z</time>
      </trkpt>
      <trkpt lat="46.19011" lon="6.83614">
        <ele>1816</ele>
        <time>2015-06-26T07:34:12Z</time>
      </trkpt>
      <trkpt lat="46.18989" lon="6.83595">
        <ele>1807</ele>
        <time>2015-06-26T07:34:16Z</time>
      </trkpt>
      <trkpt lat="46.18977" lon="6.83559">
        <ele>1811</ele>
        <time>2015-06-26T07:34:20Z</time>
      </trkpt>
      <trkpt lat="46.18967" lon="6.83515">
        <ele>1812</ele>
        <time>2015-06-26T07:34:24Z</time>
      </trkpt>
      <trkpt lat="46.18953" lon="6.83474">
        <ele>1819</ele>
        <time>2015-06-26T07:34:28Z</time>
      </trkpt>
      <trkpt lat="46.18915" lon="6.83438">
        <ele>1806</ele>
        <time>2015-06-26T07:34:34Z</time>
      </trkpt>
      <trkpt lat="46.18893" lon="6.83414">
        <ele>1813</ele>
        <time>2015-06-26T07:34:38Z</time>
      </trkpt>
      <trkpt lat="46.1887" lon="6.83397">
        <ele>1809</ele>
        <time>2015-06-26T07:34:42Z</time>
      </trkpt>
      <trkpt lat="46.18854" lon="6.83375">
        <ele>1808</ele>
        <time>2015-06-26T07:34:46Z</time>
      </trkpt>
      <trkpt lat="46.18847" lon="6.83337">
        <ele>1807</ele>
        <time>2015-06-26T07:34:50Z</time>
      </trkpt>
      <trkpt lat="46.18834" lon="6.83298">
        <ele>1820</ele>
        <time>2015-06-26T07:34:54Z</time>
      </trkpt>
      <trkpt lat="46.18821" lon="6.83257">
        <ele>1808</ele>
        <time>2015-06-26T07:34:58Z</time>
      </trkpt>
      <trkpt lat="46.18801" lon="6.83228">
        <ele>1811</ele>
        <time>2015-06-26T07:35:02Z</time>
      </trkpt>
      <trkpt lat="46.18779" lon="6.83209">
        <ele>1808</ele>
        <time>2015-06-26T07:35:06Z</time>
      </trkpt>
      <trkpt lat="46.18768" lon="6.83177">
        <ele>1808</ele>
        <time>2015-06-26T07:35:10Z</time>
      </trkpt>
      <trkpt lat="46.18754" lon="6.83153">
        <ele>1813</ele>
        <time>2015-06-26T07:35:14Z</time>
      </trkpt>
      <trkpt lat="46.18741" lon="6.83129">
        <ele>1800</ele>
        <time>2015-06-26T07:35:18Z</time>
      </trkpt>
      <trkpt lat="46.18735" lon="6.8309">
        <ele>1807</ele>
        <time>2015-06-26T07:35:24Z</time>
      </trkpt>
      <trkpt lat="46.18735" lon="6.83069">
        <ele>1811</ele>
        <time>2015-06-26T07:35:28Z</time>
      </trkpt>
      <trkpt lat="46.18734" lon="6.83051">
        <ele>1810</ele>
        <time>2015-06-26T07:35:32Z</time>
      </trkpt>
      <trkpt lat="46.18736" lon="6.83035">
        <ele>1812</ele>
        <time>2015-06-26T07:35:36Z</time>
      </trkpt>
      <trkpt lat="46.18735" lon="6.8302">
        <ele>1814</ele>
        <time>2015-06-26T07:35:40Z</time>
      </trkpt>
      <trkpt lat="46.18732" lon="6.83008">
        <ele>1816</ele>
        <time>2015-06-26T07:35:44Z</time>
      </trkpt>
      <trkpt lat="46.18728" lon="6.82998">
        <ele>1820</ele>
        <time>2015-06-26T07:35:48Z</time>
      </trkpt>
      <trkpt lat="46.18723" lon="6.82989">
        <ele>1818</ele>
        <time>2015-06-26T07:35:52Z</time>
      </trkpt>
      <trkpt lat="46.18719" lon="6.82979">
        <ele>1817</ele>
        <time>2015-06-26T07:35:56Z</time>
      </trkpt>
      <trkpt lat="46.18716" lon="6.82969">
        <ele>1816</ele>
        <time>2015-06-26T07:36:00Z</time>
      </trkpt>
      <trkpt lat="46.18715" lon="6.82958">
        <ele>1817</ele>
        <time>2015-06-26T07:36:04Z</time>
      </trkpt>
      <trkpt lat="46.18714" lon="6.82948">
        <ele>1817</ele>
        <time>2015-06-26T07:36:08Z</time>
      </trkpt>
      <trkpt lat="46.18715" lon="6.82939">
        <ele>1818</ele>
        <time>2015-06-26T07:36:12Z</time>
      </trkpt>
      <trkpt lat="46.18716" lon="6.82926">
        <ele>1820</ele>
        <time>2015-06-26T07:36:18Z</time>
      </trkpt>
      <trkpt lat="46.18715" lon="6.82918">
        <ele>1820</ele>
        <time>2015-06-26T07:36:22Z</time>
      </trkpt>
      <trkpt lat="46.18717" lon="6.8291">
        <ele>1824</ele>
        <time>2015-06-26T07:36:26Z</time>
      </trkpt>
      <trkpt lat="46.18719" lon="6.82902">
        <ele>1825</ele>
        <time>2015-06-26T07:36:30Z</time>
      </trkpt>
      <trkpt lat="46.18719" lon="6.82895">
        <ele>1824</ele>
        <time>2015-06-26T07:36:34Z</time>
      </trkpt>
      <trkpt lat="46.1872" lon="6.82886">
        <ele>1824</ele>
        <time>2015-06-26T07:36:38Z</time>
      </trkpt>
      <trkpt lat="46.18722" lon="6.82877">
        <ele>1825</ele>
        <time>2015-06-26T07:36:42Z</time>
      </trkpt>
      <trkpt lat="46.1872" lon="6.82869">
        <ele>1824</ele>
        <time>2015-06-26T07:36:46Z</time>
      </trkpt>
      <trkpt lat="46.1872" lon="6.82861">
        <ele>1825</ele>
        <time>2015-06-26T07:36:50Z</time>
      </trkpt>
      <trkpt lat="46.18718" lon="6.82853">
        <ele>1825</ele>
        <time>2015-06-26T07:36:54Z</time>
      </trkpt>
      <trkpt lat="46.18717" lon="6.82844">
        <ele>1825</ele>
        <time>2015-06-26T07:36:58Z</time>
      </trkpt>
      <trkpt lat="46.18715" lon="6.82836">
        <ele>1824</ele>
        <time>2015-06-26T07:37:02Z</time>
      </trkpt>
      <trkpt lat="46.18713" lon="6.82827">
        <ele>1825</ele>
        <time>2015-06-26T07:37:06Z</time>
      </trkpt>
      <trkpt lat="46.18711" lon="6.82815">
        <ele>1825</ele>
        <time>2015-06-26T07:37:12Z</time>
      </trkpt>
      <trkpt lat="46.18712" lon="6.82806">
        <ele>1825</ele>
        <time>2015-06-26T07:37:16Z</time>
      </trkpt>
      <trkpt lat="46.18712" lon="6.82797">
        <ele>1825</ele>
        <time>2015-06-26T07:37:20Z</time>
      </trkpt>
      <trkpt lat="46.18711" lon="6.82789">
        <ele>1825</ele>
        <time>2015-06-26T07:37:24Z</time>
      </trkpt>
      <trkpt lat="46.1871" lon="6.82781">
        <ele>1825</ele>
        <time>2015-06-26T07:37:28Z</time>
      </trkpt>
      <trkpt lat="46.18711" lon="6.82774">
        <ele>1825</ele>
        <time>2015-06-26T07:37:32Z</time>
      </trkpt>
      <trkpt lat="46.18711" lon="6.82765">
        <ele>1826</ele>
        <time>2015-06-26T07:37:36Z</time>
      </trkpt>
      <trkpt lat="46.18713" lon="6.82756">
        <ele>1827</ele>
        <time>2015-06-26T07:37:40Z</time>
      </trkpt>
      <trkpt lat="46.18715" lon="6.82746">
        <ele>1832</ele>
        <time>2015-06-26T07:37:44Z</time>
      </trkpt>
      <trkpt lat="46.18715" lon="6.82735">
        <ele>1832</ele>
        <time>2015-06-26T07:37:48Z</time>
      </trkpt>
      <trkpt lat="46.18714" lon="6.82722">
        <ele>1832</ele>
        <time>2015-06-26T07:37:52Z</time>
      </trkpt>
      <trkpt lat="46.18713" lon="6.82707">
        <ele>1832</ele>
        <time>2015-06-26T07:37:56Z</time>
      </trkpt>
      <trkpt lat="46.18713" lon="6.82691">
        <ele>1833</ele>
        <time>2015-06-26T07:38:00Z</time>
      </trkpt>
      <trkpt lat="46.18714" lon="6.82671">
        <ele>1835</ele>
        <time>2015-06-26T07:38:06Z</time>
      </trkpt>
      <trkpt lat="46.18709" lon="6.82656">
        <ele>1840</ele>
        <time>2015-06-26T07:38:10Z</time>
      </trkpt>
      <trkpt lat="46.18706" lon="6.82634">
        <ele>1841</ele>
        <time>2015-06-26T07:38:14Z</time>
      </trkpt>
      <trkpt lat="46.18696" lon="6.82608">
        <ele>1840</ele>
        <time>2015-06-26T07:38:18Z</time>
      </trkpt>
      <trkpt lat="46.1868" lon="6.82595">
        <ele>1837</ele>
        <time>2015-06-26T07:38:22Z</time>
      </trkpt>
      <trkpt lat="46.1867" lon="6.8258">
        <ele>1837</ele>
        <time>2015-06-26T07:38:26Z</time>
      </trkpt>
      <trkpt lat="46.18656" lon="6.82568">
        <ele>1837</ele>
        <time>2015-06-26T07:38:30Z</time>
      </trkpt>
      <trkpt lat="46.18646" lon="6.82562">
        <ele>1838</ele>
        <time>2015-06-26T07:38:34Z</time>
      </trkpt>
      <trkpt lat="46.18636" lon="6.82556">
        <ele>1839</ele>
        <time>2015-06-26T07:38:38Z</time>
      </trkpt>
      <trkpt lat="46.18627" lon="6.8255">
        <ele>1839</ele>
        <time>2015-06-26T07:38:42Z</time>
      </trkpt>
      <trkpt lat="46.18617" lon="6.82544">
        <ele>1839</ele>
        <time>2015-06-26T07:38:46Z</time>
      </trkpt>
      <trkpt lat="46.18608" lon="6.82538">
        <ele>1840</ele>
        <time>2015-06-26T07:38:50Z</time>
      </trkpt>
      <trkpt lat="46.18592" lon="6.82532">
        <ele>1840</ele>
        <time>2015-06-26T07:38:56Z</time>
      </trkpt>
      <trkpt lat="46.1858" lon="6.82527">
        <ele>1834</ele>
        <time>2015-06-26T07:39:00Z</time>
      </trkpt>
      <trkpt lat="46.18569" lon="6.82523">
        <ele>1834</ele>
        <time>2015-06-26T07:39:04Z</time>
      </trkpt>
      <trkpt lat="46.18557" lon="6.82519">
        <ele>1833</ele>
        <time>2015-06-26T07:39:08Z</time>
      </trkpt>
      <trkpt lat="46.18544" lon="6.82513">
        <ele>1832</ele>
        <time>2015-06-26T07:39:12Z</time>
      </trkpt>
      <trkpt lat="46.18531" lon="6.82506">
        <ele>1831</ele>
        <time>2015-06-26T07:39:16Z</time>
      </trkpt>
      <trkpt lat="46.1852" lon="6.82501">
        <ele>1832</ele>
        <time>2015-06-26T07:39:20Z</time>
      </trkpt>
      <trkpt lat="46.1851" lon="6.82496">
        <ele>1842</ele>
        <time>2015-06-26T07:39:24Z</time>
      </trkpt>
      <trkpt lat="46.185" lon="6.82489">
        <ele>1843</ele>
        <time>2015-06-26T07:39:28Z</time>
      </trkpt>
      <trkpt lat="46.18491" lon="6.82483">
        <ele>1840</ele>
        <time>2015-06-26T07:39:32Z</time>
      </trkpt>
      <trkpt lat="46.18481" lon="6.82476">
        <ele>1842</ele>
        <time>2015-06-26T07:39:36Z</time>
      </trkpt>
      <trkpt lat="46.18472" lon="6.82467">
        <ele>1843</ele>
        <time>2015-06-26T07:39:40Z</time>
      </trkpt>
      <trkpt lat="46.18464" lon="6.82458">
        <ele>1844</ele>
        <time>2015-06-26T07:39:44Z</time>
      </trkpt>
      <trkpt lat="46.18455" lon="6.82439">
        <ele>1846</ele>
        <time>2015-06-26T07:39:50Z</time>
      </trkpt>
      <trkpt lat="46.1845" lon="6.82427">
        <ele>1846</ele>
        <time>2015-06-26T07:39:54Z</time>
      </trkpt>
      <trkpt lat="46.18439" lon="6.82421">
        <ele>1846</ele>
        <time>2015-06-26T07:39:58Z</time>
      </trkpt>
      <trkpt lat="46.18429" lon="6.82429">
        <ele>1845</ele>
        <time>2015-06-26T07:40:02Z</time>
      </trkpt>
      <trkpt lat="46.18424" lon="6.82442">
        <ele>1844</ele>
        <time>2015-06-26T07:40:06Z</time>
      </trkpt>
      <trkpt lat="46.18422" lon="6.82456">
        <ele>1842</ele>
        <time>2015-06-26T07:40:10Z</time>
      </trkpt>
      <trkpt lat="46.18414" lon="6.82467">
        <ele>1837</ele>
        <time>2015-06-26T07:40:14Z</time>
      </trkpt>
      <trkpt lat="46.18404" lon="6.8247">
        <ele>1836</ele>
        <time>2015-06-26T07:40:18Z</time>
      </trkpt>
      <trkpt lat="46.18393" lon="6.8247">
        <ele>1837</ele>
        <time>2015-06-26T07:40:22Z</time>
      </trkpt>
      <trkpt lat="46.18383" lon="6.8247">
        <ele>1837</ele>
        <time>2015-06-26T07:40:26Z</time>
      </trkpt>
      <trkpt lat="46.18376" lon="6.82469">
        <ele>1837</ele>
        <time>2015-06-26T07:40:30Z</time>
      </trkpt>
      <trkpt lat="46.18368" lon="6.82462">
        <ele>1838</ele>
        <time>2015-06-26T07:40:34Z</time>
      </trkpt>
      <trkpt lat="46.1836" lon="6.82456">
        <ele>1838</ele>
        <time>2015-06-26T07:40:38Z</time>
      </trkpt>
      <trkpt lat="46.18351" lon="6.82443">
        <ele>1839</ele>
        <time>2015-06-26T07:40:44Z</time>
      </trkpt>
      <trkpt lat="46.18346" lon="6.82437">
        <ele>1840</ele>
        <time>2015-06-26T07:40:48Z</time>
      </trkpt>
      <trkpt lat="46.1834" lon="6.82431">
        <ele>1841</ele>
        <time>2015-06-26T07:40:52Z</time>
      </trkpt>
      <trkpt lat="46.18334" lon="6.82425">
        <ele>1842</ele>
        <time>2015-06-26T07:40:56Z</time>
      </trkpt>
      <trkpt lat="46.18328" lon="6.8242">
        <ele>1842</ele>
        <time>2015-06-26T07:41:00Z</time>
      </trkpt>
      <trkpt lat="46.18323" lon="6.82414">
        <ele>1845</ele>
        <time>2015-06-26T07:41:04Z</time>
      </trkpt>
      <trkpt lat="46.18319" lon="6.8241">
        <ele>1846</ele>
        <time>2015-06-26T07:41:08Z</time>
      </trkpt>
      <trkpt lat="46.18314" lon="6.82407">
        <ele>1846</ele>
        <time>2015-06-26T07:41:12Z</time>
      </trkpt>
      <trkpt lat="46.18308" lon="6.82406">
        <ele>1846</ele>
        <time>2015-06-26T07:41:16Z</time>
      </trkpt>
      <trkpt lat="46.18302" lon="6.82401">
        <ele>1847</ele>
        <time>2015-06-26T07:41:20Z</time>
      </trkpt>
      <trkpt lat="46.18296" lon="6.82398">
        <ele>1847</ele>
        <time>2015-06-26T07:41:24Z</time>
      </trkpt>
      <trkpt lat="46.1829" lon="6.82393">
        <ele>1847</ele>
        <time>2015-06-26T07:41:28Z</time>
      </trkpt>
      <trkpt lat="46.18281" lon="6.82388">
        <ele>1847</ele>
        <time>2015-06-26T07:41:32Z</time>
      </trkpt>
      <trkpt lat="46.18267" lon="6.82376">
        <ele>1848</ele>
        <time>2015-06-26T07:41:38Z</time>
      </trkpt>
      <trkpt lat="46.18254" lon="6.82374">
        <ele>1848</ele>
        <time>2015-06-26T07:41:42Z</time>
      </trkpt>
      <trkpt lat="46.18241" lon="6.82369">
        <ele>1846</ele>
        <time>2015-06-26T07:41:46Z</time>
      </trkpt>
      <trkpt lat="46.18231" lon="6.8235">
        <ele>1848</ele>
        <time>2015-06-26T07:41:50Z</time>
      </trkpt>
      <trkpt lat="46.18219" lon="6.8233">
        <ele>1856</ele>
        <time>2015-06-26T07:41:54Z</time>
      </trkpt>
      <trkpt lat="46.18204" lon="6.82324">
        <ele>1857</ele>
        <time>2015-06-26T07:41:58Z</time>
      </trkpt>
      <trkpt lat="46.18193" lon="6.82335">
        <ele>1848</ele>
        <time>2015-06-26T07:42:02Z</time>
      </trkpt>
      <trkpt lat="46.18192" lon="6.82345">
        <ele>1847</ele>
        <time>2015-06-26T07:42:06Z</time>
      </trkpt>
      <trkpt lat="46.18186" lon="6.82357">
        <ele>1846</ele>
        <time>2015-06-26T07:42:10Z</time>
      </trkpt>
      <trkpt lat="46.18168" lon="6.82375">
        <ele>1844</ele>
        <time>2015-06-26T07:42:14Z</time>
      </trkpt>
      <trkpt lat="46.18152" lon="6.82409">
        <ele>1839</ele>
        <time>2015-06-26T07:42:18Z</time>
      </trkpt>
      <trkpt lat="46.1813" lon="6.82432">
        <ele>1832</ele>
        <time>2015-06-26T07:42:22Z</time>
      </trkpt>
      <trkpt lat="46.18077" lon="6.82446">
        <ele>1834</ele>
        <time>2015-06-26T07:42:28Z</time>
      </trkpt>
      <trkpt lat="46.18037" lon="6.82456">
        <ele>1834</ele>
        <time>2015-06-26T07:42:32Z</time>
      </trkpt>
      <trkpt lat="46.18005" lon="6.82479">
        <ele>1833</ele>
        <time>2015-06-26T07:42:36Z</time>
      </trkpt>
      <trkpt lat="46.17978" lon="6.82493">
        <ele>1835</ele>
        <time>2015-06-26T07:42:40Z</time>
      </trkpt>
      <trkpt lat="46.17964" lon="6.8252">
        <ele>1832</ele>
        <time>2015-06-26T07:42:44Z</time>
      </trkpt>
      <trkpt lat="46.17954" lon="6.82543">
        <ele>1831</ele>
        <time>2015-06-26T07:42:48Z</time>
      </trkpt>
      <trkpt lat="46.17938" lon="6.8256">
        <ele>1831</ele>
        <time>2015-06-26T07:42:52Z</time>
      </trkpt>
      <trkpt lat="46.17922" lon="6.82577">
        <ele>1830</ele>
        <time>2015-06-26T07:42:56Z</time>
      </trkpt>
      <trkpt lat="46.1791" lon="6.82597">
        <ele>1827</ele>
        <time>2015-06-26T07:43:00Z</time>
      </trkpt>
      <trkpt lat="46.17902" lon="6.82614">
        <ele>1825</ele>
        <time>2015-06-26T07:43:04Z</time>
      </trkpt>
      <trkpt lat="46.17897" lon="6.82633">
        <ele>1824</ele>
        <time>2015-06-26T07:43:08Z</time>
      </trkpt>
      <trkpt lat="46.17895" lon="6.82654">
        <ele>1825</ele>
        <time>2015-06-26T07:43:12Z</time>
      </trkpt>
      <trkpt lat="46.17889" lon="6.82677">
        <ele>1826</ele>
        <time>2015-06-26T07:43:16Z</time>
      </trkpt>
      <trkpt lat="46.17881" lon="6.82705">
        <ele>1824</ele>
        <time>2015-06-26T07:43:22Z</time>
      </trkpt>
      <trkpt lat="46.17876" lon="6.82726">
        <ele>1824</ele>
        <time>2015-06-26T07:43:26Z</time>
      </trkpt>
      <trkpt lat="46.1787" lon="6.82756">
        <ele>1824</ele>
        <time>2015-06-26T07:43:30Z</time>
      </trkpt>
      <trkpt lat="46.1786" lon="6.82791">
        <ele>1823</ele>
        <time>2015-06-26T07:43:34Z</time>
      </trkpt>
      <trkpt lat="46.17852" lon="6.8283">
        <ele>1823</ele>
        <time>2015-06-26T07:43:38Z</time>
      </trkpt>
      <trkpt lat="46.17851" lon="6.82873">
        <ele>1818</ele>
        <time>2015-06-26T07:43:42Z</time>
      </trkpt>
      <trkpt lat="46.17852" lon="6.8292">
        <ele>1812</ele>
        <time>2015-06-26T07:43:46Z</time>
      </trkpt>
      <trkpt lat="46.17847" lon="6.82977">
        <ele>1808</ele>
        <time>2015-06-26T07:43:50Z</time>
      </trkpt>
      <trkpt lat="46.17843" lon="6.83047">
        <ele>1805</ele>
        <time>2015-06-26T07:43:54Z</time>
      </trkpt>
      <trkpt lat="46.17831" lon="6.83106">
        <ele>1806</ele>
        <time>2015-06-26T07:43:58Z</time>
      </trkpt>
      <trkpt lat="46.17821" lon="6.83144">
        <ele>1806</ele>
        <time>2015-06-26T07:44:02Z</time>
      </trkpt>
      <trkpt lat="46.17814" lon="6.83182">
        <ele>1807</ele>
        <time>2015-06-26T07:44:06Z</time>
      </trkpt>
      <trkpt lat="46.1781" lon="6.83207">
        <ele>1806</ele>
        <time>2015-06-26T07:44:10Z</time>
      </trkpt>
      <trkpt lat="46.17802" lon="6.83231">
        <ele>1806</ele>
        <time>2015-06-26T07:44:16Z</time>
      </trkpt>
      <trkpt lat="46.17798" lon="6.83245">
        <ele>1806</ele>
        <time>2015-06-26T07:44:20Z</time>
      </trkpt>
      <trkpt lat="46.17796" lon="6.83257">
        <ele>1807</ele>
        <time>2015-06-26T07:44:24Z</time>
      </trkpt>
      <trkpt lat="46.17792" lon="6.83263">
        <ele>1807</ele>
        <time>2015-06-26T07:44:28Z</time>
      </trkpt>
      <trkpt lat="46.17789" lon="6.83268">
        <ele>1807</ele>
        <time>2015-06-26T07:44:32Z</time>
      </trkpt>
      <trkpt lat="46.17785" lon="6.83275">
        <ele>1807</ele>
        <time>2015-06-26T07:44:36Z</time>
      </trkpt>
      <trkpt lat="46.17782" lon="6.83284">
        <ele>1807</ele>
        <time>2015-06-26T07:44:40Z</time>
      </trkpt>
      <trkpt lat="46.17778" lon="6.83298">
        <ele>1807</ele>
        <time>2015-06-26T07:44:44Z</time>
      </trkpt>
      <trkpt lat="46.17774" lon="6.8331">
        <ele>1808</ele>
        <time>2015-06-26T07:44:48Z</time>
      </trkpt>
      <trkpt lat="46.1777" lon="6.83318">
        <ele>1808</ele>
        <time>2015-06-26T07:44:52Z</time>
      </trkpt>
      <trkpt lat="46.17765" lon="6.83319">
        <ele>1808</ele>
        <time>2015-06-26T07:44:56Z</time>
      </trkpt>
      <trkpt lat="46.17752" lon="6.83322">
        <ele>1809</ele>
        <time>2015-06-26T07:45:00Z</time>
      </trkpt>
      <trkpt lat="46.17732" lon="6.83329">
        <ele>1803</ele>
        <time>2015-06-26T07:45:04Z</time>
      </trkpt>
      <trkpt lat="46.17702" lon="6.83359">
        <ele>1804</ele>
        <time>2015-06-26T07:45:10Z</time>
      </trkpt>
      <trkpt lat="46.17691" lon="6.83393">
        <ele>1805</ele>
        <time>2015-06-26T07:45:14Z</time>
      </trkpt>
      <trkpt lat="46.17672" lon="6.83434">
        <ele>1809</ele>
        <time>2015-06-26T07:45:18Z</time>
      </trkpt>
      <trkpt lat="46.17648" lon="6.83476">
        <ele>1802</ele>
        <time>2015-06-26T07:45:22Z</time>
      </trkpt>
      <trkpt lat="46.17616" lon="6.83492">
        <ele>1798</ele>
        <time>2015-06-26T07:45:26Z</time>
      </trkpt>
      <trkpt lat="46.17597" lon="6.83513">
        <ele>1803</ele>
        <time>2015-06-26T07:45:30Z</time>
      </trkpt>
      <trkpt lat="46.17592" lon="6.835">
        <ele>1795</ele>
        <time>2015-06-26T07:45:34Z</time>
      </trkpt>
      <trkpt lat="46.17601" lon="6.83476">
        <ele>1796</ele>
        <time>2015-06-26T07:45:38Z</time>
      </trkpt>
      <trkpt lat="46.17609" lon="6.83438">
        <ele>1793</ele>
        <time>2015-06-26T07:45:42Z</time>
      </trkpt>
      <trkpt lat="46.17621" lon="6.83388">
        <ele>1785</ele>
        <time>2015-06-26T07:45:46Z</time>
      </trkpt>
      <trkpt lat="46.17637" lon="6.83345">
        <ele>1786</ele>
        <time>2015-06-26T07:45:50Z</time>
      </trkpt>
      <trkpt lat="46.17652" lon="6.83295">
        <ele>1779</ele>
        <time>2015-06-26T07:45:54Z</time>
      </trkpt>
      <trkpt lat="46.17636" lon="6.83216">
        <ele>1770</ele>
        <time>2015-06-26T07:46:00Z</time>
      </trkpt>
      <trkpt lat="46.17612" lon="6.83185">
        <ele>1766</ele>
        <time>2015-06-26T07:46:04Z</time>
      </trkpt>
      <trkpt lat="46.17622" lon="6.83139">
        <ele>1763</ele>
        <time>2015-06-26T07:46:08Z</time>
      </trkpt>
      <trkpt lat="46.17641" lon="6.83082">
        <ele>1759</ele>
        <time>2015-06-26T07:46:12Z</time>
      </trkpt>
      <trkpt lat="46.17644" lon="6.83025">
        <ele>1757</ele>
        <time>2015-06-26T07:46:16Z</time>
      </trkpt>
      <trkpt lat="46.17622" lon="6.83015">
        <ele>1755</ele>
        <time>2015-06-26T07:46:20Z</time>
      </trkpt>
      <trkpt lat="46.17586" lon="6.82996">
        <ele>1747</ele>
        <time>2015-06-26T07:46:24Z</time>
      </trkpt>
      <trkpt lat="46.17548" lon="6.8299">
        <ele>1735</ele>
        <time>2015-06-26T07:46:28Z</time>
      </trkpt>
      <trkpt lat="46.17522" lon="6.83024">
        <ele>1736</ele>
        <time>2015-06-26T07:46:32Z</time>
      </trkpt>
      <trkpt lat="46.17503" lon="6.83064">
        <ele>1734</ele>
        <time>2015-06-26T07:46:36Z</time>
      </trkpt>
      <trkpt lat="46.1749" lon="6.83045">
        <ele>1721</ele>
        <time>2015-06-26T07:46:40Z</time>
      </trkpt>
      <trkpt lat="46.17493" lon="6.83012">
        <ele>1724</ele>
        <time>2015-06-26T07:46:44Z</time>
      </trkpt>
      <trkpt lat="46.175" lon="6.82974">
        <ele>1720</ele>
        <time>2015-06-26T07:46:48Z</time>
      </trkpt>
      <trkpt lat="46.17529" lon="6.82907">
        <ele>1722</ele>
        <time>2015-06-26T07:46:54Z</time>
      </trkpt>
      <trkpt lat="46.17559" lon="6.82876">
        <ele>1725</ele>
        <time>2015-06-26T07:46:58Z</time>
      </trkpt>
      <trkpt lat="46.17554" lon="6.82847">
        <ele>1724</ele>
        <time>2015-06-26T07:47:02Z</time>
      </trkpt>
      <trkpt lat="46.17539" lon="6.82808">
        <ele>1716</ele>
        <time>2015-06-26T07:47:06Z</time>
      </trkpt>
      <trkpt lat="46.17539" lon="6.82764">
        <ele>1714</ele>
        <time>2015-06-26T07:47:10Z</time>
      </trkpt>
      <trkpt lat="46.17558" lon="6.82726">
        <ele>1711</ele>
        <time>2015-06-26T07:47:14Z</time>
      </trkpt>
      <trkpt lat="46.17554" lon="6.82677">
        <ele>1709</ele>
        <time>2015-06-26T07:47:18Z</time>
      </trkpt>
      <trkpt lat="46.1756" lon="6.82631">
        <ele>1706</ele>
        <time>2015-06-26T07:47:22Z</time>
      </trkpt>
      <trkpt lat="46.17548" lon="6.8263">
        <ele>1704</ele>
        <time>2015-06-26T07:47:26Z</time>
      </trkpt>
      <trkpt lat="46.17541" lon="6.82667">
        <ele>1706</ele>
        <time>2015-06-26T07:47:30Z</time>
      </trkpt>
      <trkpt lat="46.17524" lon="6.82708">
        <ele>1705</ele>
        <time>2015-06-26T07:47:34Z</time>
      </trkpt>
      <trkpt lat="46.17497" lon="6.82748">
        <ele>1697</ele>
        <time>2015-06-26T07:47:38Z</time>
      </trkpt>
      <trkpt lat="46.17461" lon="6.82746">
        <ele>1689</ele>
        <time>2015-06-26T07:47:42Z</time>
      </trkpt>
      <trkpt lat="46.17405" lon="6.82765">
        <ele>1682</ele>
        <time>2015-06-26T07:47:48Z</time>
      </trkpt>
      <trkpt lat="46.17364" lon="6.82794">
        <ele>1680</ele>
        <time>2015-06-26T07:47:52Z</time>
      </trkpt>
      <trkpt lat="46.17324" lon="6.82811">
        <ele>1670</ele>
        <time>2015-06-26T07:47:56Z</time>
      </trkpt>
      <trkpt lat="46.17296" lon="6.8282">
        <ele>1667</ele>
        <time>2015-06-26T07:48:00Z</time>
      </trkpt>
      <trkpt lat="46.17291" lon="6.82858">
        <ele>1666</ele>
        <time>2015-06-26T07:48:04Z</time>
      </trkpt>
      <trkpt lat="46.17287" lon="6.82874">
        <ele>1666</ele>
        <time>2015-06-26T07:48:08Z</time>
      </trkpt>
      <trkpt lat="46.17281" lon="6.82892">
        <ele>1665</ele>
        <time>2015-06-26T07:48:12Z</time>
      </trkpt>
      <trkpt lat="46.1727" lon="6.82912">
        <ele>1661</ele>
        <time>2015-06-26T07:48:16Z</time>
      </trkpt>
      <trkpt lat="46.17258" lon="6.82929">
        <ele>1659</ele>
        <time>2015-06-26T07:48:20Z</time>
      </trkpt>
      <trkpt lat="46.17251" lon="6.82937">
        <ele>1659</ele>
        <time>2015-06-26T07:48:24Z</time>
      </trkpt>
      <trkpt lat="46.17244" lon="6.82944">
        <ele>1651</ele>
        <time>2015-06-26T07:48:28Z</time>
      </trkpt>
      <trkpt lat="46.17236" lon="6.82948">
        <ele>1651</ele>
        <time>2015-06-26T07:48:32Z</time>
      </trkpt>
      <trkpt lat="46.17232" lon="6.82952">
        <ele>1651</ele>
        <time>2015-06-26T07:48:38Z</time>
      </trkpt>
      <trkpt lat="46.17227" lon="6.82964">
        <ele>1650</ele>
        <time>2015-06-26T07:48:42Z</time>
      </trkpt>
      <trkpt lat="46.17226" lon="6.82977">
        <ele>1650</ele>
        <time>2015-06-26T07:48:46Z</time>
      </trkpt>
      <trkpt lat="46.17228" lon="6.82993">
        <ele>1650</ele>
        <time>2015-06-26T07:48:50Z</time>
      </trkpt>
      <trkpt lat="46.17224" lon="6.83009">
        <ele>1647</ele>
        <time>2015-06-26T07:48:54Z</time>
      </trkpt>
      <trkpt lat="46.1722" lon="6.8302">
        <ele>1647</ele>
        <time>2015-06-26T07:48:58Z</time>
      </trkpt>
      <trkpt lat="46.17218" lon="6.83036">
        <ele>1646</ele>
        <time>2015-06-26T07:49:02Z</time>
      </trkpt>
      <trkpt lat="46.17212" lon="6.83057">
        <ele>1645</ele>
        <time>2015-06-26T07:49:06Z</time>
      </trkpt>
      <trkpt lat="46.17206" lon="6.83071">
        <ele>1645</ele>
        <time>2015-06-26T07:49:10Z</time>
      </trkpt>
      <trkpt lat="46.17201" lon="6.83085">
        <ele>1639</ele>
        <time>2015-06-26T07:49:14Z</time>
      </trkpt>
      <trkpt lat="46.17195" lon="6.83106">
        <ele>1638</ele>
        <time>2015-06-26T07:49:18Z</time>
      </trkpt>
      <trkpt lat="46.17189" lon="6.83123">
        <ele>1637</ele>
        <time>2015-06-26T07:49:22Z</time>
      </trkpt>
      <trkpt lat="46.17186" lon="6.83139">
        <ele>1635</ele>
        <time>2015-06-26T07:49:26Z</time>
      </trkpt>
      <trkpt lat="46.17179" lon="6.83157">
        <ele>1631</ele>
        <time>2015-06-26T07:49:32Z</time>
      </trkpt>
      <trkpt lat="46.17179" lon="6.83171">
        <ele>1626</ele>
        <time>2015-06-26T07:49:36Z</time>
      </trkpt>
      <trkpt lat="46.17179" lon="6.83187">
        <ele>1626</ele>
        <time>2015-06-26T07:49:40Z</time>
      </trkpt>
      <trkpt lat="46.1718" lon="6.83201">
        <ele>1625</ele>
        <time>2015-06-26T07:49:44Z</time>
      </trkpt>
      <trkpt lat="46.17179" lon="6.83214">
        <ele>1624</ele>
        <time>2015-06-26T07:49:48Z</time>
      </trkpt>
      <trkpt lat="46.17181" lon="6.83215">
        <ele>1624</ele>
        <time>2015-06-26T07:49:52Z</time>
      </trkpt>
      <trkpt lat="46.17179" lon="6.8324">
        <ele>1618</ele>
        <time>2015-06-26T07:49:56Z</time>
      </trkpt>
      <trkpt lat="46.1717" lon="6.83265">
        <ele>1617</ele>
        <time>2015-06-26T07:50:00Z</time>
      </trkpt>
      <trkpt lat="46.17158" lon="6.83283">
        <ele>1609</ele>
        <time>2015-06-26T07:50:04Z</time>
      </trkpt>
      <trkpt lat="46.17152" lon="6.83306">
        <ele>1610</ele>
        <time>2015-06-26T07:50:08Z</time>
      </trkpt>
      <trkpt lat="46.17145" lon="6.83324">
        <ele>1610</ele>
        <time>2015-06-26T07:50:12Z</time>
      </trkpt>
      <trkpt lat="46.17136" lon="6.83339">
        <ele>1610</ele>
        <time>2015-06-26T07:50:16Z</time>
      </trkpt>
      <trkpt lat="46.17122" lon="6.83347">
        <ele>1608</ele>
        <time>2015-06-26T07:50:20Z</time>
      </trkpt>
      <trkpt lat="46.17103" lon="6.83367">
        <ele>1606</ele>
        <time>2015-06-26T07:50:26Z</time>
      </trkpt>
      <trkpt lat="46.17091" lon="6.83375">
        <ele>1605</ele>
        <time>2015-06-26T07:50:30Z</time>
      </trkpt>
      <trkpt lat="46.17084" lon="6.83389">
        <ele>1604</ele>
        <time>2015-06-26T07:50:34Z</time>
      </trkpt>
      <trkpt lat="46.17073" lon="6.83397">
        <ele>1597</ele>
        <time>2015-06-26T07:50:38Z</time>
      </trkpt>
      <trkpt lat="46.17062" lon="6.83406">
        <ele>1597</ele>
        <time>2015-06-26T07:50:42Z</time>
      </trkpt>
      <trkpt lat="46.17055" lon="6.83421">
        <ele>1591</ele>
        <time>2015-06-26T07:50:46Z</time>
      </trkpt>
      <trkpt lat="46.17047" lon="6.83438">
        <ele>1590</ele>
        <time>2015-06-26T07:50:50Z</time>
      </trkpt>
      <trkpt lat="46.17044" lon="6.83451">
        <ele>1589</ele>
        <time>2015-06-26T07:50:54Z</time>
      </trkpt>
      <trkpt lat="46.17039" lon="6.83462">
        <ele>1588</ele>
        <time>2015-06-26T07:50:58Z</time>
      </trkpt>
      <trkpt lat="46.17038" lon="6.83472">
        <ele>1588</ele>
        <time>2015-06-26T07:51:02Z</time>
      </trkpt>
      <trkpt lat="46.17032" lon="6.83486">
        <ele>1585</ele>
        <time>2015-06-26T07:51:06Z</time>
      </trkpt>
      <trkpt lat="46.17023" lon="6.83493">
        <ele>1582</ele>
        <time>2015-06-26T07:51:10Z</time>
      </trkpt>
      <trkpt lat="46.17016" lon="6.83494">
        <ele>1580</ele>
        <time>2015-06-26T07:51:14Z</time>
      </trkpt>
      <trkpt lat="46.17006" lon="6.83511">
        <ele>1577</ele>
        <time>2015-06-26T07:51:20Z</time>
      </trkpt>
      <trkpt lat="46.16995" lon="6.83537">
        <ele>1561</ele>
        <time>2015-06-26T07:51:24Z</time>
      </trkpt>
      <trkpt lat="46.16987" lon="6.83556">
        <ele>1561</ele>
        <time>2015-06-26T07:51:28Z</time>
      </trkpt>
      <trkpt lat="46.16984" lon="6.83569">
        <ele>1561</ele>
        <time>2015-06-26T07:51:32Z</time>
      </trkpt>
      <trkpt lat="46.16983" lon="6.83585">
        <ele>1562</ele>
        <time>2015-06-26T07:51:36Z</time>
      </trkpt>
      <trkpt lat="46.1698" lon="6.83597">
        <ele>1561</ele>
        <time>2015-06-26T07:51:40Z</time>
      </trkpt>
      <trkpt lat="46.16971" lon="6.83605">
        <ele>1559</ele>
        <time>2015-06-26T07:51:44Z</time>
      </trkpt>
      <trkpt lat="46.16965" lon="6.83609">
        <ele>1557</ele>
        <time>2015-06-26T07:51:48Z</time>
      </trkpt>
      <trkpt lat="46.16961" lon="6.83619">
        <ele>1557</ele>
        <time>2015-06-26T07:51:52Z</time>
      </trkpt>
      <trkpt lat="46.16963" lon="6.83627">
        <ele>1558</ele>
        <time>2015-06-26T07:51:56Z</time>
      </trkpt>
      <trkpt lat="46.1696" lon="6.83635">
        <ele>1558</ele>
        <time>2015-06-26T07:52:00Z</time>
      </trkpt>
      <trkpt lat="46.16956" lon="6.83637">
        <ele>1557</ele>
        <time>2015-06-26T07:52:04Z</time>
      </trkpt>
      <trkpt lat="46.16952" lon="6.83653">
        <ele>1557</ele>
        <time>2015-06-26T07:52:10Z</time>
      </trkpt>
      <trkpt lat="46.16939" lon="6.83653">
        <ele>1553</ele>
        <time>2015-06-26T07:52:14Z</time>
      </trkpt>
      <trkpt lat="46.16928" lon="6.8365">
        <ele>1551</ele>
        <time>2015-06-26T07:52:18Z</time>
      </trkpt>
      <trkpt lat="46.16914" lon="6.8365">
        <ele>1533</ele>
        <time>2015-06-26T07:52:22Z</time>
      </trkpt>
      <trkpt lat="46.16899" lon="6.83655">
        <ele>1531</ele>
        <time>2015-06-26T07:52:26Z</time>
      </trkpt>
      <trkpt lat="46.16883" lon="6.83659">
        <ele>1526</ele>
        <time>2015-06-26T07:52:30Z</time>
      </trkpt>
      <trkpt lat="46.16872" lon="6.8366">
        <ele>1523</ele>
        <time>2015-06-26T07:52:34Z</time>
      </trkpt>
      <trkpt lat="46.16865" lon="6.83663">
        <ele>1521</ele>
        <time>2015-06-26T07:52:38Z</time>
      </trkpt>
      <trkpt lat="46.16858" lon="6.83666">
        <ele>1519</ele>
        <time>2015-06-26T07:52:42Z</time>
      </trkpt>
      <trkpt lat="46.16848" lon="6.8367">
        <ele>1525</ele>
        <time>2015-06-26T07:52:46Z</time>
      </trkpt>
      <trkpt lat="46.16838" lon="6.8367">
        <ele>1518</ele>
        <time>2015-06-26T07:52:50Z</time>
      </trkpt>
      <trkpt lat="46.16822" lon="6.83678">
        <ele>1513</ele>
        <time>2015-06-26T07:52:54Z</time>
      </trkpt>
      <trkpt lat="46.1681" lon="6.83688">
        <ele>1513</ele>
        <time>2015-06-26T07:52:58Z</time>
      </trkpt>
      <trkpt lat="46.16789" lon="6.83695">
        <ele>1511</ele>
        <time>2015-06-26T07:53:04Z</time>
      </trkpt>
      <trkpt lat="46.16776" lon="6.83703">
        <ele>1510</ele>
        <time>2015-06-26T07:53:08Z</time>
      </trkpt>
      <trkpt lat="46.16764" lon="6.83712">
        <ele>1511</ele>
        <time>2015-06-26T07:53:12Z</time>
      </trkpt>
      <trkpt lat="46.16747" lon="6.83724">
        <ele>1499</ele>
        <time>2015-06-26T07:53:16Z</time>
      </trkpt>
      <trkpt lat="46.16733" lon="6.8374">
        <ele>1502</ele>
        <time>2015-06-26T07:53:20Z</time>
      </trkpt>
      <trkpt lat="46.16729" lon="6.83742">
        <ele>1501</ele>
        <time>2015-06-26T07:53:24Z</time>
      </trkpt>
      <trkpt lat="46.16728" lon="6.83747">
        <ele>1501</ele>
        <time>2015-06-26T07:53:28Z</time>
      </trkpt>
      <trkpt lat="46.16718" lon="6.83756">
        <ele>1513</ele>
        <time>2015-06-26T07:53:32Z</time>
      </trkpt>
      <trkpt lat="46.16708" lon="6.83757">
        <ele>1510</ele>
        <time>2015-06-26T07:53:36Z</time>
      </trkpt>
      <trkpt lat="46.16691" lon="6.83761">
        <ele>1506</ele>
        <time>2015-06-26T07:53:40Z</time>
      </trkpt>
      <trkpt lat="46.16671" lon="6.8377">
        <ele>1503</ele>
        <time>2015-06-26T07:53:44Z</time>
      </trkpt>
      <trkpt lat="46.16651" lon="6.83778">
        <ele>1488</ele>
        <time>2015-06-26T07:53:48Z</time>
      </trkpt>
      <trkpt lat="46.16637" lon="6.83788">
        <ele>1487</ele>
        <time>2015-06-26T07:53:52Z</time>
      </trkpt>
      <trkpt lat="46.16616" lon="6.83798">
        <ele>1484</ele>
        <time>2015-06-26T07:53:58Z</time>
      </trkpt>
      <trkpt lat="46.16601" lon="6.83804">
        <ele>1483</ele>
        <time>2015-06-26T07:54:02Z</time>
      </trkpt>
      <trkpt lat="46.16586" lon="6.83814">
        <ele>1482</ele>
        <time>2015-06-26T07:54:06Z</time>
      </trkpt>
      <trkpt lat="46.16572" lon="6.83814">
        <ele>1463</ele>
        <time>2015-06-26T07:54:10Z</time>
      </trkpt>
      <trkpt lat="46.16565" lon="6.83822">
        <ele>1463</ele>
        <time>2015-06-26T07:54:14Z</time>
      </trkpt>
      <trkpt lat="46.16558" lon="6.83836">
        <ele>1470</ele>
        <time>2015-06-26T07:54:18Z</time>
      </trkpt>
      <trkpt lat="46.16552" lon="6.83852">
        <ele>1468</ele>
        <time>2015-06-26T07:54:22Z</time>
      </trkpt>
      <trkpt lat="46.16547" lon="6.83869">
        <ele>1467</ele>
        <time>2015-06-26T07:54:26Z</time>
      </trkpt>
      <trkpt lat="46.1654" lon="6.83874">
        <ele>1466</ele>
        <time>2015-06-26T07:54:30Z</time>
      </trkpt>
      <trkpt lat="46.16539" lon="6.83876">
        <ele>1465</ele>
        <time>2015-06-26T07:54:34Z</time>
      </trkpt>
      <trkpt lat="46.1653" lon="6.83885">
        <ele>1464</ele>
        <time>2015-06-26T07:54:38Z</time>
      </trkpt>
      <trkpt lat="46.16513" lon="6.83895">
        <ele>1460</ele>
        <time>2015-06-26T07:54:42Z</time>
      </trkpt>
      <trkpt lat="46.16499" lon="6.83904">
        <ele>1442</ele>
        <time>2015-06-26T07:54:46Z</time>
      </trkpt>
      <trkpt lat="46.16482" lon="6.83924">
        <ele>1443</ele>
        <time>2015-06-26T07:54:52Z</time>
      </trkpt>
      <trkpt lat="46.16467" lon="6.83936">
        <ele>1439</ele>
        <time>2015-06-26T07:54:56Z</time>
      </trkpt>
      <trkpt lat="46.16454" lon="6.83947">
        <ele>1437</ele>
        <time>2015-06-26T07:55:00Z</time>
      </trkpt>
      <trkpt lat="46.16444" lon="6.83959">
        <ele>1436</ele>
        <time>2015-06-26T07:55:04Z</time>
      </trkpt>
      <trkpt lat="46.16432" lon="6.83971">
        <ele>1434</ele>
        <time>2015-06-26T07:55:08Z</time>
      </trkpt>
      <trkpt lat="46.16421" lon="6.8398">
        <ele>1431</ele>
        <time>2015-06-26T07:55:12Z</time>
      </trkpt>
      <trkpt lat="46.16417" lon="6.83993">
        <ele>1427</ele>
        <time>2015-06-26T07:55:16Z</time>
      </trkpt>
      <trkpt lat="46.16411" lon="6.84001">
        <ele>1421</ele>
        <time>2015-06-26T07:55:20Z</time>
      </trkpt>
      <trkpt lat="46.16406" lon="6.84001">
        <ele>1418</ele>
        <time>2015-06-26T07:55:24Z</time>
      </trkpt>
      <trkpt lat="46.16399" lon="6.84006">
        <ele>1415</ele>
        <time>2015-06-26T07:55:28Z</time>
      </trkpt>
      <trkpt lat="46.1639" lon="6.84013">
        <ele>1411</ele>
        <time>2015-06-26T07:55:32Z</time>
      </trkpt>
      <trkpt lat="46.16383" lon="6.84023">
        <ele>1409</ele>
        <time>2015-06-26T07:55:36Z</time>
      </trkpt>
      <trkpt lat="46.16375" lon="6.84042">
        <ele>1408</ele>
        <time>2015-06-26T07:55:42Z</time>
      </trkpt>
      <trkpt lat="46.16366" lon="6.84056">
        <ele>1405</ele>
        <time>2015-06-26T07:55:46Z</time>
      </trkpt>
      <trkpt lat="46.1636" lon="6.84064">
        <ele>1403</ele>
        <time>2015-06-26T07:55:50Z</time>
      </trkpt>
      <trkpt lat="46.16357" lon="6.84067">
        <ele>1402</ele>
        <time>2015-06-26T07:55:54Z</time>
      </trkpt>
      <trkpt lat="46.16356" lon="6.84067">
        <ele>1402</ele>
        <time>2015-06-26T07:55:58Z</time>
      </trkpt>
      <trkpt lat="46.16351" lon="6.84075">
        <ele>1399</ele>
        <time>2015-06-26T07:56:02Z</time>
      </trkpt>
      <trkpt lat="46.16349" lon="6.84087">
        <ele>1400</ele>
        <time>2015-06-26T07:56:06Z</time>
      </trkpt>
      <trkpt lat="46.16349" lon="6.84098">
        <ele>1402</ele>
        <time>2015-06-26T07:56:10Z</time>
      </trkpt>
      <trkpt lat="46.16345" lon="6.84109">
        <ele>1403</ele>
        <time>2015-06-26T07:56:14Z</time>
      </trkpt>
      <trkpt lat="46.16342" lon="6.8412">
        <ele>1404</ele>
        <time>2015-06-26T07:56:18Z</time>
      </trkpt>
      <trkpt lat="46.16337" lon="6.84131">
        <ele>1404</ele>
        <time>2015-06-26T07:56:22Z</time>
      </trkpt>
      <trkpt lat="46.16331" lon="6.84139">
        <ele>1379</ele>
        <time>2015-06-26T07:56:26Z</time>
      </trkpt>
      <trkpt lat="46.16328" lon="6.84149">
        <ele>1381</ele>
        <time>2015-06-26T07:56:30Z</time>
      </trkpt>
      <trkpt lat="46.16323" lon="6.84164">
        <ele>1384</ele>
        <time>2015-06-26T07:56:36Z</time>
      </trkpt>
      <trkpt lat="46.16316" lon="6.84168">
        <ele>1381</ele>
        <time>2015-06-26T07:56:40Z</time>
      </trkpt>
      <trkpt lat="46.16313" lon="6.84172">
        <ele>1380</ele>
        <time>2015-06-26T07:56:44Z</time>
      </trkpt>
      <trkpt lat="46.16305" lon="6.8419">
        <ele>1376</ele>
        <time>2015-06-26T07:56:48Z</time>
      </trkpt>
      <trkpt lat="46.16298" lon="6.84213">
        <ele>1374</ele>
        <time>2015-06-26T07:56:52Z</time>
      </trkpt>
      <trkpt lat="46.16291" lon="6.84234">
        <ele>1372</ele>
        <time>2015-06-26T07:56:56Z</time>
      </trkpt>
      <trkpt lat="46.16284" lon="6.84253">
        <ele>1371</ele>
        <time>2015-06-26T07:57:00Z</time>
      </trkpt>
      <trkpt lat="46.16281" lon="6.84269">
        <ele>1370</ele>
        <time>2015-06-26T07:57:04Z</time>
      </trkpt>
      <trkpt lat="46.16274" lon="6.84277">
        <ele>1369</ele>
        <time>2015-06-26T07:57:08Z</time>
      </trkpt>
      <trkpt lat="46.16269" lon="6.84288">
        <ele>1369</ele>
        <time>2015-06-26T07:57:12Z</time>
      </trkpt>
      <trkpt lat="46.16259" lon="6.84311">
        <ele>1365</ele>
        <time>2015-06-26T07:57:16Z</time>
      </trkpt>
      <trkpt lat="46.1625" lon="6.84339">
        <ele>1358</ele>
        <time>2015-06-26T07:57:20Z</time>
      </trkpt>
      <trkpt lat="46.16241" lon="6.84361">
        <ele>1337</ele>
        <time>2015-06-26T07:57:24Z</time>
      </trkpt>
      <trkpt lat="46.16227" lon="6.84401">
        <ele>1335</ele>
        <time>2015-06-26T07:57:30Z</time>
      </trkpt>
      <trkpt lat="46.1622" lon="6.84425">
        <ele>1333</ele>
        <time>2015-06-26T07:57:34Z</time>
      </trkpt>
      <trkpt lat="46.1621" lon="6.84447">
        <ele>1328</ele>
        <time>2015-06-26T07:57:38Z</time>
      </trkpt>
      <trkpt lat="46.162" lon="6.8446">
        <ele>1325</ele>
        <time>2015-06-26T07:57:42Z</time>
      </trkpt>
      <trkpt lat="46.16188" lon="6.84472">
        <ele>1321</ele>
        <time>2015-06-26T07:57:46Z</time>
      </trkpt>
      <trkpt lat="46.16191" lon="6.84493">
        <ele>1320</ele>
        <time>2015-06-26T07:57:50Z</time>
      </trkpt>
      <trkpt lat="46.16193" lon="6.84525">
        <ele>1323</ele>
        <time>2015-06-26T07:57:54Z</time>
      </trkpt>
      <trkpt lat="46.16199" lon="6.84572">
        <ele>1323</ele>
        <time>2015-06-26T07:57:58Z</time>
      </trkpt>
      <trkpt lat="46.16203" lon="6.84628">
        <ele>1324</ele>
        <time>2015-06-26T07:58:02Z</time>
      </trkpt>
      <trkpt lat="46.1621" lon="6.84679">
        <ele>1321</ele>
        <time>2015-06-26T07:58:06Z</time>
      </trkpt>
      <trkpt lat="46.16216" lon="6.84732">
        <ele>1320</ele>
        <time>2015-06-26T07:58:10Z</time>
      </trkpt>
      <trkpt lat="46.16222" lon="6.84786">
        <ele>1309</ele>
        <time>2015-06-26T07:58:14Z</time>
      </trkpt>
      <trkpt lat="46.16231" lon="6.84839">
        <ele>1302</ele>
        <time>2015-06-26T07:58:18Z</time>
      </trkpt>
      <trkpt lat="46.16252" lon="6.84916">
        <ele>1304</ele>
        <time>2015-06-26T07:58:24Z</time>
      </trkpt>
      <trkpt lat="46.16259" lon="6.84965">
        <ele>1307</ele>
        <time>2015-06-26T07:58:28Z</time>
      </trkpt>
      <trkpt lat="46.16273" lon="6.85006">
        <ele>1290</ele>
        <time>2015-06-26T07:58:32Z</time>
      </trkpt>
      <trkpt lat="46.16289" lon="6.85047">
        <ele>1294</ele>
        <time>2015-06-26T07:58:36Z</time>
      </trkpt>
      <trkpt lat="46.16311" lon="6.85093">
        <ele>1283</ele>
        <time>2015-06-26T07:58:40Z</time>
      </trkpt>
      <trkpt lat="46.1633" lon="6.85142">
        <ele>1274</ele>
        <time>2015-06-26T07:58:44Z</time>
      </trkpt>
      <trkpt lat="46.16348" lon="6.85184">
        <ele>1277</ele>
        <time>2015-06-26T07:58:48Z</time>
      </trkpt>
      <trkpt lat="46.16375" lon="6.85214">
        <ele>1279</ele>
        <time>2015-06-26T07:58:52Z</time>
      </trkpt>
      <trkpt lat="46.164" lon="6.85249">
        <ele>1280</ele>
        <time>2015-06-26T07:58:56Z</time>
      </trkpt>
      <trkpt lat="46.16421" lon="6.85292">
        <ele>1278</ele>
        <time>2015-06-26T07:59:00Z</time>
      </trkpt>
      <trkpt lat="46.16438" lon="6.8533">
        <ele>1271</ele>
        <time>2015-06-26T07:59:04Z</time>
      </trkpt>
      <trkpt lat="46.16458" lon="6.85362">
        <ele>1260</ele>
        <time>2015-06-26T07:59:08Z</time>
      </trkpt>
      <trkpt lat="46.16485" lon="6.85408">
        <ele>1259</ele>
        <time>2015-06-26T07:59:14Z</time>
      </trkpt>
      <trkpt lat="46.16501" lon="6.85447">
        <ele>1258</ele>
        <time>2015-06-26T07:59:18Z</time>
      </trkpt>
      <trkpt lat="46.16516" lon="6.85469">
        <ele>1253</ele>
        <time>2015-06-26T07:59:22Z</time>
      </trkpt>
      <trkpt lat="46.16535" lon="6.85485">
        <ele>1253</ele>
        <time>2015-06-26T07:59:26Z</time>
      </trkpt>
      <trkpt lat="46.16552" lon="6.85502">
        <ele>1236</ele>
        <time>2015-06-26T07:59:30Z</time>
      </trkpt>
      <trkpt lat="46.16568" lon="6.85519">
        <ele>1238</ele>
        <time>2015-06-26T07:59:34Z</time>
      </trkpt>
      <trkpt lat="46.16573" lon="6.85545">
        <ele>1232</ele>
        <time>2015-06-26T07:59:38Z</time>
      </trkpt>
      <trkpt lat="46.1658" lon="6.85581">
        <ele>1227</ele>
        <time>2015-06-26T07:59:42Z</time>
      </trkpt>
      <trkpt lat="46.16605" lon="6.85598">
        <ele>1226</ele>
        <time>2015-06-26T07:59:46Z</time>
      </trkpt>
      <trkpt lat="46.16622" lon="6.85606">
        <ele>1227</ele>
        <time>2015-06-26T07:59:50Z</time>
      </trkpt>
      <trkpt lat="46.1663" lon="6.85639">
        <ele>1223</ele>
        <time>2015-06-26T07:59:54Z</time>
      </trkpt>
      <trkpt lat="46.16641" lon="6.85684">
        <ele>1205</ele>
        <time>2015-06-26T07:59:58Z</time>
      </trkpt>
      <trkpt lat="46.16669" lon="6.85731">
        <ele>1214</ele>
        <time>2015-06-26T08:00:02Z</time>
      </trkpt>
      <trkpt lat="46.16738" lon="6.85808">
        <ele>1196</ele>
        <time>2015-06-26T08:00:08Z</time>
      </trkpt>
      <trkpt lat="46.16767" lon="6.85846">
        <ele>1190</ele>
        <time>2015-06-26T08:00:12Z</time>
      </trkpt>
      <trkpt lat="46.16798" lon="6.85878">
        <ele>1189</ele>
        <time>2015-06-26T08:00:16Z</time>
      </trkpt>
      <trkpt lat="46.16829" lon="6.85891">
        <ele>1189</ele>
        <time>2015-06-26T08:00:20Z</time>
      </trkpt>
      <trkpt lat="46.16837" lon="6.8593">
        <ele>1184</ele>
        <time>2015-06-26T08:00:24Z</time>
      </trkpt>
      <trkpt lat="46.16844" lon="6.85975">
        <ele>1178</ele>
        <time>2015-06-26T08:00:28Z</time>
      </trkpt>
      <trkpt lat="46.1687" lon="6.86">
        <ele>1164</ele>
        <time>2015-06-26T08:00:32Z</time>
      </trkpt>
      <trkpt lat="46.16908" lon="6.86027">
        <ele>1166</ele>
        <time>2015-06-26T08:00:36Z</time>
      </trkpt>
      <trkpt lat="46.16952" lon="6.8606">
        <ele>1167</ele>
        <time>2015-06-26T08:00:40Z</time>
      </trkpt>
      <trkpt lat="46.16984" lon="6.86083">
        <ele>1164</ele>
        <time>2015-06-26T08:00:44Z</time>
      </trkpt>
      <trkpt lat="46.17008" lon="6.86095">
        <ele>1157</ele>
        <time>2015-06-26T08:00:48Z</time>
      </trkpt>
      <trkpt lat="46.17033" lon="6.86109">
        <ele>1155</ele>
        <time>2015-06-26T08:00:52Z</time>
      </trkpt>
      <trkpt lat="46.17057" lon="6.86129">
        <ele>1154</ele>
        <time>2015-06-26T08:00:56Z</time>
      </trkpt>
      <trkpt lat="46.17093" lon="6.86182">
        <ele>1142</ele>
        <time>2015-06-26T08:01:02Z</time>
      </trkpt>
      <trkpt lat="46.17119" lon="6.86222">
        <ele>1134</ele>
        <time>2015-06-26T08:01:06Z</time>
      </trkpt>
      <trkpt lat="46.17151" lon="6.86248">
        <ele>1132</ele>
        <time>2015-06-26T08:01:10Z</time>
      </trkpt>
      <trkpt lat="46.17187" lon="6.86257">
        <ele>1122</ele>
        <time>2015-06-26T08:01:14Z</time>
      </trkpt>
      <trkpt lat="46.17226" lon="6.86268">
        <ele>1122</ele>
        <time>2015-06-26T08:01:18Z</time>
      </trkpt>
      <trkpt lat="46.17263" lon="6.86308">
        <ele>1119</ele>
        <time>2015-06-26T08:01:22Z</time>
      </trkpt>
      <trkpt lat="46.17294" lon="6.86352">
        <ele>1104</ele>
        <time>2015-06-26T08:01:26Z</time>
      </trkpt>
      <trkpt lat="46.1732" lon="6.8639">
        <ele>1101</ele>
        <time>2015-06-26T08:01:30Z</time>
      </trkpt>
      <trkpt lat="46.17349" lon="6.86406">
        <ele>1111</ele>
        <time>2015-06-26T08:01:34Z</time>
      </trkpt>
      <trkpt lat="46.17359" lon="6.86433">
        <ele>1101</ele>
        <time>2015-06-26T08:01:38Z</time>
      </trkpt>
      <trkpt lat="46.17359" lon="6.86477">
        <ele>1097</ele>
        <time>2015-06-26T08:01:42Z</time>
      </trkpt>
      <trkpt lat="46.17372" lon="6.86526">
        <ele>1085</ele>
        <time>2015-06-26T08:01:46Z</time>
      </trkpt>
      <trkpt lat="46.17385" lon="6.86579">
        <ele>1081</ele>
        <time>2015-06-26T08:01:50Z</time>
      </trkpt>
      <trkpt lat="46.17409" lon="6.86612">
        <ele>1073</ele>
        <time>2015-06-26T08:01:56Z</time>
      </trkpt>
      <trkpt lat="46.17431" lon="6.86624">
        <ele>1076</ele>
        <time>2015-06-26T08:02:00Z</time>
      </trkpt>
      <trkpt lat="46.17462" lon="6.86636">
        <ele>1076</ele>
        <time>2015-06-26T08:02:04Z</time>
      </trkpt>
      <trkpt lat="46.175" lon="6.86649">
        <ele>1073</ele>
        <time>2015-06-26T08:02:08Z</time>
      </trkpt>
      <trkpt lat="46.17519" lon="6.86673">
        <ele>1068</ele>
        <time>2015-06-26T08:02:12Z</time>
      </trkpt>
      <trkpt lat="46.17499" lon="6.8671">
        <ele>1063</ele>
        <time>2015-06-26T08:02:16Z</time>
      </trkpt>
      <trkpt lat="46.17468" lon="6.86746">
        <ele>1061</ele>
        <time>2015-06-26T08:02:20Z</time>
      </trkpt>
      <trkpt lat="46.17442" lon="6.86781">
        <ele>1054</ele>
        <time>2015-06-26T08:02:24Z</time>
      </trkpt>
      <trkpt lat="46.17453" lon="6.86826">
        <ele>1053</ele>
        <time>2015-06-26T08:02:28Z</time>
      </trkpt>
      <trkpt lat="46.17479" lon="6.86867">
        <ele>1047</ele>
        <time>2015-06-26T08:02:32Z</time>
      </trkpt>
      <trkpt lat="46.17508" lon="6.86905">
        <ele>1046</ele>
        <time>2015-06-26T08:02:36Z</time>
      </trkpt>
      <trkpt lat="46.17528" lon="6.86951">
        <ele>1042</ele>
        <time>2015-06-26T08:02:40Z</time>
      </trkpt>
      <trkpt lat="46.17514" lon="6.87028">
        <ele>1036</ele>
        <time>2015-06-26T08:02:46Z</time>
      </trkpt>
      <trkpt lat="46.1752" lon="6.84499">
        <ele>1922</ele>
        <time>2015-06-26T08:02:50Z</time>
      </trkpt>
      <trkpt lat="46.17521" lon="6.84498">
        <ele>1922</ele>
        <time>2015-06-26T08:02:54Z</time>
      </trkpt>
      <trkpt lat="46.17528" lon="6.84491">
        <ele>1921</ele>
        <time>2015-06-26T08:02:58Z</time>
      </trkpt>
      <trkpt lat="46.17538" lon="6.84477">
        <ele>1920</ele>
        <time>2015-06-26T08:03:02Z</time>
      </trkpt>
      <trkpt lat="46.1755" lon="6.84461">
        <ele>1919</ele>
        <time>2015-06-26T08:03:06Z</time>
      </trkpt>
      <trkpt lat="46.17565" lon="6.84447">
        <ele>1918</ele>
        <time>2015-06-26T08:03:10Z</time>
      </trkpt>
      <trkpt lat="46.17576" lon="6.84437">
        <ele>1917</ele>
        <time>2015-06-26T08:03:14Z</time>
      </trkpt>
      <trkpt lat="46.17574" lon="6.84414">
        <ele>1911</ele>
        <time>2015-06-26T08:03:18Z</time>
      </trkpt>
      <trkpt lat="46.17573" lon="6.84381">
        <ele>1906</ele>
        <time>2015-06-26T08:03:22Z</time>
      </trkpt>
      <trkpt lat="46.17576" lon="6.84336">
        <ele>1902</ele>
        <time>2015-06-26T08:03:26Z</time>
      </trkpt>
      <trkpt lat="46.17573" lon="6.84281">
        <ele>1898</ele>
        <time>2015-06-26T08:03:30Z</time>
      </trkpt>
      <trkpt lat="46.17581" lon="6.84246">
        <ele>1901</ele>
        <time>2015-06-26T08:03:34Z</time>
      </trkpt>
      <trkpt lat="46.17582" lon="6.84244">
        <ele>1901</ele>
        <time>2015-06-26T08:03:40Z</time>
      </trkpt>
      <trkpt lat="46.17578" lon="6.84257">
        <ele>1901</ele>
        <time>2015-06-26T08:03:44Z</time>
      </trkpt>
      <trkpt lat="46.17574" lon="6.84267">
        <ele>1899</ele>
        <time>2015-06-26T08:03:48Z</time>
      </trkpt>
      <trkpt lat="46.1757" lon="6.84254">
        <ele>1900</ele>
        <time>2015-06-26T08:03:52Z</time>
      </trkpt>
      <trkpt lat="46.1757" lon="6.84243">
        <ele>1898</ele>
        <time>2015-06-26T08:03:56Z</time>
      </trkpt>
      <trkpt lat="46.1757" lon="6.84229">
        <ele>1896</ele>
        <time>2015-06-26T08:04:00Z</time>
      </trkpt>
      <trkpt lat="46.17572" lon="6.84204">
        <ele>1895</ele>
        <time>2015-06-26T08:04:04Z</time>
      </trkpt>
      <trkpt lat="46.17578" lon="6.84174">
        <ele>1899</ele>
        <time>2015-06-26T08:04:08Z</time>
      </trkpt>
      <trkpt lat="46.17588" lon="6.84133">
        <ele>1902</ele>
        <time>2015-06-26T08:04:12Z</time>
      </trkpt>
      <trkpt lat="46.17595" lon="6.84089">
        <ele>1899</ele>
        <time>2015-06-26T08:04:16Z</time>
      </trkpt>
      <trkpt lat="46.17603" lon="6.84051">
        <ele>1900</ele>
        <time>2015-06-26T08:04:20Z</time>
      </trkpt>
      <trkpt lat="46.17611" lon="6.84015">
        <ele>1898</ele>
        <time>2015-06-26T08:04:24Z</time>
      </trkpt>
      <trkpt lat="46.17619" lon="6.83978">
        <ele>1894</ele>
        <time>2015-06-26T08:04:28Z</time>
      </trkpt>
      <trkpt lat="46.17625" lon="6.83914">
        <ele>1882</ele>
        <time>2015-06-26T08:04:34Z</time>
      </trkpt>
      <trkpt lat="46.17631" lon="6.83874">
        <ele>1880</ele>
        <time>2015-06-26T08:04:38Z</time>
      </trkpt>
      <trkpt lat="46.17641" lon="6.8384">
        <ele>1880</ele>
        <time>2015-06-26T08:04:42Z</time>
      </trkpt>
      <trkpt lat="46.17655" lon="6.83808">
        <ele>1870</ele>
        <time>2015-06-26T08:04:46Z</time>
      </trkpt>
      <trkpt lat="46.17668" lon="6.83782">
        <ele>1873</ele>
        <time>2015-06-26T08:04:50Z</time>
      </trkpt>
      <trkpt lat="46.17684" lon="6.83763">
        <ele>1870</ele>
        <time>2015-06-26T08:04:54Z</time>
      </trkpt>
      <trkpt lat="46.17708" lon="6.83751">
        <ele>1870</ele>
        <time>2015-06-26T08:04:58Z</time>
      </trkpt>
      <trkpt lat="46.17738" lon="6.83744">
        <ele>1860</ele>
        <time>2015-06-26T08:05:02Z</time>
      </trkpt>
      <trkpt lat="46.17768" lon="6.83735">
        <ele>1856</ele>
        <time>2015-06-26T08:05:06Z</time>
      </trkpt>
      <trkpt lat="46.1779" lon="6.83726">
        <ele>1853</ele>
        <time>2015-06-26T08:05:10Z</time>
      </trkpt>
      <trkpt lat="46.17788" lon="6.83716">
        <ele>1853</ele>
        <time>2015-06-26T08:05:14Z</time>
      </trkpt>
      <trkpt lat="46.17773" lon="6.83689">
        <ele>1851</ele>
        <time>2015-06-26T08:05:18Z</time>
      </trkpt>
      <trkpt lat="46.17752" lon="6.83656">
        <ele>1845</ele>
        <time>2015-06-26T08:05:22Z</time>
      </trkpt>
      <trkpt lat="46.17739" lon="6.83603">
        <ele>1839</ele>
        <time>2015-06-26T08:05:28Z</time>
      </trkpt>
      <trkpt lat="46.17752" lon="6.83564">
        <ele>1832</ele>
        <time>2015-06-26T08:05:32Z</time>
      </trkpt>
      <trkpt lat="46.17766" lon="6.83519">
        <ele>1828</ele>
        <time>2015-06-26T08:05:36Z</time>
      </trkpt>
      <trkpt lat="46.17772" lon="6.83478">
        <ele>1822</ele>
        <time>2015-06-26T08:05:40Z</time>
      </trkpt>
      <trkpt lat="46.17778" lon="6.8344">
        <ele>1820</ele>
        <time>2015-06-26T08:05:44Z</time>
      </trkpt>
      <trkpt lat="46.17767" lon="6.83395">
        <ele>1815</ele>
        <time>2015-06-26T08:05:48Z</time>
      </trkpt>
      <trkpt lat="46.17753" lon="6.83365">
        <ele>1813</ele>
        <time>2015-06-26T08:05:52Z</time>
      </trkpt>
      <trkpt lat="46.1776" lon="6.83341">
        <ele>1811</ele>
        <time>2015-06-26T08:05:56Z</time>
      </trkpt>
      <trkpt lat="46.17767" lon="6.83326">
        <ele>1808</ele>
        <time>2015-06-26T08:06:00Z</time>
      </trkpt>
      <trkpt lat="46.17773" lon="6.83312">
        <ele>1808</ele>
        <time>2015-06-26T08:06:04Z</time>
      </trkpt>
      <trkpt lat="46.17781" lon="6.83291">
        <ele>1807</ele>
        <time>2015-06-26T08:06:08Z</time>
      </trkpt>
      <trkpt lat="46.17787" lon="6.83272">
        <ele>1807</ele>
        <time>2015-06-26T08:06:12Z</time>
      </trkpt>
      <trkpt lat="46.17799" lon="6.83245">
        <ele>1806</ele>
        <time>2015-06-26T08:06:18Z</time>
      </trkpt>
      <trkpt lat="46.17805" lon="6.83226">
        <ele>1806</ele>
        <time>2015-06-26T08:06:22Z</time>
      </trkpt>
      <trkpt lat="46.17809" lon="6.83207">
        <ele>1806</ele>
        <time>2015-06-26T08:06:26Z</time>
      </trkpt>
      <trkpt lat="46.17813" lon="6.8319">
        <ele>1807</ele>
        <time>2015-06-26T08:06:30Z</time>
      </trkpt>
      <trkpt lat="46.17818" lon="6.83171">
        <ele>1808</ele>
        <time>2015-06-26T08:06:34Z</time>
      </trkpt>
      <trkpt lat="46.17821" lon="6.83155">
        <ele>1807</ele>
        <time>2015-06-26T08:06:38Z</time>
      </trkpt>
      <trkpt lat="46.17824" lon="6.83139">
        <ele>1806</ele>
        <time>2015-06-26T08:06:42Z</time>
      </trkpt>
      <trkpt lat="46.17828" lon="6.83124">
        <ele>1805</ele>
        <time>2015-06-26T08:06:46Z</time>
      </trkpt>
      <trkpt lat="46.17834" lon="6.83103">
        <ele>1806</ele>
        <time>2015-06-26T08:06:50Z</time>
      </trkpt>
      <trkpt lat="46.17841" lon="6.83074">
        <ele>1807</ele>
        <time>2015-06-26T08:06:54Z</time>
      </trkpt>
      <trkpt lat="46.17848" lon="6.83054">
        <ele>1805</ele>
        <time>2015-06-26T08:06:58Z</time>
      </trkpt>
      <trkpt lat="46.17859" lon="6.83053">
        <ele>1804</ele>
        <time>2015-06-26T08:07:02Z</time>
      </trkpt>
      <trkpt lat="46.17861" lon="6.83054">
        <ele>1804</ele>
        <time>2015-06-26T08:07:06Z</time>
      </trkpt>
      <trkpt lat="46.17868" lon="6.8305">
        <ele>1803</ele>
        <time>2015-06-26T08:07:12Z</time>
      </trkpt>
      <trkpt lat="46.17878" lon="6.83032">
        <ele>1802</ele>
        <time>2015-06-26T08:07:16Z</time>
      </trkpt>
      <trkpt lat="46.17888" lon="6.83006">
        <ele>1801</ele>
        <time>2015-06-26T08:07:20Z</time>
      </trkpt>
      <trkpt lat="46.17895" lon="6.82979">
        <ele>1804</ele>
        <time>2015-06-26T08:07:24Z</time>
      </trkpt>
      <trkpt lat="46.17903" lon="6.82952">
        <ele>1805</ele>
        <time>2015-06-26T08:07:28Z</time>
      </trkpt>
      <trkpt lat="46.17914" lon="6.8296">
        <ele>1804</ele>
        <time>2015-06-26T08:07:32Z</time>
      </trkpt>
      <trkpt lat="46.17919" lon="6.82979">
        <ele>1792</ele>
        <time>2015-06-26T08:07:36Z</time>
      </trkpt>
      <trkpt lat="46.17925" lon="6.82992">
        <ele>1793</ele>
        <time>2015-06-26T08:07:40Z</time>
      </trkpt>
      <trkpt lat="46.17928" lon="6.83006">
        <ele>1791</ele>
        <time>2015-06-26T08:07:44Z</time>
      </trkpt>
      <trkpt lat="46.17929" lon="6.83024">
        <ele>1788</ele>
        <time>2015-06-26T08:07:48Z</time>
      </trkpt>
      <trkpt lat="46.1793" lon="6.83052">
        <ele>1787</ele>
        <time>2015-06-26T08:07:52Z</time>
      </trkpt>
      <trkpt lat="46.17931" lon="6.83079">
        <ele>1789</ele>
        <time>2015-06-26T08:07:56Z</time>
      </trkpt>
      <trkpt lat="46.1793" lon="6.83092">
        <ele>1790</ele>
        <time>2015-06-26T08:08:00Z</time>
      </trkpt>
      <trkpt lat="46.17942" lon="6.83098">
        <ele>1788</ele>
        <time>2015-06-26T08:08:06Z</time>
      </trkpt>
      <trkpt lat="46.17947" lon="6.83071">
        <ele>1785</ele>
        <time>2015-06-26T08:08:10Z</time>
      </trkpt>
      <trkpt lat="46.17957" lon="6.83034">
        <ele>1783</ele>
        <time>2015-06-26T08:08:14Z</time>
      </trkpt>
      <trkpt lat="46.17966" lon="6.82998">
        <ele>1782</ele>
        <time>2015-06-26T08:08:18Z</time>
      </trkpt>
      <trkpt lat="46.17972" lon="6.82959">
        <ele>1784</ele>
        <time>2015-06-26T08:08:22Z</time>
      </trkpt>
      <trkpt lat="46.17986" lon="6.82935">
        <ele>1783</ele>
        <time>2015-06-26T08:08:26Z</time>
      </trkpt>
      <trkpt lat="46.1801" lon="6.82932">
        <ele>1772</ele>
        <time>2015-06-26T08:08:30Z</time>
      </trkpt>
      <trkpt lat="46.18038" lon="6.82926">
        <ele>1768</ele>
        <time>2015-06-26T08:08:34Z</time>
      </trkpt>
      <trkpt lat="46.18062" lon="6.82911">
        <ele>1773</ele>
        <time>2015-06-26T08:08:38Z</time>
      </trkpt>
      <trkpt lat="46.18082" lon="6.82898">
        <ele>1772</ele>
        <time>2015-06-26T08:08:42Z</time>
      </trkpt>
      <trkpt lat="46.18106" lon="6.82895">
        <ele>1763</ele>
        <time>2015-06-26T08:08:46Z</time>
      </trkpt>
      <trkpt lat="46.1813" lon="6.82886">
        <ele>1762</ele>
        <time>2015-06-26T08:08:50Z</time>
      </trkpt>
      <trkpt lat="46.18146" lon="6.8289">
        <ele>1759</ele>
        <time>2015-06-26T08:08:56Z</time>
      </trkpt>
      <trkpt lat="46.18142" lon="6.82912">
        <ele>1757</ele>
        <time>2015-06-26T08:09:00Z</time>
      </trkpt>
      <trkpt lat="46.18128" lon="6.82934">
        <ele>1749</ele>
        <time>2015-06-26T08:09:04Z</time>
      </trkpt>
      <trkpt lat="46.18113" lon="6.8296">
        <ele>1749</ele>
        <time>2015-06-26T08:09:08Z</time>
      </trkpt>
      <trkpt lat="46.18097" lon="6.82987">
        <ele>1748</ele>
        <time>2015-06-26T08:09:12Z</time>
      </trkpt>
      <trkpt lat="46.18085" lon="6.8301">
        <ele>1745</ele>
        <time>2015-06-26T08:09:16Z</time>
      </trkpt>
      <trkpt lat="46.18077" lon="6.83035">
        <ele>1753</ele>
        <time>2015-06-26T08:09:20Z</time>
      </trkpt>
      <trkpt lat="46.18079" lon="6.83058">
        <ele>1751</ele>
        <time>2015-06-26T08:09:24Z</time>
      </trkpt>
      <trkpt lat="46.18092" lon="6.83077">
        <ele>1739</ele>
        <time>2015-06-26T08:09:28Z</time>
      </trkpt>
      <trkpt lat="46.18098" lon="6.83101">
        <ele>1735</ele>
        <time>2015-06-26T08:09:32Z</time>
      </trkpt>
      <trkpt lat="46.18104" lon="6.8312">
        <ele>1733</ele>
        <time>2015-06-26T08:09:36Z</time>
      </trkpt>
      <trkpt lat="46.18121" lon="6.83141">
        <ele>1731</ele>
        <time>2015-06-26T08:09:40Z</time>
      </trkpt>
      <trkpt lat="46.1814" lon="6.83162">
        <ele>1728</ele>
        <time>2015-06-26T08:09:44Z</time>
      </trkpt>
      <trkpt lat="46.18164" lon="6.83188">
        <ele>1727</ele>
        <time>2015-06-26T08:09:50Z</time>
      </trkpt>
      <trkpt lat="46.18179" lon="6.83195">
        <ele>1715</ele>
        <time>2015-06-26T08:09:54Z</time>
      </trkpt>
      <trkpt lat="46.18197" lon="6.832">
        <ele>1713</ele>
        <time>2015-06-26T08:09:58Z</time>
      </trkpt>
      <trkpt lat="46.18209" lon="6.8322">
        <ele>1712</ele>
        <time>2015-06-26T08:10:02Z</time>
      </trkpt>
      <trkpt lat="46.18218" lon="6.83211">
        <ele>1711</ele>
        <time>2015-06-26T08:10:06Z</time>
      </trkpt>
      <trkpt lat="46.18209" lon="6.83187">
        <ele>1712</ele>
        <time>2015-06-26T08:10:10Z</time>
      </trkpt>
      <trkpt lat="46.18207" lon="6.8316">
        <ele>1712</ele>
        <time>2015-06-26T08:10:14Z</time>
      </trkpt>
      <trkpt lat="46.18229" lon="6.8314">
        <ele>1709</ele>
        <time>2015-06-26T08:10:18Z</time>
      </trkpt>
      <trkpt lat="46.18258" lon="6.83127">
        <ele>1704</ele>
        <time>2015-06-26T08:10:22Z</time>
      </trkpt>
      <trkpt lat="46.18284" lon="6.83127">
        <ele>1704</ele>
        <time>2015-06-26T08:10:26Z</time>
      </trkpt>
      <trkpt lat="46.183" lon="6.83153">
        <ele>1702</ele>
        <time>2015-06-26T08:10:30Z</time>
      </trkpt>
      <trkpt lat="46.1832" lon="6.83176">
        <ele>1697</ele>
        <time>2015-06-26T08:10:34Z</time>
      </trkpt>
      <trkpt lat="46.18324" lon="6.8321">
        <ele>1696</ele>
        <time>2015-06-26T08:10:38Z</time>
      </trkpt>
      <trkpt lat="46.18341" lon="6.83244">
        <ele>1690</ele>
        <time>2015-06-26T08:10:44Z</time>
      </trkpt>
      <trkpt lat="46.18347" lon="6.83275">
        <ele>1688</ele>
        <time>2015-06-26T08:10:48Z</time>
      </trkpt>
      <trkpt lat="46.18351" lon="6.83308">
        <ele>1687</ele>
        <time>2015-06-26T08:10:52Z</time>
      </trkpt>
      <trkpt lat="46.18349" lon="6.83339">
        <ele>1685</ele>
        <time>2015-06-26T08:10:56Z</time>
      </trkpt>
      <trkpt lat="46.18341" lon="6.83368">
        <ele>1684</ele>
        <time>2015-06-26T08:11:00Z</time>
      </trkpt>
      <trkpt lat="46.18348" lon="6.83394">
        <ele>1684</ele>
        <time>2015-06-26T08:11:04Z</time>
      </trkpt>
      <trkpt lat="46.18358" lon="6.83421">
        <ele>1683</ele>
        <time>2015-06-26T08:11:08Z</time>
      </trkpt>
      <trkpt lat="46.18368" lon="6.83435">
        <ele>1683</ele>
        <time>2015-06-26T08:11:12Z</time>
      </trkpt>
      <trkpt lat="46.19198" lon="6.81551">
        <ele>2236</ele>
        <time>2015-06-26T08:11:16Z</time>
      </trkpt>
      <trkpt lat="46.19195" lon="6.8154">
        <ele>2236</ele>
        <time>2015-06-26T08:11:20Z</time>
      </trkpt>
      <trkpt lat="46.19186" lon="6.81516">
        <ele>2239</ele>
        <time>2015-06-26T08:11:24Z</time>
      </trkpt>
      <trkpt lat="46.19174" lon="6.81492">
        <ele>2241</ele>
        <time>2015-06-26T08:11:28Z</time>
      </trkpt>
      <trkpt lat="46.19157" lon="6.81478">
        <ele>2236</ele>
        <time>2015-06-26T08:11:32Z</time>
      </trkpt>
      <trkpt lat="46.19141" lon="6.81467">
        <ele>2231</ele>
        <time>2015-06-26T08:11:38Z</time>
      </trkpt>
      <trkpt lat="46.19141" lon="6.81468">
        <ele>2231</ele>
        <time>2015-06-26T08:11:42Z</time>
      </trkpt>
      <trkpt lat="46.19141" lon="6.81468">
        <ele>2231</ele>
        <time>2015-06-26T08:11:46Z</time>
      </trkpt>
      <trkpt lat="46.19141" lon="6.81468">
        <ele>2231</ele>
        <time>2015-06-26T08:11:50Z</time>
      </trkpt>
      <trkpt lat="46.19141" lon="6.81468">
        <ele>2231</ele>
        <time>2015-06-26T08:11:54Z</time>
      </trkpt>
      <trkpt lat="46.19135" lon="6.81469">
        <ele>2231</ele>
        <time>2015-06-26T08:11:58Z</time>
      </trkpt>
      <trkpt lat="46.1912" lon="6.81468">
        <ele>2228</ele>
        <time>2015-06-26T08:12:02Z</time>
      </trkpt>
      <trkpt lat="46.19096" lon="6.81473">
        <ele>2228</ele>
        <time>2015-06-26T08:12:06Z</time>
      </trkpt>
      <trkpt lat="46.19071" lon="6.81493">
        <ele>2215</ele>
        <time>2015-06-26T08:12:10Z</time>
      </trkpt>
      <trkpt lat="46.19047" lon="6.81525">
        <ele>2216</ele>
        <time>2015-06-26T08:12:14Z</time>
      </trkpt>
      <trkpt lat="46.19031" lon="6.81564">
        <ele>2216</ele>
        <time>2015-06-26T08:12:18Z</time>
      </trkpt>
      <trkpt lat="46.19011" lon="6.81599">
        <ele>2217</ele>
        <time>2015-06-26T08:12:22Z</time>
      </trkpt>
      <trkpt lat="46.18975" lon="6.8164">
        <ele>2198</ele>
        <time>2015-06-26T08:12:28Z</time>
      </trkpt>
      <trkpt lat="46.18955" lon="6.81662">
        <ele>2194</ele>
        <time>2015-06-26T08:12:32Z</time>
      </trkpt>
      <trkpt lat="46.18935" lon="6.81679">
        <ele>2188</ele>
        <time>2015-06-26T08:12:36Z</time>
      </trkpt>
      <trkpt lat="46.18914" lon="6.81692">
        <ele>2175</ele>
        <time>2015-06-26T08:12:40Z</time>
      </trkpt>
      <trkpt lat="46.18893" lon="6.81697">
        <ele>2173</ele>
        <time>2015-06-26T08:12:44Z</time>
      </trkpt>
      <trkpt lat="46.1887" lon="6.81699">
        <ele>2170</ele>
        <time>2015-06-26T08:12:48Z</time>
      </trkpt>
      <trkpt lat="46.18853" lon="6.81708">
        <ele>2169</ele>
        <time>2015-06-26T08:12:52Z</time>
      </trkpt>
      <trkpt lat="46.18853" lon="6.8172">
        <ele>2169</ele>
        <time>2015-06-26T08:12:56Z</time>
      </trkpt>
      <trkpt lat="46.18865" lon="6.81717">
        <ele>2170</ele>
        <time>2015-06-26T08:13:00Z</time>
      </trkpt>
      <trkpt lat="46.18882" lon="6.81713">
        <ele>2171</ele>
        <time>2015-06-26T08:13:04Z</time>
      </trkpt>
      <trkpt lat="46.18902" lon="6.81718">
        <ele>2171</ele>
        <time>2015-06-26T08:13:08Z</time>
      </trkpt>
      <trkpt lat="46.18919" lon="6.81732">
        <ele>2178</ele>
        <time>2015-06-26T08:13:12Z</time>
      </trkpt>
      <trkpt lat="46.18941" lon="6.81737">
        <ele>2182</ele>
        <time>2015-06-26T08:13:16Z</time>
      </trkpt>
      <trkpt lat="46.1896" lon="6.8177">
        <ele>2160</ele>
        <time>2015-06-26T08:13:22Z</time>
      </trkpt>
      <trkpt lat="46.18979" lon="6.81763">
        <ele>2167</ele>
        <time>2015-06-26T08:13:26Z</time>
      </trkpt>
      <trkpt lat="46.19001" lon="6.81771">
        <ele>2177</ele>
        <time>2015-06-26T08:13:30Z</time>
      </trkpt>
      <trkpt lat="46.19014" lon="6.81793">
        <ele>2169</ele>
        <time>2015-06-26T08:13:34Z</time>
      </trkpt>
      <trkpt lat="46.19023" lon="6.81814">
        <ele>2163</ele>
        <time>2015-06-26T08:13:38Z</time>
      </trkpt>
      <trkpt lat="46.1904" lon="6.81809">
        <ele>2166</ele>
        <time>2015-06-26T08:13:42Z</time>
      </trkpt>
      <trkpt lat="46.19061" lon="6.81813">
        <ele>2166</ele>
        <time>2015-06-26T08:13:46Z</time>
      </trkpt>
      <trkpt lat="46.19075" lon="6.81832">
        <ele>2160</ele>
        <time>2015-06-26T08:13:50Z</time>
      </trkpt>
      <trkpt lat="46.1908" lon="6.81858">
        <ele>2140</ele>
        <time>2015-06-26T08:13:54Z</time>
      </trkpt>
      <trkpt lat="46.19094" lon="6.81882">
        <ele>2135</ele>
        <time>2015-06-26T08:13:58Z</time>
      </trkpt>
      <trkpt lat="46.19106" lon="6.81905">
        <ele>2131</ele>
        <time>2015-06-26T08:14:02Z</time>
      </trkpt>
      <trkpt lat="46.1912" lon="6.8192">
        <ele>2117</ele>
        <time>2015-06-26T08:14:06Z</time>
      </trkpt>
      <trkpt lat="46.19128" lon="6.81929">
        <ele>2116</ele>
        <time>2015-06-26T08:14:10Z</time>
      </trkpt>
      <trkpt lat="46.19128" lon="6.81928">
        <ele>2116</ele>
        <time>2015-06-26T08:14:16Z</time>
      </trkpt>
      <trkpt lat="46.19128" lon="6.81929">
        <ele>2116</ele>
        <time>2015-06-26T08:14:20Z</time>
      </trkpt>
      <trkpt lat="46.19128" lon="6.81929">
        <ele>2116</ele>
        <time>2015-06-26T08:14:24Z</time>
      </trkpt>
      <trkpt lat="46.19128" lon="6.81929">
        <ele>2116</ele>
        <time>2015-06-26T08:14:28Z</time>
      </trkpt>
      <trkpt lat="46.19128" lon="6.81929">
        <ele>2116</ele>
        <time>2015-06-26T08:14:32Z</time>
      </trkpt>
      <trkpt lat="46.19128" lon="6.81929">
        <ele>2116</ele>
        <time>2015-06-26T08:14:36Z</time>
      </trkpt>
      <trkpt lat="46.19128" lon="6.81929">
        <ele>2116</ele>
        <time>2015-06-26T08:14:40Z</time>
      </trkpt>
      <trkpt lat="46.19128" lon="6.81929">
        <ele>2116</ele>
        <time>2015-06-26T08:14:44Z</time>
      </trkpt>
      <trkpt lat="46.19128" lon="6.81929">
        <ele>2116</ele>
        <time>2015-06-26T08:14:48Z</time>
      </trkpt>
      <trkpt lat="46.1913" lon="6.81929">
        <ele>2116</ele>
        <time>2015-06-26T08:14:52Z</time>
      </trkpt>
      <trkpt lat="46.19143" lon="6.81933">
        <ele>2117</ele>
        <time>2015-06-26T08:14:56Z</time>
      </trkpt>
      <trkpt lat="46.19159" lon="6.81943">
        <ele>2117</ele>
        <time>2015-06-26T08:15:00Z</time>
      </trkpt>
      <trkpt lat="46.19164" lon="6.81966">
        <ele>2116</ele>
        <time>2015-06-26T08:15:04Z</time>
      </trkpt>
      <trkpt lat="46.19167" lon="6.81993">
        <ele>2113</ele>
        <time>2015-06-26T08:15:10Z</time>
      </trkpt>
      <trkpt lat="46.1918" lon="6.81977">
        <ele>2104</ele>
        <time>2015-06-26T08:15:14Z</time>
      </trkpt>
      <trkpt lat="46.19192" lon="6.81958">
        <ele>2100</ele>
        <time>2015-06-26T08:15:18Z</time>
      </trkpt>
      <trkpt lat="46.19195" lon="6.81963">
        <ele>2099</ele>
        <time>2015-06-26T08:15:22Z</time>
      </trkpt>
      <trkpt lat="46.19189" lon="6.81986">
        <ele>2102</ele>
        <time>2015-06-26T08:15:26Z</time>
      </trkpt>
      <trkpt lat="46.19181" lon="6.82011">
        <ele>2101</ele>
        <time>2015-06-26T08:15:30Z</time>
      </trkpt>
      <trkpt lat="46.19174" lon="6.82034">
        <ele>2095</ele>
        <time>2015-06-26T08:15:34Z</time>
      </trkpt>
      <trkpt lat="46.19178" lon="6.82064">
        <ele>2091</ele>
        <time>2015-06-26T08:15:38Z</time>
      </trkpt>
      <trkpt lat="46.19181" lon="6.82093">
        <ele>2089</ele>
        <time>2015-06-26T08:15:42Z</time>
      </trkpt>
      <trkpt lat="46.19186" lon="6.82117">
        <ele>2086</ele>
        <time>2015-06-26T08:15:46Z</time>
      </trkpt>
      <trkpt lat="46.19189" lon="6.82129">
        <ele>2085</ele>
        <time>2015-06-26T08:15:50Z</time>
      </trkpt>
      <trkpt lat="46.19193" lon="6.82127">
        <ele>2085</ele>
        <time>2015-06-26T08:15:54Z</time>
      </trkpt>
      <trkpt lat="46.19216" lon="6.82124">
        <ele>2084</ele>
        <time>2015-06-26T08:16:00Z</time>
      </trkpt>
      <trkpt lat="46.1923" lon="6.82126">
        <ele>2084</ele>
        <time>2015-06-26T08:16:04Z</time>
      </trkpt>
      <trkpt lat="46.19226" lon="6.82104">
        <ele>2081</ele>
        <time>2015-06-26T08:16:08Z</time>
      </trkpt>
      <trkpt lat="46.19222" lon="6.82072">
        <ele>2081</ele>
        <time>2015-06-26T08:16:12Z</time>
      </trkpt>
      <trkpt lat="46.19233" lon="6.82065">
        <ele>2079</ele>
        <time>2015-06-26T08:16:16Z</time>
      </trkpt>
      <trkpt lat="46.19246" lon="6.82087">
        <ele>2072</ele>
        <time>2015-06-26T08:16:20Z</time>
      </trkpt>
      <trkpt lat="46.19264" lon="6.82103">
        <ele>2074</ele>
        <time>2015-06-26T08:16:24Z</time>
      </trkpt>
      <trkpt lat="46.19289" lon="6.82109">
        <ele>2074</ele>
        <time>2015-06-26T08:16:28Z</time>
      </trkpt>
      <trkpt lat="46.19314" lon="6.82097">
        <ele>2069</ele>
        <time>2015-06-26T08:16:32Z</time>
      </trkpt>
      <trkpt lat="46.19336" lon="6.82099">
        <ele>2064</ele>
        <time>2015-06-26T08:16:36Z</time>
      </trkpt>
      <trkpt lat="46.19356" lon="6.82096">
        <ele>2065</ele>
        <time>2015-06-26T08:16:40Z</time>
      </trkpt>
      <trkpt lat="46.19375" lon="6.82087">
        <ele>2063</ele>
        <time>2015-06-26T08:16:44Z</time>
      </trkpt>
      <trkpt lat="46.19392" lon="6.8208">
        <ele>2045</ele>
        <time>2015-06-26T08:16:48Z</time>
      </trkpt>
      <trkpt lat="46.19418" lon="6.82071">
        <ele>2042</ele>
        <time>2015-06-26T08:16:54Z</time>
      </trkpt>
      <trkpt lat="46.19441" lon="6.82066">
        <ele>2037</ele>
        <time>2015-06-26T08:16:58Z</time>
      </trkpt>
      <trkpt lat="46.19464" lon="6.82058">
        <ele>2034</ele>
        <time>2015-06-26T08:17:02Z</time>
      </trkpt>
      <trkpt lat="46.19486" lon="6.82052">
        <ele>2033</ele>
        <time>2015-06-26T08:17:06Z</time>
      </trkpt>
      <trkpt lat="46.19509" lon="6.82044">
        <ele>2031</ele>
        <time>2015-06-26T08:17:10Z</time>
      </trkpt>
      <trkpt lat="46.19529" lon="6.82027">
        <ele>2027</ele>
        <time>2015-06-26T08:17:14Z</time>
      </trkpt>
      <trkpt lat="46.19552" lon="6.82008">
        <ele>2026</ele>
        <time>2015-06-26T08:17:18Z</time>
      </trkpt>
      <trkpt lat="46.19575" lon="6.81991">
        <ele>2011</ele>
        <time>2015-06-26T08:17:22Z</time>
      </trkpt>
      <trkpt lat="46.19604" lon="6.81974">
        <ele>2014</ele>
        <time>2015-06-26T08:17:26Z</time>
      </trkpt>
      <trkpt lat="46.19627" lon="6.8195">
        <ele>2012</ele>
        <time>2015-06-26T08:17:30Z</time>
      </trkpt>
      <trkpt lat="46.19647" lon="6.81914">
        <ele>2000</ele>
        <time>2015-06-26T08:17:34Z</time>
      </trkpt>
      <trkpt lat="46.19661" lon="6.81872">
        <ele>1995</ele>
        <time>2015-06-26T08:17:38Z</time>
      </trkpt>
      <trkpt lat="46.19674" lon="6.81835">
        <ele>2001</ele>
        <time>2015-06-26T08:17:42Z</time>
      </trkpt>
      <trkpt lat="46.19695" lon="6.81771">
        <ele>1999</ele>
        <time>2015-06-26T08:17:48Z</time>
      </trkpt>
      <trkpt lat="46.19707" lon="6.81718">
        <ele>1990</ele>
        <time>2015-06-26T08:17:52Z</time>
      </trkpt>
      <trkpt lat="46.19707" lon="6.81676">
        <ele>1988</ele>
        <time>2015-06-26T08:17:56Z</time>
      </trkpt>
      <trkpt lat="46.19706" lon="6.81648">
        <ele>1982</ele>
        <time>2015-06-26T08:18:00Z</time>
      </trkpt>
      <trkpt lat="46.19707" lon="6.81619">
        <ele>1981</ele>
        <time>2015-06-26T08:18:04Z</time>
      </trkpt>
      <trkpt lat="46.1971" lon="6.81588">
        <ele>1980</ele>
        <time>2015-06-26T08:18:08Z</time>
      </trkpt>
      <trkpt lat="46.19708" lon="6.81562">
        <ele>1978</ele>
        <time>2015-06-26T08:18:12Z</time>
      </trkpt>
      <trkpt lat="46.19699" lon="6.81542">
        <ele>1978</ele>
        <time>2015-06-26T08:18:16Z</time>
      </trkpt>
      <trkpt lat="46.19694" lon="6.81514">
        <ele>1978</ele>
        <time>2015-06-26T08:18:20Z</time>
      </trkpt>
      <trkpt lat="46.19688" lon="6.8148">
        <ele>1979</ele>
        <time>2015-06-26T08:18:24Z</time>
      </trkpt>
      <trkpt lat="46.1968" lon="6.81448">
        <ele>1980</ele>
        <time>2015-06-26T08:18:28Z</time>
      </trkpt>
      <trkpt lat="46.19682" lon="6.81417">
        <ele>1980</ele>
        <time>2015-06-26T08:18:32Z</time>
      </trkpt>
      <trkpt lat="46.19676" lon="6.81389">
        <ele>1980</ele>
        <time>2015-06-26T08:18:36Z</time>
      </trkpt>
      <trkpt lat="46.19665" lon="6.81364">
        <ele>1985</ele>
        <time>2015-06-26T08:18:42Z</time>
      </trkpt>
      <trkpt lat="46.1966" lon="6.81354">
        <ele>1985</ele>
        <time>2015-06-26T08:18:46Z</time>
      </trkpt>
      <trkpt lat="46.19657" lon="6.81344">
        <ele>1984</ele>
        <time>2015-06-26T08:18:50Z</time>
      </trkpt>
      <trkpt lat="46.19653" lon="6.81332">
        <ele>1985</ele>
        <time>2015-06-26T08:18:54Z</time>
      </trkpt>
      <trkpt lat="46.19652" lon="6.81319">
        <ele>1985</ele>
        <time>2015-06-26T08:18:58Z</time>
      </trkpt>
      <trkpt lat="46.19657" lon="6.8131">
        <ele>1985</ele>
        <time>2015-06-26T08:19:02Z</time>
      </trkpt>
      <trkpt lat="46.19663" lon="6.81305">
        <ele>1985</ele>
        <time>2015-06-26T08:19:06Z</time>
      </trkpt>
      <trkpt lat="46.19668" lon="6.81299">
        <ele>1977</ele>
        <time>2015-06-26T08:19:10Z</time>
      </trkpt>
      <trkpt lat="46.19673" lon="6.81293">
        <ele>1977</ele>
        <time>2015-06-26T08:19:14Z</time>
      </trkpt>
      <trkpt lat="46.19687" lon="6.81292">
        <ele>1976</ele>
        <time>2015-06-26T08:19:18Z</time>
      </trkpt>
      <trkpt lat="46.19706" lon="6.81292">
        <ele>1975</ele>
        <time>2015-06-26T08:19:22Z</time>
      </trkpt>
      <trkpt lat="46.19723" lon="6.81293">
        <ele>1975</ele>
        <time>2015-06-26T08:19:26Z</time>
      </trkpt>
      <trkpt lat="46.19751" lon="6.81288">
        <ele>1967</ele>
        <time>2015-06-26T08:19:32Z</time>
      </trkpt>
      <trkpt lat="46.19766" lon="6.81269">
        <ele>1967</ele>
        <time>2015-06-26T08:19:36Z</time>
      </trkpt>
      <trkpt lat="46.1978" lon="6.81244">
        <ele>1966</ele>
        <time>2015-06-26T08:19:40Z</time>
      </trkpt>
      <trkpt lat="46.19796" lon="6.81217">
        <ele>1965</ele>
        <time>2015-06-26T08:19:44Z</time>
      </trkpt>
      <trkpt lat="46.19814" lon="6.81187">
        <ele>1964</ele>
        <time>2015-06-26T08:19:48Z</time>
      </trkpt>
      <trkpt lat="46.19814" lon="6.8116">
        <ele>1965</ele>
        <time>2015-06-26T08:19:52Z</time>
      </trkpt>
      <trkpt lat="46.19805" lon="6.81139">
        <ele>1967</ele>
        <time>2015-06-26T08:19:56Z</time>
      </trkpt>
      <trkpt lat="46.19791" lon="6.81122">
        <ele>1967</ele>
        <time>2015-06-26T08:20:00Z</time>
      </trkpt>
      <trkpt lat="46.19788" lon="6.81105">
        <ele>1968</ele>
        <time>2015-06-26T08:20:04Z</time>
      </trkpt>
      <trkpt lat="46.19779" lon="6.81088">
        <ele>1968</ele>
        <time>2015-06-26T08:20:08Z</time>
      </trkpt>
      <trkpt lat="46.19772" lon="6.81075">
        <ele>1969</ele>
        <time>2015-06-26T08:20:12Z</time>
      </trkpt>
      <trkpt lat="46.19772" lon="6.81061">
        <ele>1969</ele>
        <time>2015-06-26T08:20:16Z</time>
      </trkpt>
      <trkpt lat="46.19776" lon="6.81049">
        <ele>1969</ele>
        <time>2015-06-26T08:20:20Z</time>
      </trkpt>
      <trkpt lat="46.19784" lon="6.81026">
        <ele>1968</ele>
        <time>2015-06-26T08:20:26Z</time>
      </trkpt>
      <trkpt lat="46.198" lon="6.81009">
        <ele>1968</ele>
        <time>2015-06-26T08:20:30Z</time>
      </trkpt>
      <trkpt lat="46.19804" lon="6.8099">
        <ele>1970</ele>
        <time>2015-06-26T08:20:34Z</time>
      </trkpt>
      <trkpt lat="46.19798" lon="6.80969">
        <ele>1970</ele>
        <time>2015-06-26T08:20:38Z</time>
      </trkpt>
      <trkpt lat="46.19788" lon="6.80958">
        <ele>1971</ele>
        <time>2015-06-26T08:20:42Z</time>
      </trkpt>
      <trkpt lat="46.19783" lon="6.80946">
        <ele>1972</ele>
        <time>2015-06-26T08:20:46Z</time>
      </trkpt>
      <trkpt lat="46.19785" lon="6.80932">
        <ele>1972</ele>
        <time>2015-06-26T08:20:50Z</time>
      </trkpt>
      <trkpt lat="46.19781" lon="6.80918">
        <ele>1972</ele>
        <time>2015-06-26T08:20:54Z</time>
      </trkpt>
      <trkpt lat="46.19776" lon="6.80909">
        <ele>1976</ele>
        <time>2015-06-26T08:20:58Z</time>
      </trkpt>
      <trkpt lat="46.19775" lon="6.80899">
        <ele>1976</ele>
        <time>2015-06-26T08:21:02Z</time>
      </trkpt>
      <trkpt lat="46.19782" lon="6.80896">
        <ele>1976</ele>
        <time>2015-06-26T08:21:06Z</time>
      </trkpt>
      <trkpt lat="46.19788" lon="6.80889">
        <ele>1976</ele>
        <time>2015-06-26T08:21:10Z</time>
      </trkpt>
      <trkpt lat="46.19787" lon="6.80879">
        <ele>1977</ele>
        <time>2015-06-26T08:21:14Z</time>
      </trkpt>
      <trkpt lat="46.19784" lon="6.80862">
        <ele>1977</ele>
        <time>2015-06-26T08:21:20Z</time>
      </trkpt>
      <trkpt lat="46.19781" lon="6.80852">
        <ele>1977</ele>
        <time>2015-06-26T08:21:24Z</time>
      </trkpt>
      <trkpt lat="46.19776" lon="6.80846">
        <ele>1978</ele>
        <time>2015-06-26T08:21:28Z</time>
      </trkpt>
      <trkpt lat="46.1977" lon="6.80844">
        <ele>1978</ele>
        <time>2015-06-26T08:21:32Z</time>
      </trkpt>
      <trkpt lat="46.19764" lon="6.80841">
        <ele>1978</ele>
        <time>2015-06-26T08:21:36Z</time>
      </trkpt>
      <trkpt lat="46.19758" lon="6.80838">
        <ele>1978</ele>
        <time>2015-06-26T08:21:40Z</time>
      </trkpt>
      <trkpt lat="46.19757" lon="6.80829">
        <ele>1981</ele>
        <time>2015-06-26T08:21:44Z</time>
      </trkpt>
      <trkpt lat="46.19758" lon="6.80819">
        <ele>1982</ele>
        <time>2015-06-26T08:21:48Z</time>
      </trkpt>
      <trkpt lat="46.19759" lon="6.80811">
        <ele>1984</ele>
        <time>2015-06-26T08:21:52Z</time>
      </trkpt>
      <trkpt lat="46.19758" lon="6.80803">
        <ele>1984</ele>
        <time>2015-06-26T08:21:56Z</time>
      </trkpt>
      <trkpt lat="46.19756" lon="6.80794">
        <ele>1985</ele>
        <time>2015-06-26T08:22:00Z</time>
      </trkpt>
      <trkpt lat="46.19756" lon="6.80793">
        <ele>1985</ele>
        <time>2015-06-26T08:22:04Z</time>
      </trkpt>
      <trkpt lat="46.19754" lon="6.80785">
        <ele>1986</ele>
        <time>2015-06-26T08:22:08Z</time>
      </trkpt>
      <trkpt lat="46.19751" lon="6.80777">
        <ele>1987</ele>
        <time>2015-06-26T08:22:14Z</time>
      </trkpt>
      <trkpt lat="46.19748" lon="6.80772">
        <ele>1988</ele>
        <time>2015-06-26T08:22:18Z</time>
      </trkpt>
      <trkpt lat="46.19746" lon="6.80768">
        <ele>1988</ele>
        <time>2015-06-26T08:22:22Z</time>
      </trkpt>
      <trkpt lat="46.19745" lon="6.80762">
        <ele>1989</ele>
        <time>2015-06-26T08:22:26Z</time>
      </trkpt>
      <trkpt lat="46.19742" lon="6.80757">
        <ele>1989</ele>
        <time>2015-06-26T08:22:30Z</time>
      </trkpt>
      <trkpt lat="46.19741" lon="6.8075">
        <ele>1989</ele>
        <time>2015-06-26T08:22:34Z</time>
      </trkpt>
      <trkpt lat="46.1974" lon="6.80743">
        <ele>1992</ele>
        <time>2015-06-26T08:22:38Z</time>
      </trkpt>
      <trkpt lat="46.19738" lon="6.80737">
        <ele>1993</ele>
        <time>2015-06-26T08:22:42Z</time>
      </trkpt>
      <trkpt lat="46.19735" lon="6.8073">
        <ele>1994</ele>
        <time>2015-06-26T08:22:46Z</time>
      </trkpt>
      <trkpt lat="46.19735" lon="6.80729">
        <ele>1994</ele>
        <time>2015-06-26T08:22:50Z</time>
      </trkpt>
      <trkpt lat="46.19735" lon="6.80729">
        <ele>1994</ele>
        <time>2015-06-26T08:22:54Z</time>
      </trkpt>
      <trkpt lat="46.19732" lon="6.80722">
        <ele>1995</ele>
        <time>2015-06-26T08:22:58Z</time>
      </trkpt>
      <trkpt lat="46.1973" lon="6.80707">
        <ele>1996</ele>
        <time>2015-06-26T08:23:04Z</time>
      </trkpt>
      <trkpt lat="46.19731" lon="6.80697">
        <ele>1997</ele>
        <time>2015-06-26T08:23:08Z</time>
      </trkpt>
      <trkpt lat="46.1973" lon="6.80688">
        <ele>1998</ele>
        <time>2015-06-26T08:23:12Z</time>
      </trkpt>
      <trkpt lat="46.19727" lon="6.8068">
        <ele>1998</ele>
        <time>2015-06-26T08:23:16Z</time>
      </trkpt>
      <trkpt lat="46.19724" lon="6.80672">
        <ele>1998</ele>
        <time>2015-06-26T08:23:20Z</time>
      </trkpt>
      <trkpt lat="46.19722" lon="6.80663">
        <ele>2001</ele>
        <time>2015-06-26T08:23:24Z</time>
      </trkpt>
      <trkpt lat="46.19719" lon="6.80654">
        <ele>2001</ele>
        <time>2015-06-26T08:23:28Z</time>
      </trkpt>
      <trkpt lat="46.19718" lon="6.80646">
        <ele>2001</ele>
        <time>2015-06-26T08:23:32Z</time>
      </trkpt>
      <trkpt lat="46.19716" lon="6.80643">
        <ele>2001</ele>
        <time>2015-06-26T08:23:36Z</time>
      </trkpt>
      <trkpt lat="46.19712" lon="6.80638">
        <ele>2001</ele>
        <time>2015-06-26T08:23:40Z</time>
      </trkpt>
      <trkpt lat="46.19709" lon="6.80632">
        <ele>2001</ele>
        <time>2015-06-26T08:23:44Z</time>
      </trkpt>
      <trkpt lat="46.19707" lon="6.80628">
        <ele>2001</ele>
        <time>2015-06-26T08:23:48Z</time>
      </trkpt>
      <trkpt lat="46.19703" lon="6.80626">
        <ele>2001</ele>
        <time>2015-06-26T08:23:52Z</time>
      </trkpt>
      <trkpt lat="46.19698" lon="6.80621">
        <ele>2000</ele>
        <time>2015-06-26T08:23:58Z</time>
      </trkpt>
      <trkpt lat="46.19696" lon="6.80615">
        <ele>2000</ele>
        <time>2015-06-26T08:24:02Z</time>
      </trkpt>
      <trkpt lat="46.19695" lon="6.80609">
        <ele>2000</ele>
        <time>2015-06-26T08:24:06Z</time>
      </trkpt>
      <trkpt lat="46.19693" lon="6.80603">
        <ele>2000</ele>
        <time>2015-06-26T08:24:10Z</time>
      </trkpt>
      <trkpt lat="46.19691" lon="6.80595">
        <ele>2000</ele>
        <time>2015-06-26T08:24:14Z</time>
      </trkpt>
      <trkpt lat="46.19689" lon="6.80587">
        <ele>1999</ele>
        <time>2015-06-26T08:24:18Z</time>
      </trkpt>
      <trkpt lat="46.19691" lon="6.80587">
        <ele>2000</ele>
        <time>2015-06-26T08:24:22Z</time>
      </trkpt>
      <trkpt lat="46.1969" lon="6.80581">
        <ele>1999</ele>
        <time>2015-06-26T08:24:26Z</time>
      </trkpt>
      <trkpt lat="46.19687" lon="6.80572">
        <ele>1999</ele>
        <time>2015-06-26T08:24:30Z</time>
      </trkpt>
      <trkpt lat="46.19689" lon="6.80563">
        <ele>1999</ele>
        <time>2015-06-26T08:24:34Z</time>
      </trkpt>
      <trkpt lat="46.1969" lon="6.80557">
        <ele>1999</ele>
        <time>2015-06-26T08:24:38Z</time>
      </trkpt>
      <trkpt lat="46.19691" lon="6.80548">
        <ele>1999</ele>
        <time>2015-06-26T08:24:42Z</time>
      </trkpt>
      <trkpt lat="46.19696" lon="6.80538">
        <ele>1999</ele>
        <time>2015-06-26T08:24:46Z</time>
      </trkpt>
      <trkpt lat="46.19699" lon="6.80521">
        <ele>1999</ele>
        <time>2015-06-26T08:24:52Z</time>
      </trkpt>
      <trkpt lat="46.19701" lon="6.80511">
        <ele>1999</ele>
        <time>2015-06-26T08:24:56Z</time>
      </trkpt>
      <trkpt lat="46.19699" lon="6.805">
        <ele>1999</ele>
        <time>2015-06-26T08:25:00Z</time>
      </trkpt>
      <trkpt lat="46.19702" lon="6.80489">
        <ele>1994</ele>
        <time>2015-06-26T08:25:04Z</time>
      </trkpt>
      <trkpt lat="46.19706" lon="6.80478">
        <ele>1993</ele>
        <time>2015-06-26T08:25:08Z</time>
      </trkpt>
      <trkpt lat="46.19713" lon="6.80467">
        <ele>1993</ele>
        <time>2015-06-26T08:25:12Z</time>
      </trkpt>
      <trkpt lat="46.19726" lon="6.80452">
        <ele>1994</ele>
        <time>2015-06-26T08:25:16Z</time>
      </trkpt>
      <trkpt lat="46.19742" lon="6.80431">
        <ele>1995</ele>
        <time>2015-06-26T08:25:20Z</time>
      </trkpt>
      <trkpt lat="46.19759" lon="6.80402">
        <ele>1998</ele>
        <time>2015-06-26T08:25:24Z</time>
      </trkpt>
      <trkpt lat="46.1977" lon="6.80373">
        <ele>1997</ele>
        <time>2015-06-26T08:25:28Z</time>
      </trkpt>
      <trkpt lat="46.19783" lon="6.80348">
        <ele>1996</ele>
        <time>2015-06-26T08:25:32Z</time>
      </trkpt>
      <trkpt lat="46.19795" lon="6.80324">
        <ele>1988</ele>
        <time>2015-06-26T08:25:36Z</time>
      </trkpt>
      <trkpt lat="46.19806" lon="6.80286">
        <ele>1985</ele>
        <time>2015-06-26T08:25:42Z</time>
      </trkpt>
      <trkpt lat="46.19811" lon="6.80263">
        <ele>1985</ele>
        <time>2015-06-26T08:25:46Z</time>
      </trkpt>
      <trkpt lat="46.19821" lon="6.80244">
        <ele>1980</ele>
        <time>2015-06-26T08:25:50Z</time>
      </trkpt>
      <trkpt lat="46.19824" lon="6.80217">
        <ele>1975</ele>
        <time>2015-06-26T08:25:54Z</time>
      </trkpt>
      <trkpt lat="46.19826" lon="6.8019">
        <ele>1973</ele>
        <time>2015-06-26T08:25:58Z</time>
      </trkpt>
      <trkpt lat="46.19831" lon="6.80161">
        <ele>1973</ele>
        <time>2015-06-26T08:26:02Z</time>
      </trkpt>
      <trkpt lat="46.19835" lon="6.80135">
        <ele>1978</ele>
        <time>2015-06-26T08:26:06Z</time>
      </trkpt>
      <trkpt lat="46.19842" lon="6.80108">
        <ele>1975</ele>
        <time>2015-06-26T08:26:10Z</time>
      </trkpt>
      <trkpt lat="46.19851" lon="6.8008">
        <ele>1966</ele>
        <time>2015-06-26T08:26:14Z</time>
      </trkpt>
      <trkpt lat="46.19866" lon="6.80055">
        <ele>1967</ele>
        <time>2015-06-26T08:26:18Z</time>
      </trkpt>
      <trkpt lat="46.19879" lon="6.80035">
        <ele>1966</ele>
        <time>2015-06-26T08:26:22Z</time>
      </trkpt>
      <trkpt lat="46.1989" lon="6.80016">
        <ele>1966</ele>
        <time>2015-06-26T08:26:26Z</time>
      </trkpt>
      <trkpt lat="46.19904" lon="6.7999">
        <ele>1959</ele>
        <time>2015-06-26T08:26:30Z</time>
      </trkpt>
      <trkpt lat="46.19922" lon="6.79949">
        <ele>1954</ele>
        <time>2015-06-26T08:26:36Z</time>
      </trkpt>
      <trkpt lat="46.19936" lon="6.79934">
        <ele>1952</ele>
        <time>2015-06-26T08:26:40Z</time>
      </trkpt>
      <trkpt lat="46.19943" lon="6.79929">
        <ele>1952</ele>
        <time>2015-06-26T08:26:44Z</time>
      </trkpt>
      <trkpt lat="46.19947" lon="6.79925">
        <ele>1953</ele>
        <time>2015-06-26T08:26:48Z</time>
      </trkpt>
      <trkpt lat="46.19952" lon="6.79922">
        <ele>1953</ele>
        <time>2015-06-26T08:26:52Z</time>
      </trkpt>
      <trkpt lat="46.19972" lon="6.79912">
        <ele>1945</ele>
        <time>2015-06-26T08:26:56Z</time>
      </trkpt>
      <trkpt lat="46.19996" lon="6.79892">
        <ele>1944</ele>
        <time>2015-06-26T08:27:00Z</time>
      </trkpt>
      <trkpt lat="46.20021" lon="6.79864">
        <ele>1946</ele>
        <time>2015-06-26T08:27:04Z</time>
      </trkpt>
      <trkpt lat="46.20036" lon="6.79832">
        <ele>1938</ele>
        <time>2015-06-26T08:27:08Z</time>
      </trkpt>
      <trkpt lat="46.20048" lon="6.79794">
        <ele>1937</ele>
        <time>2015-06-26T08:27:12Z</time>
      </trkpt>
      <trkpt lat="46.20064" lon="6.7977">
        <ele>1937</ele>
        <time>2015-06-26T08:27:16Z</time>
      </trkpt>
      <trkpt lat="46.20086" lon="6.79768">
        <ele>1945</ele>
        <time>2015-06-26T08:27:20Z</time>
      </trkpt>
      <trkpt lat="46.20098" lon="6.79755">
        <ele>1945</ele>
        <time>2015-06-26T08:27:24Z</time>
      </trkpt>
      <trkpt lat="46.20101" lon="6.79741">
        <ele>1934</ele>
        <time>2015-06-26T08:27:30Z</time>
      </trkpt>
      <trkpt lat="46.201" lon="6.79739">
        <ele>1934</ele>
        <time>2015-06-26T08:27:34Z</time>
      </trkpt>
      <trkpt lat="46.20096" lon="6.79729">
        <ele>1933</ele>
        <time>2015-06-26T08:27:38Z</time>
      </trkpt>
      <trkpt lat="46.20107" lon="6.79724">
        <ele>1933</ele>
        <time>2015-06-26T08:27:42Z</time>
      </trkpt>
      <trkpt lat="46.20105" lon="6.79714">
        <ele>1932</ele>
        <time>2015-06-26T08:27:46Z</time>
      </trkpt>
      <trkpt lat="46.20095" lon="6.79706">
        <ele>1929</ele>
        <time>2015-06-26T08:27:50Z</time>
      </trkpt>
      <trkpt lat="46.20085" lon="6.79696">
        <ele>1926</ele>
        <time>2015-06-26T08:27:54Z</time>
      </trkpt>
      <trkpt lat="46.20082" lon="6.79682">
        <ele>1918</ele>
        <time>2015-06-26T08:27:58Z</time>
      </trkpt>
      <trkpt lat="46.20097" lon="6.79685">
        <ele>1924</ele>
        <time>2015-06-26T08:28:02Z</time>
      </trkpt>
      <trkpt lat="46.20107" lon="6.79665">
        <ele>1909</ele>
        <time>2015-06-26T08:28:06Z</time>
      </trkpt>
      <trkpt lat="46.20109" lon="6.79645">
        <ele>1907</ele>
        <time>2015-06-26T08:28:10Z</time>
      </trkpt>
      <trkpt lat="46.2011" lon="6.79644">
        <ele>1907</ele>
        <time>2015-06-26T08:28:14Z</time>
      </trkpt>
      <trkpt lat="46.20117" lon="6.79637">
        <ele>1906</ele>
        <time>2015-06-26T08:28:18Z</time>
      </trkpt>
      <trkpt lat="46.20131" lon="6.79622">
        <ele>1905</ele>
        <time>2015-06-26T08:28:24Z</time>
      </trkpt>
      <trkpt lat="46.2014" lon="6.79605">
        <ele>1904</ele>
        <time>2015-06-26T08:28:28Z</time>
      </trkpt>
      <trkpt lat="46.20143" lon="6.7958">
        <ele>1890</ele>
        <time>2015-06-26T08:28:32Z</time>
      </trkpt>
      <trkpt lat="46.20154" lon="6.79558">
        <ele>1889</ele>
        <time>2015-06-26T08:28:36Z</time>
      </trkpt>
      <trkpt lat="46.20164" lon="6.79534">
        <ele>1885</ele>
        <time>2015-06-26T08:28:40Z</time>
      </trkpt>
      <trkpt lat="46.2018" lon="6.79511">
        <ele>1896</ele>
        <time>2015-06-26T08:28:44Z</time>
      </trkpt>
      <trkpt lat="46.20193" lon="6.79494">
        <ele>1884</ele>
        <time>2015-06-26T08:28:48Z</time>
      </trkpt>
      <trkpt lat="46.20201" lon="6.79479">
        <ele>1883</ele>
        <time>2015-06-26T08:28:52Z</time>
      </trkpt>
      <trkpt lat="46.20211" lon="6.79466">
        <ele>1883</ele>
        <time>2015-06-26T08:28:56Z</time>
      </trkpt>
      <trkpt lat="46.2022" lon="6.79456">
        <ele>1883</ele>
        <time>2015-06-26T08:29:00Z</time>
      </trkpt>
      <trkpt lat="46.20229" lon="6.79447">
        <ele>1883</ele>
        <time>2015-06-26T08:29:04Z</time>
      </trkpt>
      <trkpt lat="46.20239" lon="6.79437">
        <ele>1882</ele>
        <time>2015-06-26T08:29:08Z</time>
      </trkpt>
      <trkpt lat="46.20251" lon="6.79417">
        <ele>1883</ele>
        <time>2015-06-26T08:29:14Z</time>
      </trkpt>
      <trkpt lat="46.20263" lon="6.79404">
        <ele>1881</ele>
        <time>2015-06-26T08:29:18Z</time>
      </trkpt>
      <trkpt lat="46.20273" lon="6.79391">
        <ele>1880</ele>
        <time>2015-06-26T08:29:22Z</time>
      </trkpt>
      <trkpt lat="46.20282" lon="6.79377">
        <ele>1878</ele>
        <time>2015-06-26T08:29:26Z</time>
      </trkpt>
      <trkpt lat="46.20287" lon="6.7936">
        <ele>1876</ele>
        <time>2015-06-26T08:29:30Z</time>
      </trkpt>
      <trkpt lat="46.20296" lon="6.79347">
        <ele>1876</ele>
        <time>2015-06-26T08:29:34Z</time>
      </trkpt>
      <trkpt lat="46.20307" lon="6.79332">
        <ele>1861</ele>
        <time>2015-06-26T08:29:38Z</time>
      </trkpt>
      <trkpt lat="46.20317" lon="6.79319">
        <ele>1863</ele>
        <time>2015-06-26T08:29:42Z</time>
      </trkpt>
      <trkpt lat="46.20327" lon="6.79304">
        <ele>1860</ele>
        <time>2015-06-26T08:29:46Z</time>
      </trkpt>
      <trkpt lat="46.20335" lon="6.79282">
        <ele>1868</ele>
        <time>2015-06-26T08:29:50Z</time>
      </trkpt>
      <trkpt lat="46.20351" lon="6.79263">
        <ele>1865</ele>
        <time>2015-06-26T08:29:54Z</time>
      </trkpt>
      <trkpt lat="46.20365" lon="6.79263">
        <ele>1868</ele>
        <time>2015-06-26T08:29:58Z</time>
      </trkpt>
      <trkpt lat="46.20365" lon="6.79262">
        <ele>1868</ele>
        <time>2015-06-26T08:30:02Z</time>
      </trkpt>
      <trkpt lat="46.20377" lon="6.79255">
        <ele>1868</ele>
        <time>2015-06-26T08:30:08Z</time>
      </trkpt>
      <trkpt lat="46.20383" lon="6.79252">
        <ele>1869</ele>
        <time>2015-06-26T08:30:12Z</time>
      </trkpt>
      <trkpt lat="46.20406" lon="6.79251">
        <ele>1867</ele>
        <time>2015-06-26T08:30:16Z</time>
      </trkpt>
      <trkpt lat="46.20417" lon="6.79244">
        <ele>1863</ele>
        <time>2015-06-26T08:30:20Z</time>
      </trkpt>
      <trkpt lat="46.20427" lon="6.79237">
        <ele>1860</ele>
        <time>2015-06-26T08:30:24Z</time>
      </trkpt>
      <trkpt lat="46.20442" lon="6.79229">
        <ele>1858</ele>
        <time>2015-06-26T08:30:28Z</time>
      </trkpt>
      <trkpt lat="46.20458" lon="6.79225">
        <ele>1857</ele>
        <time>2015-06-26T08:30:32Z</time>
      </trkpt>
      <trkpt lat="46.20472" lon="6.79215">
        <ele>1856</ele>
        <time>2015-06-26T08:30:36Z</time>
      </trkpt>
      <trkpt lat="46.20486" lon="6.79203">
        <ele>1854</ele>
        <time>2015-06-26T08:30:40Z</time>
      </trkpt>
      <trkpt lat="46.20504" lon="6.79195">
        <ele>1854</ele>
        <time>2015-06-26T08:30:44Z</time>
      </trkpt>
      <trkpt lat="46.20522" lon="6.79185">
        <ele>1853</ele>
        <time>2015-06-26T08:30:48Z</time>
      </trkpt>
      <trkpt lat="46.20536" lon="6.79163">
        <ele>1841</ele>
        <time>2015-06-26T08:30:52Z</time>
      </trkpt>
      <trkpt lat="46.20549" lon="6.79146">
        <ele>1841</ele>
        <time>2015-06-26T08:30:56Z</time>
      </trkpt>
      <trkpt lat="46.20576" lon="6.79128">
        <ele>1841</ele>
        <time>2015-06-26T08:31:02Z</time>
      </trkpt>
      <trkpt lat="46.20588" lon="6.7911">
        <ele>1842</ele>
        <time>2015-06-26T08:31:06Z</time>
      </trkpt>
      <trkpt lat="46.20598" lon="6.79095">
        <ele>1840</ele>
        <time>2015-06-26T08:31:10Z</time>
      </trkpt>
      <trkpt lat="46.20608" lon="6.79078">
        <ele>1833</ele>
        <time>2015-06-26T08:31:14Z</time>
      </trkpt>
      <trkpt lat="46.20617" lon="6.79063">
        <ele>1832</ele>
        <time>2015-06-26T08:31:18Z</time>
      </trkpt>
      <trkpt lat="46.20619" lon="6.79058">
        <ele>1832</ele>
        <time>2015-06-26T08:31:22Z</time>
      </trkpt>
      <trkpt lat="46.2063" lon="6.79044">
        <ele>1831</ele>
        <time>2015-06-26T08:31:26Z</time>
      </trkpt>
      <trkpt lat="46.20652" lon="6.79026">
        <ele>1830</ele>
        <time>2015-06-26T08:31:30Z</time>
      </trkpt>
      <trkpt lat="46.20667" lon="6.79011">
        <ele>1831</ele>
        <time>2015-06-26T08:31:34Z</time>
      </trkpt>
      <trkpt lat="46.20676" lon="6.78988">
        <ele>1825</ele>
        <time>2015-06-26T08:31:38Z</time>
      </trkpt>
      <trkpt lat="46.20687" lon="6.78981">
        <ele>1824</ele>
        <time>2015-06-26T08:31:42Z</time>
      </trkpt>
      <trkpt lat="46.20698" lon="6.7897">
        <ele>1824</ele>
        <time>2015-06-26T08:31:46Z</time>
      </trkpt>
      <trkpt lat="46.20696" lon="6.78956">
        <ele>1822</ele>
        <time>2015-06-26T08:31:50Z</time>
      </trkpt>
      <trkpt lat="46.20707" lon="6.78911">
        <ele>1812</ele>
        <time>2015-06-26T08:31:56Z</time>
      </trkpt>
      <trkpt lat="46.20722" lon="6.78874">
        <ele>1811</ele>
        <time>2015-06-26T08:32:00Z</time>
      </trkpt>
      <trkpt lat="46.20736" lon="6.78849">
        <ele>1810</ele>
        <time>2015-06-26T08:32:04Z</time>
      </trkpt>
      <trkpt lat="46.20741" lon="6.78837">
        <ele>1809</ele>
        <time>2015-06-26T08:32:08Z</time>
      </trkpt>
      <trkpt lat="46.20745" lon="6.78821">
        <ele>1805</ele>
        <time>2015-06-26T08:32:12Z</time>
      </trkpt>
      <trkpt lat="46.20749" lon="6.78793">
        <ele>1801</ele>
        <time>2015-06-26T08:32:16Z</time>
      </trkpt>
      <trkpt lat="46.20751" lon="6.78778">
        <ele>1802</ele>
        <time>2015-06-26T08:32:20Z</time>
      </trkpt>
      <trkpt lat="46.20752" lon="6.78777">
        <ele>1802</ele>
        <time>2015-06-26T08:32:24Z</time>
      </trkpt>
      <trkpt lat="46.20761" lon="6.78774">
        <ele>1802</ele>
        <time>2015-06-26T08:32:28Z</time>
      </trkpt>
      <trkpt lat="46.20774" lon="6.78765">
        <ele>1802</ele>
        <time>2015-06-26T08:32:32Z</time>
      </trkpt>
      <trkpt lat="46.20791" lon="6.78755">
        <ele>1802</ele>
        <time>2015-06-26T08:32:36Z</time>
      </trkpt>
      <trkpt lat="46.20811" lon="6.78747">
        <ele>1788</ele>
        <time>2015-06-26T08:32:40Z</time>
      </trkpt>
      <trkpt lat="46.20837" lon="6.78733">
        <ele>1789</ele>
        <time>2015-06-26T08:32:46Z</time>
      </trkpt>
      <trkpt lat="46.20861" lon="6.78725">
        <ele>1785</ele>
        <time>2015-06-26T08:32:50Z</time>
      </trkpt>
      <trkpt lat="46.20885" lon="6.78712">
        <ele>1783</ele>
        <time>2015-06-26T08:32:54Z</time>
      </trkpt>
      <trkpt lat="46.20909" lon="6.78691">
        <ele>1779</ele>
        <time>2015-06-26T08:32:58Z</time>
      </trkpt>
      <trkpt lat="46.2093" lon="6.78681">
        <ele>1781</ele>
        <time>2015-06-26T08:33:02Z</time>
      </trkpt>
      <trkpt lat="46.20941" lon="6.78683">
        <ele>1784</ele>
        <time>2015-06-26T08:33:06Z</time>
      </trkpt>
      <trkpt lat="46.20938" lon="6.78668">
        <ele>1781</ele>
        <time>2015-06-26T08:33:10Z</time>
      </trkpt>
      <trkpt lat="46.20937" lon="6.78647">
        <ele>1768</ele>
        <time>2015-06-26T08:33:14Z</time>
      </trkpt>
      <trkpt lat="46.20938" lon="6.78643">
        <ele>1767</ele>
        <time>2015-06-26T08:33:18Z</time>
      </trkpt>
      <trkpt lat="46.20941" lon="6.78633">
        <ele>1766</ele>
        <time>2015-06-26T08:33:22Z</time>
      </trkpt>
      <trkpt lat="46.20952" lon="6.78609">
        <ele>1763</ele>
        <time>2015-06-26T08:33:26Z</time>
      </trkpt>
      <trkpt lat="46.20971" lon="6.78588">
        <ele>1764</ele>
        <time>2015-06-26T08:33:30Z</time>
      </trkpt>
      <trkpt lat="46.21" lon="6.7858">
        <ele>1764</ele>
        <time>2015-06-26T08:33:34Z</time>
      </trkpt>
      <trkpt lat="46.21022" lon="6.78569">
        <ele>1763</ele>
        <time>2015-06-26T08:33:40Z</time>
      </trkpt>
      <trkpt lat="46.21033" lon="6.78548">
        <ele>1762</ele>
        <time>2015-06-26T08:33:44Z</time>
      </trkpt>
      <trkpt lat="46.21046" lon="6.78519">
        <ele>1759</ele>
        <time>2015-06-26T08:33:48Z</time>
      </trkpt>
      <trkpt lat="46.21061" lon="6.78479">
        <ele>1744</ele>
        <time>2015-06-26T08:33:52Z</time>
      </trkpt>
      <trkpt lat="46.21071" lon="6.78435">
        <ele>1741</ele>
        <time>2015-06-26T08:33:56Z</time>
      </trkpt>
      <trkpt lat="46.2108" lon="6.78385">
        <ele>1724</ele>
        <time>2015-06-26T08:34:00Z</time>
      </trkpt>
      <trkpt lat="46.21088" lon="6.78338">
        <ele>1733</ele>
        <time>2015-06-26T08:34:04Z</time>
      </trkpt>
      <trkpt lat="46.21088" lon="6.78306">
        <ele>1728</ele>
        <time>2015-06-26T08:34:08Z</time>
      </trkpt>
      <trkpt lat="46.21098" lon="6.78274">
        <ele>1724</ele>
        <time>2015-06-26T08:34:12Z</time>
      </trkpt>
      <trkpt lat="46.21111" lon="6.78251">
        <ele>1724</ele>
        <time>2015-06-26T08:34:16Z</time>
      </trkpt>
      <trkpt lat="46.21118" lon="6.78222">
        <ele>1714</ele>
        <time>2015-06-26T08:34:20Z</time>
      </trkpt>
      <trkpt lat="46.21119" lon="6.78199">
        <ele>1712</ele>
        <time>2015-06-26T08:34:24Z</time>
      </trkpt>
      <trkpt lat="46.21122" lon="6.78168">
        <ele>1710</ele>
        <time>2015-06-26T08:34:28Z</time>
      </trkpt>
      <trkpt lat="46.2113" lon="6.78132">
        <ele>1697</ele>
        <time>2015-06-26T08:34:34Z</time>
      </trkpt>
      <trkpt lat="46.21135" lon="6.7811">
        <ele>1695</ele>
        <time>2015-06-26T08:34:38Z</time>
      </trkpt>
      <trkpt lat="46.21134" lon="6.7809">
        <ele>1694</ele>
        <time>2015-06-26T08:34:42Z</time>
      </trkpt>
      <trkpt lat="46.21135" lon="6.78073">
        <ele>1680</ele>
        <time>2015-06-26T08:34:46Z</time>
      </trkpt>
      <trkpt lat="46.21141" lon="6.78051">
        <ele>1678</ele>
        <time>2015-06-26T08:34:50Z</time>
      </trkpt>
      <trkpt lat="46.21148" lon="6.78029">
        <ele>1676</ele>
        <time>2015-06-26T08:34:54Z</time>
      </trkpt>
      <trkpt lat="46.21156" lon="6.78004">
        <ele>1678</ele>
        <time>2015-06-26T08:34:58Z</time>
      </trkpt>
      <trkpt lat="46.21163" lon="6.77978">
        <ele>1663</ele>
        <time>2015-06-26T08:35:02Z</time>
      </trkpt>
      <trkpt lat="46.2117" lon="6.77951">
        <ele>1675</ele>
        <time>2015-06-26T08:35:06Z</time>
      </trkpt>
      <trkpt lat="46.21175" lon="6.77926">
        <ele>1666</ele>
        <time>2015-06-26T08:35:10Z</time>
      </trkpt>
      <trkpt lat="46.21185" lon="6.77902">
        <ele>1656</ele>
        <time>2015-06-26T08:35:14Z</time>
      </trkpt>
      <trkpt lat="46.212" lon="6.77877">
        <ele>1655</ele>
        <time>2015-06-26T08:35:18Z</time>
      </trkpt>
      <trkpt lat="46.21215" lon="6.77857">
        <ele>1654</ele>
        <time>2015-06-26T08:35:22Z</time>
      </trkpt>
      <trkpt lat="46.21236" lon="6.77826">
        <ele>1644</ele>
        <time>2015-06-26T08:35:28Z</time>
      </trkpt>
      <trkpt lat="46.21255" lon="6.77803">
        <ele>1655</ele>
        <time>2015-06-26T08:35:32Z</time>
      </trkpt>
      <trkpt lat="46.21267" lon="6.77778">
        <ele>1651</ele>
        <time>2015-06-26T08:35:36Z</time>
      </trkpt>
      <trkpt lat="46.21269" lon="6.77752">
        <ele>1645</ele>
        <time>2015-06-26T08:35:40Z</time>
      </trkpt>
      <trkpt lat="46.21257" lon="6.77745">
        <ele>1631</ele>
        <time>2015-06-26T08:35:44Z</time>
      </trkpt>
      <trkpt lat="46.21239" lon="6.7775">
        <ele>1622</ele>
        <time>2015-06-26T08:35:48Z</time>
      </trkpt>
      <trkpt lat="46.21216" lon="6.77761">
        <ele>1628</ele>
        <time>2015-06-26T08:35:52Z</time>
      </trkpt>
      <trkpt lat="46.21195" lon="6.77779">
        <ele>1627</ele>
        <time>2015-06-26T08:35:56Z</time>
      </trkpt>
      <trkpt lat="46.2117" lon="6.77789">
        <ele>1625</ele>
        <time>2015-06-26T08:36:00Z</time>
      </trkpt>
      <trkpt lat="46.21146" lon="6.77799">
        <ele>1609</ele>
        <time>2015-06-26T08:36:04Z</time>
      </trkpt>
      <trkpt lat="46.2112" lon="6.77812">
        <ele>1605</ele>
        <time>2015-06-26T08:36:08Z</time>
      </trkpt>
      <trkpt lat="46.21096" lon="6.7783">
        <ele>1600</ele>
        <time>2015-06-26T08:36:12Z</time>
      </trkpt>
      <trkpt lat="46.21058" lon="6.77857">
        <ele>1596</ele>
        <time>2015-06-26T08:36:18Z</time>
      </trkpt>
      <trkpt lat="46.21035" lon="6.77872">
        <ele>1594</ele>
        <time>2015-06-26T08:36:22Z</time>
      </trkpt>
      <trkpt lat="46.21007" lon="6.77899">
        <ele>1590</ele>
        <time>2015-06-26T08:36:26Z</time>
      </trkpt>
      <trkpt lat="46.20983" lon="6.77933">
        <ele>1579</ele>
        <time>2015-06-26T08:36:30Z</time>
      </trkpt>
      <trkpt lat="46.20961" lon="6.77967">
        <ele>1577</ele>
        <time>2015-06-26T08:36:34Z</time>
      </trkpt>
      <trkpt lat="46.20949" lon="6.77973">
        <ele>1575</ele>
        <time>2015-06-26T08:36:38Z</time>
      </trkpt>
      <trkpt lat="46.2095" lon="6.77973">
        <ele>1575</ele>
        <time>2015-06-26T08:36:42Z</time>
      </trkpt>
      <trkpt lat="46.20949" lon="6.77972">
        <ele>1575</ele>
        <time>2015-06-26T08:36:46Z</time>
      </trkpt>
      <trkpt lat="46.20945" lon="6.77976">
        <ele>1574</ele>
        <time>2015-06-26T08:36:50Z</time>
      </trkpt>
      <trkpt lat="46.20928" lon="6.77992">
        <ele>1570</ele>
        <time>2015-06-26T08:36:54Z</time>
      </trkpt>
      <trkpt lat="46.20902" lon="6.78013">
        <ele>1563</ele>
        <time>2015-06-26T08:36:58Z</time>
      </trkpt>
      <trkpt lat="46.20874" lon="6.78029">
        <ele>1560</ele>
        <time>2015-06-26T08:37:02Z</time>
      </trkpt>
      <trkpt lat="46.20847" lon="6.7804">
        <ele>1557</ele>
        <time>2015-06-26T08:37:06Z</time>
      </trkpt>
      <trkpt lat="46.20811" lon="6.78049">
        <ele>1543</ele>
        <time>2015-06-26T08:37:12Z</time>
      </trkpt>
      <trkpt lat="46.20786" lon="6.78048">
        <ele>1540</ele>
        <time>2015-06-26T08:37:16Z</time>
      </trkpt>
      <trkpt lat="46.20761" lon="6.78049">
        <ele>1538</ele>
        <time>2015-06-26T08:37:20Z</time>
      </trkpt>
      <trkpt lat="46.20736" lon="6.78062">
        <ele>1531</ele>
        <time>2015-06-26T08:37:24Z</time>
      </trkpt>
      <trkpt lat="46.20711" lon="6.78074">
        <ele>1529</ele>
        <time>2015-06-26T08:37:28Z</time>
      </trkpt>
      <trkpt lat="46.20706" lon="6.78056">
        <ele>1528</ele>
        <time>2015-06-26T08:37:32Z</time>
      </trkpt>
      <trkpt lat="46.20713" lon="6.78033">
        <ele>1527</ele>
        <time>2015-06-26T08:37:36Z</time>
      </trkpt>
      <trkpt lat="46.20727" lon="6.78001">
        <ele>1526</ele>
        <time>2015-06-26T08:37:40Z</time>
      </trkpt>
      <trkpt lat="46.20733" lon="6.77983">
        <ele>1520</ele>
        <time>2015-06-26T08:37:44Z</time>
      </trkpt>
      <trkpt lat="46.20739" lon="6.77963">
        <ele>1518</ele>
        <time>2015-06-26T08:37:48Z</time>
      </trkpt>
      <trkpt lat="46.20745" lon="6.77932">
        <ele>1515</ele>
        <time>2015-06-26T08:37:52Z</time>
      </trkpt>
      <trkpt lat="46.20745" lon="6.77904">
        <ele>1511</ele>
        <time>2015-06-26T08:37:56Z</time>
      </trkpt>
      <trkpt lat="46.20736" lon="6.77864">
        <ele>1508</ele>
        <time>2015-06-26T08:38:00Z</time>
      </trkpt>
      <trkpt lat="46.2071" lon="6.778">
        <ele>1502</ele>
        <time>2015-06-26T08:38:06Z</time>
      </trkpt>
      <trkpt lat="46.207" lon="6.77763">
        <ele>1501</ele>
        <time>2015-06-26T08:38:10Z</time>
      </trkpt>
      <trkpt lat="46.20711" lon="6.77739">
        <ele>1500</ele>
        <time>2015-06-26T08:38:14Z</time>
      </trkpt>
      <trkpt lat="46.20733" lon="6.77705">
        <ele>1500</ele>
        <time>2015-06-26T08:38:18Z</time>
      </trkpt>
      <trkpt lat="46.20748" lon="6.77692">
        <ele>1500</ele>
        <time>2015-06-26T08:38:22Z</time>
      </trkpt>
      <trkpt lat="46.20761" lon="6.77679">
        <ele>1502</ele>
        <time>2015-06-26T08:38:26Z</time>
      </trkpt>
      <trkpt lat="46.19671" lon="6.77307">
        <ele>1860</ele>
        <time>2015-06-26T08:38:30Z</time>
      </trkpt>
      <trkpt lat="46.19666" lon="6.77314">
        <ele>1865</ele>
        <time>2015-06-26T08:38:34Z</time>
      </trkpt>
      <trkpt lat="46.19652" lon="6.77315">
        <ele>1864</ele>
        <time>2015-06-26T08:38:38Z</time>
      </trkpt>
      <trkpt lat="46.19636" lon="6.77312">
        <ele>1864</ele>
        <time>2015-06-26T08:38:42Z</time>
      </trkpt>
      <trkpt lat="46.19623" lon="6.77305">
        <ele>1863</ele>
        <time>2015-06-26T08:38:46Z</time>
      </trkpt>
      <trkpt lat="46.19605" lon="6.77308">
        <ele>1863</ele>
        <time>2015-06-26T08:38:50Z</time>
      </trkpt>
      <trkpt lat="46.19577" lon="6.77309">
        <ele>1859</ele>
        <time>2015-06-26T08:38:54Z</time>
      </trkpt>
      <trkpt lat="46.19524" lon="6.77303">
        <ele>1854</ele>
        <time>2015-06-26T08:39:00Z</time>
      </trkpt>
      <trkpt lat="46.19485" lon="6.77298">
        <ele>1845</ele>
        <time>2015-06-26T08:39:04Z</time>
      </trkpt>
      <trkpt lat="46.19447" lon="6.77285">
        <ele>1841</ele>
        <time>2015-06-26T08:39:08Z</time>
      </trkpt>
      <trkpt lat="46.19419" lon="6.7728">
        <ele>1839</ele>
        <time>2015-06-26T08:39:12Z</time>
      </trkpt>
      <trkpt lat="46.19404" lon="6.77276">
        <ele>1834</ele>
        <time>2015-06-26T08:39:16Z</time>
      </trkpt>
      <trkpt lat="46.19409" lon="6.7726">
        <ele>1834</ele>
        <time>2015-06-26T08:39:20Z</time>
      </trkpt>
      <trkpt lat="46.19422" lon="6.77245">
        <ele>1834</ele>
        <time>2015-06-26T08:39:24Z</time>
      </trkpt>
      <trkpt lat="46.19436" lon="6.77222">
        <ele>1834</ele>
        <time>2015-06-26T08:39:28Z</time>
      </trkpt>
      <trkpt lat="46.19452" lon="6.77197">
        <ele>1833</ele>
        <time>2015-06-26T08:39:32Z</time>
      </trkpt>
      <trkpt lat="46.19467" lon="6.77169">
        <ele>1833</ele>
        <time>2015-06-26T08:39:36Z</time>
      </trkpt>
      <trkpt lat="46.1948" lon="6.77137">
        <ele>1830</ele>
        <time>2015-06-26T08:39:40Z</time>
      </trkpt>
      <trkpt lat="46.19492" lon="6.77103">
        <ele>1829</ele>
        <time>2015-06-26T08:39:44Z</time>
      </trkpt>
      <trkpt lat="46.19511" lon="6.7705">
        <ele>1828</ele>
        <time>2015-06-26T08:39:50Z</time>
      </trkpt>
      <trkpt lat="46.19522" lon="6.77015">
        <ele>1827</ele>
        <time>2015-06-26T08:39:54Z</time>
      </trkpt>
      <trkpt lat="46.19532" lon="6.76979">
        <ele>1824</ele>
        <time>2015-06-26T08:39:58Z</time>
      </trkpt>
      <trkpt lat="46.19539" lon="6.7694">
        <ele>1823</ele>
        <time>2015-06-26T08:40:02Z</time>
      </trkpt>
      <trkpt lat="46.19542" lon="6.76901">
        <ele>1821</ele>
        <time>2015-06-26T08:40:06Z</time>
      </trkpt>
      <trkpt lat="46.19549" lon="6.76864">
        <ele>1821</ele>
        <time>2015-06-26T08:40:10Z</time>
      </trkpt>
      <trkpt lat="46.19567" lon="6.76831">
        <ele>1818</ele>
        <time>2015-06-26T08:40:14Z</time>
      </trkpt>
      <trkpt lat="46.19592" lon="6.7681">
        <ele>1818</ele>
        <time>2015-06-26T08:40:18Z</time>
      </trkpt>
      <trkpt lat="46.19609" lon="6.76794">
        <ele>1817</ele>
        <time>2015-06-26T08:40:22Z</time>
      </trkpt>
      <trkpt lat="46.19617" lon="6.76777">
        <ele>1816</ele>
        <time>2015-06-26T08:40:26Z</time>
      </trkpt>
      <trkpt lat="46.19623" lon="6.76746">
        <ele>1808</ele>
        <time>2015-06-26T08:40:30Z</time>
      </trkpt>
      <trkpt lat="46.19626" lon="6.76717">
        <ele>1805</ele>
        <time>2015-06-26T08:40:34Z</time>
      </trkpt>
      <trkpt lat="46.19639" lon="6.76699">
        <ele>1804</ele>
        <time>2015-06-26T08:40:38Z</time>
      </trkpt>
      <trkpt lat="46.19675" lon="6.76675">
        <ele>1804</ele>
        <time>2015-06-26T08:40:44Z</time>
      </trkpt>
      <trkpt lat="46.19698" lon="6.76667">
        <ele>1806</ele>
        <time>2015-06-26T08:40:48Z</time>
      </trkpt>
      <trkpt lat="46.19723" lon="6.76657">
        <ele>1794</ele>
        <time>2015-06-26T08:40:52Z</time>
      </trkpt>
      <trkpt lat="46.19749" lon="6.76639">
        <ele>1793</ele>
        <time>2015-06-26T08:40:56Z</time>
      </trkpt>
      <trkpt lat="46.19774" lon="6.7662">
        <ele>1794</ele>
        <time>2015-06-26T08:41:00Z</time>
      </trkpt>
      <trkpt lat="46.19798" lon="6.76603">
        <ele>1793</ele>
        <time>2015-06-26T08:41:04Z</time>
      </trkpt>
      <trkpt lat="46.19824" lon="6.76586">
        <ele>1791</ele>
        <time>2015-06-26T08:41:08Z</time>
      </trkpt>
      <trkpt lat="46.19847" lon="6.76561">
        <ele>1783</ele>
        <time>2015-06-26T08:41:12Z</time>
      </trkpt>
      <trkpt lat="46.19861" lon="6.76523">
        <ele>1779</ele>
        <time>2015-06-26T08:41:16Z</time>
      </trkpt>
      <trkpt lat="46.19871" lon="6.76476">
        <ele>1775</ele>
        <time>2015-06-26T08:41:20Z</time>
      </trkpt>
      <trkpt lat="46.19875" lon="6.76432">
        <ele>1775</ele>
        <time>2015-06-26T08:41:24Z</time>
      </trkpt>
      <trkpt lat="46.1988" lon="6.76388">
        <ele>1772</ele>
        <time>2015-06-26T08:41:28Z</time>
      </trkpt>
      <trkpt lat="46.19883" lon="6.76343">
        <ele>1771</ele>
        <time>2015-06-26T08:41:32Z</time>
      </trkpt>
      <trkpt lat="46.19886" lon="6.76271">
        <ele>1767</ele>
        <time>2015-06-26T08:41:38Z</time>
      </trkpt>
      <trkpt lat="46.19889" lon="6.76225">
        <ele>1764</ele>
        <time>2015-06-26T08:41:42Z</time>
      </trkpt>
      <trkpt lat="46.19896" lon="6.76176">
        <ele>1764</ele>
        <time>2015-06-26T08:41:46Z</time>
      </trkpt>
      <trkpt lat="46.19909" lon="6.76127">
        <ele>1759</ele>
        <time>2015-06-26T08:41:50Z</time>
      </trkpt>
      <trkpt lat="46.19923" lon="6.76079">
        <ele>1760</ele>
        <time>2015-06-26T08:41:54Z</time>
      </trkpt>
      <trkpt lat="46.19935" lon="6.76034">
        <ele>1756</ele>
        <time>2015-06-26T08:41:58Z</time>
      </trkpt>
      <trkpt lat="46.19947" lon="6.75992">
        <ele>1754</ele>
        <time>2015-06-26T08:42:02Z</time>
      </trkpt>
      <trkpt lat="46.19958" lon="6.75948">
        <ele>1754</ele>
        <time>2015-06-26T08:42:06Z</time>
      </trkpt>
      <trkpt lat="46.19972" lon="6.75905">
        <ele>1753</ele>
        <time>2015-06-26T08:42:10Z</time>
      </trkpt>
      <trkpt lat="46.19989" lon="6.75869">
        <ele>1753</ele>
        <time>2015-06-26T08:42:14Z</time>
      </trkpt>
      <trkpt lat="46.20008" lon="6.75842">
        <ele>1756</ele>
        <time>2015-06-26T08:42:18Z</time>
      </trkpt>
      <trkpt lat="46.20018" lon="6.75819">
        <ele>1756</ele>
        <time>2015-06-26T08:42:22Z</time>
      </trkpt>
      <trkpt lat="46.20034" lon="6.75804">
        <ele>1757</ele>
        <time>2015-06-26T08:42:26Z</time>
      </trkpt>
      <trkpt lat="46.20056" lon="6.75782">
        <ele>1758</ele>
        <time>2015-06-26T08:42:32Z</time>
      </trkpt>
      <trkpt lat="46.20065" lon="6.75766">
        <ele>1759</ele>
        <time>2015-06-26T08:42:36Z</time>
      </trkpt>
      <trkpt lat="46.20073" lon="6.75748">
        <ele>1759</ele>
        <time>2015-06-26T08:42:40Z</time>
      </trkpt>
      <trkpt lat="46.20082" lon="6.75727">
        <ele>1757</ele>
        <time>2015-06-26T08:42:44Z</time>
      </trkpt>
      <trkpt lat="46.2009" lon="6.75705">
        <ele>1765</ele>
        <time>2015-06-26T08:42:48Z</time>
      </trkpt>
      <trkpt lat="46.20097" lon="6.75676">
        <ele>1763</ele>
        <time>2015-06-26T08:42:52Z</time>
      </trkpt>
      <trkpt lat="46.20101" lon="6.75649">
        <ele>1763</ele>
        <time>2015-06-26T08:42:56Z</time>
      </trkpt>
      <trkpt lat="46.20103" lon="6.75621">
        <ele>1764</ele>
        <time>2015-06-26T08:43:00Z</time>
      </trkpt>
      <trkpt lat="46.20104" lon="6.75591">
        <ele>1762</ele>
        <time>2015-06-26T08:43:04Z</time>
      </trkpt>
      <trkpt lat="46.20103" lon="6.7556">
        <ele>1761</ele>
        <time>2015-06-26T08:43:08Z</time>
      </trkpt>
      <trkpt lat="46.20103" lon="6.75527">
        <ele>1761</ele>
        <time>2015-06-26T08:43:12Z</time>
      </trkpt>
      <trkpt lat="46.20104" lon="6.75493">
        <ele>1758</ele>
        <time>2015-06-26T08:43:16Z</time>
      </trkpt>
      <trkpt lat="46.2011" lon="6.75444">
        <ele>1759</ele>
        <time>2015-06-26T08:43:22Z</time>
      </trkpt>
      <trkpt lat="46.20114" lon="6.75408">
        <ele>1757</ele>
        <time>2015-06-26T08:43:26Z</time>
      </trkpt>
      <trkpt lat="46.20117" lon="6.75372">
        <ele>1757</ele>
        <time>2015-06-26T08:43:30Z</time>
      </trkpt>
      <trkpt lat="46.20122" lon="6.75338">
        <ele>1757</ele>
        <time>2015-06-26T08:43:34Z</time>
      </trkpt>
      <trkpt lat="46.20126" lon="6.75303">
        <ele>1755</ele>
        <time>2015-06-26T08:43:38Z</time>
      </trkpt>
      <trkpt lat="46.20129" lon="6.75266">
        <ele>1755</ele>
        <time>2015-06-26T08:43:42Z</time>
      </trkpt>
      <trkpt lat="46.20129" lon="6.75235">
        <ele>1752</ele>
        <time>2015-06-26T08:43:46Z</time>
      </trkpt>
      <trkpt lat="46.2013" lon="6.75198">
        <ele>1751</ele>
        <time>2015-06-26T08:43:50Z</time>
      </trkpt>
      <trkpt lat="46.20129" lon="6.7516">
        <ele>1751</ele>
        <time>2015-06-26T08:43:54Z</time>
      </trkpt>
      <trkpt lat="46.20125" lon="6.75124">
        <ele>1750</ele>
        <time>2015-06-26T08:43:58Z</time>
      </trkpt>
      <trkpt lat="46.2012" lon="6.75091">
        <ele>1749</ele>
        <time>2015-06-26T08:44:02Z</time>
      </trkpt>
      <trkpt lat="46.20116" lon="6.75057">
        <ele>1748</ele>
        <time>2015-06-26T08:44:06Z</time>
      </trkpt>
      <trkpt lat="46.20112" lon="6.75022">
        <ele>1747</ele>
        <time>2015-06-26T08:44:10Z</time>
      </trkpt>
      <trkpt lat="46.201" lon="6.74966">
        <ele>1743</ele>
        <time>2015-06-26T08:44:16Z</time>
      </trkpt>
      <trkpt lat="46.20096" lon="6.74926">
        <ele>1742</ele>
        <time>2015-06-26T08:44:20Z</time>
      </trkpt>
      <trkpt lat="46.20094" lon="6.74886">
        <ele>1738</ele>
        <time>2015-06-26T08:44:24Z</time>
      </trkpt>
      <trkpt lat="46.20091" lon="6.74846">
        <ele>1740</ele>
        <time>2015-06-26T08:44:28Z</time>
      </trkpt>
      <trkpt lat="46.20088" lon="6.74805">
        <ele>1736</ele>
        <time>2015-06-26T08:44:32Z</time>
      </trkpt>
      <trkpt lat="46.20084" lon="6.74765">
        <ele>1738</ele>
        <time>2015-06-26T08:44:36Z</time>
      </trkpt>
      <trkpt lat="46.20078" lon="6.74736">
        <ele>1738</ele>
        <time>2015-06-26T08:44:40Z</time>
      </trkpt>
      <trkpt lat="46.20071" lon="6.74728">
        <ele>1736</ele>
        <time>2015-06-26T08:44:44Z</time>
      </trkpt>
      <trkpt lat="46.20068" lon="6.74724">
        <ele>1736</ele>
        <time>2015-06-26T08:44:48Z</time>
      </trkpt>
      <trkpt lat="46.20057" lon="6.74702">
        <ele>1734</ele>
        <time>2015-06-26T08:44:52Z</time>
      </trkpt>
      <trkpt lat="46.20045" lon="6.74674">
        <ele>1733</ele>
        <time>2015-06-26T08:44:56Z</time>
      </trkpt>
      <trkpt lat="46.20032" lon="6.74638">
        <ele>1733</ele>
        <time>2015-06-26T08:45:00Z</time>
      </trkpt>
      <trkpt lat="46.2002" lon="6.74604">
        <ele>1732</ele>
        <time>2015-06-26T08:45:04Z</time>
      </trkpt>
      <trkpt lat="46.19997" lon="6.74562">
        <ele>1724</ele>
        <time>2015-06-26T08:45:10Z</time>
      </trkpt>
      <trkpt lat="46.19974" lon="6.74534">
        <ele>1723</ele>
        <time>2015-06-26T08:45:14Z</time>
      </trkpt>
      <trkpt lat="46.19963" lon="6.74502">
        <ele>1723</ele>
        <time>2015-06-26T08:45:18Z</time>
      </trkpt>
      <trkpt lat="46.19952" lon="6.74478">
        <ele>1728</ele>
        <time>2015-06-26T08:45:22Z</time>
      </trkpt>
      <trkpt lat="46.19941" lon="6.74463">
        <ele>1728</ele>
        <time>2015-06-26T08:45:26Z</time>
      </trkpt>
      <trkpt lat="46.19931" lon="6.74443">
        <ele>1728</ele>
        <time>2015-06-26T08:45:30Z</time>
      </trkpt>
      <trkpt lat="46.1992" lon="6.7442">
        <ele>1725</ele>
        <time>2015-06-26T08:45:34Z</time>
      </trkpt>
      <trkpt lat="46.19911" lon="6.74393">
        <ele>1717</ele>
        <time>2015-06-26T08:45:38Z</time>
      </trkpt>
      <trkpt lat="46.19903" lon="6.74365">
        <ele>1716</ele>
        <time>2015-06-26T08:45:42Z</time>
      </trkpt>
      <trkpt lat="46.19895" lon="6.74343">
        <ele>1716</ele>
        <time>2015-06-26T08:45:46Z</time>
      </trkpt>
      <trkpt lat="46.19893" lon="6.74327">
        <ele>1720</ele>
        <time>2015-06-26T08:45:50Z</time>
      </trkpt>
      <trkpt lat="46.19872" lon="6.74318">
        <ele>1716</ele>
        <time>2015-06-26T08:45:54Z</time>
      </trkpt>
      <trkpt lat="46.19842" lon="6.74302">
        <ele>1713</ele>
        <time>2015-06-26T08:46:00Z</time>
      </trkpt>
      <trkpt lat="46.19824" lon="6.7428">
        <ele>1698</ele>
        <time>2015-06-26T08:46:04Z</time>
      </trkpt>
      <trkpt lat="46.19807" lon="6.74252">
        <ele>1698</ele>
        <time>2015-06-26T08:46:08Z</time>
      </trkpt>
      <trkpt lat="46.19788" lon="6.74224">
        <ele>1701</ele>
        <time>2015-06-26T08:46:12Z</time>
      </trkpt>
      <trkpt lat="46.19773" lon="6.74205">
        <ele>1701</ele>
        <time>2015-06-26T08:46:16Z</time>
      </trkpt>
      <trkpt lat="46.19759" lon="6.74183">
        <ele>1700</ele>
        <time>2015-06-26T08:46:20Z</time>
      </trkpt>
      <trkpt lat="46.19745" lon="6.74155">
        <ele>1694</ele>
        <time>2015-06-26T08:46:24Z</time>
      </trkpt>
      <trkpt lat="46.19734" lon="6.7413">
        <ele>1692</ele>
        <time>2015-06-26T08:46:28Z</time>
      </trkpt>
      <trkpt lat="46.19728" lon="6.74117">
        <ele>1692</ele>
        <time>2015-06-26T08:46:32Z</time>
      </trkpt>
      <trkpt lat="46.19723" lon="6.74111">
        <ele>1692</ele>
        <time>2015-06-26T08:46:36Z</time>
      </trkpt>
      <trkpt lat="46.19713" lon="6.74096">
        <ele>1691</ele>
        <time>2015-06-26T08:46:40Z</time>
      </trkpt>
      <trkpt lat="46.197" lon="6.74078">
        <ele>1696</ele>
        <time>2015-06-26T08:46:44Z</time>
      </trkpt>
      <trkpt lat="46.19686" lon="6.74058">
        <ele>1695</ele>
        <time>2015-06-26T08:46:48Z</time>
      </trkpt>
      <trkpt lat="46.19665" lon="6.74016">
        <ele>1683</ele>
        <time>2015-06-26T08:46:54Z</time>
      </trkpt>
      <trkpt lat="46.19653" lon="6.73991">
        <ele>1688</ele>
        <time>2015-06-26T08:46:58Z</time>
      </trkpt>
      <trkpt lat="46.19639" lon="6.73958">
        <ele>1685</ele>
        <time>2015-06-26T08:47:02Z</time>
      </trkpt>
      <trkpt lat="46.19626" lon="6.73923">
        <ele>1685</ele>
        <time>2015-06-26T08:47:06Z</time>
      </trkpt>
      <trkpt lat="46.19602" lon="6.73891">
        <ele>1690</ele>
        <time>2015-06-26T08:47:10Z</time>
      </trkpt>
      <trkpt lat="46.19575" lon="6.73874">
        <ele>1676</ele>
        <time>2015-06-26T08:47:14Z</time>
      </trkpt>
      <trkpt lat="46.19546" lon="6.7386">
        <ele>1674</ele>
        <time>2015-06-26T08:47:18Z</time>
      </trkpt>
      <trkpt lat="46.19525" lon="6.73832">
        <ele>1679</ele>
        <time>2015-06-26T08:47:22Z</time>
      </trkpt>
      <trkpt lat="46.19514" lon="6.73805">
        <ele>1680</ele>
        <time>2015-06-26T08:47:26Z</time>
      </trkpt>
      <trkpt lat="46.19501" lon="6.7378">
        <ele>1682</ele>
        <time>2015-06-26T08:47:30Z</time>
      </trkpt>
      <trkpt lat="46.19487" lon="6.73758">
        <ele>1670</ele>
        <time>2015-06-26T08:47:34Z</time>
      </trkpt>
      <trkpt lat="46.19479" lon="6.73735">
        <ele>1673</ele>
        <time>2015-06-26T08:47:38Z</time>
      </trkpt>
      <trkpt lat="46.19463" lon="6.73725">
        <ele>1670</ele>
        <time>2015-06-26T08:47:42Z</time>
      </trkpt>
      <trkpt lat="46.19436" lon="6.73699">
        <ele>1668</ele>
        <time>2015-06-26T08:47:48Z</time>
      </trkpt>
      <trkpt lat="46.19419" lon="6.73676">
        <ele>1665</ele>
        <time>2015-06-26T08:47:52Z</time>
      </trkpt>
      <trkpt lat="46.19403" lon="6.73647">
        <ele>1656</ele>
        <time>2015-06-26T08:47:56Z</time>
      </trkpt>
      <trkpt lat="46.19392" lon="6.73623">
        <ele>1655</ele>
        <time>2015-06-26T08:48:00Z</time>
      </trkpt>
      <trkpt lat="46.19381" lon="6.736">
        <ele>1654</ele>
        <time>2015-06-26T08:48:04Z</time>
      </trkpt>
      <trkpt lat="46.19369" lon="6.73573">
        <ele>1658</ele>
        <time>2015-06-26T08:48:08Z</time>
      </trkpt>
      <trkpt lat="46.19359" lon="6.73544">
        <ele>1658</ele>
        <time>2015-06-26T08:48:12Z</time>
      </trkpt>
      <trkpt lat="46.1935" lon="6.73516">
        <ele>1657</ele>
        <time>2015-06-26T08:48:16Z</time>
      </trkpt>
      <trkpt lat="46.19342" lon="6.73491">
        <ele>1657</ele>
        <time>2015-06-26T08:48:20Z</time>
      </trkpt>
      <trkpt lat="46.19325" lon="6.7347">
        <ele>1644</ele>
        <time>2015-06-26T08:48:24Z</time>
      </trkpt>
      <trkpt lat="46.19303" lon="6.73446">
        <ele>1642</ele>
        <time>2015-06-26T08:48:28Z</time>
      </trkpt>
      <trkpt lat="46.19283" lon="6.73415">
        <ele>1644</ele>
        <time>2015-06-26T08:48:32Z</time>
      </trkpt>
      <trkpt lat="46.1927" lon="6.73387">
        <ele>1643</ele>
        <time>2015-06-26T08:48:36Z</time>
      </trkpt>
      <trkpt lat="46.19257" lon="6.73351">
        <ele>1642</ele>
        <time>2015-06-26T08:48:42Z</time>
      </trkpt>
      <trkpt lat="46.19253" lon="6.73334">
        <ele>1638</ele>
        <time>2015-06-26T08:48:46Z</time>
      </trkpt>
      <trkpt lat="46.19252" lon="6.73329">
        <ele>1639</ele>
        <time>2015-06-26T08:48:50Z</time>
      </trkpt>
      <trkpt lat="46.19247" lon="6.73315">
        <ele>1634</ele>
        <time>2015-06-26T08:48:54Z</time>
      </trkpt>
      <trkpt lat="46.19242" lon="6.73294">
        <ele>1633</ele>
        <time>2015-06-26T08:48:58Z</time>
      </trkpt>
      <trkpt lat="46.19237" lon="6.73264">
        <ele>1635</ele>
        <time>2015-06-26T08:49:02Z</time>
      </trkpt>
      <trkpt lat="46.19232" lon="6.73228">
        <ele>1636</ele>
        <time>2015-06-26T08:49:06Z</time>
      </trkpt>
      <trkpt lat="46.19226" lon="6.73195">
        <ele>1636</ele>
        <time>2015-06-26T08:49:10Z</time>
      </trkpt>
      <trkpt lat="46.19225" lon="6.73161">
        <ele>1639</ele>
        <time>2015-06-26T08:49:14Z</time>
      </trkpt>
      <trkpt lat="46.19224" lon="6.73129">
        <ele>1637</ele>
        <time>2015-06-26T08:49:18Z</time>
      </trkpt>
      <trkpt lat="46.19225" lon="6.73092">
        <ele>1639</ele>
        <time>2015-06-26T08:49:22Z</time>
      </trkpt>
      <trkpt lat="46.19224" lon="6.73058">
        <ele>1636</ele>
        <time>2015-06-26T08:49:26Z</time>
      </trkpt>
      <trkpt lat="46.19228" lon="6.73004">
        <ele>1637</ele>
        <time>2015-06-26T08:49:32Z</time>
      </trkpt>
      <trkpt lat="46.19231" lon="6.72956">
        <ele>1631</ele>
        <time>2015-06-26T08:49:36Z</time>
      </trkpt>
      <trkpt lat="46.19233" lon="6.72904">
        <ele>1627</ele>
        <time>2015-06-26T08:49:40Z</time>
      </trkpt>
      <trkpt lat="46.19236" lon="6.72847">
        <ele>1624</ele>
        <time>2015-06-26T08:49:44Z</time>
      </trkpt>
      <trkpt lat="46.19237" lon="6.72793">
        <ele>1618</ele>
        <time>2015-06-26T08:49:48Z</time>
      </trkpt>
      <trkpt lat="46.19242" lon="6.72743">
        <ele>1619</ele>
        <time>2015-06-26T08:49:52Z</time>
      </trkpt>
      <trkpt lat="46.19247" lon="6.7269">
        <ele>1614</ele>
        <time>2015-06-26T08:49:56Z</time>
      </trkpt>
      <trkpt lat="46.19247" lon="6.7264">
        <ele>1612</ele>
        <time>2015-06-26T08:50:00Z</time>
      </trkpt>
      <trkpt lat="46.19239" lon="6.72589">
        <ele>1612</ele>
        <time>2015-06-26T08:50:04Z</time>
      </trkpt>
      <trkpt lat="46.1924" lon="6.72543">
        <ele>1608</ele>
        <time>2015-06-26T08:50:08Z</time>
      </trkpt>
      <trkpt lat="46.19249" lon="6.72497">
        <ele>1611</ele>
        <time>2015-06-26T08:50:12Z</time>
      </trkpt>
      <trkpt lat="46.19257" lon="6.72463">
        <ele>1614</ele>
        <time>2015-06-26T08:50:16Z</time>
      </trkpt>
      <trkpt lat="46.19271" lon="6.72433">
        <ele>1613</ele>
        <time>2015-06-26T08:50:20Z</time>
      </trkpt>
      <trkpt lat="46.19301" lon="6.72385">
        <ele>1610</ele>
        <time>2015-06-26T08:50:26Z</time>
      </trkpt>
      <trkpt lat="46.19321" lon="6.72358">
        <ele>1611</ele>
        <time>2015-06-26T08:50:30Z</time>
      </trkpt>
      <trkpt lat="46.1934" lon="6.7234">
        <ele>1615</ele>
        <time>2015-06-26T08:50:34Z</time>
      </trkpt>
      <trkpt lat="46.19354" lon="6.7233">
        <ele>1611</ele>
        <time>2015-06-26T08:50:38Z</time>
      </trkpt>
      <trkpt lat="46.19366" lon="6.72323">
        <ele>1611</ele>
        <time>2015-06-26T08:50:42Z</time>
      </trkpt>
      <trkpt lat="46.19375" lon="6.7232">
        <ele>1612</ele>
        <time>2015-06-26T08:50:46Z</time>
      </trkpt>
      <trkpt lat="46.19383" lon="6.72317">
        <ele>1612</ele>
        <time>2015-06-26T08:50:50Z</time>
      </trkpt>
      <trkpt lat="46.19393" lon="6.72322">
        <ele>1613</ele>
        <time>2015-06-26T08:50:54Z</time>
      </trkpt>
      <trkpt lat="46.19401" lon="6.72327">
        <ele>1615</ele>
        <time>2015-06-26T08:50:58Z</time>
      </trkpt>
      <trkpt lat="46.19408" lon="6.72316">
        <ele>1614</ele>
        <time>2015-06-26T08:51:02Z</time>
      </trkpt>
      <trkpt lat="46.19414" lon="6.72309">
        <ele>1614</ele>
        <time>2015-06-26T08:51:06Z</time>
      </trkpt>
      <trkpt lat="46.1942" lon="6.72305">
        <ele>1614</ele>
        <time>2015-06-26T08:51:10Z</time>
      </trkpt>
      <trkpt lat="46.19422" lon="6.72305">
        <ele>1614</ele>
        <time>2015-06-26T08:51:14Z</time>
      </trkpt>
      <trkpt lat="46.19424" lon="6.72277">
        <ele>1610</ele>
        <time>2015-06-26T08:51:20Z</time>
      </trkpt>
      <trkpt lat="46.1941" lon="6.72274">
        <ele>1609</ele>
        <time>2015-06-26T08:51:24Z</time>
      </trkpt>
      <trkpt lat="46.19408" lon="6.72261">
        <ele>1609</ele>
        <time>2015-06-26T08:51:28Z</time>
      </trkpt>
      <trkpt lat="46.19406" lon="6.72249">
        <ele>1603</ele>
        <time>2015-06-26T08:51:32Z</time>
      </trkpt>
      <trkpt lat="46.19392" lon="6.72243">
        <ele>1599</ele>
        <time>2015-06-26T08:51:36Z</time>
      </trkpt>
      <trkpt lat="46.19407" lon="6.72223">
        <ele>1598</ele>
        <time>2015-06-26T08:51:40Z</time>
      </trkpt>
      <trkpt lat="46.19411" lon="6.72208">
        <ele>1596</ele>
        <time>2015-06-26T08:51:44Z</time>
      </trkpt>
      <trkpt lat="46.19397" lon="6.72206">
        <ele>1595</ele>
        <time>2015-06-26T08:51:48Z</time>
      </trkpt>
      <trkpt lat="46.19377" lon="6.72199">
        <ele>1593</ele>
        <time>2015-06-26T08:51:52Z</time>
      </trkpt>
      <trkpt lat="46.19368" lon="6.72188">
        <ele>1591</ele>
        <time>2015-06-26T08:51:56Z</time>
      </trkpt>
      <trkpt lat="46.19379" lon="6.72174">
        <ele>1591</ele>
        <time>2015-06-26T08:52:00Z</time>
      </trkpt>
      <trkpt lat="46.19367" lon="6.72166">
        <ele>1579</ele>
        <time>2015-06-26T08:52:04Z</time>
      </trkpt>
      <trkpt lat="46.19368" lon="6.72153">
        <ele>1579</ele>
        <time>2015-06-26T08:52:08Z</time>
      </trkpt>
      <trkpt lat="46.19379" lon="6.72143">
        <ele>1579</ele>
        <time>2015-06-26T08:52:14Z</time>
      </trkpt>
      <trkpt lat="46.19367" lon="6.72135">
        <ele>1577</ele>
        <time>2015-06-26T08:52:18Z</time>
      </trkpt>
      <trkpt lat="46.19349" lon="6.72143">
        <ele>1578</ele>
        <time>2015-06-26T08:52:22Z</time>
      </trkpt>
      <trkpt lat="46.19332" lon="6.72155">
        <ele>1573</ele>
        <time>2015-06-26T08:52:26Z</time>
      </trkpt>
      <trkpt lat="46.19328" lon="6.7214">
        <ele>1568</ele>
        <time>2015-06-26T08:52:30Z</time>
      </trkpt>
      <trkpt lat="46.19337" lon="6.72124">
        <ele>1575</ele>
        <time>2015-06-26T08:52:34Z</time>
      </trkpt>
      <trkpt lat="46.19346" lon="6.72113">
        <ele>1574</ele>
        <time>2015-06-26T08:52:38Z</time>
      </trkpt>
      <trkpt lat="46.1936" lon="6.72109">
        <ele>1574</ele>
        <time>2015-06-26T08:52:42Z</time>
      </trkpt>
      <trkpt lat="46.19358" lon="6.72106">
        <ele>1574</ele>
        <time>2015-06-26T08:52:46Z</time>
      </trkpt>
      <trkpt lat="46.19366" lon="6.72097">
        <ele>1573</ele>
        <time>2015-06-26T08:52:50Z</time>
      </trkpt>
      <trkpt lat="46.19383" lon="6.72094">
        <ele>1574</ele>
        <time>2015-06-26T08:52:54Z</time>
      </trkpt>
      <trkpt lat="46.19399" lon="6.72089">
        <ele>1572</ele>
        <time>2015-06-26T08:52:58Z</time>
      </trkpt>
      <trkpt lat="46.19427" lon="6.72081">
        <ele>1563</ele>
        <time>2015-06-26T08:53:04Z</time>
      </trkpt>
      <trkpt lat="46.19421" lon="6.72065">
        <ele>1560</ele>
        <time>2015-06-26T08:53:08Z</time>
      </trkpt>
      <trkpt lat="46.19416" lon="6.7206">
        <ele>1559</ele>
        <time>2015-06-26T08:53:12Z</time>
      </trkpt>
      <trkpt lat="46.19407" lon="6.72063">
        <ele>1559</ele>
        <time>2015-06-26T08:53:16Z</time>
      </trkpt>
      <trkpt lat="46.19387" lon="6.72049">
        <ele>1555</ele>
        <time>2015-06-26T08:53:20Z</time>
      </trkpt>
      <trkpt lat="46.19367" lon="6.72019">
        <ele>1550</ele>
        <time>2015-06-26T08:53:24Z</time>
      </trkpt>
      <trkpt lat="46.19346" lon="6.71995">
        <ele>1533</ele>
        <time>2015-06-26T08:53:28Z</time>
      </trkpt>
      <trkpt lat="46.19328" lon="6.71977">
        <ele>1524</ele>
        <time>2015-06-26T08:53:32Z</time>
      </trkpt>
      <trkpt lat="46.19326" lon="6.71964">
        <ele>1520</ele>
        <time>2015-06-26T08:53:36Z</time>
      </trkpt>
      <trkpt lat="46.19337" lon="6.71955">
        <ele>1523</ele>
        <time>2015-06-26T08:53:40Z</time>
      </trkpt>
      <trkpt lat="46.19356" lon="6.71943">
        <ele>1521</ele>
        <time>2015-06-26T08:53:44Z</time>
      </trkpt>
      <trkpt lat="46.19371" lon="6.71934">
        <ele>1521</ele>
        <time>2015-06-26T08:53:48Z</time>
      </trkpt>
      <trkpt lat="46.19388" lon="6.71938">
        <ele>1521</ele>
        <time>2015-06-26T08:53:52Z</time>
      </trkpt>
      <trkpt lat="46.19421" lon="6.71938">
        <ele>1521</ele>
        <time>2015-06-26T08:53:58Z</time>
      </trkpt>
      <trkpt lat="46.19443" lon="6.71923">
        <ele>1521</ele>
        <time>2015-06-26T08:54:02Z</time>
      </trkpt>
      <trkpt lat="46.19467" lon="6.71912">
        <ele>1505</ele>
        <time>2015-06-26T08:54:06Z</time>
      </trkpt>
      <trkpt lat="46.19494" lon="6.71903">
        <ele>1507</ele>
        <time>2015-06-26T08:54:10Z</time>
      </trkpt>
      <trkpt lat="46.19513" lon="6.71892">
        <ele>1504</ele>
        <time>2015-06-26T08:54:14Z</time>
      </trkpt>
      <trkpt lat="46.19533" lon="6.71874">
        <ele>1499</ele>
        <time>2015-06-26T08:54:18Z</time>
      </trkpt>
      <trkpt lat="46.19552" lon="6.71859">
        <ele>1497</ele>
        <time>2015-06-26T08:54:22Z</time>
      </trkpt>
      <trkpt lat="46.19573" lon="6.71849">
        <ele>1495</ele>
        <time>2015-06-26T08:54:26Z</time>
      </trkpt>
      <trkpt lat="46.1959" lon="6.71837">
        <ele>1493</ele>
        <time>2015-06-26T08:54:30Z</time>
      </trkpt>
      <trkpt lat="46.19605" lon="6.71823">
        <ele>1486</ele>
        <time>2015-06-26T08:54:34Z</time>
      </trkpt>
      <trkpt lat="46.19615" lon="6.71801">
        <ele>1484</ele>
        <time>2015-06-26T08:54:38Z</time>
      </trkpt>
      <trkpt lat="46.19636" lon="6.71785">
        <ele>1483</ele>
        <time>2015-06-26T08:54:42Z</time>
      </trkpt>
      <trkpt lat="46.19659" lon="6.71777">
        <ele>1482</ele>
        <time>2015-06-26T08:54:46Z</time>
      </trkpt>
      <trkpt lat="46.19671" lon="6.71755">
        <ele>1481</ele>
        <time>2015-06-26T08:54:52Z</time>
      </trkpt>
      <trkpt lat="46.19676" lon="6.71727">
        <ele>1475</ele>
        <time>2015-06-26T08:54:56Z</time>
      </trkpt>
      <trkpt lat="46.19692" lon="6.71715">
        <ele>1475</ele>
        <time>2015-06-26T08:55:00Z</time>
      </trkpt>
      <trkpt lat="46.19711" lon="6.71695">
        <ele>1474</ele>
        <time>2015-06-26T08:55:04Z</time>
      </trkpt>
      <trkpt lat="46.19737" lon="6.71675">
        <ele>1473</ele>
        <time>2015-06-26T08:55:08Z</time>
      </trkpt>
      <trkpt lat="46.19759" lon="6.7167">
        <ele>1477</ele>
        <time>2015-06-26T08:55:12Z</time>
      </trkpt>
      <trkpt lat="46.19773" lon="6.71658">
        <ele>1474</ele>
        <time>2015-06-26T08:55:16Z</time>
      </trkpt>
      <trkpt lat="46.19768" lon="6.71634">
        <ele>1472</ele>
        <time>2015-06-26T08:55:20Z</time>
      </trkpt>
      <trkpt lat="46.19763" lon="6.71598">
        <ele>1464</ele>
        <time>2015-06-26T08:55:24Z</time>
      </trkpt>
      <trkpt lat="46.19762" lon="6.71561">
        <ele>1456</ele>
        <time>2015-06-26T08:55:28Z</time>
      </trkpt>
      <trkpt lat="46.19777" lon="6.71536">
        <ele>1457</ele>
        <time>2015-06-26T08:55:32Z</time>
      </trkpt>
      <trkpt lat="46.19795" lon="6.71516">
        <ele>1459</ele>
        <time>2015-06-26T08:55:36Z</time>
      </trkpt>
      <trkpt lat="46.19806" lon="6.7149">
        <ele>1454</ele>
        <time>2015-06-26T08:55:40Z</time>
      </trkpt>
      <trkpt lat="46.19819" lon="6.71447">
        <ele>1451</ele>
        <time>2015-06-26T08:55:46Z</time>
      </trkpt>
      <trkpt lat="46.19819" lon="6.71417">
        <ele>1452</ele>
        <time>2015-06-26T08:55:50Z</time>
      </trkpt>
      <trkpt lat="46.19826" lon="6.71388">
        <ele>1441</ele>
        <time>2015-06-26T08:55:54Z</time>
      </trkpt>
      <trkpt lat="46.19835" lon="6.71358">
        <ele>1463</ele>
        <time>2015-06-26T08:55:58Z</time>
      </trkpt>
      <trkpt lat="46.19846" lon="6.71325">
        <ele>1454</ele>
        <time>2015-06-26T08:56:02Z</time>
      </trkpt>
      <trkpt lat="46.19844" lon="6.713">
        <ele>1457</ele>
        <time>2015-06-26T08:56:06Z</time>
      </trkpt>
      <trkpt lat="46.19848" lon="6.71261">
        <ele>1450</ele>
        <time>2015-06-26T08:56:10Z</time>
      </trkpt>
      <trkpt lat="46.1985" lon="6.71231">
        <ele>1446</ele>
        <time>2015-06-26T08:56:14Z</time>
      </trkpt>
      <trkpt lat="46.1985" lon="6.71214">
        <ele>1447</ele>
        <time>2015-06-26T08:56:18Z</time>
      </trkpt>
      <trkpt lat="46.1985" lon="6.71213">
        <ele>1447</ele>
        <time>2015-06-26T08:56:22Z</time>
      </trkpt>
      <trkpt lat="46.19847" lon="6.71227">
        <ele>1446</ele>
        <time>2015-06-26T08:56:26Z</time>
      </trkpt>
      <trkpt lat="46.19839" lon="6.71252">
        <ele>1440</ele>
        <time>2015-06-26T08:56:30Z</time>
      </trkpt>
      <trkpt lat="46.19833" lon="6.71296">
        <ele>1428</ele>
        <time>2015-06-26T08:56:36Z</time>
      </trkpt>
      <trkpt lat="46.19821" lon="6.71318">
        <ele>1432</ele>
        <time>2015-06-26T08:56:40Z</time>
      </trkpt>
      <trkpt lat="46.19807" lon="6.71334">
        <ele>1435</ele>
        <time>2015-06-26T08:56:44Z</time>
      </trkpt>
      <trkpt lat="46.19788" lon="6.71339">
        <ele>1429</ele>
        <time>2015-06-26T08:56:48Z</time>
      </trkpt>
      <trkpt lat="46.19777" lon="6.71317">
        <ele>1417</ele>
        <time>2015-06-26T08:56:52Z</time>
      </trkpt>
      <trkpt lat="46.19771" lon="6.71291">
        <ele>1416</ele>
        <time>2015-06-26T08:56:56Z</time>
      </trkpt>
      <trkpt lat="46.19771" lon="6.71261">
        <ele>1411</ele>
        <time>2015-06-26T08:57:00Z</time>
      </trkpt>
      <trkpt lat="46.19772" lon="6.71227">
        <ele>1406</ele>
        <time>2015-06-26T08:57:04Z</time>
      </trkpt>
      <trkpt lat="46.19776" lon="6.71197">
        <ele>1405</ele>
        <time>2015-06-26T08:57:08Z</time>
      </trkpt>
      <trkpt lat="46.19776" lon="6.71172">
        <ele>1402</ele>
        <time>2015-06-26T08:57:12Z</time>
      </trkpt>
      <trkpt lat="46.19774" lon="6.71149">
        <ele>1396</ele>
        <time>2015-06-26T08:57:16Z</time>
      </trkpt>
      <trkpt lat="46.19774" lon="6.7113">
        <ele>1397</ele>
        <time>2015-06-26T08:57:20Z</time>
      </trkpt>
      <trkpt lat="46.19764" lon="6.71098">
        <ele>1389</ele>
        <time>2015-06-26T08:57:24Z</time>
      </trkpt>
      <trkpt lat="46.19758" lon="6.71054">
        <ele>1386</ele>
        <time>2015-06-26T08:57:30Z</time>
      </trkpt>
      <trkpt lat="46.19755" lon="6.71037">
        <ele>1385</ele>
        <time>2015-06-26T08:57:34Z</time>
      </trkpt>
      <trkpt lat="46.19743" lon="6.71047">
        <ele>1363</ele>
        <time>2015-06-26T08:57:38Z</time>
      </trkpt>
      <trkpt lat="46.19728" lon="6.71062">
        <ele>1362</ele>
        <time>2015-06-26T08:57:42Z</time>
      </trkpt>
      <trkpt lat="46.19707" lon="6.71071">
        <ele>1358</ele>
        <time>2015-06-26T08:57:46Z</time>
      </trkpt>
      <trkpt lat="46.19696" lon="6.71054">
        <ele>1355</ele>
        <time>2015-06-26T08:57:50Z</time>
      </trkpt>
      <trkpt lat="46.19694" lon="6.71032">
        <ele>1354</ele>
        <time>2015-06-26T08:57:54Z</time>
      </trkpt>
      <trkpt lat="46.19693" lon="6.7101">
        <ele>1351</ele>
        <time>2015-06-26T08:57:58Z</time>
      </trkpt>
      <trkpt lat="46.19694" lon="6.70989">
        <ele>1347</ele>
        <time>2015-06-26T08:58:02Z</time>
      </trkpt>
      <trkpt lat="46.19694" lon="6.70961">
        <ele>1347</ele>
        <time>2015-06-26T08:58:06Z</time>
      </trkpt>
      <trkpt lat="46.19698" lon="6.70937">
        <ele>1346</ele>
        <time>2015-06-26T08:58:10Z</time>
      </trkpt>
      <trkpt lat="46.19696" lon="6.70913">
        <ele>1339</ele>
        <time>2015-06-26T08:58:14Z</time>
      </trkpt>
      <trkpt lat="46.19687" lon="6.70883">
        <ele>1338</ele>
        <time>2015-06-26T08:58:18Z</time>
      </trkpt>
      <trkpt lat="46.1968" lon="6.70842">
        <ele>1329</ele>
        <time>2015-06-26T08:58:24Z</time>
      </trkpt>
      <trkpt lat="46.19675" lon="6.70808">
        <ele>1327</ele>
        <time>2015-06-26T08:58:28Z</time>
      </trkpt>
      <trkpt lat="46.19674" lon="6.70781">
        <ele>1326</ele>
        <time>2015-06-26T08:58:32Z</time>
      </trkpt>
      <trkpt lat="46.19669" lon="6.70757">
        <ele>1316</ele>
        <time>2015-06-26T08:58:36Z</time>
      </trkpt>
      <trkpt lat="46.19664" lon="6.70727">
        <ele>1295</ele>
        <time>2015-06-26T08:58:40Z</time>
      </trkpt>
      <trkpt lat="46.19653" lon="6.70715">
        <ele>1291</ele>
        <time>2015-06-26T08:58:44Z</time>
      </trkpt>
      <trkpt lat="46.19648" lon="6.70685">
        <ele>1289</ele>
        <time>2015-06-26T08:58:48Z</time>
      </trkpt>
      <trkpt lat="46.19645" lon="6.70648">
        <ele>1282</ele>
        <time>2015-06-26T08:58:52Z</time>
      </trkpt>
      <trkpt lat="46.19643" lon="6.70611">
        <ele>1278</ele>
        <time>2015-06-26T08:58:56Z</time>
      </trkpt>
      <trkpt lat="46.19643" lon="6.70584">
        <ele>1279</ele>
        <time>2015-06-26T08:59:00Z</time>
      </trkpt>
      <trkpt lat="46.1964" lon="6.70581">
        <ele>1273</ele>
        <time>2015-06-26T08:59:04Z</time>
      </trkpt>
      <trkpt lat="46.19633" lon="6.70586">
        <ele>1276</ele>
        <time>2015-06-26T08:59:08Z</time>
      </trkpt>
      <trkpt lat="46.19626" lon="6.70603">
        <ele>1274</ele>
        <time>2015-06-26T08:59:12Z</time>
      </trkpt>
      <trkpt lat="46.1961" lon="6.70602">
        <ele>1270</ele>
        <time>2015-06-26T08:59:18Z</time>
      </trkpt>
      <trkpt lat="46.19607" lon="6.70562">
        <ele>1264</ele>
        <time>2015-06-26T08:59:22Z</time>
      </trkpt>
      <trkpt lat="46.19607" lon="6.70523">
        <ele>1263</ele>
        <time>2015-06-26T08:59:26Z</time>
      </trkpt>
      <trkpt lat="46.19607" lon="6.70502">
        <ele>1260</ele>
        <time>2015-06-26T08:59:30Z</time>
      </trkpt>
      <trkpt lat="46.19595" lon="6.70519">
        <ele>1259</ele>
        <time>2015-06-26T08:59:34Z</time>
      </trkpt>
      <trkpt lat="46.19576" lon="6.70542">
        <ele>1241</ele>
        <time>2015-06-26T08:59:38Z</time>
      </trkpt>
      <trkpt lat="46.19558" lon="6.70565">
        <ele>1240</ele>
        <time>2015-06-26T08:59:42Z</time>
      </trkpt>
      <trkpt lat="46.19549" lon="6.70571">
        <ele>1238</ele>
        <time>2015-06-26T08:59:46Z</time>
      </trkpt>
      <trkpt lat="46.19544" lon="6.70547">
        <ele>1236</ele>
        <time>2015-06-26T08:59:50Z</time>
      </trkpt>
      <trkpt lat="46.19543" lon="6.70509">
        <ele>1235</ele>
        <time>2015-06-26T08:59:54Z</time>
      </trkpt>
      <trkpt lat="46.19539" lon="6.7047">
        <ele>1229</ele>
        <time>2015-06-26T08:59:58Z</time>
      </trkpt>
      <trkpt lat="46.19538" lon="6.70432">
        <ele>1228</ele>
        <time>2015-06-26T09:00:02Z</time>
      </trkpt>
      <trkpt lat="46.19531" lon="6.70406">
        <ele>1220</ele>
        <time>2015-06-26T09:00:08Z</time>
      </trkpt>
      <trkpt lat="46.19514" lon="6.7042">
        <ele>1219</ele>
        <time>2015-06-26T09:00:12Z</time>
      </trkpt>
      <trkpt lat="46.19498" lon="6.70435">
        <ele>1202</ele>
        <time>2015-06-26T09:00:16Z</time>
      </trkpt>
      <trkpt lat="46.19483" lon="6.70462">
        <ele>1199</ele>
        <time>2015-06-26T09:00:20Z</time>
      </trkpt>
      <trkpt lat="46.19477" lon="6.70484">
        <ele>1201</ele>
        <time>2015-06-26T09:00:24Z</time>
      </trkpt>
      <trkpt lat="46.19474" lon="6.70508">
        <ele>1204</ele>
        <time>2015-06-26T09:00:28Z</time>
      </trkpt>
      <trkpt lat="46.19465" lon="6.70535">
        <ele>1201</ele>
        <time>2015-06-26T09:00:32Z</time>
      </trkpt>
      <trkpt lat="46.19463" lon="6.70552">
        <ele>1202</ele>
        <time>2015-06-26T09:00:36Z</time>
      </trkpt>
      <trkpt lat="46.19457" lon="6.70543">
        <ele>1200</ele>
        <time>2015-06-26T09:00:40Z</time>
      </trkpt>
      <trkpt lat="46.19446" lon="6.70517">
        <ele>1195</ele>
        <time>2015-06-26T09:00:44Z</time>
      </trkpt>
      <trkpt lat="46.1944" lon="6.70493">
        <ele>1188</ele>
        <time>2015-06-26T09:00:48Z</time>
      </trkpt>
      <trkpt lat="46.19439" lon="6.70472">
        <ele>1189</ele>
        <time>2015-06-26T09:00:52Z</time>
      </trkpt>
      <trkpt lat="46.19434" lon="6.70457">
        <ele>1188</ele>
        <time>2015-06-26T09:00:56Z</time>
      </trkpt>
      <trkpt lat="46.19428" lon="6.70413">
        <ele>1176</ele>
        <time>2015-06-26T09:01:02Z</time>
      </trkpt>
      <trkpt lat="46.19426" lon="6.70388">
        <ele>1178</ele>
        <time>2015-06-26T09:01:06Z</time>
      </trkpt>
      <trkpt lat="46.19427" lon="6.7036">
        <ele>1176</ele>
        <time>2015-06-26T09:01:10Z</time>
      </trkpt>
      <trkpt lat="46.19429" lon="6.70339">
        <ele>1170</ele>
        <time>2015-06-26T09:01:14Z</time>
      </trkpt>
      <trkpt lat="46.19436" lon="6.70326">
        <ele>1167</ele>
        <time>2015-06-26T09:01:18Z</time>
      </trkpt>
      <trkpt lat="46.19447" lon="6.70342">
        <ele>1179</ele>
        <time>2015-06-26T09:01:22Z</time>
      </trkpt>
      <trkpt lat="46.19434" lon="6.70327">
        <ele>1166</ele>
        <time>2015-06-26T09:01:26Z</time>
      </trkpt>
      <trkpt lat="46.19416" lon="6.70334">
        <ele>1158</ele>
        <time>2015-06-26T09:01:30Z</time>
      </trkpt>
      <trkpt lat="46.19376" lon="6.70383">
        <ele>1143</ele>
        <time>2015-06-26T09:01:38Z</time>
      </trkpt>
      <trkpt lat="46.19358" lon="6.70414">
        <ele>1137</ele>
        <time>2015-06-26T09:01:42Z</time>
      </trkpt>
      <trkpt lat="46.19349" lon="6.70444">
        <ele>1145</ele>
        <time>2015-06-26T09:01:46Z</time>
      </trkpt>
      <trkpt lat="46.19344" lon="6.70465">
        <ele>1147</ele>
        <time>2015-06-26T09:01:50Z</time>
      </trkpt>
      <trkpt lat="46.19336" lon="6.70479">
        <ele>1146</ele>
        <time>2015-06-26T09:01:54Z</time>
      </trkpt>
      <trkpt lat="46.1933" lon="6.7045">
        <ele>1125</ele>
        <time>2015-06-26T09:02:00Z</time>
      </trkpt>
      <trkpt lat="46.19321" lon="6.70437">
        <ele>1124</ele>
        <time>2015-06-26T09:02:04Z</time>
      </trkpt>
      <trkpt lat="46.19314" lon="6.7041">
        <ele>1113</ele>
        <time>2015-06-26T09:02:08Z</time>
      </trkpt>
      <trkpt lat="46.19308" lon="6.70391">
        <ele>1109</ele>
        <time>2015-06-26T09:02:12Z</time>
      </trkpt>
      <trkpt lat="46.19303" lon="6.70367">
        <ele>1105</ele>
        <time>2015-06-26T09:02:16Z</time>
      </trkpt>
      <trkpt lat="46.19302" lon="6.7034">
        <ele>1104</ele>
        <time>2015-06-26T09:02:20Z</time>
      </trkpt>
      <trkpt lat="46.19304" lon="6.70308">
        <ele>1089</ele>
        <time>2015-06-26T09:02:24Z</time>
      </trkpt>
      <trkpt lat="46.19308" lon="6.70283">
        <ele>1086</ele>
        <time>2015-06-26T09:02:28Z</time>
      </trkpt>
      <trkpt lat="46.19315" lon="6.7026">
        <ele>1087</ele>
        <time>2015-06-26T09:02:32Z</time>
      </trkpt>
      <trkpt lat="46.19327" lon="6.70233">
        <ele>1076</ele>
        <time>2015-06-26T09:02:36Z</time>
      </trkpt>
      <trkpt lat="46.19341" lon="6.70206">
        <ele>1096</ele>
        <time>2015-06-26T09:02:40Z</time>
      </trkpt>
      <trkpt lat="46.19348" lon="6.70181">
        <ele>1089</ele>
        <time>2015-06-26T09:02:44Z</time>
      </trkpt>
      <trkpt lat="46.19355" lon="6.70164">
        <ele>1077</ele>
        <time>2015-06-26T09:02:48Z</time>
      </trkpt>
      <trkpt lat="46.19348" lon="6.70158">
        <ele>1074</ele>
        <time>2015-06-26T09:02:54Z</time>
      </trkpt>
      <trkpt lat="46.19336" lon="6.70169">
        <ele>1073</ele>
        <time>2015-06-26T09:02:58Z</time>
      </trkpt>
      <trkpt lat="46.19319" lon="6.7018">
        <ele>1064</ele>
        <time>2015-06-26T09:03:02Z</time>
      </trkpt>
      <trkpt lat="46.19301" lon="6.7019">
        <ele>1061</ele>
        <time>2015-06-26T09:03:06Z</time>
      </trkpt>
      <trkpt lat="46.19284" lon="6.70199">
        <ele>1058</ele>
        <time>2015-06-26T09:03:10Z</time>
      </trkpt>
      <trkpt lat="46.19271" lon="6.70211">
        <ele>1057</ele>
        <time>2015-06-26T09:03:14Z</time>
      </trkpt>
      <trkpt lat="46.19257" lon="6.70223">
        <ele>1057</ele>
        <time>2015-06-26T09:03:18Z</time>
      </trkpt>
      <trkpt lat="46.19241" lon="6.70237">
        <ele>1042</ele>
        <time>2015-06-26T09:03:22Z</time>
      </trkpt>
      <trkpt lat="46.1923" lon="6.70251">
        <ele>1052</ele>
        <time>2015-06-26T09:03:26Z</time>
      </trkpt>
      <trkpt lat="46.19222" lon="6.70252">
        <ele>1050</ele>
        <time>2015-06-26T09:03:30Z</time>
      </trkpt>
      <trkpt lat="46.19225" lon="6.70241">
        <ele>1036</ele>
        <time>2015-06-26T09:03:34Z</time>
      </trkpt>
      <trkpt lat="46.19228" lon="6.70225">
        <ele>1033</ele>
        <time>2015-06-26T09:03:38Z</time>
      </trkpt>
      <trkpt lat="46.19238" lon="6.70186">
        <ele>1028</ele>
        <time>2015-06-26T09:03:44Z</time>
      </trkpt>
      <trkpt lat="46.19252" lon="6.70145">
        <ele>1031</ele>
        <time>2015-06-26T09:03:48Z</time>
      </trkpt>
      <trkpt lat="46.1927" lon="6.7011">
        <ele>1027</ele>
        <time>2015-06-26T09:03:52Z</time>
      </trkpt>
      <trkpt lat="46.19275" lon="6.70098">
        <ele>1026</ele>
        <time>2015-06-26T09:03:56Z</time>
      </trkpt>
      <trkpt lat="46.19272" lon="6.70093">
        <ele>1023</ele>
        <time>2015-06-26T09:04:00Z</time>
      </trkpt>
      <trkpt lat="46.19261" lon="6.70099">
        <ele>1021</ele>
        <time>2015-06-26T09:04:04Z</time>
      </trkpt>
      <trkpt lat="46.19239" lon="6.70114">
        <ele>1005</ele>
        <time>2015-06-26T09:04:08Z</time>
      </trkpt>
      <trkpt lat="46.19214" lon="6.7013">
        <ele>1004</ele>
        <time>2015-06-26T09:04:12Z</time>
      </trkpt>
      <trkpt lat="46.19188" lon="6.70152">
        <ele>1001</ele>
        <time>2015-06-26T09:04:16Z</time>
      </trkpt>
      <trkpt lat="46.19169" lon="6.70171">
        <ele>1002</ele>
        <time>2015-06-26T09:04:20Z</time>
      </trkpt>
      <trkpt lat="46.1917" lon="6.70155">
        <ele>999</ele>
        <time>2015-06-26T09:04:24Z</time>
      </trkpt>
      <trkpt lat="46.19189" lon="6.70132">
        <ele>1000</ele>
        <time>2015-06-26T09:04:28Z</time>
      </trkpt>
      <trkpt lat="46.19208" lon="6.70095">
        <ele>999</ele>
        <time>2015-06-26T09:04:32Z</time>
      </trkpt>
      <trkpt lat="46.19246" lon="6.70039">
        <ele>987</ele>
        <time>2015-06-26T09:04:38Z</time>
      </trkpt>
      <trkpt lat="46.19264" lon="6.70001">
        <ele>994</ele>
        <time>2015-06-26T09:04:42Z</time>
      </trkpt>
      <trkpt lat="46.19284" lon="6.69975">
        <ele>988</ele>
        <time>2015-06-26T09:04:46Z</time>
      </trkpt>
      <trkpt lat="46.19312" lon="6.69942">
        <ele>988</ele>
        <time>2015-06-26T09:04:50Z</time>
      </trkpt>
      <trkpt lat="46.19337" lon="6.69904">
        <ele>991</ele>
        <time>2015-06-26T09:04:54Z</time>
      </trkpt>
      <trkpt lat="46.1936" lon="6.69871">
        <ele>994</ele>
        <time>2015-06-26T09:04:58Z</time>
      </trkpt>
      <trkpt lat="46.19377" lon="6.69845">
        <ele>995</ele>
        <time>2015-06-26T09:05:02Z</time>
      </trkpt>
      <trkpt lat="46.19388" lon="6.69825">
        <ele>984</ele>
        <time>2015-06-26T09:05:06Z</time>
      </trkpt>
      <trkpt lat="46.19372" lon="6.69816">
        <ele>979</ele>
        <time>2015-06-26T09:05:10Z</time>
      </trkpt>
      <trkpt lat="46.19344" lon="6.69844">
        <ele>981</ele>
        <time>2015-06-26T09:05:14Z</time>
      </trkpt>
      <trkpt lat="46.19317" lon="6.69878">
        <ele>972</ele>
        <time>2015-06-26T09:05:18Z</time>
      </trkpt>
      <trkpt lat="46.19297" lon="6.69863">
        <ele>969</ele>
        <time>2015-06-26T09:05:22Z</time>
      </trkpt>
      <trkpt lat="46.19294" lon="6.69837">
        <ele>967</ele>
        <time>2015-06-26T09:05:26Z</time>
      </trkpt>
      <trkpt lat="46.19317" lon="6.69805">
        <ele>961</ele>
        <time>2015-06-26T09:05:32Z</time>
      </trkpt>
      <trkpt lat="46.19334" lon="6.69785">
        <ele>971</ele>
        <time>2015-06-26T09:05:36Z</time>
      </trkpt>
      <trkpt lat="46.19334" lon="6.69768">
        <ele>967</ele>
        <time>2015-06-26T09:05:40Z</time>
      </trkpt>
      <trkpt lat="46.19323" lon="6.69772">
        <ele>959</ele>
        <time>2015-06-26T09:05:44Z</time>
      </trkpt>
      <trkpt lat="46.1931" lon="6.69786">
        <ele>960</ele>
        <time>2015-06-26T09:05:48Z</time>
      </trkpt>
      <trkpt lat="46.19295" lon="6.69801">
        <ele>960</ele>
        <time>2015-06-26T09:05:52Z</time>
      </trkpt>
      <trkpt lat="46.1928" lon="6.69816">
        <ele>959</ele>
        <time>2015-06-26T09:05:56Z</time>
      </trkpt>
      <trkpt lat="46.19266" lon="6.6983">
        <ele>958</ele>
        <time>2015-06-26T09:06:00Z</time>
      </trkpt>
      <trkpt lat="46.19253" lon="6.69844">
        <ele>961</ele>
        <time>2015-06-26T09:06:04Z</time>
      </trkpt>
      <trkpt lat="46.1924" lon="6.69857">
        <ele>958</ele>
        <time>2015-06-26T09:06:08Z</time>
      </trkpt>
      <trkpt lat="46.19227" lon="6.6987">
        <ele>958</ele>
        <time>2015-06-26T09:06:12Z</time>
      </trkpt>
      <trkpt lat="46.19215" lon="6.69882">
        <ele>958</ele>
        <time>2015-06-26T09:06:16Z</time>
      </trkpt>
      <trkpt lat="46.19196" lon="6.699">
        <ele>958</ele>
        <time>2015-06-26T09:06:22Z</time>
      </trkpt>
      <trkpt lat="46.19183" lon="6.69913">
        <ele>959</ele>
        <time>2015-06-26T09:06:26Z</time>
      </trkpt>
      <trkpt lat="46.19171" lon="6.69926">
        <ele>962</ele>
        <time>2015-06-26T09:06:30Z</time>
      </trkpt>
      <trkpt lat="46.19159" lon="6.69941">
        <ele>962</ele>
        <time>2015-06-26T09:06:34Z</time>
      </trkpt>
      <trkpt lat="46.19149" lon="6.69954">
        <ele>963</ele>
        <time>2015-06-26T09:06:38Z</time>
      </trkpt>
      <trkpt lat="46.19138" lon="6.69964">
        <ele>963</ele>
        <time>2015-06-26T09:06:42Z</time>
      </trkpt>
      <trkpt lat="46.19132" lon="6.69976">
        <ele>963</ele>
        <time>2015-06-26T09:06:46Z</time>
      </trkpt>
      <trkpt lat="46.19125" lon="6.69974">
        <ele>963</ele>
        <time>2015-06-26T09:06:50Z</time>
      </trkpt>
      <trkpt lat="46.19111" lon="6.69984">
        <ele>963</ele>
        <time>2015-06-26T09:06:54Z</time>
      </trkpt>
      <trkpt lat="46.19096" lon="6.69976">
        <ele>963</ele>
        <time>2015-06-26T09:06:58Z</time>
      </trkpt>
      <trkpt lat="46.19087" lon="6.69941">
        <ele>961</ele>
        <time>2015-06-26T09:07:02Z</time>
      </trkpt>
      <trkpt lat="46.19081" lon="6.69913">
        <ele>958</ele>
        <time>2015-06-26T09:07:06Z</time>
      </trkpt>
      <trkpt lat="46.19077" lon="6.69884">
        <ele>954</ele>
        <time>2015-06-26T09:07:10Z</time>
      </trkpt>
      <trkpt lat="46.19054" lon="6.69865">
        <ele>953</ele>
        <time>2015-06-26T09:07:16Z</time>
      </trkpt>
      <trkpt lat="46.19038" lon="6.69848">
        <ele>952</ele>
        <time>2015-06-26T09:07:20Z</time>
      </trkpt>
      <trkpt lat="46.19013" lon="6.69832">
        <ele>946</ele>
        <time>2015-06-26T09:07:24Z</time>
      </trkpt>
      <trkpt lat="46.18992" lon="6.69822">
        <ele>943</ele>
        <time>2015-06-26T09:07:28Z</time>
      </trkpt>
      <trkpt lat="46.18982" lon="6.69797">
        <ele>938</ele>
        <time>2015-06-26T09:07:32Z</time>
      </trkpt>
      <trkpt lat="46.18982" lon="6.69776">
        <ele>937</ele>
        <time>2015-06-26T09:07:36Z</time>
      </trkpt>
      <trkpt lat="46.18996" lon="6.69754">
        <ele>936</ele>
        <time>2015-06-26T09:07:40Z</time>
      </trkpt>
      <trkpt lat="46.19005" lon="6.69726">
        <ele>933</ele>
        <time>2015-06-26T09:07:44Z</time>
      </trkpt>
      <trkpt lat="46.19001" lon="6.69693">
        <ele>930</ele>
        <time>2015-06-26T09:07:48Z</time>
      </trkpt>
      <trkpt lat="46.18986" lon="6.69665">
        <ele>931</ele>
        <time>2015-06-26T09:07:52Z</time>
      </trkpt>
      <trkpt lat="46.18977" lon="6.69649">
        <ele>934</ele>
        <time>2015-06-26T09:07:56Z</time>
      </trkpt>
      <trkpt lat="46.18966" lon="6.69635">
        <ele>937</ele>
        <time>2015-06-26T09:08:00Z</time>
      </trkpt>
      <trkpt lat="46.18954" lon="6.69622">
        <ele>939</ele>
        <time>2015-06-26T09:08:04Z</time>
      </trkpt>
      <trkpt lat="46.18951" lon="6.69618">
        <ele>939</ele>
        <time>2015-06-26T09:08:10Z</time>
      </trkpt>
      <trkpt lat="46.18948" lon="6.69614">
        <ele>940</ele>
        <time>2015-06-26T09:08:14Z</time>
      </trkpt>
      <trkpt lat="46.18948" lon="6.69611">
        <ele>940</ele>
        <time>2015-06-26T09:08:18Z</time>
      </trkpt>
      <trkpt lat="46.18947" lon="6.69607">
        <ele>941</ele>
        <time>2015-06-26T09:08:22Z</time>
      </trkpt>
      <trkpt lat="46.18946" lon="6.69604">
        <ele>941</ele>
        <time>2015-06-26T09:08:26Z</time>
      </trkpt>
      <trkpt lat="46.18946" lon="6.69601">
        <ele>941</ele>
        <time>2015-06-26T09:08:30Z</time>
      </trkpt>
      <trkpt lat="46.18946" lon="6.69597">
        <ele>942</ele>
        <time>2015-06-26T09:08:34Z</time>
      </trkpt>
      <trkpt lat="46.18945" lon="6.69596">
        <ele>942</ele>
        <time>2015-06-26T09:08:38Z</time>
      </trkpt>
      <trkpt lat="46.18945" lon="6.69596">
        <ele>942</ele>
        <time>2015-06-26T09:08:42Z</time>
      </trkpt>
      <trkpt lat="46.18948" lon="6.6959">
        <ele>942</ele>
        <time>2015-06-26T09:08:46Z</time>
      </trkpt>
      <trkpt lat="46.18954" lon="6.69582">
        <ele>948</ele>
        <time>2015-06-26T09:08:50Z</time>
      </trkpt>
      <trkpt lat="46.18964" lon="6.69576">
        <ele>947</ele>
        <time>2015-06-26T09:08:54Z</time>
      </trkpt>
      <trkpt lat="46.18966" lon="6.69566">
        <ele>947</ele>
        <time>2015-06-26T09:08:58Z</time>
      </trkpt>
      <trkpt lat="46.18973" lon="6.69552">
        <ele>948</ele>
        <time>2015-06-26T09:09:04Z</time>
      </trkpt>
      <trkpt lat="46.18979" lon="6.69545">
        <ele>948</ele>
        <time>2015-06-26T09:09:08Z</time>
      </trkpt>
      <trkpt lat="46.18985" lon="6.69537">
        <ele>948</ele>
        <time>2015-06-26T09:09:12Z</time>
      </trkpt>
      <trkpt lat="46.18995" lon="6.6953">
        <ele>949</ele>
        <time>2015-06-26T09:09:16Z</time>
      </trkpt>
      <trkpt lat="46.19007" lon="6.69526">
        <ele>942</ele>
        <time>2015-06-26T09:09:20Z</time>
      </trkpt>
      <trkpt lat="46.19023" lon="6.69516">
        <ele>942</ele>
        <time>2015-06-26T09:09:24Z</time>
      </trkpt>
      <trkpt lat="46.19041" lon="6.69507">
        <ele>940</ele>
        <time>2015-06-26T09:09:28Z</time>
      </trkpt>
      <trkpt lat="46.19055" lon="6.69501">
        <ele>939</ele>
        <time>2015-06-26T09:09:32Z</time>
      </trkpt>
      <trkpt lat="46.19068" lon="6.69492">
        <ele>943</ele>
        <time>2015-06-26T09:09:36Z</time>
      </trkpt>
      <trkpt lat="46.1908" lon="6.69475">
        <ele>944</ele>
        <time>2015-06-26T09:09:40Z</time>
      </trkpt>
      <trkpt lat="46.19092" lon="6.69457">
        <ele>939</ele>
        <time>2015-06-26T09:09:44Z</time>
      </trkpt>
      <trkpt lat="46.19104" lon="6.69443">
        <ele>940</ele>
        <time>2015-06-26T09:09:48Z</time>
      </trkpt>
      <trkpt lat="46.19118" lon="6.69423">
        <ele>940</ele>
        <time>2015-06-26T09:09:54Z</time>
      </trkpt>
      <trkpt lat="46.19126" lon="6.69413">
        <ele>945</ele>
        <time>2015-06-26T09:09:58Z</time>
      </trkpt>
      <trkpt lat="46.19135" lon="6.69407">
        <ele>944</ele>
        <time>2015-06-26T09:10:02Z</time>
      </trkpt>
      <trkpt lat="46.19145" lon="6.694">
        <ele>944</ele>
        <time>2015-06-26T09:10:06Z</time>
      </trkpt>
      <trkpt lat="46.19153" lon="6.69393">
        <ele>944</ele>
        <time>2015-06-26T09:10:10Z</time>
      </trkpt>
      <trkpt lat="46.1916" lon="6.69385">
        <ele>944</ele>
        <time>2015-06-26T09:10:14Z</time>
      </trkpt>
      <trkpt lat="46.19168" lon="6.69379">
        <ele>938</ele>
        <time>2015-06-26T09:10:18Z</time>
      </trkpt>
      <trkpt lat="46.19175" lon="6.69371">
        <ele>938</ele>
        <time>2015-06-26T09:10:22Z</time>
      </trkpt>
      <trkpt lat="46.19182" lon="6.69362">
        <ele>939</ele>
        <time>2015-06-26T09:10:26Z</time>
      </trkpt>
      <trkpt lat="46.19189" lon="6.69355">
        <ele>939</ele>
        <time>2015-06-26T09:10:30Z</time>
      </trkpt>
      <trkpt lat="46.19195" lon="6.69347">
        <ele>939</ele>
        <time>2015-06-26T09:10:34Z</time>
      </trkpt>
      <trkpt lat="46.19201" lon="6.69337">
        <ele>939</ele>
        <time>2015-06-26T09:10:38Z</time>
      </trkpt>
      <trkpt lat="46.19204" lon="6.69328">
        <ele>945</ele>
        <time>2015-06-26T09:10:42Z</time>
      </trkpt>
      <trkpt lat="46.19207" lon="6.69313">
        <ele>945</ele>
        <time>2015-06-26T09:10:48Z</time>
      </trkpt>
      <trkpt lat="46.19204" lon="6.69304">
        <ele>945</ele>
        <time>2015-06-26T09:10:52Z</time>
      </trkpt>
      <trkpt lat="46.19198" lon="6.69299">
        <ele>946</ele>
        <time>2015-06-26T09:10:56Z</time>
      </trkpt>
      <trkpt lat="46.19186" lon="6.69296">
        <ele>946</ele>
        <time>2015-06-26T09:11:00Z</time>
      </trkpt>
      <trkpt lat="46.1918" lon="6.69294">
        <ele>947</ele>
        <time>2015-06-26T09:11:04Z</time>
      </trkpt>
      <trkpt lat="46.19172" lon="6.69289">
        <ele>947</ele>
        <time>2015-06-26T09:11:08Z</time>
      </trkpt>
      <trkpt lat="46.19166" lon="6.69286">
        <ele>951</ele>
        <time>2015-06-26T09:11:12Z</time>
      </trkpt>
      <trkpt lat="46.1916" lon="6.69285">
        <ele>951</ele>
        <time>2015-06-26T09:11:16Z</time>
      </trkpt>
      <trkpt lat="46.19155" lon="6.69286">
        <ele>951</ele>
        <time>2015-06-26T09:11:20Z</time>
      </trkpt>
      <trkpt lat="46.19149" lon="6.69286">
        <ele>951</ele>
        <time>2015-06-26T09:11:24Z</time>
      </trkpt>
      <trkpt lat="46.19143" lon="6.69286">
        <ele>952</ele>
        <time>2015-06-26T09:11:28Z</time>
      </trkpt>
      <trkpt lat="46.19138" lon="6.6928">
        <ele>952</ele>
        <time>2015-06-26T09:11:32Z</time>
      </trkpt>
      <trkpt lat="46.19137" lon="6.6927">
        <ele>952</ele>
        <time>2015-06-26T09:11:36Z</time>
      </trkpt>
      <trkpt lat="46.19142" lon="6.69258">
        <ele>952</ele>
        <time>2015-06-26T09:11:42Z</time>
      </trkpt>
      <trkpt lat="46.19143" lon="6.6925">
        <ele>955</ele>
        <time>2015-06-26T09:11:46Z</time>
      </trkpt>
      <trkpt lat="46.1915" lon="6.69243">
        <ele>954</ele>
        <time>2015-06-26T09:11:50Z</time>
      </trkpt>
      <trkpt lat="46.19151" lon="6.69237">
        <ele>955</ele>
        <time>2015-06-26T09:11:54Z</time>
      </trkpt>
      <trkpt lat="46.19151" lon="6.69237">
        <ele>955</ele>
        <time>2015-06-26T09:11:58Z</time>
      </trkpt>
      <trkpt lat="46.19143" lon="6.69232">
        <ele>956</ele>
        <time>2015-06-26T09:12:02Z</time>
      </trkpt>
      <trkpt lat="46.19134" lon="6.69232">
        <ele>956</ele>
        <time>2015-06-26T09:12:06Z</time>
      </trkpt>
      <trkpt lat="46.19124" lon="6.69235">
        <ele>957</ele>
        <time>2015-06-26T09:12:10Z</time>
      </trkpt>
      <trkpt lat="46.19115" lon="6.69239">
        <ele>957</ele>
        <time>2015-06-26T09:12:14Z</time>
      </trkpt>
      <trkpt lat="46.19107" lon="6.69244">
        <ele>957</ele>
        <time>2015-06-26T09:12:18Z</time>
      </trkpt>
      <trkpt lat="46.19098" lon="6.69249">
        <ele>957</ele>
        <time>2015-06-26T09:12:22Z</time>
      </trkpt>
      <trkpt lat="46.19087" lon="6.69255">
        <ele>955</ele>
        <time>2015-06-26T09:12:26Z</time>
      </trkpt>
      <trkpt lat="46.19076" lon="6.69259">
        <ele>956</ele>
        <time>2015-06-26T09:12:30Z</time>
      </trkpt>
      <trkpt lat="46.1906" lon="6.69265">
        <ele>957</ele>
        <time>2015-06-26T09:12:36Z</time>
      </trkpt>
      <trkpt lat="46.19049" lon="6.69269">
        <ele>957</ele>
        <time>2015-06-26T09:12:40Z</time>
      </trkpt>
      <trkpt lat="46.19039" lon="6.69272">
        <ele>957</ele>
        <time>2015-06-26T09:12:44Z</time>
      </trkpt>
      <trkpt lat="46.19031" lon="6.69278">
        <ele>957</ele>
        <time>2015-06-26T09:12:48Z</time>
      </trkpt>
      <trkpt lat="46.1902" lon="6.69283">
        <ele>957</ele>
        <time>2015-06-26T09:12:52Z</time>
      </trkpt>
      <trkpt lat="46.19009" lon="6.69278">
        <ele>958</ele>
        <time>2015-06-26T09:12:56Z</time>
      </trkpt>
      <trkpt lat="46.18997" lon="6.69279">
        <ele>961</ele>
        <time>2015-06-26T09:13:00Z</time>
      </trkpt>
      <trkpt lat="46.18985" lon="6.69278">
        <ele>962</ele>
        <time>2015-06-26T09:13:04Z</time>
      </trkpt>
      <trkpt lat="46.18972" lon="6.69283">
        <ele>962</ele>
        <time>2015-06-26T09:13:08Z</time>
      </trkpt>
      <trkpt lat="46.18958" lon="6.6929">
        <ele>962</ele>
        <time>2015-06-26T09:13:12Z</time>
      </trkpt>
      <trkpt lat="46.18944" lon="6.69302">
        <ele>962</ele>
        <time>2015-06-26T09:13:16Z</time>
      </trkpt>
      <trkpt lat="46.18931" lon="6.69316">
        <ele>961</ele>
        <time>2015-06-26T09:13:20Z</time>
      </trkpt>
      <trkpt lat="46.18911" lon="6.6934">
        <ele>961</ele>
        <time>2015-06-26T09:13:26Z</time>
      </trkpt>
      <trkpt lat="46.18898" lon="6.69355">
        <ele>962</ele>
        <time>2015-06-26T09:13:30Z</time>
      </trkpt>
      <trkpt lat="46.18884" lon="6.69369">
        <ele>963</ele>
        <time>2015-06-26T09:13:34Z</time>
      </trkpt>
      <trkpt lat="46.18873" lon="6.69383">
        <ele>963</ele>
        <time>2015-06-26T09:13:38Z</time>
      </trkpt>
      <trkpt lat="46.18862" lon="6.69396">
        <ele>962</ele>
        <time>2015-06-26T09:13:42Z</time>
      </trkpt>
      <trkpt lat="46.1885" lon="6.69406">
        <ele>962</ele>
        <time>2015-06-26T09:13:46Z</time>
      </trkpt>
      <trkpt lat="46.18839" lon="6.6942">
        <ele>961</ele>
        <time>2015-06-26T09:13:50Z</time>
      </trkpt>
      <trkpt lat="46.18827" lon="6.69432">
        <ele>962</ele>
        <time>2015-06-26T09:13:54Z</time>
      </trkpt>
      <trkpt lat="46.18814" lon="6.69447">
        <ele>962</ele>
        <time>2015-06-26T09:13:58Z</time>
      </trkpt>
      <trkpt lat="46.188" lon="6.69466">
        <ele>962</ele>
        <time>2015-06-26T09:14:02Z</time>
      </trkpt>
      <trkpt lat="46.18788" lon="6.69485">
        <ele>962</ele>
        <time>2015-06-26T09:14:06Z</time>
      </trkpt>
      <trkpt lat="46.18775" lon="6.69504">
        <ele>960</ele>
        <time>2015-06-26T09:14:10Z</time>
      </trkpt>
      <trkpt lat="46.18762" lon="6.69523">
        <ele>960</ele>
        <time>2015-06-26T09:14:14Z</time>
      </trkpt>
      <trkpt lat="46.18742" lon="6.69552">
        <ele>962</ele>
        <time>2015-06-26T09:14:20Z</time>
      </trkpt>
      <trkpt lat="46.18728" lon="6.69572">
        <ele>961</ele>
        <time>2015-06-26T09:14:24Z</time>
      </trkpt>
      <trkpt lat="46.18711" lon="6.6959">
        <ele>961</ele>
        <time>2015-06-26T09:14:28Z</time>
      </trkpt>
      <trkpt lat="46.18699" lon="6.69611">
        <ele>961</ele>
        <time>2015-06-26T09:14:32Z</time>
      </trkpt>
      <trkpt lat="46.18687" lon="6.69631">
        <ele>962</ele>
        <time>2015-06-26T09:14:36Z</time>
      </trkpt>
      <trkpt lat="46.18674" lon="6.6965">
        <ele>962</ele>
        <time>2015-06-26T09:14:40Z</time>
      </trkpt>
      <trkpt lat="46.18661" lon="6.69668">
        <ele>962</ele>
        <time>2015-06-26T09:14:44Z</time>
      </trkpt>
      <trkpt lat="46.18649" lon="6.69686">
        <ele>963</ele>
        <time>2015-06-26T09:14:48Z</time>
      </trkpt>
      <trkpt lat="46.18635" lon="6.69703">
        <ele>964</ele>
        <time>2015-06-26T09:14:52Z</time>
      </trkpt>
      <trkpt lat="46.18624" lon="6.69721">
        <ele>964</ele>
        <time>2015-06-26T09:14:56Z</time>
      </trkpt>
      <trkpt lat="46.18611" lon="6.69741">
        <ele>964</ele>
        <time>2015-06-26T09:15:00Z</time>
      </trkpt>
      <trkpt lat="46.18599" lon="6.69762">
        <ele>964</ele>
        <time>2015-06-26T09:15:04Z</time>
      </trkpt>
      <trkpt lat="46.18586" lon="6.69781">
        <ele>964</ele>
        <time>2015-06-26T09:15:08Z</time>
      </trkpt>
      <trkpt lat="46.18566" lon="6.69809">
        <ele>966</ele>
        <time>2015-06-26T09:15:14Z</time>
      </trkpt>
      <trkpt lat="46.18553" lon="6.69827">
        <ele>966</ele>
        <time>2015-06-26T09:15:18Z</time>
      </trkpt>
      <trkpt lat="46.18539" lon="6.69847">
        <ele>966</ele>
        <time>2015-06-26T09:15:22Z</time>
      </trkpt>
      <trkpt lat="46.18526" lon="6.69867">
        <ele>966</ele>
        <time>2015-06-26T09:15:26Z</time>
      </trkpt>
      <trkpt lat="46.18513" lon="6.69885">
        <ele>966</ele>
        <time>2015-06-26T09:15:30Z</time>
      </trkpt>
      <trkpt lat="46.18499" lon="6.69903">
        <ele>967</ele>
        <time>2015-06-26T09:15:34Z</time>
      </trkpt>
      <trkpt lat="46.18486" lon="6.69922">
        <ele>967</ele>
        <time>2015-06-26T09:15:38Z</time>
      </trkpt>
      <trkpt lat="46.18473" lon="6.69941">
        <ele>968</ele>
        <time>2015-06-26T09:15:42Z</time>
      </trkpt>
      <trkpt lat="46.1846" lon="6.69959">
        <ele>968</ele>
        <time>2015-06-26T09:15:46Z</time>
      </trkpt>
      <trkpt lat="46.18448" lon="6.69978">
        <ele>968</ele>
        <time>2015-06-26T09:15:50Z</time>
      </trkpt>
      <trkpt lat="46.18434" lon="6.69996">
        <ele>968</ele>
        <time>2015-06-26T09:15:54Z</time>
      </trkpt>
      <trkpt lat="46.18421" lon="6.70015">
        <ele>968</ele>
        <time>2015-06-26T09:15:58Z</time>
      </trkpt>
      <trkpt lat="46.18409" lon="6.70035">
        <ele>969</ele>
        <time>2015-06-26T09:16:02Z</time>
      </trkpt>
      <trkpt lat="46.1839" lon="6.70063">
        <ele>969</ele>
        <time>2015-06-26T09:16:08Z</time>
      </trkpt>
      <trkpt lat="46.18375" lon="6.70082">
        <ele>969</ele>
        <time>2015-06-26T09:16:12Z</time>
      </trkpt>
      <trkpt lat="46.18363" lon="6.70102">
        <ele>969</ele>
        <time>2015-06-26T09:16:16Z</time>
      </trkpt>
      <trkpt lat="46.18349" lon="6.7012">
        <ele>968</ele>
        <time>2015-06-26T09:16:20Z</time>
      </trkpt>
      <trkpt lat="46.18337" lon="6.70139">
        <ele>969</ele>
        <time>2015-06-26T09:16:24Z</time>
      </trkpt>
      <trkpt lat="46.18324" lon="6.70157">
        <ele>970</ele>
        <time>2015-06-26T09:16:28Z</time>
      </trkpt>
      <trkpt lat="46.18314" lon="6.70171">
        <ele>970</ele>
        <time>2015-06-26T09:16:32Z</time>
      </trkpt>
      <trkpt lat="46.1831" lon="6.70178">
        <ele>970</ele>
        <time>2015-06-26T09:16:36Z</time>
      </trkpt>
      <trkpt lat="46.18303" lon="6.70189">
        <ele>971</ele>
        <time>2015-06-26T09:16:40Z</time>
      </trkpt>
      <trkpt lat="46.18294" lon="6.70203">
        <ele>971</ele>
        <time>2015-06-26T09:16:44Z</time>
      </trkpt>
      <trkpt lat="46.18279" lon="6.70204">
        <ele>971</ele>
        <time>2015-06-26T09:16:48Z</time>
      </trkpt>
      <trkpt lat="46.18276" lon="6.70221">
        <ele>971</ele>
        <time>2015-06-26T09:16:52Z</time>
      </trkpt>
      <trkpt lat="46.18276" lon="6.7023">
        <ele>971</ele>
        <time>2015-06-26T09:16:58Z</time>
      </trkpt>
      <trkpt lat="46.18268" lon="6.70242">
        <ele>971</ele>
        <time>2015-06-26T09:17:02Z</time>
      </trkpt>
      <trkpt lat="46.18261" lon="6.70257">
        <ele>972</ele>
        <time>2015-06-26T09:17:06Z</time>
      </trkpt>
      <trkpt lat="46.18252" lon="6.70271">
        <ele>972</ele>
        <time>2015-06-26T09:17:10Z</time>
      </trkpt>
      <trkpt lat="46.18241" lon="6.70282">
        <ele>974</ele>
        <time>2015-06-26T09:17:14Z</time>
      </trkpt>
      <trkpt lat="46.1823" lon="6.70295">
        <ele>974</ele>
        <time>2015-06-26T09:17:18Z</time>
      </trkpt>
      <trkpt lat="46.18224" lon="6.70304">
        <ele>974</ele>
        <time>2015-06-26T09:17:22Z</time>
      </trkpt>
      <trkpt lat="46.18221" lon="6.70315">
        <ele>974</ele>
        <time>2015-06-26T09:17:26Z</time>
      </trkpt>
      <trkpt lat="46.16959" lon="6.6925">
        <ele>1495</ele>
        <time>2015-06-26T09:17:30Z</time>
      </trkpt>
      <trkpt lat="46.16965" lon="6.69238">
        <ele>1495</ele>
        <time>2015-06-26T09:17:34Z</time>
      </trkpt>
      <trkpt lat="46.16968" lon="6.69223">
        <ele>1495</ele>
        <time>2015-06-26T09:17:38Z</time>
      </trkpt>
      <trkpt lat="46.16972" lon="6.69209">
        <ele>1495</ele>
        <time>2015-06-26T09:17:42Z</time>
      </trkpt>
      <trkpt lat="46.16978" lon="6.69196">
        <ele>1496</ele>
        <time>2015-06-26T09:17:46Z</time>
      </trkpt>
      <trkpt lat="46.16994" lon="6.69179">
        <ele>1495</ele>
        <time>2015-06-26T09:17:52Z</time>
      </trkpt>
      <trkpt lat="46.17012" lon="6.69161">
        <ele>1490</ele>
        <time>2015-06-26T09:17:56Z</time>
      </trkpt>
      <trkpt lat="46.17034" lon="6.69138">
        <ele>1485</ele>
        <time>2015-06-26T09:18:00Z</time>
      </trkpt>
      <trkpt lat="46.17052" lon="6.69115">
        <ele>1483</ele>
        <time>2015-06-26T09:18:04Z</time>
      </trkpt>
      <trkpt lat="46.17073" lon="6.69096">
        <ele>1482</ele>
        <time>2015-06-26T09:18:08Z</time>
      </trkpt>
      <trkpt lat="46.171" lon="6.69087">
        <ele>1476</ele>
        <time>2015-06-26T09:18:12Z</time>
      </trkpt>
      <trkpt lat="46.17128" lon="6.69086">
        <ele>1473</ele>
        <time>2015-06-26T09:18:16Z</time>
      </trkpt>
      <trkpt lat="46.17147" lon="6.69092">
        <ele>1471</ele>
        <time>2015-06-26T09:18:20Z</time>
      </trkpt>
      <trkpt lat="46.17148" lon="6.69091">
        <ele>1471</ele>
        <time>2015-06-26T09:18:24Z</time>
      </trkpt>
      <trkpt lat="46.17155" lon="6.69088">
        <ele>1471</ele>
        <time>2015-06-26T09:18:28Z</time>
      </trkpt>
      <trkpt lat="46.17171" lon="6.69084">
        <ele>1469</ele>
        <time>2015-06-26T09:18:32Z</time>
      </trkpt>
      <trkpt lat="46.17186" lon="6.69076">
        <ele>1463</ele>
        <time>2015-06-26T09:18:36Z</time>
      </trkpt>
      <trkpt lat="46.17187" lon="6.6906">
        <ele>1461</ele>
        <time>2015-06-26T09:18:40Z</time>
      </trkpt>
      <trkpt lat="46.17178" lon="6.69037">
        <ele>1460</ele>
        <time>2015-06-26T09:18:46Z</time>
      </trkpt>
      <trkpt lat="46.17169" lon="6.69034">
        <ele>1460</ele>
        <time>2015-06-26T09:18:50Z</time>
      </trkpt>
      <trkpt lat="46.17161" lon="6.69014">
        <ele>1468</ele>
        <time>2015-06-26T09:18:54Z</time>
      </trkpt>
      <trkpt lat="46.17158" lon="6.68991">
        <ele>1463</ele>
        <time>2015-06-26T09:18:58Z</time>
      </trkpt>
      <trkpt lat="46.17166" lon="6.68988">
        <ele>1463</ele>
        <time>2015-06-26T09:19:02Z</time>
      </trkpt>
      <trkpt lat="46.1718" lon="6.69004">
        <ele>1460</ele>
        <time>2015-06-26T09:19:06Z</time>
      </trkpt>
      <trkpt lat="46.17186" lon="6.68994">
        <ele>1454</ele>
        <time>2015-06-26T09:19:10Z</time>
      </trkpt>
      <trkpt lat="46.1718" lon="6.68966">
        <ele>1451</ele>
        <time>2015-06-26T09:19:14Z</time>
      </trkpt>
      <trkpt lat="46.17167" lon="6.68955">
        <ele>1451</ele>
        <time>2015-06-26T09:19:18Z</time>
      </trkpt>
      <trkpt lat="46.17174" lon="6.68945">
        <ele>1450</ele>
        <time>2015-06-26T09:19:22Z</time>
      </trkpt>
      <trkpt lat="46.17169" lon="6.68929">
        <ele>1449</ele>
        <time>2015-06-26T09:19:26Z</time>
      </trkpt>
      <trkpt lat="46.17165" lon="6.68916">
        <ele>1450</ele>
        <time>2015-06-26T09:19:30Z</time>
      </trkpt>
      <trkpt lat="46.17182" lon="6.689">
        <ele>1443</ele>
        <time>2015-06-26T09:19:34Z</time>
      </trkpt>
      <trkpt lat="46.17181" lon="6.68852">
        <ele>1441</ele>
        <time>2015-06-26T09:19:40Z</time>
      </trkpt>
      <trkpt lat="46.17171" lon="6.6879">
        <ele>1432</ele>
        <time>2015-06-26T09:19:44Z</time>
      </trkpt>
      <trkpt lat="46.17167" lon="6.68781">
        <ele>1432</ele>
        <time>2015-06-26T09:19:48Z</time>
      </trkpt>
      <trkpt lat="46.17159" lon="6.68767">
        <ele>1439</ele>
        <time>2015-06-26T09:19:52Z</time>
      </trkpt>
      <trkpt lat="46.17145" lon="6.68755">
        <ele>1440</ele>
        <time>2015-06-26T09:19:56Z</time>
      </trkpt>
      <trkpt lat="46.17126" lon="6.68744">
        <ele>1433</ele>
        <time>2015-06-26T09:20:00Z</time>
      </trkpt>
      <trkpt lat="46.17102" lon="6.68735">
        <ele>1436</ele>
        <time>2015-06-26T09:20:04Z</time>
      </trkpt>
      <trkpt lat="46.17076" lon="6.68727">
        <ele>1445</ele>
        <time>2015-06-26T09:20:08Z</time>
      </trkpt>
      <trkpt lat="46.17066" lon="6.68724">
        <ele>1445</ele>
        <time>2015-06-26T09:20:12Z</time>
      </trkpt>
      <trkpt lat="46.17066" lon="6.68724">
        <ele>1445</ele>
        <time>2015-06-26T09:20:16Z</time>
      </trkpt>
      <trkpt lat="46.17051" lon="6.68711">
        <ele>1445</ele>
        <time>2015-06-26T09:20:20Z</time>
      </trkpt>
      <trkpt lat="46.17032" lon="6.6869">
        <ele>1445</ele>
        <time>2015-06-26T09:20:24Z</time>
      </trkpt>
      <trkpt lat="46.17007" lon="6.68669">
        <ele>1446</ele>
        <time>2015-06-26T09:20:30Z</time>
      </trkpt>
      <trkpt lat="46.16995" lon="6.68659">
        <ele>1444</ele>
        <time>2015-06-26T09:20:34Z</time>
      </trkpt>
      <trkpt lat="46.16981" lon="6.68645">
        <ele>1442</ele>
        <time>2015-06-26T09:20:38Z</time>
      </trkpt>
      <trkpt lat="46.16968" lon="6.68635">
        <ele>1441</ele>
        <time>2015-06-26T09:20:42Z</time>
      </trkpt>
      <trkpt lat="46.16956" lon="6.68625">
        <ele>1440</ele>
        <time>2015-06-26T09:20:46Z</time>
      </trkpt>
      <trkpt lat="46.16945" lon="6.68616">
        <ele>1440</ele>
        <time>2015-06-26T09:20:50Z</time>
      </trkpt>
      <trkpt lat="46.16933" lon="6.68609">
        <ele>1440</ele>
        <time>2015-06-26T09:20:54Z</time>
      </trkpt>
      <trkpt lat="46.16917" lon="6.68596">
        <ele>1440</ele>
        <time>2015-06-26T09:20:58Z</time>
      </trkpt>
      <trkpt lat="46.16898" lon="6.68588">
        <ele>1442</ele>
        <time>2015-06-26T09:21:02Z</time>
      </trkpt>
      <trkpt lat="46.16882" lon="6.68584">
        <ele>1442</ele>
        <time>2015-06-26T09:21:06Z</time>
      </trkpt>
      <trkpt lat="46.16867" lon="6.68582">
        <ele>1432</ele>
        <time>2015-06-26T09:21:10Z</time>
      </trkpt>
      <trkpt lat="46.16852" lon="6.68586">
        <ele>1441</ele>
        <time>2015-06-26T09:21:14Z</time>
      </trkpt>
      <trkpt lat="46.1683" lon="6.68583">
        <ele>1436</ele>
        <time>2015-06-26T09:21:18Z</time>
      </trkpt>
      <trkpt lat="46.16788" lon="6.68595">
        <ele>1445</ele>
        <time>2015-06-26T09:21:24Z</time>
      </trkpt>
      <trkpt lat="46.1677" lon="6.68595">
        <ele>1445</ele>
        <time>2015-06-26T09:21:28Z</time>
      </trkpt>
      <trkpt lat="46.16752" lon="6.68591">
        <ele>1444</ele>
        <time>2015-06-26T09:21:32Z</time>
      </trkpt>
      <trkpt lat="46.16733" lon="6.68581">
        <ele>1437</ele>
        <time>2015-06-26T09:21:36Z</time>
      </trkpt>
      <trkpt lat="46.16714" lon="6.68568">
        <ele>1434</ele>
        <time>2015-06-26T09:21:40Z</time>
      </trkpt>
      <trkpt lat="46.16695" lon="6.68562">
        <ele>1434</ele>
        <time>2015-06-26T09:21:44Z</time>
      </trkpt>
      <trkpt lat="46.16672" lon="6.68563">
        <ele>1435</ele>
        <time>2015-06-26T09:21:48Z</time>
      </trkpt>
      <trkpt lat="46.1665" lon="6.68566">
        <ele>1431</ele>
        <time>2015-06-26T09:21:52Z</time>
      </trkpt>
      <trkpt lat="46.16634" lon="6.68567">
        <ele>1429</ele>
        <time>2015-06-26T09:21:56Z</time>
      </trkpt>
      <trkpt lat="46.16609" lon="6.68568">
        <ele>1428</ele>
        <time>2015-06-26T09:22:00Z</time>
      </trkpt>
      <trkpt lat="46.16594" lon="6.68565">
        <ele>1428</ele>
        <time>2015-06-26T09:22:04Z</time>
      </trkpt>
      <trkpt lat="46.16572" lon="6.68556">
        <ele>1427</ele>
        <time>2015-06-26T09:22:08Z</time>
      </trkpt>
      <trkpt lat="46.16549" lon="6.68539">
        <ele>1425</ele>
        <time>2015-06-26T09:22:12Z</time>
      </trkpt>
      <trkpt lat="46.1651" lon="6.68525">
        <ele>1424</ele>
        <time>2015-06-26T09:22:18Z</time>
      </trkpt>
      <trkpt lat="46.16486" lon="6.68503">
        <ele>1424</ele>
        <time>2015-06-26T09:22:22Z</time>
      </trkpt>
      <trkpt lat="46.16459" lon="6.68478">
        <ele>1413</ele>
        <time>2015-06-26T09:22:26Z</time>
      </trkpt>
      <trkpt lat="46.1643" lon="6.68456">
        <ele>1413</ele>
        <time>2015-06-26T09:22:30Z</time>
      </trkpt>
      <trkpt lat="46.164" lon="6.68441">
        <ele>1416</ele>
        <time>2015-06-26T09:22:34Z</time>
      </trkpt>
      <trkpt lat="46.16369" lon="6.68423">
        <ele>1418</ele>
        <time>2015-06-26T09:22:38Z</time>
      </trkpt>
      <trkpt lat="46.16345" lon="6.68399">
        <ele>1406</ele>
        <time>2015-06-26T09:22:42Z</time>
      </trkpt>
      <trkpt lat="46.16315" lon="6.68385">
        <ele>1403</ele>
        <time>2015-06-26T09:22:46Z</time>
      </trkpt>
      <trkpt lat="46.16283" lon="6.68382">
        <ele>1401</ele>
        <time>2015-06-26T09:22:50Z</time>
      </trkpt>
      <trkpt lat="46.16249" lon="6.68396">
        <ele>1400</ele>
        <time>2015-06-26T09:22:54Z</time>
      </trkpt>
      <trkpt lat="46.16216" lon="6.68407">
        <ele>1397</ele>
        <time>2015-06-26T09:22:58Z</time>
      </trkpt>
      <trkpt lat="46.16187" lon="6.68419">
        <ele>1408</ele>
        <time>2015-06-26T09:23:02Z</time>
      </trkpt>
      <trkpt lat="46.16161" lon="6.68428">
        <ele>1400</ele>
        <time>2015-06-26T09:23:06Z</time>
      </trkpt>
      <trkpt lat="46.1612" lon="6.68452">
        <ele>1400</ele>
        <time>2015-06-26T09:23:12Z</time>
      </trkpt>
      <trkpt lat="46.16089" lon="6.68475">
        <ele>1402</ele>
        <time>2015-06-26T09:23:16Z</time>
      </trkpt>
      <trkpt lat="46.16061" lon="6.68497">
        <ele>1395</ele>
        <time>2015-06-26T09:23:20Z</time>
      </trkpt>
      <trkpt lat="46.16039" lon="6.6852">
        <ele>1405</ele>
        <time>2015-06-26T09:23:24Z</time>
      </trkpt>
      <trkpt lat="46.16018" lon="6.68508">
        <ele>1399</ele>
        <time>2015-06-26T09:23:28Z</time>
      </trkpt>
      <trkpt lat="46.15995" lon="6.68499">
        <ele>1387</ele>
        <time>2015-06-26T09:23:32Z</time>
      </trkpt>
      <trkpt lat="46.15971" lon="6.68502">
        <ele>1394</ele>
        <time>2015-06-26T09:23:36Z</time>
      </trkpt>
      <trkpt lat="46.15948" lon="6.68497">
        <ele>1379</ele>
        <time>2015-06-26T09:23:40Z</time>
      </trkpt>
      <trkpt lat="46.15931" lon="6.68478">
        <ele>1378</ele>
        <time>2015-06-26T09:23:44Z</time>
      </trkpt>
      <trkpt lat="46.15907" lon="6.68453">
        <ele>1374</ele>
        <time>2015-06-26T09:23:48Z</time>
      </trkpt>
      <trkpt lat="46.15882" lon="6.68442">
        <ele>1374</ele>
        <time>2015-06-26T09:23:52Z</time>
      </trkpt>
      <trkpt lat="46.15862" lon="6.68438">
        <ele>1374</ele>
        <time>2015-06-26T09:23:56Z</time>
      </trkpt>
      <trkpt lat="46.15841" lon="6.68413">
        <ele>1368</ele>
        <time>2015-06-26T09:24:02Z</time>
      </trkpt>
      <trkpt lat="46.15835" lon="6.68383">
        <ele>1364</ele>
        <time>2015-06-26T09:24:06Z</time>
      </trkpt>
      <trkpt lat="46.15824" lon="6.68355">
        <ele>1361</ele>
        <time>2015-06-26T09:24:10Z</time>
      </trkpt>
      <trkpt lat="46.15813" lon="6.6833">
        <ele>1352</ele>
        <time>2015-06-26T09:24:14Z</time>
      </trkpt>
      <trkpt lat="46.15798" lon="6.68304">
        <ele>1349</ele>
        <time>2015-06-26T09:24:18Z</time>
      </trkpt>
      <trkpt lat="46.15779" lon="6.6828">
        <ele>1346</ele>
        <time>2015-06-26T09:24:22Z</time>
      </trkpt>
      <trkpt lat="46.15758" lon="6.68254">
        <ele>1339</ele>
        <time>2015-06-26T09:24:26Z</time>
      </trkpt>
      <trkpt lat="46.15734" lon="6.68228">
        <ele>1333</ele>
        <time>2015-06-26T09:24:30Z</time>
      </trkpt>
      <trkpt lat="46.1571" lon="6.68196">
        <ele>1330</ele>
        <time>2015-06-26T09:24:34Z</time>
      </trkpt>
      <trkpt lat="46.15688" lon="6.68167">
        <ele>1328</ele>
        <time>2015-06-26T09:24:38Z</time>
      </trkpt>
      <trkpt lat="46.15669" lon="6.68141">
        <ele>1318</ele>
        <time>2015-06-26T09:24:42Z</time>
      </trkpt>
      <trkpt lat="46.15648" lon="6.68124">
        <ele>1322</ele>
        <time>2015-06-26T09:24:46Z</time>
      </trkpt>
      <trkpt lat="46.15624" lon="6.681">
        <ele>1323</ele>
        <time>2015-06-26T09:24:50Z</time>
      </trkpt>
      <trkpt lat="46.15601" lon="6.68036">
        <ele>1315</ele>
        <time>2015-06-26T09:24:56Z</time>
      </trkpt>
      <trkpt lat="46.15594" lon="6.67997">
        <ele>1311</ele>
        <time>2015-06-26T09:25:00Z</time>
      </trkpt>
      <trkpt lat="46.15592" lon="6.67978">
        <ele>1308</ele>
        <time>2015-06-26T09:25:04Z</time>
      </trkpt>
      <trkpt lat="46.15592" lon="6.67967">
        <ele>1306</ele>
        <time>2015-06-26T09:25:08Z</time>
      </trkpt>
      <trkpt lat="46.15589" lon="6.67943">
        <ele>1305</ele>
        <time>2015-06-26T09:25:12Z</time>
      </trkpt>
      <trkpt lat="46.15585" lon="6.67912">
        <ele>1303</ele>
        <time>2015-06-26T09:25:16Z</time>
      </trkpt>
      <trkpt lat="46.15575" lon="6.67878">
        <ele>1306</ele>
        <time>2015-06-26T09:25:20Z</time>
      </trkpt>
      <trkpt lat="46.15564" lon="6.67834">
        <ele>1301</ele>
        <time>2015-06-26T09:25:24Z</time>
      </trkpt>
      <trkpt lat="46.15554" lon="6.67799">
        <ele>1293</ele>
        <time>2015-06-26T09:25:28Z</time>
      </trkpt>
      <trkpt lat="46.15536" lon="6.67772">
        <ele>1292</ele>
        <time>2015-06-26T09:25:32Z</time>
      </trkpt>
      <trkpt lat="46.15516" lon="6.67753">
        <ele>1291</ele>
        <time>2015-06-26T09:25:36Z</time>
      </trkpt>
      <trkpt lat="46.15493" lon="6.6773">
        <ele>1287</ele>
        <time>2015-06-26T09:25:40Z</time>
      </trkpt>
      <trkpt lat="46.15472" lon="6.67709">
        <ele>1285</ele>
        <time>2015-06-26T09:25:44Z</time>
      </trkpt>
      <trkpt lat="46.15454" lon="6.67678">
        <ele>1283</ele>
        <time>2015-06-26T09:25:50Z</time>
      </trkpt>
      <trkpt lat="46.15437" lon="6.67657">
        <ele>1274</ele>
        <time>2015-06-26T09:25:54Z</time>
      </trkpt>
      <trkpt lat="46.15417" lon="6.67654">
        <ele>1276</ele>
        <time>2015-06-26T09:25:58Z</time>
      </trkpt>
      <trkpt lat="46.15403" lon="6.67633">
        <ele>1276</ele>
        <time>2015-06-26T09:26:02Z</time>
      </trkpt>
      <trkpt lat="46.15416" lon="6.67615">
        <ele>1274</ele>
        <time>2015-06-26T09:26:06Z</time>
      </trkpt>
      <trkpt lat="46.15421" lon="6.67591">
        <ele>1268</ele>
        <time>2015-06-26T09:26:10Z</time>
      </trkpt>
      <trkpt lat="46.154" lon="6.67564">
        <ele>1266</ele>
        <time>2015-06-26T09:26:14Z</time>
      </trkpt>
      <trkpt lat="46.15373" lon="6.67536">
        <ele>1265</ele>
        <time>2015-06-26T09:26:18Z</time>
      </trkpt>
      <trkpt lat="46.15356" lon="6.67524">
        <ele>1266</ele>
        <time>2015-06-26T09:26:22Z</time>
      </trkpt>
      <trkpt lat="46.15345" lon="6.67525">
        <ele>1266</ele>
        <time>2015-06-26T09:26:26Z</time>
      </trkpt>
      <trkpt lat="46.15361" lon="6.67502">
        <ele>1265</ele>
        <time>2015-06-26T09:26:30Z</time>
      </trkpt>
      <trkpt lat="46.15385" lon="6.67483">
        <ele>1256</ele>
        <time>2015-06-26T09:26:34Z</time>
      </trkpt>
      <trkpt lat="46.15399" lon="6.67442">
        <ele>1253</ele>
        <time>2015-06-26T09:26:40Z</time>
      </trkpt>
      <trkpt lat="46.1541" lon="6.67407">
        <ele>1247</ele>
        <time>2015-06-26T09:26:44Z</time>
      </trkpt>
      <trkpt lat="46.15428" lon="6.67386">
        <ele>1244</ele>
        <time>2015-06-26T09:26:48Z</time>
      </trkpt>
      <trkpt lat="46.15443" lon="6.67371">
        <ele>1243</ele>
        <time>2015-06-26T09:26:52Z</time>
      </trkpt>
      <trkpt lat="46.15446" lon="6.67363">
        <ele>1243</ele>
        <time>2015-06-26T09:26:56Z</time>
      </trkpt>
      <trkpt lat="46.15431" lon="6.67363">
        <ele>1243</ele>
        <time>2015-06-26T09:27:00Z</time>
      </trkpt>
      <trkpt lat="46.1542" lon="6.67362">
        <ele>1243</ele>
        <time>2015-06-26T09:27:04Z</time>
      </trkpt>
      <trkpt lat="46.15408" lon="6.67364">
        <ele>1246</ele>
        <time>2015-06-26T09:27:08Z</time>
      </trkpt>
      <trkpt lat="46.15398" lon="6.67359">
        <ele>1246</ele>
        <time>2015-06-26T09:27:12Z</time>
      </trkpt>
      <trkpt lat="46.15383" lon="6.67356">
        <ele>1246</ele>
        <time>2015-06-26T09:27:16Z</time>
      </trkpt>
      <trkpt lat="46.15391" lon="6.67358">
        <ele>1246</ele>
        <time>2015-06-26T09:27:20Z</time>
      </trkpt>
      <trkpt lat="46.15402" lon="6.67363">
        <ele>1246</ele>
        <time>2015-06-26T09:27:24Z</time>
      </trkpt>
      <trkpt lat="46.15413" lon="6.67362">
        <ele>1246</ele>
        <time>2015-06-26T09:27:28Z</time>
      </trkpt>
      <trkpt lat="46.15429" lon="6.67358">
        <ele>1243</ele>
        <time>2015-06-26T09:27:34Z</time>
      </trkpt>
      <trkpt lat="46.1544" lon="6.67366">
        <ele>1243</ele>
        <time>2015-06-26T09:27:38Z</time>
      </trkpt>
      <trkpt lat="46.15452" lon="6.67364">
        <ele>1242</ele>
        <time>2015-06-26T09:27:42Z</time>
      </trkpt>
      <trkpt lat="46.15463" lon="6.67351">
        <ele>1242</ele>
        <time>2015-06-26T09:27:46Z</time>
      </trkpt>
      <trkpt lat="46.15474" lon="6.67332">
        <ele>1240</ele>
        <time>2015-06-26T09:27:50Z</time>
      </trkpt>
      <trkpt lat="46.15483" lon="6.67302">
        <ele>1240</ele>
        <time>2015-06-26T09:27:54Z</time>
      </trkpt>
      <trkpt lat="46.15497" lon="6.67269">
        <ele>1240</ele>
        <time>2015-06-26T09:27:58Z</time>
      </trkpt>
      <trkpt lat="46.15513" lon="6.67234">
        <ele>1238</ele>
        <time>2015-06-26T09:28:02Z</time>
      </trkpt>
      <trkpt lat="46.15524" lon="6.672">
        <ele>1237</ele>
        <time>2015-06-26T09:28:06Z</time>
      </trkpt>
      <trkpt lat="46.15531" lon="6.67172">
        <ele>1237</ele>
        <time>2015-06-26T09:28:10Z</time>
      </trkpt>
      <trkpt lat="46.15529" lon="6.67144">
        <ele>1234</ele>
        <time>2015-06-26T09:28:14Z</time>
      </trkpt>
      <trkpt lat="46.15514" lon="6.67114">
        <ele>1233</ele>
        <time>2015-06-26T09:28:18Z</time>
      </trkpt>
      <trkpt lat="46.15494" lon="6.67084">
        <ele>1234</ele>
        <time>2015-06-26T09:28:22Z</time>
      </trkpt>
      <trkpt lat="46.15462" lon="6.67028">
        <ele>1227</ele>
        <time>2015-06-26T09:28:28Z</time>
      </trkpt>
      <trkpt lat="46.15445" lon="6.66994">
        <ele>1216</ele>
        <time>2015-06-26T09:28:32Z</time>
      </trkpt>
      <trkpt lat="46.15425" lon="6.66964">
        <ele>1214</ele>
        <time>2015-06-26T09:28:36Z</time>
      </trkpt>
      <trkpt lat="46.15407" lon="6.66941">
        <ele>1217</ele>
        <time>2015-06-26T09:28:40Z</time>
      </trkpt>
      <trkpt lat="46.1541" lon="6.66922">
        <ele>1212</ele>
        <time>2015-06-26T09:28:44Z</time>
      </trkpt>
      <trkpt lat="46.15435" lon="6.66923">
        <ele>1209</ele>
        <time>2015-06-26T09:28:48Z</time>
      </trkpt>
      <trkpt lat="46.15465" lon="6.6692">
        <ele>1207</ele>
        <time>2015-06-26T09:28:52Z</time>
      </trkpt>
      <trkpt lat="46.15492" lon="6.66919">
        <ele>1201</ele>
        <time>2015-06-26T09:28:56Z</time>
      </trkpt>
      <trkpt lat="46.15523" lon="6.6691">
        <ele>1192</ele>
        <time>2015-06-26T09:29:00Z</time>
      </trkpt>
      <trkpt lat="46.15555" lon="6.66904">
        <ele>1189</ele>
        <time>2015-06-26T09:29:04Z</time>
      </trkpt>
      <trkpt lat="46.15588" lon="6.66897">
        <ele>1183</ele>
        <time>2015-06-26T09:29:08Z</time>
      </trkpt>
      <trkpt lat="46.15618" lon="6.66895">
        <ele>1181</ele>
        <time>2015-06-26T09:29:12Z</time>
      </trkpt>
      <trkpt lat="46.15643" lon="6.66895">
        <ele>1179</ele>
        <time>2015-06-26T09:29:16Z</time>
      </trkpt>
      <trkpt lat="46.15647" lon="6.66844">
        <ele>1176</ele>
        <time>2015-06-26T09:29:22Z</time>
      </trkpt>
      <trkpt lat="46.15657" lon="6.66814">
        <ele>1173</ele>
        <time>2015-06-26T09:29:26Z</time>
      </trkpt>
      <trkpt lat="46.14488" lon="6.69434">
        <ele>1611</ele>
        <time>2015-06-26T09:29:30Z</time>
      </trkpt>
      <trkpt lat="46.1449" lon="6.69442">
        <ele>1611</ele>
        <time>2015-06-26T09:29:34Z</time>
      </trkpt>
      <trkpt lat="46.14502" lon="6.69443">
        <ele>1607</ele>
        <time>2015-06-26T09:29:38Z</time>
      </trkpt>
      <trkpt lat="46.14522" lon="6.69439">
        <ele>1607</ele>
        <time>2015-06-26T09:29:42Z</time>
      </trkpt>
      <trkpt lat="46.14548" lon="6.69431">
        <ele>1605</ele>
        <time>2015-06-26T09:29:46Z</time>
      </trkpt>
      <trkpt lat="46.14572" lon="6.69419">
        <ele>1605</ele>
        <time>2015-06-26T09:29:50Z</time>
      </trkpt>
      <trkpt lat="46.14593" lon="6.694">
        <ele>1603</ele>
        <time>2015-06-26T09:29:54Z</time>
      </trkpt>
      <trkpt lat="46.14612" lon="6.6937">
        <ele>1602</ele>
        <time>2015-06-26T09:29:58Z</time>
      </trkpt>
      <trkpt lat="46.14633" lon="6.69337">
        <ele>1602</ele>
        <time>2015-06-26T09:30:02Z</time>
      </trkpt>
      <trkpt lat="46.14662" lon="6.69318">
        <ele>1600</ele>
        <time>2015-06-26T09:30:06Z</time>
      </trkpt>
      <trkpt lat="46.14702" lon="6.69315">
        <ele>1595</ele>
        <time>2015-06-26T09:30:12Z</time>
      </trkpt>
      <trkpt lat="46.1473" lon="6.6931">
        <ele>1593</ele>
        <time>2015-06-26T09:30:16Z</time>
      </trkpt>
      <trkpt lat="46.14756" lon="6.69308">
        <ele>1587</ele>
        <time>2015-06-26T09:30:20Z</time>
      </trkpt>
      <trkpt lat="46.14779" lon="6.69306">
        <ele>1585</ele>
        <time>2015-06-26T09:30:24Z</time>
      </trkpt>
      <trkpt lat="46.14803" lon="6.69299">
        <ele>1583</ele>
        <time>2015-06-26T09:30:28Z</time>
      </trkpt>
      <trkpt lat="46.1482" lon="6.69295">
        <ele>1581</ele>
        <time>2015-06-26T09:30:32Z</time>
      </trkpt>
      <trkpt lat="46.14838" lon="6.69291">
        <ele>1573</ele>
        <time>2015-06-26T09:30:36Z</time>
      </trkpt>
      <trkpt lat="46.14856" lon="6.69287">
        <ele>1572</ele>
        <time>2015-06-26T09:30:40Z</time>
      </trkpt>
      <trkpt lat="46.14875" lon="6.69302">
        <ele>1571</ele>
        <time>2015-06-26T09:30:44Z</time>
      </trkpt>
      <trkpt lat="46.14892" lon="6.69322">
        <ele>1569</ele>
        <time>2015-06-26T09:30:48Z</time>
      </trkpt>
      <trkpt lat="46.14907" lon="6.6935">
        <ele>1567</ele>
        <time>2015-06-26T09:30:52Z</time>
      </trkpt>
      <trkpt lat="46.1492" lon="6.69383">
        <ele>1560</ele>
        <time>2015-06-26T09:30:56Z</time>
      </trkpt>
      <trkpt lat="46.14935" lon="6.69416">
        <ele>1560</ele>
        <time>2015-06-26T09:31:00Z</time>
      </trkpt>
      <trkpt lat="46.14968" lon="6.69428">
        <ele>1554</ele>
        <time>2015-06-26T09:31:06Z</time>
      </trkpt>
      <trkpt lat="46.14996" lon="6.69437">
        <ele>1554</ele>
        <time>2015-06-26T09:31:10Z</time>
      </trkpt>
      <trkpt lat="46.15032" lon="6.69454">
        <ele>1551</ele>
        <time>2015-06-26T09:31:14Z</time>
      </trkpt>
      <trkpt lat="46.15066" lon="6.69461">
        <ele>1550</ele>
        <time>2015-06-26T09:31:18Z</time>
      </trkpt>
      <trkpt lat="46.15093" lon="6.69456">
        <ele>1546</ele>
        <time>2015-06-26T09:31:22Z</time>
      </trkpt>
      <trkpt lat="46.15113" lon="6.69446">
        <ele>1545</ele>
        <time>2015-06-26T09:31:26Z</time>
      </trkpt>
      <trkpt lat="46.15131" lon="6.69423">
        <ele>1544</ele>
        <time>2015-06-26T09:31:30Z</time>
      </trkpt>
      <trkpt lat="46.15148" lon="6.69405">
        <ele>1540</ele>
        <time>2015-06-26T09:31:34Z</time>
      </trkpt>
      <trkpt lat="46.15166" lon="6.69393">
        <ele>1539</ele>
        <time>2015-06-26T09:31:38Z</time>
      </trkpt>
      <trkpt lat="46.15185" lon="6.69386">
        <ele>1531</ele>
        <time>2015-06-26T09:31:42Z</time>
      </trkpt>
      <trkpt lat="46.15206" lon="6.69375">
        <ele>1528</ele>
        <time>2015-06-26T09:31:46Z</time>
      </trkpt>
      <trkpt lat="46.15228" lon="6.69383">
        <ele>1527</ele>
        <time>2015-06-26T09:31:50Z</time>
      </trkpt>
      <trkpt lat="46.15245" lon="6.69399">
        <ele>1526</ele>
        <time>2015-06-26T09:31:54Z</time>
      </trkpt>
      <trkpt lat="46.15275" lon="6.69411">
        <ele>1522</ele>
        <time>2015-06-26T09:32:00Z</time>
      </trkpt>
      <trkpt lat="46.15299" lon="6.69419">
        <ele>1518</ele>
        <time>2015-06-26T09:32:04Z</time>
      </trkpt>
      <trkpt lat="46.15313" lon="6.69422">
        <ele>1518</ele>
        <time>2015-06-26T09:32:08Z</time>
      </trkpt>
      <trkpt lat="46.15323" lon="6.69423">
        <ele>1518</ele>
        <time>2015-06-26T09:32:12Z</time>
      </trkpt>
      <trkpt lat="46.15332" lon="6.69426">
        <ele>1518</ele>
        <time>2015-06-26T09:32:16Z</time>
      </trkpt>
      <trkpt lat="46.1534" lon="6.69429">
        <ele>1518</ele>
        <time>2015-06-26T09:32:20Z</time>
      </trkpt>
      <trkpt lat="46.15348" lon="6.69432">
        <ele>1517</ele>
        <time>2015-06-26T09:32:24Z</time>
      </trkpt>
      <trkpt lat="46.15356" lon="6.69434">
        <ele>1517</ele>
        <time>2015-06-26T09:32:28Z</time>
      </trkpt>
      <trkpt lat="46.15364" lon="6.69435">
        <ele>1518</ele>
        <time>2015-06-26T09:32:32Z</time>
      </trkpt>
      <trkpt lat="46.15372" lon="6.69436">
        <ele>1518</ele>
        <time>2015-06-26T09:32:36Z</time>
      </trkpt>
      <trkpt lat="46.15382" lon="6.69437">
        <ele>1519</ele>
        <time>2015-06-26T09:32:40Z</time>
      </trkpt>
      <trkpt lat="46.15392" lon="6.69437">
        <ele>1520</ele>
        <time>2015-06-26T09:32:44Z</time>
      </trkpt>
      <trkpt lat="46.15404" lon="6.69434">
        <ele>1521</ele>
        <time>2015-06-26T09:32:48Z</time>
      </trkpt>
      <trkpt lat="46.15426" lon="6.6943">
        <ele>1524</ele>
        <time>2015-06-26T09:32:54Z</time>
      </trkpt>
      <trkpt lat="46.15441" lon="6.69428">
        <ele>1523</ele>
        <time>2015-06-26T09:32:58Z</time>
      </trkpt>
      <trkpt lat="46.1545" lon="6.69424">
        <ele>1522</ele>
        <time>2015-06-26T09:33:02Z</time>
      </trkpt>
      <trkpt lat="46.15457" lon="6.69422">
        <ele>1522</ele>
        <time>2015-06-26T09:33:06Z</time>
      </trkpt>
      <trkpt lat="46.15466" lon="6.6942">
        <ele>1522</ele>
        <time>2015-06-26T09:33:10Z</time>
      </trkpt>
      <trkpt lat="46.15479" lon="6.69422">
        <ele>1522</ele>
        <time>2015-06-26T09:33:14Z</time>
      </trkpt>
      <trkpt lat="46.15503" lon="6.69425">
        <ele>1520</ele>
        <time>2015-06-26T09:33:18Z</time>
      </trkpt>
      <trkpt lat="46.15529" lon="6.69419">
        <ele>1514</ele>
        <time>2015-06-26T09:33:22Z</time>
      </trkpt>
      <trkpt lat="46.15554" lon="6.69401">
        <ele>1524</ele>
        <time>2015-06-26T09:33:26Z</time>
      </trkpt>
      <trkpt lat="46.15571" lon="6.69389">
        <ele>1524</ele>
        <time>2015-06-26T09:33:30Z</time>
      </trkpt>
      <trkpt lat="46.15579" lon="6.69382">
        <ele>1524</ele>
        <time>2015-06-26T09:33:34Z</time>
      </trkpt>
      <trkpt lat="46.15587" lon="6.69375">
        <ele>1521</ele>
        <time>2015-06-26T09:33:38Z</time>
      </trkpt>
      <trkpt lat="46.15597" lon="6.69365">
        <ele>1522</ele>
        <time>2015-06-26T09:33:44Z</time>
      </trkpt>
      <trkpt lat="46.15604" lon="6.69358">
        <ele>1523</ele>
        <time>2015-06-26T09:33:48Z</time>
      </trkpt>
      <trkpt lat="46.15612" lon="6.69355">
        <ele>1522</ele>
        <time>2015-06-26T09:33:52Z</time>
      </trkpt>
      <trkpt lat="46.1562" lon="6.69352">
        <ele>1522</ele>
        <time>2015-06-26T09:33:56Z</time>
      </trkpt>
      <trkpt lat="46.15627" lon="6.69353">
        <ele>1522</ele>
        <time>2015-06-26T09:34:00Z</time>
      </trkpt>
      <trkpt lat="46.15633" lon="6.69353">
        <ele>1522</ele>
        <time>2015-06-26T09:34:04Z</time>
      </trkpt>
      <trkpt lat="46.15639" lon="6.69353">
        <ele>1522</ele>
        <time>2015-06-26T09:34:08Z</time>
      </trkpt>
      <trkpt lat="46.15645" lon="6.69351">
        <ele>1522</ele>
        <time>2015-06-26T09:34:12Z</time>
      </trkpt>
      <trkpt lat="46.1565" lon="6.69349">
        <ele>1522</ele>
        <time>2015-06-26T09:34:16Z</time>
      </trkpt>
      <trkpt lat="46.15659" lon="6.69347">
        <ele>1523</ele>
        <time>2015-06-26T09:34:20Z</time>
      </trkpt>
      <trkpt lat="46.15672" lon="6.6935">
        <ele>1514</ele>
        <time>2015-06-26T09:34:24Z</time>
      </trkpt>
      <trkpt lat="46.15686" lon="6.69351">
        <ele>1510</ele>
        <time>2015-06-26T09:34:28Z</time>
      </trkpt>
      <trkpt lat="46.15698" lon="6.69348">
        <ele>1507</ele>
        <time>2015-06-26T09:34:32Z</time>
      </trkpt>
      <trkpt lat="46.15709" lon="6.69323">
        <ele>1513</ele>
        <time>2015-06-26T09:34:38Z</time>
      </trkpt>
      <trkpt lat="46.15709" lon="6.69313">
        <ele>1513</ele>
        <time>2015-06-26T09:34:42Z</time>
      </trkpt>
      <trkpt lat="46.15713" lon="6.69302">
        <ele>1513</ele>
        <time>2015-06-26T09:34:46Z</time>
      </trkpt>
      <trkpt lat="46.15722" lon="6.6929">
        <ele>1512</ele>
        <time>2015-06-26T09:34:50Z</time>
      </trkpt>
      <trkpt lat="46.15745" lon="6.69282">
        <ele>1510</ele>
        <time>2015-06-26T09:34:54Z</time>
      </trkpt>
      <trkpt lat="46.15771" lon="6.69271">
        <ele>1501</ele>
        <time>2015-06-26T09:34:58Z</time>
      </trkpt>
      <trkpt lat="46.15788" lon="6.69263">
        <ele>1500</ele>
        <time>2015-06-26T09:35:02Z</time>
      </trkpt>
      <trkpt lat="46.15805" lon="6.69254">
        <ele>1499</ele>
        <time>2015-06-26T09:35:06Z</time>
      </trkpt>
      <trkpt lat="46.15826" lon="6.69263">
        <ele>1499</ele>
        <time>2015-06-26T09:35:10Z</time>
      </trkpt>
      <trkpt lat="46.15846" lon="6.69263">
        <ele>1497</ele>
        <time>2015-06-26T09:35:14Z</time>
      </trkpt>
      <trkpt lat="46.15864" lon="6.69269">
        <ele>1496</ele>
        <time>2015-06-26T09:35:18Z</time>
      </trkpt>
      <trkpt lat="46.15881" lon="6.69279">
        <ele>1496</ele>
        <time>2015-06-26T09:35:22Z</time>
      </trkpt>
      <trkpt lat="46.15898" lon="6.69285">
        <ele>1496</ele>
        <time>2015-06-26T09:35:26Z</time>
      </trkpt>
      <trkpt lat="46.15913" lon="6.693">
        <ele>1495</ele>
        <time>2015-06-26T09:35:32Z</time>
      </trkpt>
      <trkpt lat="46.15914" lon="6.69303">
        <ele>1495</ele>
        <time>2015-06-26T09:35:36Z</time>
      </trkpt>
      <trkpt lat="46.15917" lon="6.69307">
        <ele>1500</ele>
        <time>2015-06-26T09:35:40Z</time>
      </trkpt>
      <trkpt lat="46.1592" lon="6.69311">
        <ele>1499</ele>
        <time>2015-06-26T09:35:44Z</time>
      </trkpt>
      <trkpt lat="46.15923" lon="6.69316">
        <ele>1499</ele>
        <time>2015-06-26T09:35:48Z</time>
      </trkpt>
      <trkpt lat="46.15925" lon="6.69319">
        <ele>1499</ele>
        <time>2015-06-26T09:35:52Z</time>
      </trkpt>
      <trkpt lat="46.15926" lon="6.69323">
        <ele>1498</ele>
        <time>2015-06-26T09:35:56Z</time>
      </trkpt>
      <trkpt lat="46.15928" lon="6.69326">
        <ele>1498</ele>
        <time>2015-06-26T09:36:00Z</time>
      </trkpt>
      <trkpt lat="46.15931" lon="6.6933">
        <ele>1498</ele>
        <time>2015-06-26T09:36:04Z</time>
      </trkpt>
      <trkpt lat="46.15933" lon="6.69332">
        <ele>1499</ele>
        <time>2015-06-26T09:36:08Z</time>
      </trkpt>
      <trkpt lat="46.15937" lon="6.69333">
        <ele>1499</ele>
        <time>2015-06-26T09:36:12Z</time>
      </trkpt>
      <trkpt lat="46.15939" lon="6.69335">
        <ele>1496</ele>
        <time>2015-06-26T09:36:16Z</time>
      </trkpt>
      <trkpt lat="46.15942" lon="6.69339">
        <ele>1496</ele>
        <time>2015-06-26T09:36:20Z</time>
      </trkpt>
      <trkpt lat="46.15947" lon="6.69344">
        <ele>1497</ele>
        <time>2015-06-26T09:36:26Z</time>
      </trkpt>
      <trkpt lat="46.15956" lon="6.69348">
        <ele>1497</ele>
        <time>2015-06-26T09:36:30Z</time>
      </trkpt>
      <trkpt lat="46.15964" lon="6.69349">
        <ele>1498</ele>
        <time>2015-06-26T09:36:34Z</time>
      </trkpt>
      <trkpt lat="46.15972" lon="6.69352">
        <ele>1499</ele>
        <time>2015-06-26T09:36:38Z</time>
      </trkpt>
      <trkpt lat="46.15982" lon="6.69351">
        <ele>1500</ele>
        <time>2015-06-26T09:36:42Z</time>
      </trkpt>
      <trkpt lat="46.15992" lon="6.69353">
        <ele>1501</ele>
        <time>2015-06-26T09:36:46Z</time>
      </trkpt>
      <trkpt lat="46.16001" lon="6.69356">
        <ele>1510</ele>
        <time>2015-06-26T09:36:50Z</time>
      </trkpt>
      <trkpt lat="46.16008" lon="6.69362">
        <ele>1511</ele>
        <time>2015-06-26T09:36:54Z</time>
      </trkpt>
      <trkpt lat="46.16012" lon="6.69363">
        <ele>1511</ele>
        <time>2015-06-26T09:36:58Z</time>
      </trkpt>
      <trkpt lat="46.16013" lon="6.69367">
        <ele>1511</ele>
        <time>2015-06-26T09:37:02Z</time>
      </trkpt>
      <trkpt lat="46.16014" lon="6.69372">
        <ele>1512</ele>
        <time>2015-06-26T09:37:06Z</time>
      </trkpt>
      <trkpt lat="46.16016" lon="6.69379">
        <ele>1512</ele>
        <time>2015-06-26T09:37:10Z</time>
      </trkpt>
      <trkpt lat="46.16019" lon="6.69387">
        <ele>1512</ele>
        <time>2015-06-26T09:37:16Z</time>
      </trkpt>
      <trkpt lat="46.16024" lon="6.69393">
        <ele>1512</ele>
        <time>2015-06-26T09:37:20Z</time>
      </trkpt>
      <trkpt lat="46.16026" lon="6.694">
        <ele>1512</ele>
        <time>2015-06-26T09:37:24Z</time>
      </trkpt>
      <trkpt lat="46.16029" lon="6.69405">
        <ele>1512</ele>
        <time>2015-06-26T09:37:28Z</time>
      </trkpt>
      <trkpt lat="46.16033" lon="6.69408">
        <ele>1513</ele>
        <time>2015-06-26T09:37:32Z</time>
      </trkpt>
      <trkpt lat="46.16036" lon="6.69412">
        <ele>1514</ele>
        <time>2015-06-26T09:37:36Z</time>
      </trkpt>
      <trkpt lat="46.16039" lon="6.69415">
        <ele>1514</ele>
        <time>2015-06-26T09:37:40Z</time>
      </trkpt>
      <trkpt lat="46.16041" lon="6.69419">
        <ele>1513</ele>
        <time>2015-06-26T09:37:44Z</time>
      </trkpt>
      <trkpt lat="46.16042" lon="6.69422">
        <ele>1513</ele>
        <time>2015-06-26T09:37:48Z</time>
      </trkpt>
      <trkpt lat="46.16045" lon="6.69428">
        <ele>1514</ele>
        <time>2015-06-26T09:37:52Z</time>
      </trkpt>
      <trkpt lat="46.16047" lon="6.69431">
        <ele>1514</ele>
        <time>2015-06-26T09:37:56Z</time>
      </trkpt>
      <trkpt lat="46.16049" lon="6.69435">
        <ele>1514</ele>
        <time>2015-06-26T09:38:00Z</time>
      </trkpt>
      <trkpt lat="46.1605" lon="6.69439">
        <ele>1514</ele>
        <time>2015-06-26T09:38:04Z</time>
      </trkpt>
      <trkpt lat="46.16052" lon="6.69449">
        <ele>1514</ele>
        <time>2015-06-26T09:38:10Z</time>
      </trkpt>
      <trkpt lat="46.16054" lon="6.69452">
        <ele>1514</ele>
        <time>2015-06-26T09:38:14Z</time>
      </trkpt>
      <trkpt lat="46.16056" lon="6.69455">
        <ele>1514</ele>
        <time>2015-06-26T09:38:18Z</time>
      </trkpt>
      <trkpt lat="46.16058" lon="6.69457">
        <ele>1514</ele>
        <time>2015-06-26T09:38:22Z</time>
      </trkpt>
      <trkpt lat="46.16061" lon="6.69462">
        <ele>1514</ele>
        <time>2015-06-26T09:38:26Z</time>
      </trkpt>
      <trkpt lat="46.16063" lon="6.69466">
        <ele>1514</ele>
        <time>2015-06-26T09:38:30Z</time>
      </trkpt>
      <trkpt lat="46.16064" lon="6.69468">
        <ele>1514</ele>
        <time>2015-06-26T09:38:34Z</time>
      </trkpt>
      <trkpt lat="46.16064" lon="6.69472">
        <ele>1514</ele>
        <time>2015-06-26T09:38:38Z</time>
      </trkpt>
      <trkpt lat="46.16065" lon="6.69475">
        <ele>1514</ele>
        <time>2015-06-26T09:38:42Z</time>
      </trkpt>
      <trkpt lat="46.16068" lon="6.69479">
        <ele>1515</ele>
        <time>2015-06-26T09:38:46Z</time>
      </trkpt>
      <trkpt lat="46.1607" lon="6.69479">
        <ele>1515</ele>
        <time>2015-06-26T09:38:50Z</time>
      </trkpt>
      <trkpt lat="46.16074" lon="6.6948">
        <ele>1516</ele>
        <time>2015-06-26T09:38:54Z</time>
      </trkpt>
      <trkpt lat="46.16075" lon="6.69478">
        <ele>1516</ele>
        <time>2015-06-26T09:38:58Z</time>
      </trkpt>
      <trkpt lat="46.16074" lon="6.69474">
        <ele>1515</ele>
        <time>2015-06-26T09:39:04Z</time>
      </trkpt>
      <trkpt lat="46.16073" lon="6.69469">
        <ele>1515</ele>
        <time>2015-06-26T09:39:08Z</time>
      </trkpt>
      <trkpt lat="46.16073" lon="6.69465">
        <ele>1515</ele>
        <time>2015-06-26T09:39:12Z</time>
      </trkpt>
      <trkpt lat="46.16073" lon="6.69461">
        <ele>1516</ele>
        <time>2015-06-26T09:39:16Z</time>
      </trkpt>
      <trkpt lat="46.16076" lon="6.69456">
        <ele>1516</ele>
        <time>2015-06-26T09:39:20Z</time>
      </trkpt>
      <trkpt lat="46.16075" lon="6.6945">
        <ele>1517</ele>
        <time>2015-06-26T09:39:24Z</time>
      </trkpt>
      <trkpt lat="46.16074" lon="6.69446">
        <ele>1517</ele>
        <time>2015-06-26T09:39:28Z</time>
      </trkpt>
      <trkpt lat="46.16079" lon="6.69445">
        <ele>1518</ele>
        <time>2015-06-26T09:39:32Z</time>
      </trkpt>
      <trkpt lat="46.1608" lon="6.69447">
        <ele>1518</ele>
        <time>2015-06-26T09:39:36Z</time>
      </trkpt>
      <trkpt lat="46.16083" lon="6.69451">
        <ele>1517</ele>
        <time>2015-06-26T09:39:40Z</time>
      </trkpt>
      <trkpt lat="46.16085" lon="6.69453">
        <ele>1530</ele>
        <time>2015-06-26T09:39:44Z</time>
      </trkpt>
      <trkpt lat="46.16089" lon="6.69458">
        <ele>1529</ele>
        <time>2015-06-26T09:39:48Z</time>
      </trkpt>
      <trkpt lat="46.16095" lon="6.69461">
        <ele>1529</ele>
        <time>2015-06-26T09:39:52Z</time>
      </trkpt>
      <trkpt lat="46.16102" lon="6.69461">
        <ele>1530</ele>
        <time>2015-06-26T09:39:58Z</time>
      </trkpt>
      <trkpt lat="46.16107" lon="6.6946">
        <ele>1530</ele>
        <time>2015-06-26T09:40:02Z</time>
      </trkpt>
      <trkpt lat="46.16112" lon="6.6946">
        <ele>1531</ele>
        <time>2015-06-26T09:40:06Z</time>
      </trkpt>
      <trkpt lat="46.16115" lon="6.6946">
        <ele>1531</ele>
        <time>2015-06-26T09:40:10Z</time>
      </trkpt>
      <trkpt lat="46.16118" lon="6.69461">
        <ele>1531</ele>
        <time>2015-06-26T09:40:14Z</time>
      </trkpt>
      <trkpt lat="46.1612" lon="6.69462">
        <ele>1531</ele>
        <time>2015-06-26T09:40:18Z</time>
      </trkpt>
      <trkpt lat="46.16124" lon="6.69464">
        <ele>1532</ele>
        <time>2015-06-26T09:40:22Z</time>
      </trkpt>
      <trkpt lat="46.16128" lon="6.69465">
        <ele>1532</ele>
        <time>2015-06-26T09:40:26Z</time>
      </trkpt>
      <trkpt lat="46.16131" lon="6.69465">
        <ele>1532</ele>
        <time>2015-06-26T09:40:30Z</time>
      </trkpt>
      <trkpt lat="46.16136" lon="6.69467">
        <ele>1533</ele>
        <time>2015-06-26T09:40:34Z</time>
      </trkpt>
      <trkpt lat="46.16138" lon="6.69468">
        <ele>1533</ele>
        <time>2015-06-26T09:40:38Z</time>
      </trkpt>
      <trkpt lat="46.16142" lon="6.69467">
        <ele>1533</ele>
        <time>2015-06-26T09:40:42Z</time>
      </trkpt>
      <trkpt lat="46.16148" lon="6.69467">
        <ele>1534</ele>
        <time>2015-06-26T09:40:48Z</time>
      </trkpt>
      <trkpt lat="46.16152" lon="6.69467">
        <ele>1534</ele>
        <time>2015-06-26T09:40:52Z</time>
      </trkpt>
      <trkpt lat="46.16157" lon="6.69469">
        <ele>1534</ele>
        <time>2015-06-26T09:40:56Z</time>
      </trkpt>
      <trkpt lat="46.1616" lon="6.6947">
        <ele>1534</ele>
        <time>2015-06-26T09:41:00Z</time>
      </trkpt>
      <trkpt lat="46.16163" lon="6.69471">
        <ele>1535</ele>
        <time>2015-06-26T09:41:04Z</time>
      </trkpt>
      <trkpt lat="46.16164" lon="6.69474">
        <ele>1535</ele>
        <time>2015-06-26T09:41:08Z</time>
      </trkpt>
      <trkpt lat="46.16166" lon="6.69479">
        <ele>1535</ele>
        <time>2015-06-26T09:41:12Z</time>
      </trkpt>
      <trkpt lat="46.16169" lon="6.69483">
        <ele>1538</ele>
        <time>2015-06-26T09:41:16Z</time>
      </trkpt>
      <trkpt lat="46.16171" lon="6.69486">
        <ele>1538</ele>
        <time>2015-06-26T09:41:20Z</time>
      </trkpt>
      <trkpt lat="46.16175" lon="6.69489">
        <ele>1538</ele>
        <time>2015-06-26T09:41:24Z</time>
      </trkpt>
      <trkpt lat="46.16178" lon="6.6949">
        <ele>1538</ele>
        <time>2015-06-26T09:41:28Z</time>
      </trkpt>
      <trkpt lat="46.16182" lon="6.69491">
        <ele>1538</ele>
        <time>2015-06-26T09:41:32Z</time>
      </trkpt>
      <trkpt lat="46.16186" lon="6.69491">
        <ele>1538</ele>
        <time>2015-06-26T09:41:36Z</time>
      </trkpt>
      <trkpt lat="46.16186" lon="6.69491">
        <ele>1538</ele>
        <time>2015-06-26T09:41:42Z</time>
      </trkpt>
      <trkpt lat="46.16193" lon="6.69492">
        <ele>1538</ele>
        <time>2015-06-26T09:41:46Z</time>
      </trkpt>
      <trkpt lat="46.162" lon="6.69491">
        <ele>1538</ele>
        <time>2015-06-26T09:41:50Z</time>
      </trkpt>
      <trkpt lat="46.16209" lon="6.69488">
        <ele>1538</ele>
        <time>2015-06-26T09:41:54Z</time>
      </trkpt>
      <trkpt lat="46.16218" lon="6.69481">
        <ele>1538</ele>
        <time>2015-06-26T09:41:58Z</time>
      </trkpt>
      <trkpt lat="46.16229" lon="6.69475">
        <ele>1538</ele>
        <time>2015-06-26T09:42:02Z</time>
      </trkpt>
      <trkpt lat="46.16243" lon="6.69467">
        <ele>1538</ele>
        <time>2015-06-26T09:42:06Z</time>
      </trkpt>
      <trkpt lat="46.16256" lon="6.69457">
        <ele>1532</ele>
        <time>2015-06-26T09:42:10Z</time>
      </trkpt>
      <trkpt lat="46.16268" lon="6.69444">
        <ele>1533</ele>
        <time>2015-06-26T09:42:14Z</time>
      </trkpt>
      <trkpt lat="46.1628" lon="6.69429">
        <ele>1533</ele>
        <time>2015-06-26T09:42:18Z</time>
      </trkpt>
      <trkpt lat="46.16297" lon="6.69406">
        <ele>1539</ele>
        <time>2015-06-26T09:42:22Z</time>
      </trkpt>
      <trkpt lat="46.16312" lon="6.69386">
        <ele>1539</ele>
        <time>2015-06-26T09:42:26Z</time>
      </trkpt>
      <trkpt lat="46.16333" lon="6.69365">
        <ele>1540</ele>
        <time>2015-06-26T09:42:30Z</time>
      </trkpt>
      <trkpt lat="46.16369" lon="6.69346">
        <ele>1532</ele>
        <time>2015-06-26T09:42:36Z</time>
      </trkpt>
      <trkpt lat="46.16395" lon="6.6933">
        <ele>1533</ele>
        <time>2015-06-26T09:42:40Z</time>
      </trkpt>
      <trkpt lat="46.16422" lon="6.69315">
        <ele>1529</ele>
        <time>2015-06-26T09:42:44Z</time>
      </trkpt>
      <trkpt lat="46.16449" lon="6.69309">
        <ele>1528</ele>
        <time>2015-06-26T09:42:48Z</time>
      </trkpt>
      <trkpt lat="46.16475" lon="6.69305">
        <ele>1527</ele>
        <time>2015-06-26T09:42:52Z</time>
      </trkpt>
      <trkpt lat="46.16499" lon="6.69302">
        <ele>1527</ele>
        <time>2015-06-26T09:42:56Z</time>
      </trkpt>
      <trkpt lat="46.16522" lon="6.69308">
        <ele>1526</ele>
        <time>2015-06-26T09:43:00Z</time>
      </trkpt>
      <trkpt lat="46.16545" lon="6.69309">
        <ele>1525</ele>
        <time>2015-06-26T09:43:04Z</time>
      </trkpt>
      <trkpt lat="46.1657" lon="6.69306">
        <ele>1525</ele>
        <time>2015-06-26T09:43:08Z</time>
      </trkpt>
      <trkpt lat="46.16592" lon="6.69303">
        <ele>1523</ele>
        <time>2015-06-26T09:43:12Z</time>
      </trkpt>
      <trkpt lat="46.16613" lon="6.69302">
        <ele>1523</ele>
        <time>2015-06-26T09:43:16Z</time>
      </trkpt>
      <trkpt lat="46.16636" lon="6.69297">
        <ele>1523</ele>
        <time>2015-06-26T09:43:20Z</time>
      </trkpt>
      <trkpt lat="46.1666" lon="6.69286">
        <ele>1524</ele>
        <time>2015-06-26T09:43:24Z</time>
      </trkpt>
      <trkpt lat="46.16696" lon="6.69281">
        <ele>1519</ele>
        <time>2015-06-26T09:43:30Z</time>
      </trkpt>
      <trkpt lat="46.16723" lon="6.69274">
        <ele>1519</ele>
        <time>2015-06-26T09:43:34Z</time>
      </trkpt>
      <trkpt lat="46.16751" lon="6.69262">
        <ele>1519</ele>
        <time>2015-06-26T09:43:38Z</time>
      </trkpt>
      <trkpt lat="46.1678" lon="6.6925">
        <ele>1518</ele>
        <time>2015-06-26T09:43:42Z</time>
      </trkpt>
      <trkpt lat="46.16814" lon="6.69237">
        <ele>1516</ele>
        <time>2015-06-26T09:43:46Z</time>
      </trkpt>
      <trkpt lat="46.16854" lon="6.69227">
        <ele>1509</ele>
        <time>2015-06-26T09:43:50Z</time>
      </trkpt>
      <trkpt lat="46.16883" lon="6.69222">
        <ele>1507</ele>
        <time>2015-06-26T09:43:54Z</time>
      </trkpt>
      <trkpt lat="46.16909" lon="6.69218">
        <ele>1506</ele>
        <time>2015-06-26T09:43:58Z</time>
      </trkpt>
      <trkpt lat="46.16935" lon="6.6922">
        <ele>1498</ele>
        <time>2015-06-26T09:44:02Z</time>
      </trkpt>
      <trkpt lat="46.16964" lon="6.69213">
        <ele>1496</ele>
        <time>2015-06-26T09:44:06Z</time>
      </trkpt>
      <trkpt lat="46.16981" lon="6.69192">
        <ele>1496</ele>
        <time>2015-06-26T09:44:10Z</time>
      </trkpt>
      <trkpt lat="46.16999" lon="6.69174">
        <ele>1495</ele>
        <time>2015-06-26T09:44:14Z</time>
      </trkpt>
      <trkpt lat="46.17032" lon="6.69139">
        <ele>1485</ele>
        <time>2015-06-26T09:44:20Z</time>
      </trkpt>
      <trkpt lat="46.17051" lon="6.69115">
        <ele>1483</ele>
        <time>2015-06-26T09:44:24Z</time>
      </trkpt>
      <trkpt lat="46.17073" lon="6.69094">
        <ele>1482</ele>
        <time>2015-06-26T09:44:28Z</time>
      </trkpt>
      <trkpt lat="46.171" lon="6.69085">
        <ele>1476</ele>
        <time>2015-06-26T09:44:32Z</time>
      </trkpt>
      <trkpt lat="46.17122" lon="6.69083">
        <ele>1474</ele>
        <time>2015-06-26T09:44:36Z</time>
      </trkpt>
      <trkpt lat="46.17133" lon="6.69083">
        <ele>1473</ele>
        <time>2015-06-26T09:44:40Z</time>
      </trkpt>
      <trkpt lat="46.17134" lon="6.69084">
        <ele>1472</ele>
        <time>2015-06-26T09:44:44Z</time>
      </trkpt>
      <trkpt lat="46.17144" lon="6.69089">
        <ele>1472</ele>
        <time>2015-06-26T09:44:48Z</time>
      </trkpt>
      <trkpt lat="46.1716" lon="6.69086">
        <ele>1471</ele>
        <time>2015-06-26T09:44:52Z</time>
      </trkpt>
      <trkpt lat="46.17178" lon="6.69082">
        <ele>1466</ele>
        <time>2015-06-26T09:44:56Z</time>
      </trkpt>
      <trkpt lat="46.17188" lon="6.69066">
        <ele>1462</ele>
        <time>2015-06-26T09:45:00Z</time>
      </trkpt>
      <trkpt lat="46.17184" lon="6.69048">
        <ele>1460</ele>
        <time>2015-06-26T09:45:04Z</time>
      </trkpt>
      <trkpt lat="46.17178" lon="6.69034">
        <ele>1460</ele>
        <time>2015-06-26T09:45:08Z</time>
      </trkpt>
      <trkpt lat="46.17161" lon="6.69014">
        <ele>1468</ele>
        <time>2015-06-26T09:45:14Z</time>
      </trkpt>
      <trkpt lat="46.17157" lon="6.68988">
        <ele>1463</ele>
        <time>2015-06-26T09:45:18Z</time>
      </trkpt>
      <trkpt lat="46.17171" lon="6.68993">
        <ele>1459</ele>
        <time>2015-06-26T09:45:22Z</time>
      </trkpt>
      <trkpt lat="46.17186" lon="6.69005">
        <ele>1459</ele>
        <time>2015-06-26T09:45:26Z</time>
      </trkpt>
      <trkpt lat="46.172" lon="6.69">
        <ele>1457</ele>
        <time>2015-06-26T09:45:30Z</time>
      </trkpt>
      <trkpt lat="46.17183" lon="6.68973">
        <ele>1452</ele>
        <time>2015-06-26T09:45:34Z</time>
      </trkpt>
      <trkpt lat="46.17173" lon="6.68954">
        <ele>1450</ele>
        <time>2015-06-26T09:45:38Z</time>
      </trkpt>
      <trkpt lat="46.17178" lon="6.68934">
        <ele>1449</ele>
        <time>2015-06-26T09:45:42Z</time>
      </trkpt>
      <trkpt lat="46.17167" lon="6.68927">
        <ele>1449</ele>
        <time>2015-06-26T09:45:46Z</time>
      </trkpt>
      <trkpt lat="46.1718" lon="6.68908">
        <ele>1445</ele>
        <time>2015-06-26T09:45:50Z</time>
      </trkpt>
      <trkpt lat="46.17189" lon="6.6889">
        <ele>1442</ele>
        <time>2015-06-26T09:45:54Z</time>
      </trkpt>
      <trkpt lat="46.17186" lon="6.68862">
        <ele>1440</ele>
        <time>2015-06-26T09:45:58Z</time>
      </trkpt>
      <trkpt lat="46.17187" lon="6.68839">
        <ele>1440</ele>
        <time>2015-06-26T09:46:02Z</time>
      </trkpt>
      <trkpt lat="46.17193" lon="6.68816">
        <ele>1433</ele>
        <time>2015-06-26T09:46:08Z</time>
      </trkpt>
      <trkpt lat="46.17205" lon="6.68808">
        <ele>1430</ele>
        <time>2015-06-26T09:46:12Z</time>
      </trkpt>
      <trkpt lat="46.1721" lon="6.68825">
        <ele>1431</ele>
        <time>2015-06-26T09:46:16Z</time>
      </trkpt>
      <trkpt lat="46.17217" lon="6.68818">
        <ele>1429</ele>
        <time>2015-06-26T09:46:20Z</time>
      </trkpt>
      <trkpt lat="46.17224" lon="6.68815">
        <ele>1428</ele>
        <time>2015-06-26T09:46:24Z</time>
      </trkpt>
      <trkpt lat="46.17228" lon="6.68841">
        <ele>1434</ele>
        <time>2015-06-26T09:46:28Z</time>
      </trkpt>
      <trkpt lat="46.17231" lon="6.68864">
        <ele>1436</ele>
        <time>2015-06-26T09:46:32Z</time>
      </trkpt>
      <trkpt lat="46.1724" lon="6.68855">
        <ele>1433</ele>
        <time>2015-06-26T09:46:36Z</time>
      </trkpt>
      <trkpt lat="46.17252" lon="6.6883">
        <ele>1422</ele>
        <time>2015-06-26T09:46:40Z</time>
      </trkpt>
      <trkpt lat="46.17259" lon="6.68816">
        <ele>1415</ele>
        <time>2015-06-26T09:46:44Z</time>
      </trkpt>
      <trkpt lat="46.17254" lon="6.68807">
        <ele>1414</ele>
        <time>2015-06-26T09:46:48Z</time>
      </trkpt>
      <trkpt lat="46.17262" lon="6.68804">
        <ele>1412</ele>
        <time>2015-06-26T09:46:52Z</time>
      </trkpt>
      <trkpt lat="46.17278" lon="6.68816">
        <ele>1411</ele>
        <time>2015-06-26T09:46:58Z</time>
      </trkpt>
      <trkpt lat="46.17286" lon="6.68823">
        <ele>1410</ele>
        <time>2015-06-26T09:47:02Z</time>
      </trkpt>
      <trkpt lat="46.17293" lon="6.68837">
        <ele>1416</ele>
        <time>2015-06-26T09:47:06Z</time>
      </trkpt>
      <trkpt lat="46.17299" lon="6.6884">
        <ele>1415</ele>
        <time>2015-06-26T09:47:10Z</time>
      </trkpt>
      <trkpt lat="46.17303" lon="6.68826">
        <ele>1407</ele>
        <time>2015-06-26T09:47:14Z</time>
      </trkpt>
      <trkpt lat="46.17307" lon="6.68819">
        <ele>1406</ele>
        <time>2015-06-26T09:47:18Z</time>
      </trkpt>
      <trkpt lat="46.17313" lon="6.68835">
        <ele>1411</ele>
        <time>2015-06-26T09:47:22Z</time>
      </trkpt>
      <trkpt lat="46.17319" lon="6.68849">
        <ele>1411</ele>
        <time>2015-06-26T09:47:26Z</time>
      </trkpt>
      <trkpt lat="46.17328" lon="6.68846">
        <ele>1409</ele>
        <time>2015-06-26T09:47:30Z</time>
      </trkpt>
      <trkpt lat="46.17334" lon="6.68836">
        <ele>1401</ele>
        <time>2015-06-26T09:47:34Z</time>
      </trkpt>
      <trkpt lat="46.17341" lon="6.6884">
        <ele>1398</ele>
        <time>2015-06-26T09:47:38Z</time>
      </trkpt>
      <trkpt lat="46.17354" lon="6.6885">
        <ele>1395</ele>
        <time>2015-06-26T09:47:42Z</time>
      </trkpt>
      <trkpt lat="46.17359" lon="6.68865">
        <ele>1393</ele>
        <time>2015-06-26T09:47:46Z</time>
      </trkpt>
      <trkpt lat="46.17366" lon="6.68865">
        <ele>1392</ele>
        <time>2015-06-26T09:47:52Z</time>
      </trkpt>
      <trkpt lat="46.17377" lon="6.68858">
        <ele>1390</ele>
        <time>2015-06-26T09:47:56Z</time>
      </trkpt>
      <trkpt lat="46.17381" lon="6.68848">
        <ele>1389</ele>
        <time>2015-06-26T09:48:00Z</time>
      </trkpt>
      <trkpt lat="46.17383" lon="6.6883">
        <ele>1382</ele>
        <time>2015-06-26T09:48:04Z</time>
      </trkpt>
      <trkpt lat="46.17384" lon="6.68813">
        <ele>1381</ele>
        <time>2015-06-26T09:48:08Z</time>
      </trkpt>
      <trkpt lat="46.17398" lon="6.68818">
        <ele>1379</ele>
        <time>2015-06-26T09:48:12Z</time>
      </trkpt>
      <trkpt lat="46.17406" lon="6.68831">
        <ele>1377</ele>
        <time>2015-06-26T09:48:16Z</time>
      </trkpt>
      <trkpt lat="46.17413" lon="6.68846">
        <ele>1381</ele>
        <time>2015-06-26T09:48:20Z</time>
      </trkpt>
      <trkpt lat="46.17419" lon="6.68833">
        <ele>1372</ele>
        <time>2015-06-26T09:48:24Z</time>
      </trkpt>
      <trkpt lat="46.17425" lon="6.68821">
        <ele>1366</ele>
        <time>2015-06-26T09:48:28Z</time>
      </trkpt>
      <trkpt lat="46.17425" lon="6.68806">
        <ele>1362</ele>
        <time>2015-06-26T09:48:32Z</time>
      </trkpt>
      <trkpt lat="46.17417" lon="6.68791">
        <ele>1360</ele>
        <time>2015-06-26T09:48:36Z</time>
      </trkpt>
      <trkpt lat="46.1741" lon="6.68776">
        <ele>1374</ele>
        <time>2015-06-26T09:48:40Z</time>
      </trkpt>
      <trkpt lat="46.17402" lon="6.68755">
        <ele>1371</ele>
        <time>2015-06-26T09:48:46Z</time>
      </trkpt>
      <trkpt lat="46.17407" lon="6.68751">
        <ele>1369</ele>
        <time>2015-06-26T09:48:50Z</time>
      </trkpt>
      <trkpt lat="46.17412" lon="6.68751">
        <ele>1366</ele>
        <time>2015-06-26T09:48:54Z</time>
      </trkpt>
      <trkpt lat="46.17416" lon="6.68749">
        <ele>1363</ele>
        <time>2015-06-26T09:48:58Z</time>
      </trkpt>
      <trkpt lat="46.17426" lon="6.68745">
        <ele>1354</ele>
        <time>2015-06-26T09:49:02Z</time>
      </trkpt>
      <trkpt lat="46.17442" lon="6.68748">
        <ele>1347</ele>
        <time>2015-06-26T09:49:06Z</time>
      </trkpt>
      <trkpt lat="46.17465" lon="6.68762">
        <ele>1351</ele>
        <time>2015-06-26T09:49:10Z</time>
      </trkpt>
      <trkpt lat="46.17484" lon="6.6878">
        <ele>1349</ele>
        <time>2015-06-26T09:49:14Z</time>
      </trkpt>
      <trkpt lat="46.17504" lon="6.68801">
        <ele>1333</ele>
        <time>2015-06-26T09:49:18Z</time>
      </trkpt>
      <trkpt lat="46.17505" lon="6.68824">
        <ele>1341</ele>
        <time>2015-06-26T09:49:22Z</time>
      </trkpt>
      <trkpt lat="46.175" lon="6.68838">
        <ele>1351</ele>
        <time>2015-06-26T09:49:26Z</time>
      </trkpt>
      <trkpt lat="46.17502" lon="6.68839">
        <ele>1346</ele>
        <time>2015-06-26T09:49:30Z</time>
      </trkpt>
      <trkpt lat="46.17503" lon="6.68841">
        <ele>1346</ele>
        <time>2015-06-26T09:49:34Z</time>
      </trkpt>
      <trkpt lat="46.17516" lon="6.68853">
        <ele>1343</ele>
        <time>2015-06-26T09:49:40Z</time>
      </trkpt>
      <trkpt lat="46.17526" lon="6.68861">
        <ele>1342</ele>
        <time>2015-06-26T09:49:44Z</time>
      </trkpt>
      <trkpt lat="46.17538" lon="6.68873">
        <ele>1341</ele>
        <time>2015-06-26T09:49:48Z</time>
      </trkpt>
      <trkpt lat="46.17554" lon="6.68883">
        <ele>1339</ele>
        <time>2015-06-26T09:49:52Z</time>
      </trkpt>
      <trkpt lat="46.1757" lon="6.68891">
        <ele>1337</ele>
        <time>2015-06-26T09:49:56Z</time>
      </trkpt>
      <trkpt lat="46.17578" lon="6.68899">
        <ele>1336</ele>
        <time>2015-06-26T09:50:00Z</time>
      </trkpt>
      <trkpt lat="46.17593" lon="6.68899">
        <ele>1326</ele>
        <time>2015-06-26T09:50:04Z</time>
      </trkpt>
      <trkpt lat="46.17613" lon="6.68901">
        <ele>1324</ele>
        <time>2015-06-26T09:50:08Z</time>
      </trkpt>
      <trkpt lat="46.17623" lon="6.6889">
        <ele>1322</ele>
        <time>2015-06-26T09:50:12Z</time>
      </trkpt>
      <trkpt lat="46.17628" lon="6.68888">
        <ele>1321</ele>
        <time>2015-06-26T09:50:16Z</time>
      </trkpt>
      <trkpt lat="46.17636" lon="6.68872">
        <ele>1319</ele>
        <time>2015-06-26T09:50:20Z</time>
      </trkpt>
      <trkpt lat="46.17655" lon="6.68867">
        <ele>1317</ele>
        <time>2015-06-26T09:50:24Z</time>
      </trkpt>
      <trkpt lat="46.17682" lon="6.68879">
        <ele>1304</ele>
        <time>2015-06-26T09:50:30Z</time>
      </trkpt>
      <trkpt lat="46.17701" lon="6.68883">
        <ele>1301</ele>
        <time>2015-06-26T09:50:34Z</time>
      </trkpt>
      <trkpt lat="46.1772" lon="6.6889">
        <ele>1299</ele>
        <time>2015-06-26T09:50:38Z</time>
      </trkpt>
      <trkpt lat="46.17737" lon="6.68907">
        <ele>1297</ele>
        <time>2015-06-26T09:50:42Z</time>
      </trkpt>
      <trkpt lat="46.1775" lon="6.68929">
        <ele>1287</ele>
        <time>2015-06-26T09:50:46Z</time>
      </trkpt>
      <trkpt lat="46.17762" lon="6.68953">
        <ele>1281</ele>
        <time>2015-06-26T09:50:50Z</time>
      </trkpt>
      <trkpt lat="46.17772" lon="6.68967">
        <ele>1280</ele>
        <time>2015-06-26T09:50:54Z</time>
      </trkpt>
      <trkpt lat="46.17772" lon="6.6897">
        <ele>1280</ele>
        <time>2015-06-26T09:50:58Z</time>
      </trkpt>
      <trkpt lat="46.1777" lon="6.68986">
        <ele>1282</ele>
        <time>2015-06-26T09:51:02Z</time>
      </trkpt>
      <trkpt lat="46.17764" lon="6.69019">
        <ele>1281</ele>
        <time>2015-06-26T09:51:06Z</time>
      </trkpt>
      <trkpt lat="46.17759" lon="6.69046">
        <ele>1279</ele>
        <time>2015-06-26T09:51:10Z</time>
      </trkpt>
      <trkpt lat="46.1776" lon="6.6907">
        <ele>1280</ele>
        <time>2015-06-26T09:51:14Z</time>
      </trkpt>
      <trkpt lat="46.17779" lon="6.6907">
        <ele>1277</ele>
        <time>2015-06-26T09:51:18Z</time>
      </trkpt>
      <trkpt lat="46.17805" lon="6.69048">
        <ele>1273</ele>
        <time>2015-06-26T09:51:24Z</time>
      </trkpt>
      <trkpt lat="46.17818" lon="6.69032">
        <ele>1271</ele>
        <time>2015-06-26T09:51:28Z</time>
      </trkpt>
      <trkpt lat="46.17822" lon="6.69">
        <ele>1266</ele>
        <time>2015-06-26T09:51:32Z</time>
      </trkpt>
      <trkpt lat="46.17829" lon="6.68977">
        <ele>1268</ele>
        <time>2015-06-26T09:51:36Z</time>
      </trkpt>
      <trkpt lat="46.17844" lon="6.68957">
        <ele>1252</ele>
        <time>2015-06-26T09:51:40Z</time>
      </trkpt>
      <trkpt lat="46.17852" lon="6.68946">
        <ele>1252</ele>
        <time>2015-06-26T09:51:44Z</time>
      </trkpt>
      <trkpt lat="46.17852" lon="6.68923">
        <ele>1252</ele>
        <time>2015-06-26T09:51:48Z</time>
      </trkpt>
      <trkpt lat="46.17865" lon="6.68904">
        <ele>1246</ele>
        <time>2015-06-26T09:51:52Z</time>
      </trkpt>
      <trkpt lat="46.17876" lon="6.68894">
        <ele>1244</ele>
        <time>2015-06-26T09:51:56Z</time>
      </trkpt>
      <trkpt lat="46.17886" lon="6.68888">
        <ele>1243</ele>
        <time>2015-06-26T09:52:00Z</time>
      </trkpt>
      <trkpt lat="46.17894" lon="6.68876">
        <ele>1242</ele>
        <time>2015-06-26T09:52:04Z</time>
      </trkpt>
      <trkpt lat="46.179" lon="6.68859">
        <ele>1240</ele>
        <time>2015-06-26T09:52:08Z</time>
      </trkpt>
      <trkpt lat="46.17912" lon="6.68846">
        <ele>1238</ele>
        <time>2015-06-26T09:52:12Z</time>
      </trkpt>
      <trkpt lat="46.17901" lon="6.68825">
        <ele>1232</ele>
        <time>2015-06-26T09:52:18Z</time>
      </trkpt>
      <trkpt lat="46.17891" lon="6.68813">
        <ele>1232</ele>
        <time>2015-06-26T09:52:22Z</time>
      </trkpt>
      <trkpt lat="46.17873" lon="6.68804">
        <ele>1232</ele>
        <time>2015-06-26T09:52:26Z</time>
      </trkpt>
      <trkpt lat="46.17856" lon="6.68805">
        <ele>1233</ele>
        <time>2015-06-26T09:52:30Z</time>
      </trkpt>
      <trkpt lat="46.17842" lon="6.68804">
        <ele>1234</ele>
        <time>2015-06-26T09:52:34Z</time>
      </trkpt>
      <trkpt lat="46.17842" lon="6.68788">
        <ele>1231</ele>
        <time>2015-06-26T09:52:38Z</time>
      </trkpt>
      <trkpt lat="46.17847" lon="6.68773">
        <ele>1229</ele>
        <time>2015-06-26T09:52:42Z</time>
      </trkpt>
      <trkpt lat="46.17841" lon="6.68754">
        <ele>1227</ele>
        <time>2015-06-26T09:52:46Z</time>
      </trkpt>
      <trkpt lat="46.17835" lon="6.68742">
        <ele>1222</ele>
        <time>2015-06-26T09:52:50Z</time>
      </trkpt>
      <trkpt lat="46.17829" lon="6.68734">
        <ele>1227</ele>
        <time>2015-06-26T09:52:54Z</time>
      </trkpt>
      <trkpt lat="46.17825" lon="6.68713">
        <ele>1225</ele>
        <time>2015-06-26T09:52:58Z</time>
      </trkpt>
      <trkpt lat="46.1782" lon="6.68693">
        <ele>1221</ele>
        <time>2015-06-26T09:53:02Z</time>
      </trkpt>
      <trkpt lat="46.17814" lon="6.6867">
        <ele>1217</ele>
        <time>2015-06-26T09:53:06Z</time>
      </trkpt>
      <trkpt lat="46.17821" lon="6.68653">
        <ele>1204</ele>
        <time>2015-06-26T09:53:12Z</time>
      </trkpt>
      <trkpt lat="46.17825" lon="6.68649">
        <ele>1204</ele>
        <time>2015-06-26T09:53:16Z</time>
      </trkpt>
      <trkpt lat="46.17836" lon="6.68633">
        <ele>1193</ele>
        <time>2015-06-26T09:53:20Z</time>
      </trkpt>
      <trkpt lat="46.17856" lon="6.68635">
        <ele>1193</ele>
        <time>2015-06-26T09:53:24Z</time>
      </trkpt>
      <trkpt lat="46.17878" lon="6.68639">
        <ele>1193</ele>
        <time>2015-06-26T09:53:28Z</time>
      </trkpt>
      <trkpt lat="46.17902" lon="6.68639">
        <ele>1193</ele>
        <time>2015-06-26T09:53:32Z</time>
      </trkpt>
      <trkpt lat="46.1792" lon="6.68636">
        <ele>1187</ele>
        <time>2015-06-26T09:53:36Z</time>
      </trkpt>
      <trkpt lat="46.17929" lon="6.68643">
        <ele>1188</ele>
        <time>2015-06-26T09:53:40Z</time>
      </trkpt>
      <trkpt lat="46.1794" lon="6.68633">
        <ele>1185</ele>
        <time>2015-06-26T09:53:44Z</time>
      </trkpt>
      <trkpt lat="46.17953" lon="6.68638">
        <ele>1184</ele>
        <time>2015-06-26T09:53:48Z</time>
      </trkpt>
      <trkpt lat="46.17961" lon="6.68651">
        <ele>1185</ele>
        <time>2015-06-26T09:53:52Z</time>
      </trkpt>
      <trkpt lat="46.17984" lon="6.68649">
        <ele>1184</ele>
        <time>2015-06-26T09:53:56Z</time>
      </trkpt>
      <trkpt lat="46.18016" lon="6.68668">
        <ele>1190</ele>
        <time>2015-06-26T09:54:02Z</time>
      </trkpt>
      <trkpt lat="46.18029" lon="6.68678">
        <ele>1190</ele>
        <time>2015-06-26T09:54:06Z</time>
      </trkpt>
      <trkpt lat="46.18037" lon="6.68692">
        <ele>1191</ele>
        <time>2015-06-26T09:54:10Z</time>
      </trkpt>
      <trkpt lat="46.18047" lon="6.68697">
        <ele>1191</ele>
        <time>2015-06-26T09:54:14Z</time>
      </trkpt>
      <trkpt lat="46.18064" lon="6.68701">
        <ele>1189</ele>
        <time>2015-06-26T09:54:18Z</time>
      </trkpt>
      <trkpt lat="46.18075" lon="6.68699">
        <ele>1188</ele>
        <time>2015-06-26T09:54:22Z</time>
      </trkpt>
      <trkpt lat="46.18088" lon="6.687">
        <ele>1179</ele>
        <time>2015-06-26T09:54:26Z</time>
      </trkpt>
      <trkpt lat="46.18103" lon="6.68702">
        <ele>1179</ele>
        <time>2015-06-26T09:54:30Z</time>
      </trkpt>
      <trkpt lat="46.18114" lon="6.68705">
        <ele>1178</ele>
        <time>2015-06-26T09:54:34Z</time>
      </trkpt>
      <trkpt lat="46.18135" lon="6.68711">
        <ele>1178</ele>
        <time>2015-06-26T09:54:38Z</time>
      </trkpt>
      <trkpt lat="46.18148" lon="6.6871">
        <ele>1177</ele>
        <time>2015-06-26T09:54:42Z</time>
      </trkpt>
      <trkpt lat="46.18161" lon="6.68717">
        <ele>1176</ele>
        <time>2015-06-26T09:54:46Z</time>
      </trkpt>
      <trkpt lat="46.18178" lon="6.68729">
        <ele>1174</ele>
        <time>2015-06-26T09:54:50Z</time>
      </trkpt>
      <trkpt lat="46.18195" lon="6.6875">
        <ele>1174</ele>
        <time>2015-06-26T09:54:56Z</time>
      </trkpt>
      <trkpt lat="46.18199" lon="6.68762">
        <ele>1176</ele>
        <time>2015-06-26T09:55:00Z</time>
      </trkpt>
      <trkpt lat="46.18206" lon="6.68775">
        <ele>1176</ele>
        <time>2015-06-26T09:55:04Z</time>
      </trkpt>
      <trkpt lat="46.18211" lon="6.68787">
        <ele>1176</ele>
        <time>2015-06-26T09:55:08Z</time>
      </trkpt>
      <trkpt lat="46.1822" lon="6.68793">
        <ele>1176</ele>
        <time>2015-06-26T09:55:12Z</time>
      </trkpt>
      <trkpt lat="46.18228" lon="6.68801">
        <ele>1176</ele>
        <time>2015-06-26T09:55:16Z</time>
      </trkpt>
      <trkpt lat="46.18235" lon="6.68813">
        <ele>1176</ele>
        <time>2015-06-26T09:55:20Z</time>
      </trkpt>
      <trkpt lat="46.18239" lon="6.68826">
        <ele>1176</ele>
        <time>2015-06-26T09:55:24Z</time>
      </trkpt>
      <trkpt lat="46.1824" lon="6.68839">
        <ele>1179</ele>
        <time>2015-06-26T09:55:28Z</time>
      </trkpt>
      <trkpt lat="46.1824" lon="6.6885">
        <ele>1180</ele>
        <time>2015-06-26T09:55:32Z</time>
      </trkpt>
      <trkpt lat="46.18248" lon="6.68858">
        <ele>1181</ele>
        <time>2015-06-26T09:55:36Z</time>
      </trkpt>
      <trkpt lat="46.18256" lon="6.6886">
        <ele>1176</ele>
        <time>2015-06-26T09:55:40Z</time>
      </trkpt>
      <trkpt lat="46.18266" lon="6.68862">
        <ele>1176</ele>
        <time>2015-06-26T09:55:44Z</time>
      </trkpt>
      <trkpt lat="46.18286" lon="6.68865">
        <ele>1175</ele>
        <time>2015-06-26T09:55:50Z</time>
      </trkpt>
      <trkpt lat="46.18294" lon="6.68869">
        <ele>1175</ele>
        <time>2015-06-26T09:55:54Z</time>
      </trkpt>
      <trkpt lat="46.18301" lon="6.68879">
        <ele>1175</ele>
        <time>2015-06-26T09:55:58Z</time>
      </trkpt>
      <trkpt lat="46.18314" lon="6.68894">
        <ele>1174</ele>
        <time>2015-06-26T09:56:02Z</time>
      </trkpt>
      <trkpt lat="46.18325" lon="6.68896">
        <ele>1173</ele>
        <time>2015-06-26T09:56:06Z</time>
      </trkpt>
      <trkpt lat="46.1834" lon="6.68874">
        <ele>1166</ele>
        <time>2015-06-26T09:56:10Z</time>
      </trkpt>
      <trkpt lat="46.18357" lon="6.68858">
        <ele>1166</ele>
        <time>2015-06-26T09:56:14Z</time>
      </trkpt>
      <trkpt lat="46.18374" lon="6.68853">
        <ele>1165</ele>
        <time>2015-06-26T09:56:18Z</time>
      </trkpt>
      <trkpt lat="46.18389" lon="6.68868">
        <ele>1163</ele>
        <time>2015-06-26T09:56:22Z</time>
      </trkpt>
      <trkpt lat="46.18404" lon="6.68886">
        <ele>1162</ele>
        <time>2015-06-26T09:56:26Z</time>
      </trkpt>
      <trkpt lat="46.18419" lon="6.68903">
        <ele>1156</ele>
        <time>2015-06-26T09:56:30Z</time>
      </trkpt>
      <trkpt lat="46.18432" lon="6.68919">
        <ele>1149</ele>
        <time>2015-06-26T09:56:34Z</time>
      </trkpt>
      <trkpt lat="46.18447" lon="6.68926">
        <ele>1146</ele>
        <time>2015-06-26T09:56:38Z</time>
      </trkpt>
      <trkpt lat="46.18473" lon="6.68926">
        <ele>1146</ele>
        <time>2015-06-26T09:56:44Z</time>
      </trkpt>
      <trkpt lat="46.18499" lon="6.68929">
        <ele>1147</ele>
        <time>2015-06-26T09:56:48Z</time>
      </trkpt>
      <trkpt lat="46.18525" lon="6.68934">
        <ele>1139</ele>
        <time>2015-06-26T09:56:52Z</time>
      </trkpt>
      <trkpt lat="46.18544" lon="6.68949">
        <ele>1135</ele>
        <time>2015-06-26T09:56:56Z</time>
      </trkpt>
      <trkpt lat="46.1856" lon="6.6896">
        <ele>1133</ele>
        <time>2015-06-26T09:57:00Z</time>
      </trkpt>
      <trkpt lat="46.18574" lon="6.6896">
        <ele>1132</ele>
        <time>2015-06-26T09:57:04Z</time>
      </trkpt>
      <trkpt lat="46.18585" lon="6.68964">
        <ele>1126</ele>
        <time>2015-06-26T09:57:08Z</time>
      </trkpt>
      <trkpt lat="46.18595" lon="6.68972">
        <ele>1125</ele>
        <time>2015-06-26T09:57:12Z</time>
      </trkpt>
      <trkpt lat="46.18605" lon="6.68984">
        <ele>1124</ele>
        <time>2015-06-26T09:57:16Z</time>
      </trkpt>
      <trkpt lat="46.18605" lon="6.68997">
        <ele>1123</ele>
        <time>2015-06-26T09:57:20Z</time>
      </trkpt>
      <trkpt lat="46.18594" lon="6.69013">
        <ele>1114</ele>
        <time>2015-06-26T09:57:24Z</time>
      </trkpt>
      <trkpt lat="46.18587" lon="6.69038">
        <ele>1109</ele>
        <time>2015-06-26T09:57:28Z</time>
      </trkpt>
      <trkpt lat="46.18573" lon="6.69067">
        <ele>1110</ele>
        <time>2015-06-26T09:57:34Z</time>
      </trkpt>
      <trkpt lat="46.18565" lon="6.69097">
        <ele>1102</ele>
        <time>2015-06-26T09:57:38Z</time>
      </trkpt>
      <trkpt lat="46.18561" lon="6.69111">
        <ele>1102</ele>
        <time>2015-06-26T09:57:42Z</time>
      </trkpt>
      <trkpt lat="46.18561" lon="6.6911">
        <ele>1102</ele>
        <time>2015-06-26T09:57:46Z</time>
      </trkpt>
      <trkpt lat="46.18561" lon="6.6911">
        <ele>1102</ele>
        <time>2015-06-26T09:57:50Z</time>
      </trkpt>
      <trkpt lat="46.18553" lon="6.69132">
        <ele>1100</ele>
        <time>2015-06-26T09:57:54Z</time>
      </trkpt>
      <trkpt lat="46.18543" lon="6.6915">
        <ele>1100</ele>
        <time>2015-06-26T09:57:58Z</time>
      </trkpt>
      <trkpt lat="46.1853" lon="6.69173">
        <ele>1090</ele>
        <time>2015-06-26T09:58:02Z</time>
      </trkpt>
      <trkpt lat="46.18517" lon="6.69195">
        <ele>1089</ele>
        <time>2015-06-26T09:58:06Z</time>
      </trkpt>
      <trkpt lat="46.18506" lon="6.69215">
        <ele>1086</ele>
        <time>2015-06-26T09:58:10Z</time>
      </trkpt>
      <trkpt lat="46.18492" lon="6.69238">
        <ele>1089</ele>
        <time>2015-06-26T09:58:14Z</time>
      </trkpt>
      <trkpt lat="46.18479" lon="6.69256">
        <ele>1079</ele>
        <time>2015-06-26T09:58:18Z</time>
      </trkpt>
      <trkpt lat="46.18465" lon="6.69272">
        <ele>1078</ele>
        <time>2015-06-26T09:58:22Z</time>
      </trkpt>
      <trkpt lat="46.18445" lon="6.6929">
        <ele>1077</ele>
        <time>2015-06-26T09:58:28Z</time>
      </trkpt>
      <trkpt lat="46.18431" lon="6.693">
        <ele>1076</ele>
        <time>2015-06-26T09:58:32Z</time>
      </trkpt>
      <trkpt lat="46.18415" lon="6.69314">
        <ele>1081</ele>
        <time>2015-06-26T09:58:36Z</time>
      </trkpt>
      <trkpt lat="46.18402" lon="6.69323">
        <ele>1081</ele>
        <time>2015-06-26T09:58:40Z</time>
      </trkpt>
      <trkpt lat="46.18389" lon="6.69333">
        <ele>1084</ele>
        <time>2015-06-26T09:58:44Z</time>
      </trkpt>
      <trkpt lat="46.18373" lon="6.69342">
        <ele>1070</ele>
        <time>2015-06-26T09:58:48Z</time>
      </trkpt>
      <trkpt lat="46.18356" lon="6.69354">
        <ele>1072</ele>
        <time>2015-06-26T09:58:52Z</time>
      </trkpt>
      <trkpt lat="46.1834" lon="6.69368">
        <ele>1070</ele>
        <time>2015-06-26T09:58:56Z</time>
      </trkpt>
      <trkpt lat="46.18325" lon="6.69387">
        <ele>1081</ele>
        <time>2015-06-26T09:59:00Z</time>
      </trkpt>
      <trkpt lat="46.18311" lon="6.69409">
        <ele>1078</ele>
        <time>2015-06-26T09:59:04Z</time>
      </trkpt>
      <trkpt lat="46.18297" lon="6.6943">
        <ele>1059</ele>
        <time>2015-06-26T09:59:08Z</time>
      </trkpt>
      <trkpt lat="46.1828" lon="6.69445">
        <ele>1060</ele>
        <time>2015-06-26T09:59:12Z</time>
      </trkpt>
      <trkpt lat="46.18263" lon="6.69464">
        <ele>1058</ele>
        <time>2015-06-26T09:59:16Z</time>
      </trkpt>
      <trkpt lat="46.18245" lon="6.69498">
        <ele>1059</ele>
        <time>2015-06-26T09:59:22Z</time>
      </trkpt>
      <trkpt lat="46.18233" lon="6.69516">
        <ele>1053</ele>
        <time>2015-06-26T09:59:26Z</time>
      </trkpt>
      <trkpt lat="46.18218" lon="6.69537">
        <ele>1052</ele>
        <time>2015-06-26T09:59:30Z</time>
      </trkpt>
      <trkpt lat="46.18206" lon="6.6956">
        <ele>1051</ele>
        <time>2015-06-26T09:59:34Z</time>
      </trkpt>
      <trkpt lat="46.18195" lon="6.69581">
        <ele>1051</ele>
        <time>2015-06-26T09:59:38Z</time>
      </trkpt>
      <trkpt lat="46.18182" lon="6.69606">
        <ele>1035</ele>
        <time>2015-06-26T09:59:42Z</time>
      </trkpt>
      <trkpt lat="46.1817" lon="6.69631">
        <ele>1029</ele>
        <time>2015-06-26T09:59:46Z</time>
      </trkpt>
      <trkpt lat="46.18157" lon="6.69655">
        <ele>1040</ele>
        <time>2015-06-26T09:59:50Z</time>
      </trkpt>
      <trkpt lat="46.18144" lon="6.69677">
        <ele>1032</ele>
        <time>2015-06-26T09:59:54Z</time>
      </trkpt>
      <trkpt lat="46.18129" lon="6.69699">
        <ele>1034</ele>
        <time>2015-06-26T09:59:58Z</time>
      </trkpt>
      <trkpt lat="46.18116" lon="6.69722">
        <ele>1034</ele>
        <time>2015-06-26T10:00:02Z</time>
      </trkpt>
      <trkpt lat="46.18102" lon="6.69743">
        <ele>1035</ele>
        <time>2015-06-26T10:00:06Z</time>
      </trkpt>
      <trkpt lat="46.18085" lon="6.69762">
        <ele>1027</ele>
        <time>2015-06-26T10:00:10Z</time>
      </trkpt>
      <trkpt lat="46.18063" lon="6.6979">
        <ele>1033</ele>
        <time>2015-06-26T10:00:16Z</time>
      </trkpt>
      <trkpt lat="46.1805" lon="6.69812">
        <ele>1031</ele>
        <time>2015-06-26T10:00:20Z</time>
      </trkpt>
      <trkpt lat="46.18041" lon="6.69835">
        <ele>1015</ele>
        <time>2015-06-26T10:00:24Z</time>
      </trkpt>
      <trkpt lat="46.18034" lon="6.69862">
        <ele>1013</ele>
        <time>2015-06-26T10:00:28Z</time>
      </trkpt>
      <trkpt lat="46.18024" lon="6.69891">
        <ele>1010</ele>
        <time>2015-06-26T10:00:32Z</time>
      </trkpt>
      <trkpt lat="46.18017" lon="6.69918">
        <ele>1000</ele>
        <time>2015-06-26T10:00:36Z</time>
      </trkpt>
      <trkpt lat="46.18012" lon="6.69942">
        <ele>998</ele>
        <time>2015-06-26T10:00:40Z</time>
      </trkpt>
      <trkpt lat="46.18007" lon="6.69966">
        <ele>996</ele>
        <time>2015-06-26T10:00:44Z</time>
      </trkpt>
      <trkpt lat="46.18007" lon="6.6998">
        <ele>995</ele>
        <time>2015-06-26T10:00:48Z</time>
      </trkpt>
      <trkpt lat="46.18014" lon="6.69982">
        <ele>995</ele>
        <time>2015-06-26T10:00:52Z</time>
      </trkpt>
      <trkpt lat="46.18023" lon="6.69992">
        <ele>994</ele>
        <time>2015-06-26T10:00:56Z</time>
      </trkpt>
      <trkpt lat="46.1803" lon="6.70006">
        <ele>989</ele>
        <time>2015-06-26T10:01:00Z</time>
      </trkpt>
      <trkpt lat="46.18029" lon="6.70035">
        <ele>988</ele>
        <time>2015-06-26T10:01:06Z</time>
      </trkpt>
      <trkpt lat="46.18033" lon="6.70047">
        <ele>987</ele>
        <time>2015-06-26T10:01:10Z</time>
      </trkpt>
      <trkpt lat="46.18044" lon="6.70046">
        <ele>987</ele>
        <time>2015-06-26T10:01:14Z</time>
      </trkpt>
      <trkpt lat="46.18056" lon="6.70049">
        <ele>986</ele>
        <time>2015-06-26T10:01:18Z</time>
      </trkpt>
      <trkpt lat="46.18067" lon="6.70064">
        <ele>985</ele>
        <time>2015-06-26T10:01:22Z</time>
      </trkpt>
      <trkpt lat="46.18076" lon="6.70086">
        <ele>981</ele>
        <time>2015-06-26T10:01:26Z</time>
      </trkpt>
      <trkpt lat="46.1809" lon="6.70105">
        <ele>980</ele>
        <time>2015-06-26T10:01:30Z</time>
      </trkpt>
      <trkpt lat="46.18099" lon="6.70121">
        <ele>979</ele>
        <time>2015-06-26T10:01:34Z</time>
      </trkpt>
      <trkpt lat="46.18128" lon="6.70167">
        <ele>978</ele>
        <time>2015-06-26T10:01:38Z</time>
      </trkpt>
      <trkpt lat="46.18139" lon="6.70184">
        <ele>978</ele>
        <time>2015-06-26T10:01:42Z</time>
      </trkpt>
      <trkpt lat="46.18151" lon="6.70203">
        <ele>977</ele>
        <time>2015-06-26T10:01:46Z</time>
      </trkpt>
      <trkpt lat="46.18164" lon="6.70226">
        <ele>977</ele>
        <time>2015-06-26T10:01:50Z</time>
      </trkpt>
      <trkpt lat="46.18178" lon="6.70249">
        <ele>975</ele>
        <time>2015-06-26T10:01:54Z</time>
      </trkpt>
      <trkpt lat="46.18197" lon="6.70277">
        <ele>974</ele>
        <time>2015-06-26T10:02:00Z</time>
      </trkpt>
      <trkpt lat="46.18209" lon="6.70296">
        <ele>974</ele>
        <time>2015-06-26T10:02:04Z</time>
      </trkpt>
      <trkpt lat="46.18219" lon="6.70309">
        <ele>974</ele>
        <time>2015-06-26T10:02:08Z</time>
      </trkpt>
      <trkpt lat="46.18228" lon="6.70302">
        <ele>974</ele>
        <time>2015-06-26T10:02:12Z</time>
      </trkpt>
      <trkpt lat="46.18238" lon="6.7029">
        <ele>974</ele>
        <time>2015-06-26T10:02:16Z</time>
      </trkpt>
      <trkpt lat="46.18247" lon="6.70277">
        <ele>973</ele>
        <time>2015-06-26T10:02:20Z</time>
      </trkpt>
      <trkpt lat="46.19641" lon="6.73245">
        <ele>1743</ele>
        <time>2015-06-26T10:02:24Z</time>
      </trkpt>
      <trkpt lat="46.19637" lon="6.73251">
        <ele>1743</ele>
        <time>2015-06-26T10:02:28Z</time>
      </trkpt>
      <trkpt lat="46.19633" lon="6.73261">
        <ele>1743</ele>
        <time>2015-06-26T10:02:32Z</time>
      </trkpt>
      <trkpt lat="46.19629" lon="6.73275">
        <ele>1742</ele>
        <time>2015-06-26T10:02:36Z</time>
      </trkpt>
      <trkpt lat="46.19622" lon="6.73294">
        <ele>1742</ele>
        <time>2015-06-26T10:02:40Z</time>
      </trkpt>
      <trkpt lat="46.19616" lon="6.73314">
        <ele>1742</ele>
        <time>2015-06-26T10:02:44Z</time>
      </trkpt>
      <trkpt lat="46.19609" lon="6.73338">
        <ele>1741</ele>
        <time>2015-06-26T10:02:48Z</time>
      </trkpt>
      <trkpt lat="46.19602" lon="6.73379">
        <ele>1740</ele>
        <time>2015-06-26T10:02:54Z</time>
      </trkpt>
      <trkpt lat="46.19604" lon="6.73418">
        <ele>1739</ele>
        <time>2015-06-26T10:02:58Z</time>
      </trkpt>
      <trkpt lat="46.1961" lon="6.73459">
        <ele>1738</ele>
        <time>2015-06-26T10:03:02Z</time>
      </trkpt>
      <trkpt lat="46.19616" lon="6.7349">
        <ele>1738</ele>
        <time>2015-06-26T10:03:06Z</time>
      </trkpt>
      <trkpt lat="46.1962" lon="6.73512">
        <ele>1737</ele>
        <time>2015-06-26T10:03:10Z</time>
      </trkpt>
      <trkpt lat="46.19627" lon="6.7353">
        <ele>1737</ele>
        <time>2015-06-26T10:03:14Z</time>
      </trkpt>
      <trkpt lat="46.19634" lon="6.73546">
        <ele>1738</ele>
        <time>2015-06-26T10:03:18Z</time>
      </trkpt>
      <trkpt lat="46.19641" lon="6.7356">
        <ele>1739</ele>
        <time>2015-06-26T10:03:22Z</time>
      </trkpt>
      <trkpt lat="46.19647" lon="6.73577">
        <ele>1741</ele>
        <time>2015-06-26T10:03:26Z</time>
      </trkpt>
      <trkpt lat="46.19656" lon="6.73596">
        <ele>1739</ele>
        <time>2015-06-26T10:03:30Z</time>
      </trkpt>
      <trkpt lat="46.19667" lon="6.73613">
        <ele>1740</ele>
        <time>2015-06-26T10:03:34Z</time>
      </trkpt>
      <trkpt lat="46.19677" lon="6.73628">
        <ele>1738</ele>
        <time>2015-06-26T10:03:38Z</time>
      </trkpt>
      <trkpt lat="46.19686" lon="6.7364">
        <ele>1738</ele>
        <time>2015-06-26T10:03:42Z</time>
      </trkpt>
      <trkpt lat="46.19699" lon="6.73658">
        <ele>1738</ele>
        <time>2015-06-26T10:03:48Z</time>
      </trkpt>
      <trkpt lat="46.19708" lon="6.73672">
        <ele>1739</ele>
        <time>2015-06-26T10:03:52Z</time>
      </trkpt>
      <trkpt lat="46.19719" lon="6.73686">
        <ele>1740</ele>
        <time>2015-06-26T10:03:56Z</time>
      </trkpt>
      <trkpt lat="46.19728" lon="6.73698">
        <ele>1741</ele>
        <time>2015-06-26T10:04:00Z</time>
      </trkpt>
      <trkpt lat="46.19737" lon="6.7371">
        <ele>1741</ele>
        <time>2015-06-26T10:04:04Z</time>
      </trkpt>
      <trkpt lat="46.19746" lon="6.73723">
        <ele>1743</ele>
        <time>2015-06-26T10:04:08Z</time>
      </trkpt>
      <trkpt lat="46.19754" lon="6.73736">
        <ele>1745</ele>
        <time>2015-06-26T10:04:12Z</time>
      </trkpt>
      <trkpt lat="46.19762" lon="6.73748">
        <ele>1745</ele>
        <time>2015-06-26T10:04:16Z</time>
      </trkpt>
      <trkpt lat="46.1977" lon="6.7376">
        <ele>1748</ele>
        <time>2015-06-26T10:04:20Z</time>
      </trkpt>
      <trkpt lat="46.19777" lon="6.73773">
        <ele>1748</ele>
        <time>2015-06-26T10:04:24Z</time>
      </trkpt>
      <trkpt lat="46.19785" lon="6.73785">
        <ele>1749</ele>
        <time>2015-06-26T10:04:28Z</time>
      </trkpt>
      <trkpt lat="46.19793" lon="6.73797">
        <ele>1749</ele>
        <time>2015-06-26T10:04:32Z</time>
      </trkpt>
      <trkpt lat="46.19803" lon="6.73814">
        <ele>1751</ele>
        <time>2015-06-26T10:04:38Z</time>
      </trkpt>
      <trkpt lat="46.19809" lon="6.73825">
        <ele>1753</ele>
        <time>2015-06-26T10:04:42Z</time>
      </trkpt>
      <trkpt lat="46.19814" lon="6.73836">
        <ele>1753</ele>
        <time>2015-06-26T10:04:46Z</time>
      </trkpt>
      <trkpt lat="46.19819" lon="6.73847">
        <ele>1753</ele>
        <time>2015-06-26T10:04:50Z</time>
      </trkpt>
      <trkpt lat="46.19825" lon="6.73859">
        <ele>1752</ele>
        <time>2015-06-26T10:04:54Z</time>
      </trkpt>
      <trkpt lat="46.19831" lon="6.73869">
        <ele>1752</ele>
        <time>2015-06-26T10:04:58Z</time>
      </trkpt>
      <trkpt lat="46.19837" lon="6.73881">
        <ele>1758</ele>
        <time>2015-06-26T10:05:02Z</time>
      </trkpt>
      <trkpt lat="46.19842" lon="6.73893">
        <ele>1758</ele>
        <time>2015-06-26T10:05:06Z</time>
      </trkpt>
      <trkpt lat="46.19846" lon="6.73906">
        <ele>1757</ele>
        <time>2015-06-26T10:05:10Z</time>
      </trkpt>
      <trkpt lat="46.1985" lon="6.73918">
        <ele>1756</ele>
        <time>2015-06-26T10:05:14Z</time>
      </trkpt>
      <trkpt lat="46.19855" lon="6.73929">
        <ele>1756</ele>
        <time>2015-06-26T10:05:18Z</time>
      </trkpt>
      <trkpt lat="46.1986" lon="6.73943">
        <ele>1756</ele>
        <time>2015-06-26T10:05:22Z</time>
      </trkpt>
      <trkpt lat="46.19866" lon="6.73953">
        <ele>1755</ele>
        <time>2015-06-26T10:05:26Z</time>
      </trkpt>
      <trkpt lat="46.19875" lon="6.73967">
        <ele>1755</ele>
        <time>2015-06-26T10:05:32Z</time>
      </trkpt>
      <trkpt lat="46.1988" lon="6.73977">
        <ele>1755</ele>
        <time>2015-06-26T10:05:36Z</time>
      </trkpt>
      <trkpt lat="46.19885" lon="6.73987">
        <ele>1755</ele>
        <time>2015-06-26T10:05:40Z</time>
      </trkpt>
      <trkpt lat="46.19892" lon="6.73997">
        <ele>1756</ele>
        <time>2015-06-26T10:05:44Z</time>
      </trkpt>
      <trkpt lat="46.19899" lon="6.74005">
        <ele>1753</ele>
        <time>2015-06-26T10:05:48Z</time>
      </trkpt>
      <trkpt lat="46.19904" lon="6.74011">
        <ele>1753</ele>
        <time>2015-06-26T10:05:52Z</time>
      </trkpt>
      <trkpt lat="46.1991" lon="6.74016">
        <ele>1753</ele>
        <time>2015-06-26T10:05:56Z</time>
      </trkpt>
      <trkpt lat="46.19916" lon="6.74023">
        <ele>1752</ele>
        <time>2015-06-26T10:06:00Z</time>
      </trkpt>
      <trkpt lat="46.19921" lon="6.74032">
        <ele>1752</ele>
        <time>2015-06-26T10:06:04Z</time>
      </trkpt>
      <trkpt lat="46.19926" lon="6.74043">
        <ele>1752</ele>
        <time>2015-06-26T10:06:08Z</time>
      </trkpt>
      <trkpt lat="46.19932" lon="6.74053">
        <ele>1752</ele>
        <time>2015-06-26T10:06:12Z</time>
      </trkpt>
      <trkpt lat="46.19938" lon="6.7406">
        <ele>1752</ele>
        <time>2015-06-26T10:06:16Z</time>
      </trkpt>
      <trkpt lat="46.19946" lon="6.74067">
        <ele>1752</ele>
        <time>2015-06-26T10:06:20Z</time>
      </trkpt>
      <trkpt lat="46.19957" lon="6.74077">
        <ele>1752</ele>
        <time>2015-06-26T10:06:26Z</time>
      </trkpt>
      <trkpt lat="46.19963" lon="6.74086">
        <ele>1755</ele>
        <time>2015-06-26T10:06:30Z</time>
      </trkpt>
      <trkpt lat="46.1997" lon="6.74095">
        <ele>1755</ele>
        <time>2015-06-26T10:06:34Z</time>
      </trkpt>
      <trkpt lat="46.19976" lon="6.74104">
        <ele>1755</ele>
        <time>2015-06-26T10:06:38Z</time>
      </trkpt>
      <trkpt lat="46.19983" lon="6.74111">
        <ele>1755</ele>
        <time>2015-06-26T10:06:42Z</time>
      </trkpt>
      <trkpt lat="46.19991" lon="6.74123">
        <ele>1756</ele>
        <time>2015-06-26T10:06:46Z</time>
      </trkpt>
      <trkpt lat="46.19999" lon="6.7414">
        <ele>1756</ele>
        <time>2015-06-26T10:06:50Z</time>
      </trkpt>
      <trkpt lat="46.20007" lon="6.74159">
        <ele>1756</ele>
        <time>2015-06-26T10:06:54Z</time>
      </trkpt>
      <trkpt lat="46.20013" lon="6.74178">
        <ele>1756</ele>
        <time>2015-06-26T10:06:58Z</time>
      </trkpt>
      <trkpt lat="46.20017" lon="6.74195">
        <ele>1755</ele>
        <time>2015-06-26T10:07:02Z</time>
      </trkpt>
      <trkpt lat="46.20022" lon="6.74211">
        <ele>1754</ele>
        <time>2015-06-26T10:07:06Z</time>
      </trkpt>
      <trkpt lat="46.20028" lon="6.74228">
        <ele>1754</ele>
        <time>2015-06-26T10:07:10Z</time>
      </trkpt>
      <trkpt lat="46.20035" lon="6.74246">
        <ele>1754</ele>
        <time>2015-06-26T10:07:16Z</time>
      </trkpt>
      <trkpt lat="46.20038" lon="6.74254">
        <ele>1755</ele>
        <time>2015-06-26T10:07:20Z</time>
      </trkpt>
      <trkpt lat="46.2004" lon="6.7426">
        <ele>1755</ele>
        <time>2015-06-26T10:07:24Z</time>
      </trkpt>
      <trkpt lat="46.20044" lon="6.74264">
        <ele>1755</ele>
        <time>2015-06-26T10:07:28Z</time>
      </trkpt>
      <trkpt lat="46.20048" lon="6.7427">
        <ele>1755</ele>
        <time>2015-06-26T10:07:32Z</time>
      </trkpt>
      <trkpt lat="46.20051" lon="6.74278">
        <ele>1755</ele>
        <time>2015-06-26T10:07:36Z</time>
      </trkpt>
      <trkpt lat="46.20052" lon="6.74285">
        <ele>1755</ele>
        <time>2015-06-26T10:07:40Z</time>
      </trkpt>
      <trkpt lat="46.20056" lon="6.74293">
        <ele>1755</ele>
        <time>2015-06-26T10:07:44Z</time>
      </trkpt>
      <trkpt lat="46.20059" lon="6.743">
        <ele>1755</ele>
        <time>2015-06-26T10:07:48Z</time>
      </trkpt>
      <trkpt lat="46.20063" lon="6.74309">
        <ele>1755</ele>
        <time>2015-06-26T10:07:52Z</time>
      </trkpt>
      <trkpt lat="46.20066" lon="6.74318">
        <ele>1756</ele>
        <time>2015-06-26T10:07:56Z</time>
      </trkpt>
      <trkpt lat="46.20069" lon="6.74327">
        <ele>1756</ele>
        <time>2015-06-26T10:08:00Z</time>
      </trkpt>
      <trkpt lat="46.2007" lon="6.74334">
        <ele>1755</ele>
        <time>2015-06-26T10:08:04Z</time>
      </trkpt>
      <trkpt lat="46.2007" lon="6.74349">
        <ele>1753</ele>
        <time>2015-06-26T10:08:10Z</time>
      </trkpt>
      <trkpt lat="46.20069" lon="6.74361">
        <ele>1752</ele>
        <time>2015-06-26T10:08:14Z</time>
      </trkpt>
      <trkpt lat="46.20069" lon="6.74377">
        <ele>1751</ele>
        <time>2015-06-26T10:08:18Z</time>
      </trkpt>
      <trkpt lat="46.20068" lon="6.74395">
        <ele>1750</ele>
        <time>2015-06-26T10:08:22Z</time>
      </trkpt>
      <trkpt lat="46.20066" lon="6.74415">
        <ele>1748</ele>
        <time>2015-06-26T10:08:26Z</time>
      </trkpt>
      <trkpt lat="46.20066" lon="6.74442">
        <ele>1745</ele>
        <time>2015-06-26T10:08:30Z</time>
      </trkpt>
      <trkpt lat="46.20073" lon="6.74478">
        <ele>1746</ele>
        <time>2015-06-26T10:08:34Z</time>
      </trkpt>
      <trkpt lat="46.20079" lon="6.74516">
        <ele>1744</ele>
        <time>2015-06-26T10:08:38Z</time>
      </trkpt>
      <trkpt lat="46.20085" lon="6.74552">
        <ele>1733</ele>
        <time>2015-06-26T10:08:42Z</time>
      </trkpt>
      <trkpt lat="46.2009" lon="6.74593">
        <ele>1736</ele>
        <time>2015-06-26T10:08:46Z</time>
      </trkpt>
      <trkpt lat="46.20095" lon="6.74635">
        <ele>1731</ele>
        <time>2015-06-26T10:08:50Z</time>
      </trkpt>
      <trkpt lat="46.20101" lon="6.74677">
        <ele>1735</ele>
        <time>2015-06-26T10:08:54Z</time>
      </trkpt>
      <trkpt lat="46.20105" lon="6.74717">
        <ele>1732</ele>
        <time>2015-06-26T10:08:58Z</time>
      </trkpt>
      <trkpt lat="46.2011" lon="6.74776">
        <ele>1733</ele>
        <time>2015-06-26T10:09:04Z</time>
      </trkpt>
      <trkpt lat="46.20113" lon="6.74811">
        <ele>1733</ele>
        <time>2015-06-26T10:09:08Z</time>
      </trkpt>
      <trkpt lat="46.20117" lon="6.7483">
        <ele>1733</ele>
        <time>2015-06-26T10:09:12Z</time>
      </trkpt>
      <trkpt lat="46.20119" lon="6.74841">
        <ele>1735</ele>
        <time>2015-06-26T10:09:16Z</time>
      </trkpt>
      <trkpt lat="46.20121" lon="6.74851">
        <ele>1735</ele>
        <time>2015-06-26T10:09:20Z</time>
      </trkpt>
      <trkpt lat="46.20123" lon="6.74861">
        <ele>1735</ele>
        <time>2015-06-26T10:09:24Z</time>
      </trkpt>
      <trkpt lat="46.20125" lon="6.7487">
        <ele>1735</ele>
        <time>2015-06-26T10:09:28Z</time>
      </trkpt>
      <trkpt lat="46.20126" lon="6.74878">
        <ele>1736</ele>
        <time>2015-06-26T10:09:32Z</time>
      </trkpt>
      <trkpt lat="46.20128" lon="6.74887">
        <ele>1736</ele>
        <time>2015-06-26T10:09:36Z</time>
      </trkpt>
      <trkpt lat="46.20128" lon="6.74896">
        <ele>1737</ele>
        <time>2015-06-26T10:09:40Z</time>
      </trkpt>
      <trkpt lat="46.20131" lon="6.74904">
        <ele>1737</ele>
        <time>2015-06-26T10:09:44Z</time>
      </trkpt>
      <trkpt lat="46.20134" lon="6.74913">
        <ele>1737</ele>
        <time>2015-06-26T10:09:48Z</time>
      </trkpt>
      <trkpt lat="46.20135" lon="6.74923">
        <ele>1742</ele>
        <time>2015-06-26T10:09:52Z</time>
      </trkpt>
      <trkpt lat="46.20139" lon="6.74937">
        <ele>1743</ele>
        <time>2015-06-26T10:09:58Z</time>
      </trkpt>
      <trkpt lat="46.20141" lon="6.74947">
        <ele>1743</ele>
        <time>2015-06-26T10:10:02Z</time>
      </trkpt>
      <trkpt lat="46.20143" lon="6.74957">
        <ele>1744</ele>
        <time>2015-06-26T10:10:06Z</time>
      </trkpt>
      <trkpt lat="46.20145" lon="6.74966">
        <ele>1745</ele>
        <time>2015-06-26T10:10:10Z</time>
      </trkpt>
      <trkpt lat="46.20146" lon="6.74976">
        <ele>1746</ele>
        <time>2015-06-26T10:10:14Z</time>
      </trkpt>
      <trkpt lat="46.20148" lon="6.74985">
        <ele>1747</ele>
        <time>2015-06-26T10:10:18Z</time>
      </trkpt>
      <trkpt lat="46.20149" lon="6.74995">
        <ele>1748</ele>
        <time>2015-06-26T10:10:22Z</time>
      </trkpt>
      <trkpt lat="46.2015" lon="6.75005">
        <ele>1751</ele>
        <time>2015-06-26T10:10:26Z</time>
      </trkpt>
      <trkpt lat="46.20151" lon="6.75015">
        <ele>1751</ele>
        <time>2015-06-26T10:10:30Z</time>
      </trkpt>
      <trkpt lat="46.20153" lon="6.75022">
        <ele>1751</ele>
        <time>2015-06-26T10:10:34Z</time>
      </trkpt>
      <trkpt lat="46.20154" lon="6.75031">
        <ele>1751</ele>
        <time>2015-06-26T10:10:38Z</time>
      </trkpt>
      <trkpt lat="46.20156" lon="6.75039">
        <ele>1752</ele>
        <time>2015-06-26T10:10:42Z</time>
      </trkpt>
      <trkpt lat="46.2016" lon="6.75051">
        <ele>1753</ele>
        <time>2015-06-26T10:10:48Z</time>
      </trkpt>
      <trkpt lat="46.20162" lon="6.75059">
        <ele>1754</ele>
        <time>2015-06-26T10:10:52Z</time>
      </trkpt>
      <trkpt lat="46.20163" lon="6.75068">
        <ele>1755</ele>
        <time>2015-06-26T10:10:56Z</time>
      </trkpt>
      <trkpt lat="46.20165" lon="6.75079">
        <ele>1759</ele>
        <time>2015-06-26T10:11:00Z</time>
      </trkpt>
      <trkpt lat="46.20168" lon="6.75093">
        <ele>1756</ele>
        <time>2015-06-26T10:11:04Z</time>
      </trkpt>
      <trkpt lat="46.20171" lon="6.75105">
        <ele>1752</ele>
        <time>2015-06-26T10:11:08Z</time>
      </trkpt>
      <trkpt lat="46.20172" lon="6.75116">
        <ele>1751</ele>
        <time>2015-06-26T10:11:12Z</time>
      </trkpt>
      <trkpt lat="46.20173" lon="6.75126">
        <ele>1751</ele>
        <time>2015-06-26T10:11:16Z</time>
      </trkpt>
      <trkpt lat="46.20173" lon="6.75125">
        <ele>1751</ele>
        <time>2015-06-26T10:11:20Z</time>
      </trkpt>
      <trkpt lat="46.20168" lon="6.75136">
        <ele>1752</ele>
        <time>2015-06-26T10:11:24Z</time>
      </trkpt>
      <trkpt lat="46.20163" lon="6.75164">
        <ele>1758</ele>
        <time>2015-06-26T10:11:28Z</time>
      </trkpt>
      <trkpt lat="46.20157" lon="6.75194">
        <ele>1755</ele>
        <time>2015-06-26T10:11:32Z</time>
      </trkpt>
      <trkpt lat="46.20155" lon="6.75222">
        <ele>1755</ele>
        <time>2015-06-26T10:11:36Z</time>
      </trkpt>
      <trkpt lat="46.2015" lon="6.75273">
        <ele>1757</ele>
        <time>2015-06-26T10:11:42Z</time>
      </trkpt>
      <trkpt lat="46.20151" lon="6.75303">
        <ele>1758</ele>
        <time>2015-06-26T10:11:46Z</time>
      </trkpt>
      <trkpt lat="46.20152" lon="6.75321">
        <ele>1760</ele>
        <time>2015-06-26T10:11:50Z</time>
      </trkpt>
      <trkpt lat="46.20153" lon="6.75335">
        <ele>1763</ele>
        <time>2015-06-26T10:11:54Z</time>
      </trkpt>
      <trkpt lat="46.20154" lon="6.75347">
        <ele>1763</ele>
        <time>2015-06-26T10:11:58Z</time>
      </trkpt>
      <trkpt lat="46.20156" lon="6.75359">
        <ele>1762</ele>
        <time>2015-06-26T10:12:02Z</time>
      </trkpt>
      <trkpt lat="46.20158" lon="6.7537">
        <ele>1762</ele>
        <time>2015-06-26T10:12:06Z</time>
      </trkpt>
      <trkpt lat="46.20159" lon="6.75381">
        <ele>1763</ele>
        <time>2015-06-26T10:12:10Z</time>
      </trkpt>
      <trkpt lat="46.20161" lon="6.7539">
        <ele>1764</ele>
        <time>2015-06-26T10:12:14Z</time>
      </trkpt>
      <trkpt lat="46.20162" lon="6.754">
        <ele>1766</ele>
        <time>2015-06-26T10:12:18Z</time>
      </trkpt>
      <trkpt lat="46.20165" lon="6.75409">
        <ele>1768</ele>
        <time>2015-06-26T10:12:22Z</time>
      </trkpt>
      <trkpt lat="46.20169" lon="6.75416">
        <ele>1772</ele>
        <time>2015-06-26T10:12:26Z</time>
      </trkpt>
      <trkpt lat="46.20172" lon="6.75424">
        <ele>1773</ele>
        <time>2015-06-26T10:12:30Z</time>
      </trkpt>
      <trkpt lat="46.20174" lon="6.75437">
        <ele>1773</ele>
        <time>2015-06-26T10:12:36Z</time>
      </trkpt>
      <trkpt lat="46.20176" lon="6.75446">
        <ele>1773</ele>
        <time>2015-06-26T10:12:40Z</time>
      </trkpt>
      <trkpt lat="46.20176" lon="6.75454">
        <ele>1774</ele>
        <time>2015-06-26T10:12:44Z</time>
      </trkpt>
      <trkpt lat="46.20176" lon="6.75464">
        <ele>1774</ele>
        <time>2015-06-26T10:12:48Z</time>
      </trkpt>
      <trkpt lat="46.20176" lon="6.75474">
        <ele>1774</ele>
        <time>2015-06-26T10:12:52Z</time>
      </trkpt>
      <trkpt lat="46.20175" lon="6.75485">
        <ele>1774</ele>
        <time>2015-06-26T10:12:56Z</time>
      </trkpt>
      <trkpt lat="46.20174" lon="6.75498">
        <ele>1774</ele>
        <time>2015-06-26T10:13:00Z</time>
      </trkpt>
      <trkpt lat="46.20174" lon="6.75512">
        <ele>1775</ele>
        <time>2015-06-26T10:13:04Z</time>
      </trkpt>
      <trkpt lat="46.20174" lon="6.75527">
        <ele>1776</ele>
        <time>2015-06-26T10:13:08Z</time>
      </trkpt>
      <trkpt lat="46.20168" lon="6.7555">
        <ele>1776</ele>
        <time>2015-06-26T10:13:12Z</time>
      </trkpt>
      <trkpt lat="46.20161" lon="6.75581">
        <ele>1774</ele>
        <time>2015-06-26T10:13:16Z</time>
      </trkpt>
      <trkpt lat="46.20154" lon="6.75611">
        <ele>1770</ele>
        <time>2015-06-26T10:13:20Z</time>
      </trkpt>
      <trkpt lat="46.20143" lon="6.75641">
        <ele>1770</ele>
        <time>2015-06-26T10:13:24Z</time>
      </trkpt>
      <trkpt lat="46.20119" lon="6.75691">
        <ele>1767</ele>
        <time>2015-06-26T10:13:30Z</time>
      </trkpt>
      <trkpt lat="46.20099" lon="6.75725">
        <ele>1766</ele>
        <time>2015-06-26T10:13:34Z</time>
      </trkpt>
      <trkpt lat="46.20079" lon="6.75756">
        <ele>1762</ele>
        <time>2015-06-26T10:13:38Z</time>
      </trkpt>
      <trkpt lat="46.20067" lon="6.75774">
        <ele>1759</ele>
        <time>2015-06-26T10:13:42Z</time>
      </trkpt>
      <trkpt lat="46.20056" lon="6.75782">
        <ele>1758</ele>
        <time>2015-06-26T10:13:46Z</time>
      </trkpt>
      <trkpt lat="46.20053" lon="6.75792">
        <ele>1758</ele>
        <time>2015-06-26T10:13:50Z</time>
      </trkpt>
      <trkpt lat="46.20051" lon="6.75803">
        <ele>1758</ele>
        <time>2015-06-26T10:13:54Z</time>
      </trkpt>
      <trkpt lat="46.2005" lon="6.75809">
        <ele>1758</ele>
        <time>2015-06-26T10:13:58Z</time>
      </trkpt>
      <trkpt lat="46.2005" lon="6.75814">
        <ele>1758</ele>
        <time>2015-06-26T10:14:02Z</time>
      </trkpt>
      <trkpt lat="46.2005" lon="6.75825">
        <ele>1759</ele>
        <time>2015-06-26T10:14:06Z</time>
      </trkpt>
      <trkpt lat="46.20051" lon="6.75833">
        <ele>1759</ele>
        <time>2015-06-26T10:14:10Z</time>
      </trkpt>
      <trkpt lat="46.20052" lon="6.7584">
        <ele>1758</ele>
        <time>2015-06-26T10:14:14Z</time>
      </trkpt>
      <trkpt lat="46.20051" lon="6.75852">
        <ele>1757</ele>
        <time>2015-06-26T10:14:20Z</time>
      </trkpt>
      <trkpt lat="46.2005" lon="6.75856">
        <ele>1757</ele>
        <time>2015-06-26T10:14:24Z</time>
      </trkpt>
      <trkpt lat="46.20048" lon="6.75864">
        <ele>1756</ele>
        <time>2015-06-26T10:14:28Z</time>
      </trkpt>
      <trkpt lat="46.20045" lon="6.75869">
        <ele>1756</ele>
        <time>2015-06-26T10:14:32Z</time>
      </trkpt>
      <trkpt lat="46.20042" lon="6.75871">
        <ele>1756</ele>
        <time>2015-06-26T10:14:36Z</time>
      </trkpt>
      <trkpt lat="46.2004" lon="6.75874">
        <ele>1756</ele>
        <time>2015-06-26T10:14:40Z</time>
      </trkpt>
      <trkpt lat="46.20034" lon="6.75883">
        <ele>1756</ele>
        <time>2015-06-26T10:14:44Z</time>
      </trkpt>
      <trkpt lat="46.20026" lon="6.75894">
        <ele>1756</ele>
        <time>2015-06-26T10:14:48Z</time>
      </trkpt>
      <trkpt lat="46.20019" lon="6.75906">
        <ele>1756</ele>
        <time>2015-06-26T10:14:52Z</time>
      </trkpt>
      <trkpt lat="46.20015" lon="6.75916">
        <ele>1757</ele>
        <time>2015-06-26T10:14:56Z</time>
      </trkpt>
      <trkpt lat="46.20014" lon="6.75926">
        <ele>1753</ele>
        <time>2015-06-26T10:15:00Z</time>
      </trkpt>
      <trkpt lat="46.2002" lon="6.75926">
        <ele>1752</ele>
        <time>2015-06-26T10:15:04Z</time>
      </trkpt>
      <trkpt lat="46.20023" lon="6.75922">
        <ele>1752</ele>
        <time>2015-06-26T10:15:08Z</time>
      </trkpt>
      <trkpt lat="46.20041" lon="6.75905">
        <ele>1755</ele>
        <time>2015-06-26T10:15:14Z</time>
      </trkpt>
      <trkpt lat="46.20061" lon="6.75892">
        <ele>1754</ele>
        <time>2015-06-26T10:15:18Z</time>
      </trkpt>
      <trkpt lat="46.20082" lon="6.75887">
        <ele>1754</ele>
        <time>2015-06-26T10:15:22Z</time>
      </trkpt>
      <trkpt lat="46.20072" lon="6.75909">
        <ele>1752</ele>
        <time>2015-06-26T10:15:26Z</time>
      </trkpt>
      <trkpt lat="46.20049" lon="6.75922">
        <ele>1748</ele>
        <time>2015-06-26T10:15:30Z</time>
      </trkpt>
      <trkpt lat="46.20051" lon="6.75948">
        <ele>1747</ele>
        <time>2015-06-26T10:15:34Z</time>
      </trkpt>
      <trkpt lat="46.2007" lon="6.75936">
        <ele>1747</ele>
        <time>2015-06-26T10:15:38Z</time>
      </trkpt>
      <trkpt lat="46.20091" lon="6.75914">
        <ele>1747</ele>
        <time>2015-06-26T10:15:42Z</time>
      </trkpt>
      <trkpt lat="46.20117" lon="6.75889">
        <ele>1746</ele>
        <time>2015-06-26T10:15:46Z</time>
      </trkpt>
      <trkpt lat="46.20146" lon="6.75866">
        <ele>1747</ele>
        <time>2015-06-26T10:15:50Z</time>
      </trkpt>
      <trkpt lat="46.20178" lon="6.75842">
        <ele>1742</ele>
        <time>2015-06-26T10:15:54Z</time>
      </trkpt>
      <trkpt lat="46.20213" lon="6.75819">
        <ele>1748</ele>
        <time>2015-06-26T10:15:58Z</time>
      </trkpt>
      <trkpt lat="46.20249" lon="6.75817">
        <ele>1740</ele>
        <time>2015-06-26T10:16:02Z</time>
      </trkpt>
      <trkpt lat="46.20289" lon="6.7579">
        <ele>1727</ele>
        <time>2015-06-26T10:16:08Z</time>
      </trkpt>
      <trkpt lat="46.20292" lon="6.75814">
        <ele>1725</ele>
        <time>2015-06-26T10:16:12Z</time>
      </trkpt>
      <trkpt lat="46.20271" lon="6.75833">
        <ele>1727</ele>
        <time>2015-06-26T10:16:16Z</time>
      </trkpt>
      <trkpt lat="46.20239" lon="6.75843">
        <ele>1729</ele>
        <time>2015-06-26T10:16:20Z</time>
      </trkpt>
      <trkpt lat="46.20212" lon="6.7588">
        <ele>1727</ele>
        <time>2015-06-26T10:16:24Z</time>
      </trkpt>
      <trkpt lat="46.20181" lon="6.75917">
        <ele>1716</ele>
        <time>2015-06-26T10:16:28Z</time>
      </trkpt>
      <trkpt lat="46.20145" lon="6.75948">
        <ele>1724</ele>
        <time>2015-06-26T10:16:32Z</time>
      </trkpt>
      <trkpt lat="46.20119" lon="6.75984">
        <ele>1724</ele>
        <time>2015-06-26T10:16:36Z</time>
      </trkpt>
      <trkpt lat="46.20105" lon="6.76033">
        <ele>1712</ele>
        <time>2015-06-26T10:16:40Z</time>
      </trkpt>
      <trkpt lat="46.20101" lon="6.76084">
        <ele>1706</ele>
        <time>2015-06-26T10:16:44Z</time>
      </trkpt>
      <trkpt lat="46.20094" lon="6.7613">
        <ele>1700</ele>
        <time>2015-06-26T10:16:48Z</time>
      </trkpt>
      <trkpt lat="46.20076" lon="6.76173">
        <ele>1709</ele>
        <time>2015-06-26T10:16:52Z</time>
      </trkpt>
      <trkpt lat="46.20067" lon="6.76229">
        <ele>1711</ele>
        <time>2015-06-26T10:16:56Z</time>
      </trkpt>
      <trkpt lat="46.20069" lon="6.76323">
        <ele>1702</ele>
        <time>2015-06-26T10:17:02Z</time>
      </trkpt>
      <trkpt lat="46.20076" lon="6.76381">
        <ele>1705</ele>
        <time>2015-06-26T10:17:06Z</time>
      </trkpt>
      <trkpt lat="46.20086" lon="6.76431">
        <ele>1686</ele>
        <time>2015-06-26T10:17:10Z</time>
      </trkpt>
      <trkpt lat="46.2008" lon="6.76474">
        <ele>1704</ele>
        <time>2015-06-26T10:17:14Z</time>
      </trkpt>
      <trkpt lat="46.2009" lon="6.76489">
        <ele>1687</ele>
        <time>2015-06-26T10:17:18Z</time>
      </trkpt>
      <trkpt lat="46.20097" lon="6.76465">
        <ele>1683</ele>
        <time>2015-06-26T10:17:22Z</time>
      </trkpt>
      <trkpt lat="46.20098" lon="6.76427">
        <ele>1684</ele>
        <time>2015-06-26T10:17:26Z</time>
      </trkpt>
      <trkpt lat="46.20099" lon="6.76381">
        <ele>1682</ele>
        <time>2015-06-26T10:17:30Z</time>
      </trkpt>
      <trkpt lat="46.20121" lon="6.76348">
        <ele>1680</ele>
        <time>2015-06-26T10:17:34Z</time>
      </trkpt>
      <trkpt lat="46.20148" lon="6.76334">
        <ele>1675</ele>
        <time>2015-06-26T10:17:38Z</time>
      </trkpt>
      <trkpt lat="46.20148" lon="6.76291">
        <ele>1676</ele>
        <time>2015-06-26T10:17:42Z</time>
      </trkpt>
      <trkpt lat="46.20152" lon="6.76248">
        <ele>1675</ele>
        <time>2015-06-26T10:17:46Z</time>
      </trkpt>
      <trkpt lat="46.20198" lon="6.76243">
        <ele>1665</ele>
        <time>2015-06-26T10:17:52Z</time>
      </trkpt>
      <trkpt lat="46.2023" lon="6.76235">
        <ele>1661</ele>
        <time>2015-06-26T10:17:56Z</time>
      </trkpt>
      <trkpt lat="46.20259" lon="6.76202">
        <ele>1655</ele>
        <time>2015-06-26T10:18:00Z</time>
      </trkpt>
      <trkpt lat="46.20289" lon="6.7617">
        <ele>1655</ele>
        <time>2015-06-26T10:18:04Z</time>
      </trkpt>
      <trkpt lat="46.20313" lon="6.7615">
        <ele>1657</ele>
        <time>2015-06-26T10:18:08Z</time>
      </trkpt>
      <trkpt lat="46.20321" lon="6.7618">
        <ele>1653</ele>
        <time>2015-06-26T10:18:12Z</time>
      </trkpt>
      <trkpt lat="46.20317" lon="6.76224">
        <ele>1652</ele>
        <time>2015-06-26T10:18:16Z</time>
      </trkpt>
      <trkpt lat="46.20302" lon="6.76262">
        <ele>1647</ele>
        <time>2015-06-26T10:18:20Z</time>
      </trkpt>
      <trkpt lat="46.20286" lon="6.76311">
        <ele>1646</ele>
        <time>2015-06-26T10:18:24Z</time>
      </trkpt>
      <trkpt lat="46.20271" lon="6.76366">
        <ele>1641</ele>
        <time>2015-06-26T10:18:28Z</time>
      </trkpt>
      <trkpt lat="46.20267" lon="6.76418">
        <ele>1639</ele>
        <time>2015-06-26T10:18:32Z</time>
      </trkpt>
      <trkpt lat="46.20251" lon="6.76457">
        <ele>1637</ele>
        <time>2015-06-26T10:18:36Z</time>
      </trkpt>
      <trkpt lat="46.20244" lon="6.76484">
        <ele>1647</ele>
        <time>2015-06-26T10:18:40Z</time>
      </trkpt>
      <trkpt lat="46.20271" lon="6.76471">
        <ele>1635</ele>
        <time>2015-06-26T10:18:46Z</time>
      </trkpt>
      <trkpt lat="46.20291" lon="6.76441">
        <ele>1634</ele>
        <time>2015-06-26T10:18:50Z</time>
      </trkpt>
      <trkpt lat="46.20322" lon="6.76429">
        <ele>1630</ele>
        <time>2015-06-26T10:18:54Z</time>
      </trkpt>
      <trkpt lat="46.20358" lon="6.76432">
        <ele>1622</ele>
        <time>2015-06-26T10:18:58Z</time>
      </trkpt>
      <trkpt lat="46.20392" lon="6.76455">
        <ele>1619</ele>
        <time>2015-06-26T10:19:02Z</time>
      </trkpt>
      <trkpt lat="46.20431" lon="6.7646">
        <ele>1611</ele>
        <time>2015-06-26T10:19:06Z</time>
      </trkpt>
      <trkpt lat="46.2047" lon="6.76452">
        <ele>1608</ele>
        <time>2015-06-26T10:19:10Z</time>
      </trkpt>
      <trkpt lat="46.20502" lon="6.76438">
        <ele>1601</ele>
        <time>2015-06-26T10:19:14Z</time>
      </trkpt>
      <trkpt lat="46.2051" lon="6.76406">
        <ele>1604</ele>
        <time>2015-06-26T10:19:18Z</time>
      </trkpt>
      <trkpt lat="46.20505" lon="6.7636">
        <ele>1603</ele>
        <time>2015-06-26T10:19:22Z</time>
      </trkpt>
      <trkpt lat="46.20517" lon="6.76309">
        <ele>1602</ele>
        <time>2015-06-26T10:19:26Z</time>
      </trkpt>
      <trkpt lat="46.20539" lon="6.76268">
        <ele>1599</ele>
        <time>2015-06-26T10:19:30Z</time>
      </trkpt>
      <trkpt lat="46.20562" lon="6.76234">
        <ele>1595</ele>
        <time>2015-06-26T10:19:34Z</time>
      </trkpt>
      <trkpt lat="46.20575" lon="6.76171">
        <ele>1591</ele>
        <time>2015-06-26T10:19:40Z</time>
      </trkpt>
      <trkpt lat="46.20597" lon="6.76155">
        <ele>1584</ele>
        <time>2015-06-26T10:19:44Z</time>
      </trkpt>
      <trkpt lat="46.20601" lon="6.76186">
        <ele>1586</ele>
        <time>2015-06-26T10:19:48Z</time>
      </trkpt>
      <trkpt lat="46.20592" lon="6.76219">
        <ele>1586</ele>
        <time>2015-06-26T10:19:52Z</time>
      </trkpt>
      <trkpt lat="46.20601" lon="6.76253">
        <ele>1588</ele>
        <time>2015-06-26T10:19:56Z</time>
      </trkpt>
      <trkpt lat="46.20622" lon="6.76276">
        <ele>1587</ele>
        <time>2015-06-26T10:20:00Z</time>
      </trkpt>
      <trkpt lat="46.2063" lon="6.76308">
        <ele>1587</ele>
        <time>2015-06-26T10:20:04Z</time>
      </trkpt>
      <trkpt lat="46.20622" lon="6.76342">
        <ele>1589</ele>
        <time>2015-06-26T10:20:08Z</time>
      </trkpt>
      <trkpt lat="46.20632" lon="6.76373">
        <ele>1589</ele>
        <time>2015-06-26T10:20:12Z</time>
      </trkpt>
      <trkpt lat="46.20654" lon="6.76389">
        <ele>1588</ele>
        <time>2015-06-26T10:20:16Z</time>
      </trkpt>
      <trkpt lat="46.20681" lon="6.76393">
        <ele>1582</ele>
        <time>2015-06-26T10:20:20Z</time>
      </trkpt>
      <trkpt lat="46.20709" lon="6.76398">
        <ele>1580</ele>
        <time>2015-06-26T10:20:24Z</time>
      </trkpt>
      <trkpt lat="46.20736" lon="6.76404">
        <ele>1579</ele>
        <time>2015-06-26T10:20:28Z</time>
      </trkpt>
      <trkpt lat="46.20763" lon="6.76434">
        <ele>1560</ele>
        <time>2015-06-26T10:20:34Z</time>
      </trkpt>
      <trkpt lat="46.20761" lon="6.76474">
        <ele>1556</ele>
        <time>2015-06-26T10:20:38Z</time>
      </trkpt>
      <trkpt lat="46.20751" lon="6.76517">
        <ele>1555</ele>
        <time>2015-06-26T10:20:42Z</time>
      </trkpt>
      <trkpt lat="46.20737" lon="6.76564">
        <ele>1574</ele>
        <time>2015-06-26T10:20:46Z</time>
      </trkpt>
      <trkpt lat="46.20716" lon="6.76609">
        <ele>1571</ele>
        <time>2015-06-26T10:20:50Z</time>
      </trkpt>
      <trkpt lat="46.20695" lon="6.76654">
        <ele>1572</ele>
        <time>2015-06-26T10:20:54Z</time>
      </trkpt>
      <trkpt lat="46.20678" lon="6.76702">
        <ele>1567</ele>
        <time>2015-06-26T10:20:58Z</time>
      </trkpt>
      <trkpt lat="46.20676" lon="6.76753">
        <ele>1569</ele>
        <time>2015-06-26T10:21:02Z</time>
      </trkpt>
      <trkpt lat="46.20692" lon="6.76793">
        <ele>1564</ele>
        <time>2015-06-26T10:21:06Z</time>
      </trkpt>
      <trkpt lat="46.20715" lon="6.76828">
        <ele>1561</ele>
        <time>2015-06-26T10:21:10Z</time>
      </trkpt>
      <trkpt lat="46.20727" lon="6.76873">
        <ele>1564</ele>
        <time>2015-06-26T10:21:14Z</time>
      </trkpt>
      <trkpt lat="46.20732" lon="6.76915">
        <ele>1561</ele>
        <time>2015-06-26T10:21:18Z</time>
      </trkpt>
      <trkpt lat="46.2073" lon="6.76976">
        <ele>1562</ele>
        <time>2015-06-26T10:21:24Z</time>
      </trkpt>
      <trkpt lat="46.20731" lon="6.7702">
        <ele>1558</ele>
        <time>2015-06-26T10:21:28Z</time>
      </trkpt>
      <trkpt lat="46.20722" lon="6.7706">
        <ele>1558</ele>
        <time>2015-06-26T10:21:32Z</time>
      </trkpt>
      <trkpt lat="46.20706" lon="6.77096">
        <ele>1559</ele>
        <time>2015-06-26T10:21:36Z</time>
      </trkpt>
      <trkpt lat="46.20698" lon="6.77128">
        <ele>1560</ele>
        <time>2015-06-26T10:21:40Z</time>
      </trkpt>
      <trkpt lat="46.20708" lon="6.77155">
        <ele>1558</ele>
        <time>2015-06-26T10:21:44Z</time>
      </trkpt>
      <trkpt lat="46.20727" lon="6.77181">
        <ele>1555</ele>
        <time>2015-06-26T10:21:48Z</time>
      </trkpt>
      <trkpt lat="46.20751" lon="6.77205">
        <ele>1546</ele>
        <time>2015-06-26T10:21:52Z</time>
      </trkpt>
      <trkpt lat="46.20779" lon="6.77208">
        <ele>1545</ele>
        <time>2015-06-26T10:21:56Z</time>
      </trkpt>
      <trkpt lat="46.208" lon="6.77218">
        <ele>1544</ele>
        <time>2015-06-26T10:22:00Z</time>
      </trkpt>
      <trkpt lat="46.20802" lon="6.77255">
        <ele>1545</ele>
        <time>2015-06-26T10:22:04Z</time>
      </trkpt>
      <trkpt lat="46.20796" lon="6.77296">
        <ele>1545</ele>
        <time>2015-06-26T10:22:08Z</time>
      </trkpt>
      <trkpt lat="46.20806" lon="6.77325">
        <ele>1543</ele>
        <time>2015-06-26T10:22:12Z</time>
      </trkpt>
      <trkpt lat="46.20842" lon="6.77318">
        <ele>1527</ele>
        <time>2015-06-26T10:22:18Z</time>
      </trkpt>
      <trkpt lat="46.20849" lon="6.77347">
        <ele>1523</ele>
        <time>2015-06-26T10:22:22Z</time>
      </trkpt>
      <trkpt lat="46.20849" lon="6.77387">
        <ele>1519</ele>
        <time>2015-06-26T10:22:26Z</time>
      </trkpt>
      <trkpt lat="46.2084" lon="6.77428">
        <ele>1522</ele>
        <time>2015-06-26T10:22:30Z</time>
      </trkpt>
      <trkpt lat="46.20821" lon="6.77459">
        <ele>1528</ele>
        <time>2015-06-26T10:22:34Z</time>
      </trkpt>
      <trkpt lat="46.20794" lon="6.77484">
        <ele>1528</ele>
        <time>2015-06-26T10:22:38Z</time>
      </trkpt>
      <trkpt lat="46.20765" lon="6.77509">
        <ele>1522</ele>
        <time>2015-06-26T10:22:42Z</time>
      </trkpt>
      <trkpt lat="46.20735" lon="6.77534">
        <ele>1525</ele>
        <time>2015-06-26T10:22:46Z</time>
      </trkpt>
      <trkpt lat="46.20702" lon="6.77554">
        <ele>1523</ele>
        <time>2015-06-26T10:22:50Z</time>
      </trkpt>
      <trkpt lat="46.20674" lon="6.77572">
        <ele>1521</ele>
        <time>2015-06-26T10:22:54Z</time>
      </trkpt>
      <trkpt lat="46.20651" lon="6.77597">
        <ele>1519</ele>
        <time>2015-06-26T10:22:58Z</time>
      </trkpt>
      <trkpt lat="46.20631" lon="6.77617">
        <ele>1519</ele>
        <time>2015-06-26T10:23:02Z</time>
      </trkpt>
      <trkpt lat="46.20629" lon="6.7764">
        <ele>1517</ele>
        <time>2015-06-26T10:23:06Z</time>
      </trkpt>
      <trkpt lat="46.20629" lon="6.7766">
        <ele>1515</ele>
        <time>2015-06-26T10:23:12Z</time>
      </trkpt>
      <trkpt lat="46.2064" lon="6.77678">
        <ele>1506</ele>
        <time>2015-06-26T10:23:16Z</time>
      </trkpt>
      <trkpt lat="46.2065" lon="6.77696">
        <ele>1505</ele>
        <time>2015-06-26T10:23:20Z</time>
      </trkpt>
      <trkpt lat="46.2066" lon="6.77712">
        <ele>1504</ele>
        <time>2015-06-26T10:23:24Z</time>
      </trkpt>
      <trkpt lat="46.20672" lon="6.7772">
        <ele>1500</ele>
        <time>2015-06-26T10:23:28Z</time>
      </trkpt>
      <trkpt lat="46.20685" lon="6.77729">
        <ele>1500</ele>
        <time>2015-06-26T10:23:32Z</time>
      </trkpt>
      <trkpt lat="46.20698" lon="6.77733">
        <ele>1500</ele>
        <time>2015-06-26T10:23:36Z</time>
      </trkpt>
      <trkpt lat="46.2071" lon="6.77724">
        <ele>1500</ele>
        <time>2015-06-26T10:23:40Z</time>
      </trkpt>
      <trkpt lat="46.20722" lon="6.77713">
        <ele>1500</ele>
        <time>2015-06-26T10:23:44Z</time>
      </trkpt>
      <trkpt lat="46.20735" lon="6.77702">
        <ele>1500</ele>
        <time>2015-06-26T10:23:48Z</time>
      </trkpt>
      <trkpt lat="46.20747" lon="6.77691">
        <ele>1500</ele>
        <time>2015-06-26T10:23:52Z</time>
      </trkpt>
      <trkpt lat="46.20759" lon="6.77691">
        <ele>1503</ele>
        <time>2015-06-26T10:23:56Z</time>
      </trkpt>
      <trkpt lat="46.20769" lon="6.77693">
        <ele>1504</ele>
        <time>2015-06-26T10:24:00Z</time>
      </trkpt>
    </trkseg>
  </trk>
</gpx>